<?xml version="1.0" encoding="UTF-8" standalone="no" ?>
<gpx xmlns="http://www.topografix.com/GPX/1/1" xmlns:xsi="http://www.w3.org/2001/XMLSchema-instance" xsi:schemaLocation="http://www.topografix.com/GPX/1/1 http://www.topografix.com/GPX/1/1/gpx.xsd" version="1.1" creator="VisuGPX - https://www.visugpx.com">
  <metadata>
    <name>Chalet des Platières-2021-07-05</name>
  </metadata>
  <trk>
    <name><![CDATA[TRK-2021-07-05]]></name>
    <trkseg>
      <trkpt lat="45.43005" lon="6.18299">
        <ele>1144.3204</ele>
        <time>2021-07-05T11:06:45</time>
      </trkpt>
      <trkpt lat="45.43005" lon="6.183">
        <ele>1144.3204</ele>
        <time>2021-07-05T11:07:07</time>
      </trkpt>
      <trkpt lat="45.43005" lon="6.18299">
        <ele>1144.3204</ele>
        <time>2021-07-05T11:07:08</time>
      </trkpt>
      <trkpt lat="45.43005" lon="6.18298">
        <ele>1144.3204</ele>
        <time>2021-07-05T11:07:09</time>
      </trkpt>
      <trkpt lat="45.43006" lon="6.18297">
        <ele>1144.3204</ele>
        <time>2021-07-05T11:07:10</time>
      </trkpt>
      <trkpt lat="45.43008" lon="6.18291">
        <ele>1144.3204</ele>
        <time>2021-07-05T11:07:55</time>
      </trkpt>
      <trkpt lat="45.43008" lon="6.18292">
        <ele>1144.3204</ele>
        <time>2021-07-05T11:07:56</time>
      </trkpt>
      <trkpt lat="45.43007" lon="6.18292">
        <ele>1144.3204</ele>
        <time>2021-07-05T11:07:58</time>
      </trkpt>
      <trkpt lat="45.43007" lon="6.18292">
        <ele>1144.3204</ele>
        <time>2021-07-05T11:07:59</time>
      </trkpt>
      <trkpt lat="45.43006" lon="6.18293">
        <ele>1144.3204</ele>
        <time>2021-07-05T11:08:00</time>
      </trkpt>
      <trkpt lat="45.43006" lon="6.18291">
        <ele>1138.7205</ele>
        <time>2021-07-05T11:08:06</time>
      </trkpt>
      <trkpt lat="45.43006" lon="6.18291">
        <ele>1138.7205</ele>
        <time>2021-07-05T11:08:07</time>
      </trkpt>
      <trkpt lat="45.43006" lon="6.18291">
        <ele>1138.7205</ele>
        <time>2021-07-05T11:08:11</time>
      </trkpt>
      <trkpt lat="45.43006" lon="6.1829">
        <ele>1138.7205</ele>
        <time>2021-07-05T11:08:12</time>
      </trkpt>
      <trkpt lat="45.43007" lon="6.1829">
        <ele>1138.7205</ele>
        <time>2021-07-05T11:08:13</time>
      </trkpt>
      <trkpt lat="45.43008" lon="6.1829">
        <ele>1136.4204</ele>
        <time>2021-07-05T11:10:32</time>
      </trkpt>
      <trkpt lat="45.43008" lon="6.1829">
        <ele>1136.1205</ele>
        <time>2021-07-05T11:10:37</time>
      </trkpt>
      <trkpt lat="45.43008" lon="6.1829">
        <ele>1136.1205</ele>
        <time>2021-07-05T11:10:38</time>
      </trkpt>
      <trkpt lat="45.43008" lon="6.1829">
        <ele>1136.1205</ele>
        <time>2021-07-05T11:10:41</time>
      </trkpt>
      <trkpt lat="45.43008" lon="6.1829">
        <ele>1136.1205</ele>
        <time>2021-07-05T11:10:42</time>
      </trkpt>
      <trkpt lat="45.43008" lon="6.18292">
        <ele>1136.1205</ele>
        <time>2021-07-05T11:10:43</time>
      </trkpt>
      <trkpt lat="45.43008" lon="6.18294">
        <ele>1136.1205</ele>
        <time>2021-07-05T11:10:45</time>
      </trkpt>
      <trkpt lat="45.43007" lon="6.183">
        <ele>1136.1205</ele>
        <time>2021-07-05T11:10:51</time>
      </trkpt>
      <trkpt lat="45.43007" lon="6.18303">
        <ele>1136.1205</ele>
        <time>2021-07-05T11:10:53</time>
      </trkpt>
      <trkpt lat="45.43007" lon="6.18307">
        <ele>1132.2538</ele>
        <time>2021-07-05T11:10:56</time>
      </trkpt>
      <trkpt lat="45.43008" lon="6.18309">
        <ele>1132.2538</ele>
        <time>2021-07-05T11:10:59</time>
      </trkpt>
      <trkpt lat="45.43014" lon="6.18321">
        <ele>1129.2205</ele>
        <time>2021-07-05T11:11:09</time>
      </trkpt>
      <trkpt lat="45.43017" lon="6.18324">
        <ele>1129.2205</ele>
        <time>2021-07-05T11:11:12</time>
      </trkpt>
      <trkpt lat="45.43017" lon="6.18325">
        <ele>1129.2205</ele>
        <time>2021-07-05T11:11:13</time>
      </trkpt>
      <trkpt lat="45.43018" lon="6.18326">
        <ele>1129.2205</ele>
        <time>2021-07-05T11:11:14</time>
      </trkpt>
      <trkpt lat="45.4302" lon="6.18329">
        <ele>1128.9204</ele>
        <time>2021-07-05T11:11:16</time>
      </trkpt>
      <trkpt lat="45.43022" lon="6.1833">
        <ele>1128.9204</ele>
        <time>2021-07-05T11:11:18</time>
      </trkpt>
      <trkpt lat="45.43023" lon="6.18332">
        <ele>1128.9204</ele>
        <time>2021-07-05T11:11:20</time>
      </trkpt>
      <trkpt lat="45.43024" lon="6.18333">
        <ele>1128.9204</ele>
        <time>2021-07-05T11:11:21</time>
      </trkpt>
      <trkpt lat="45.43025" lon="6.18333">
        <ele>1128.9204</ele>
        <time>2021-07-05T11:11:22</time>
      </trkpt>
      <trkpt lat="45.43026" lon="6.18335">
        <ele>1128.9204</ele>
        <time>2021-07-05T11:11:24</time>
      </trkpt>
      <trkpt lat="45.43026" lon="6.18335">
        <ele>1128.7205</ele>
        <time>2021-07-05T11:11:25</time>
      </trkpt>
      <trkpt lat="45.43028" lon="6.18339">
        <ele>1128.7205</ele>
        <time>2021-07-05T11:11:31</time>
      </trkpt>
      <trkpt lat="45.43029" lon="6.18341">
        <ele>1128.7205</ele>
        <time>2021-07-05T11:11:33</time>
      </trkpt>
      <trkpt lat="45.43031" lon="6.18344">
        <ele>1132.9204</ele>
        <time>2021-07-05T11:11:36</time>
      </trkpt>
      <trkpt lat="45.43038" lon="6.18351">
        <ele>1132.9204</ele>
        <time>2021-07-05T11:11:44</time>
      </trkpt>
      <trkpt lat="45.43039" lon="6.18351">
        <ele>1132.7205</ele>
        <time>2021-07-05T11:11:45</time>
      </trkpt>
      <trkpt lat="45.43039" lon="6.18351">
        <ele>1132.7205</ele>
        <time>2021-07-05T11:11:49</time>
      </trkpt>
      <trkpt lat="45.4304" lon="6.18352">
        <ele>1132.7205</ele>
        <time>2021-07-05T11:11:50</time>
      </trkpt>
      <trkpt lat="45.43051" lon="6.18365">
        <ele>1133.6205</ele>
        <time>2021-07-05T11:12:00</time>
      </trkpt>
      <trkpt lat="45.43053" lon="6.18366">
        <ele>1133.6205</ele>
        <time>2021-07-05T11:12:02</time>
      </trkpt>
      <trkpt lat="45.43054" lon="6.18366">
        <ele>1133.6205</ele>
        <time>2021-07-05T11:12:03</time>
      </trkpt>
      <trkpt lat="45.43054" lon="6.18367">
        <ele>1133.6205</ele>
        <time>2021-07-05T11:12:04</time>
      </trkpt>
      <trkpt lat="45.43057" lon="6.18369">
        <ele>1133.6205</ele>
        <time>2021-07-05T11:12:07</time>
      </trkpt>
      <trkpt lat="45.43057" lon="6.18371">
        <ele>1133.6205</ele>
        <time>2021-07-05T11:12:09</time>
      </trkpt>
      <trkpt lat="45.43058" lon="6.18372">
        <ele>1133.6205</ele>
        <time>2021-07-05T11:12:10</time>
      </trkpt>
      <trkpt lat="45.43058" lon="6.18373">
        <ele>1133.6205</ele>
        <time>2021-07-05T11:12:11</time>
      </trkpt>
      <trkpt lat="45.43059" lon="6.18374">
        <ele>1133.6205</ele>
        <time>2021-07-05T11:12:12</time>
      </trkpt>
      <trkpt lat="45.43061" lon="6.18375">
        <ele>1132.0204</ele>
        <time>2021-07-05T11:12:15</time>
      </trkpt>
      <trkpt lat="45.43063" lon="6.18377">
        <ele>1132.0204</ele>
        <time>2021-07-05T11:12:18</time>
      </trkpt>
      <trkpt lat="45.43064" lon="6.18378">
        <ele>1132.0204</ele>
        <time>2021-07-05T11:12:19</time>
      </trkpt>
      <trkpt lat="45.43064" lon="6.18379">
        <ele>1132.0204</ele>
        <time>2021-07-05T11:12:20</time>
      </trkpt>
      <trkpt lat="45.43064" lon="6.18381">
        <ele>1132.0204</ele>
        <time>2021-07-05T11:12:22</time>
      </trkpt>
      <trkpt lat="45.43064" lon="6.18382">
        <ele>1132.0204</ele>
        <time>2021-07-05T11:12:23</time>
      </trkpt>
      <trkpt lat="45.43064" lon="6.18382">
        <ele>1132.0204</ele>
        <time>2021-07-05T11:12:24</time>
      </trkpt>
      <trkpt lat="45.43065" lon="6.18383">
        <ele>1132.0204</ele>
        <time>2021-07-05T11:12:25</time>
      </trkpt>
      <trkpt lat="45.43068" lon="6.18384">
        <ele>1132.0204</ele>
        <time>2021-07-05T11:12:30</time>
      </trkpt>
      <trkpt lat="45.43076" lon="6.1839">
        <ele>1133.9204</ele>
        <time>2021-07-05T11:12:39</time>
      </trkpt>
      <trkpt lat="45.43077" lon="6.18391">
        <ele>1133.9204</ele>
        <time>2021-07-05T11:12:40</time>
      </trkpt>
      <trkpt lat="45.43078" lon="6.18394">
        <ele>1133.9204</ele>
        <time>2021-07-05T11:12:43</time>
      </trkpt>
      <trkpt lat="45.43081" lon="6.18397">
        <ele>1137.6871</ele>
        <time>2021-07-05T11:12:46</time>
      </trkpt>
      <trkpt lat="45.43084" lon="6.18397">
        <ele>1137.6871</ele>
        <time>2021-07-05T11:12:48</time>
      </trkpt>
      <trkpt lat="45.43087" lon="6.18398">
        <ele>1137.6871</ele>
        <time>2021-07-05T11:12:51</time>
      </trkpt>
      <trkpt lat="45.4309" lon="6.184">
        <ele>1137.6871</ele>
        <time>2021-07-05T11:12:54</time>
      </trkpt>
      <trkpt lat="45.43093" lon="6.18401">
        <ele>1137.2205</ele>
        <time>2021-07-05T11:12:57</time>
      </trkpt>
      <trkpt lat="45.43103" lon="6.18402">
        <ele>1139.1205</ele>
        <time>2021-07-05T11:13:06</time>
      </trkpt>
      <trkpt lat="45.43105" lon="6.18403">
        <ele>1139.1205</ele>
        <time>2021-07-05T11:13:08</time>
      </trkpt>
      <trkpt lat="45.43106" lon="6.18403">
        <ele>1139.1205</ele>
        <time>2021-07-05T11:13:10</time>
      </trkpt>
      <trkpt lat="45.43107" lon="6.18403">
        <ele>1139.1205</ele>
        <time>2021-07-05T11:13:11</time>
      </trkpt>
      <trkpt lat="45.4311" lon="6.18406">
        <ele>1139.7538</ele>
        <time>2021-07-05T11:13:15</time>
      </trkpt>
      <trkpt lat="45.43111" lon="6.18407">
        <ele>1139.7538</ele>
        <time>2021-07-05T11:13:16</time>
      </trkpt>
      <trkpt lat="45.43112" lon="6.18407">
        <ele>1139.7538</ele>
        <time>2021-07-05T11:13:17</time>
      </trkpt>
      <trkpt lat="45.43113" lon="6.18407">
        <ele>1139.7538</ele>
        <time>2021-07-05T11:13:18</time>
      </trkpt>
      <trkpt lat="45.43117" lon="6.18408">
        <ele>1139.7538</ele>
        <time>2021-07-05T11:13:21</time>
      </trkpt>
      <trkpt lat="45.43118" lon="6.18408">
        <ele>1139.7538</ele>
        <time>2021-07-05T11:13:22</time>
      </trkpt>
      <trkpt lat="45.43119" lon="6.1841">
        <ele>1139.7538</ele>
        <time>2021-07-05T11:13:23</time>
      </trkpt>
      <trkpt lat="45.43119" lon="6.18411">
        <ele>1139.7538</ele>
        <time>2021-07-05T11:13:24</time>
      </trkpt>
      <trkpt lat="45.4312" lon="6.18413">
        <ele>1137.8204</ele>
        <time>2021-07-05T11:13:26</time>
      </trkpt>
      <trkpt lat="45.43121" lon="6.18414">
        <ele>1137.8204</ele>
        <time>2021-07-05T11:13:27</time>
      </trkpt>
      <trkpt lat="45.43121" lon="6.18415">
        <ele>1137.8204</ele>
        <time>2021-07-05T11:13:28</time>
      </trkpt>
      <trkpt lat="45.4312" lon="6.18419">
        <ele>1137.8204</ele>
        <time>2021-07-05T11:13:32</time>
      </trkpt>
      <trkpt lat="45.4312" lon="6.18419">
        <ele>1137.8204</ele>
        <time>2021-07-05T11:13:33</time>
      </trkpt>
      <trkpt lat="45.43119" lon="6.1842">
        <ele>1137.8204</ele>
        <time>2021-07-05T11:13:34</time>
      </trkpt>
      <trkpt lat="45.43115" lon="6.18427">
        <ele>1140.6205</ele>
        <time>2021-07-05T11:13:42</time>
      </trkpt>
      <trkpt lat="45.43114" lon="6.18427">
        <ele>1140.6205</ele>
        <time>2021-07-05T11:13:43</time>
      </trkpt>
      <trkpt lat="45.43111" lon="6.18428">
        <ele>1142.3204</ele>
        <time>2021-07-05T11:13:46</time>
      </trkpt>
      <trkpt lat="45.43109" lon="6.18429">
        <ele>1142.3204</ele>
        <time>2021-07-05T11:13:48</time>
      </trkpt>
      <trkpt lat="45.43108" lon="6.18429">
        <ele>1142.3204</ele>
        <time>2021-07-05T11:13:49</time>
      </trkpt>
      <trkpt lat="45.43106" lon="6.18432">
        <ele>1142.3204</ele>
        <time>2021-07-05T11:13:53</time>
      </trkpt>
      <trkpt lat="45.43102" lon="6.18436">
        <ele>1142.2205</ele>
        <time>2021-07-05T11:13:58</time>
      </trkpt>
      <trkpt lat="45.431" lon="6.18437">
        <ele>1142.2205</ele>
        <time>2021-07-05T11:14:00</time>
      </trkpt>
      <trkpt lat="45.43096" lon="6.18438">
        <ele>1142.2205</ele>
        <time>2021-07-05T11:14:04</time>
      </trkpt>
      <trkpt lat="45.43094" lon="6.1844">
        <ele>1142.2205</ele>
        <time>2021-07-05T11:14:08</time>
      </trkpt>
      <trkpt lat="45.43083" lon="6.18443">
        <ele>1143.0204</ele>
        <time>2021-07-05T11:14:22</time>
      </trkpt>
      <trkpt lat="45.43082" lon="6.18444">
        <ele>1143.0204</ele>
        <time>2021-07-05T11:14:23</time>
      </trkpt>
      <trkpt lat="45.43082" lon="6.18444">
        <ele>1143.0204</ele>
        <time>2021-07-05T11:14:24</time>
      </trkpt>
      <trkpt lat="45.43081" lon="6.18444">
        <ele>1144.5204</ele>
        <time>2021-07-05T11:14:25</time>
      </trkpt>
      <trkpt lat="45.43079" lon="6.18445">
        <ele>1144.5204</ele>
        <time>2021-07-05T11:14:27</time>
      </trkpt>
      <trkpt lat="45.43074" lon="6.18448">
        <ele>1144.5204</ele>
        <time>2021-07-05T11:14:33</time>
      </trkpt>
      <trkpt lat="45.43072" lon="6.1845">
        <ele>1144.2205</ele>
        <time>2021-07-05T11:14:36</time>
      </trkpt>
      <trkpt lat="45.43069" lon="6.18453">
        <ele>1144.2205</ele>
        <time>2021-07-05T11:14:40</time>
      </trkpt>
      <trkpt lat="45.43067" lon="6.18454">
        <ele>1144.2205</ele>
        <time>2021-07-05T11:14:42</time>
      </trkpt>
      <trkpt lat="45.43055" lon="6.18463">
        <ele>1137.2205</ele>
        <time>2021-07-05T11:14:56</time>
      </trkpt>
      <trkpt lat="45.43051" lon="6.18464">
        <ele>1137.2205</ele>
        <time>2021-07-05T11:14:59</time>
      </trkpt>
      <trkpt lat="45.43047" lon="6.18464">
        <ele>1137.2205</ele>
        <time>2021-07-05T11:15:02</time>
      </trkpt>
      <trkpt lat="45.43045" lon="6.18464">
        <ele>1137.2205</ele>
        <time>2021-07-05T11:15:03</time>
      </trkpt>
      <trkpt lat="45.43044" lon="6.18463">
        <ele>1137.2205</ele>
        <time>2021-07-05T11:15:04</time>
      </trkpt>
      <trkpt lat="45.43039" lon="6.18461">
        <ele>1137.7205</ele>
        <time>2021-07-05T11:15:07</time>
      </trkpt>
      <trkpt lat="45.43038" lon="6.18462">
        <ele>1137.7205</ele>
        <time>2021-07-05T11:15:08</time>
      </trkpt>
      <trkpt lat="45.43036" lon="6.18465">
        <ele>1137.7205</ele>
        <time>2021-07-05T11:15:12</time>
      </trkpt>
      <trkpt lat="45.43035" lon="6.18466">
        <ele>1137.7205</ele>
        <time>2021-07-05T11:15:13</time>
      </trkpt>
      <trkpt lat="45.43031" lon="6.18472">
        <ele>1137.7205</ele>
        <time>2021-07-05T11:15:19</time>
      </trkpt>
      <trkpt lat="45.43029" lon="6.18473">
        <ele>1137.7205</ele>
        <time>2021-07-05T11:15:21</time>
      </trkpt>
      <trkpt lat="45.43027" lon="6.18475">
        <ele>1140.7205</ele>
        <time>2021-07-05T11:15:25</time>
      </trkpt>
      <trkpt lat="45.43025" lon="6.18476">
        <ele>1140.7205</ele>
        <time>2021-07-05T11:15:29</time>
      </trkpt>
      <trkpt lat="45.43024" lon="6.18476">
        <ele>1140.7205</ele>
        <time>2021-07-05T11:15:31</time>
      </trkpt>
      <trkpt lat="45.43022" lon="6.18476">
        <ele>1140.7205</ele>
        <time>2021-07-05T11:15:33</time>
      </trkpt>
      <trkpt lat="45.43016" lon="6.18479">
        <ele>1146.0204</ele>
        <time>2021-07-05T11:15:40</time>
      </trkpt>
      <trkpt lat="45.43011" lon="6.18482">
        <ele>1145.2205</ele>
        <time>2021-07-05T11:15:47</time>
      </trkpt>
      <trkpt lat="45.43009" lon="6.18483">
        <ele>1145.2205</ele>
        <time>2021-07-05T11:15:50</time>
      </trkpt>
      <trkpt lat="45.43006" lon="6.18486">
        <ele>1145.2205</ele>
        <time>2021-07-05T11:15:53</time>
      </trkpt>
      <trkpt lat="45.42995" lon="6.18492">
        <ele>1146.7205</ele>
        <time>2021-07-05T11:16:06</time>
      </trkpt>
      <trkpt lat="45.4299" lon="6.18495">
        <ele>1146.7205</ele>
        <time>2021-07-05T11:16:13</time>
      </trkpt>
      <trkpt lat="45.42988" lon="6.18495">
        <ele>1150.3204</ele>
        <time>2021-07-05T11:16:15</time>
      </trkpt>
      <trkpt lat="45.42976" lon="6.185">
        <ele>1157.2205</ele>
        <time>2021-07-05T11:16:30</time>
      </trkpt>
      <trkpt lat="45.42973" lon="6.185">
        <ele>1157.2205</ele>
        <time>2021-07-05T11:16:33</time>
      </trkpt>
      <trkpt lat="45.42971" lon="6.18501">
        <ele>1157.9204</ele>
        <time>2021-07-05T11:16:35</time>
      </trkpt>
      <trkpt lat="45.42968" lon="6.18502">
        <ele>1157.9204</ele>
        <time>2021-07-05T11:16:38</time>
      </trkpt>
      <trkpt lat="45.42966" lon="6.18504">
        <ele>1157.9204</ele>
        <time>2021-07-05T11:16:40</time>
      </trkpt>
      <trkpt lat="45.42965" lon="6.18506">
        <ele>1157.9204</ele>
        <time>2021-07-05T11:16:42</time>
      </trkpt>
      <trkpt lat="45.42964" lon="6.18506">
        <ele>1157.9204</ele>
        <time>2021-07-05T11:16:43</time>
      </trkpt>
      <trkpt lat="45.42963" lon="6.18506">
        <ele>1157.9204</ele>
        <time>2021-07-05T11:16:44</time>
      </trkpt>
      <trkpt lat="45.42963" lon="6.18507">
        <ele>1157.9204</ele>
        <time>2021-07-05T11:16:45</time>
      </trkpt>
      <trkpt lat="45.42961" lon="6.18509">
        <ele>1157.9204</ele>
        <time>2021-07-05T11:16:47</time>
      </trkpt>
      <trkpt lat="45.42961" lon="6.1851">
        <ele>1157.9204</ele>
        <time>2021-07-05T11:16:48</time>
      </trkpt>
      <trkpt lat="45.4296" lon="6.1851">
        <ele>1157.9204</ele>
        <time>2021-07-05T11:16:49</time>
      </trkpt>
      <trkpt lat="45.42958" lon="6.18512">
        <ele>1157.9204</ele>
        <time>2021-07-05T11:16:53</time>
      </trkpt>
      <trkpt lat="45.42958" lon="6.18513">
        <ele>1157.9204</ele>
        <time>2021-07-05T11:16:54</time>
      </trkpt>
      <trkpt lat="45.42959" lon="6.18514">
        <ele>1157.9204</ele>
        <time>2021-07-05T11:16:55</time>
      </trkpt>
      <trkpt lat="45.4296" lon="6.18518">
        <ele>1157.9204</ele>
        <time>2021-07-05T11:16:58</time>
      </trkpt>
      <trkpt lat="45.4296" lon="6.18519">
        <ele>1157.9204</ele>
        <time>2021-07-05T11:16:59</time>
      </trkpt>
      <trkpt lat="45.42958" lon="6.18521">
        <ele>1157.9204</ele>
        <time>2021-07-05T11:17:01</time>
      </trkpt>
      <trkpt lat="45.42957" lon="6.18521">
        <ele>1157.9204</ele>
        <time>2021-07-05T11:17:02</time>
      </trkpt>
      <trkpt lat="45.42956" lon="6.18522">
        <ele>1157.9204</ele>
        <time>2021-07-05T11:17:03</time>
      </trkpt>
      <trkpt lat="45.42944" lon="6.18534">
        <ele>1174.5204</ele>
        <time>2021-07-05T11:17:16</time>
      </trkpt>
      <trkpt lat="45.42942" lon="6.18536">
        <ele>1174.5204</ele>
        <time>2021-07-05T11:17:19</time>
      </trkpt>
      <trkpt lat="45.4294" lon="6.18539">
        <ele>1174.5204</ele>
        <time>2021-07-05T11:17:21</time>
      </trkpt>
      <trkpt lat="45.42939" lon="6.18541">
        <ele>1174.5204</ele>
        <time>2021-07-05T11:17:23</time>
      </trkpt>
      <trkpt lat="45.42934" lon="6.18548">
        <ele>1174.8204</ele>
        <time>2021-07-05T11:17:31</time>
      </trkpt>
      <trkpt lat="45.42927" lon="6.18557">
        <ele>1174.6205</ele>
        <time>2021-07-05T11:17:39</time>
      </trkpt>
      <trkpt lat="45.42927" lon="6.18561">
        <ele>1174.6205</ele>
        <time>2021-07-05T11:17:42</time>
      </trkpt>
      <trkpt lat="45.42925" lon="6.18573">
        <ele>1174.8204</ele>
        <time>2021-07-05T11:17:52</time>
      </trkpt>
      <trkpt lat="45.4292" lon="6.18582">
        <ele>1170.7205</ele>
        <time>2021-07-05T11:18:01</time>
      </trkpt>
      <trkpt lat="45.42919" lon="6.18583">
        <ele>1170.7205</ele>
        <time>2021-07-05T11:18:03</time>
      </trkpt>
      <trkpt lat="45.42916" lon="6.18584">
        <ele>1174.4204</ele>
        <time>2021-07-05T11:18:05</time>
      </trkpt>
      <trkpt lat="45.42916" lon="6.18585">
        <ele>1174.4204</ele>
        <time>2021-07-05T11:18:06</time>
      </trkpt>
      <trkpt lat="45.42914" lon="6.18589">
        <ele>1174.4204</ele>
        <time>2021-07-05T11:18:09</time>
      </trkpt>
      <trkpt lat="45.42913" lon="6.18591">
        <ele>1174.4204</ele>
        <time>2021-07-05T11:18:11</time>
      </trkpt>
      <trkpt lat="45.42913" lon="6.18592">
        <ele>1174.4204</ele>
        <time>2021-07-05T11:18:12</time>
      </trkpt>
      <trkpt lat="45.4291" lon="6.18595">
        <ele>1173.7205</ele>
        <time>2021-07-05T11:18:58</time>
      </trkpt>
      <trkpt lat="45.4291" lon="6.18595">
        <ele>1173.7205</ele>
        <time>2021-07-05T11:19:00</time>
      </trkpt>
      <trkpt lat="45.4291" lon="6.18595">
        <ele>1173.7205</ele>
        <time>2021-07-05T11:19:01</time>
      </trkpt>
      <trkpt lat="45.42905" lon="6.18598">
        <ele>1172.7205</ele>
        <time>2021-07-05T11:19:06</time>
      </trkpt>
      <trkpt lat="45.42904" lon="6.18599">
        <ele>1172.7205</ele>
        <time>2021-07-05T11:19:07</time>
      </trkpt>
      <trkpt lat="45.429" lon="6.18601">
        <ele>1172.7205</ele>
        <time>2021-07-05T11:19:10</time>
      </trkpt>
      <trkpt lat="45.42891" lon="6.18611">
        <ele>1173.4204</ele>
        <time>2021-07-05T11:19:19</time>
      </trkpt>
      <trkpt lat="45.42887" lon="6.18617">
        <ele>1173.4204</ele>
        <time>2021-07-05T11:19:23</time>
      </trkpt>
      <trkpt lat="45.42885" lon="6.18619">
        <ele>1171.2205</ele>
        <time>2021-07-05T11:19:25</time>
      </trkpt>
      <trkpt lat="45.42878" lon="6.18627">
        <ele>1171.2205</ele>
        <time>2021-07-05T11:19:33</time>
      </trkpt>
      <trkpt lat="45.42875" lon="6.18632">
        <ele>1168.3204</ele>
        <time>2021-07-05T11:19:37</time>
      </trkpt>
      <trkpt lat="45.42873" lon="6.18633">
        <ele>1168.3204</ele>
        <time>2021-07-05T11:19:39</time>
      </trkpt>
      <trkpt lat="45.42867" lon="6.18633">
        <ele>1168.3204</ele>
        <time>2021-07-05T11:19:44</time>
      </trkpt>
      <trkpt lat="45.42867" lon="6.18632">
        <ele>1164.2205</ele>
        <time>2021-07-05T11:19:45</time>
      </trkpt>
      <trkpt lat="45.42867" lon="6.18631">
        <ele>1164.2205</ele>
        <time>2021-07-05T11:19:49</time>
      </trkpt>
      <trkpt lat="45.42865" lon="6.1863">
        <ele>1164.2205</ele>
        <time>2021-07-05T11:19:51</time>
      </trkpt>
      <trkpt lat="45.42863" lon="6.18628">
        <ele>1164.2205</ele>
        <time>2021-07-05T11:19:53</time>
      </trkpt>
      <trkpt lat="45.4286" lon="6.18627">
        <ele>1165.6205</ele>
        <time>2021-07-05T11:19:55</time>
      </trkpt>
      <trkpt lat="45.42857" lon="6.18625">
        <ele>1165.6205</ele>
        <time>2021-07-05T11:19:57</time>
      </trkpt>
      <trkpt lat="45.42857" lon="6.18624">
        <ele>1165.6205</ele>
        <time>2021-07-05T11:19:58</time>
      </trkpt>
      <trkpt lat="45.42856" lon="6.18623">
        <ele>1165.6205</ele>
        <time>2021-07-05T11:19:59</time>
      </trkpt>
      <trkpt lat="45.42856" lon="6.18621">
        <ele>1165.6205</ele>
        <time>2021-07-05T11:20:00</time>
      </trkpt>
      <trkpt lat="45.42855" lon="6.18618">
        <ele>1165.6205</ele>
        <time>2021-07-05T11:20:02</time>
      </trkpt>
      <trkpt lat="45.42855" lon="6.1861">
        <ele>1165.6205</ele>
        <time>2021-07-05T11:20:09</time>
      </trkpt>
      <trkpt lat="45.42856" lon="6.18608">
        <ele>1165.6205</ele>
        <time>2021-07-05T11:20:10</time>
      </trkpt>
      <trkpt lat="45.42856" lon="6.18607">
        <ele>1165.6205</ele>
        <time>2021-07-05T11:20:11</time>
      </trkpt>
      <trkpt lat="45.42857" lon="6.186">
        <ele>1168.6205</ele>
        <time>2021-07-05T11:20:16</time>
      </trkpt>
      <trkpt lat="45.42857" lon="6.18597">
        <ele>1168.6205</ele>
        <time>2021-07-05T11:20:18</time>
      </trkpt>
      <trkpt lat="45.42857" lon="6.18595">
        <ele>1168.6205</ele>
        <time>2021-07-05T11:20:19</time>
      </trkpt>
      <trkpt lat="45.42857" lon="6.18582">
        <ele>1179.6205</ele>
        <time>2021-07-05T11:20:29</time>
      </trkpt>
      <trkpt lat="45.42857" lon="6.18582">
        <ele>1179.6205</ele>
        <time>2021-07-05T11:20:30</time>
      </trkpt>
      <trkpt lat="45.42857" lon="6.18581">
        <ele>1179.6205</ele>
        <time>2021-07-05T11:20:31</time>
      </trkpt>
      <trkpt lat="45.42856" lon="6.18564">
        <ele>1181.3204</ele>
        <time>2021-07-05T11:20:41</time>
      </trkpt>
      <trkpt lat="45.42856" lon="6.18556">
        <ele>1184.3204</ele>
        <time>2021-07-05T11:20:47</time>
      </trkpt>
      <trkpt lat="45.42856" lon="6.18554">
        <ele>1184.3204</ele>
        <time>2021-07-05T11:20:48</time>
      </trkpt>
      <trkpt lat="45.42857" lon="6.18552">
        <ele>1184.3204</ele>
        <time>2021-07-05T11:20:49</time>
      </trkpt>
      <trkpt lat="45.42858" lon="6.18551">
        <ele>1184.3204</ele>
        <time>2021-07-05T11:20:50</time>
      </trkpt>
      <trkpt lat="45.42859" lon="6.1855">
        <ele>1184.3204</ele>
        <time>2021-07-05T11:20:51</time>
      </trkpt>
      <trkpt lat="45.42859" lon="6.18549">
        <ele>1184.3204</ele>
        <time>2021-07-05T11:20:52</time>
      </trkpt>
      <trkpt lat="45.4286" lon="6.18532">
        <ele>1193.2205</ele>
        <time>2021-07-05T11:21:02</time>
      </trkpt>
      <trkpt lat="45.4286" lon="6.18531">
        <ele>1193.2205</ele>
        <time>2021-07-05T11:21:03</time>
      </trkpt>
      <trkpt lat="45.42861" lon="6.1853">
        <ele>1193.2205</ele>
        <time>2021-07-05T11:21:04</time>
      </trkpt>
      <trkpt lat="45.42861" lon="6.18529">
        <ele>1193.2205</ele>
        <time>2021-07-05T11:21:05</time>
      </trkpt>
      <trkpt lat="45.42862" lon="6.18527">
        <ele>1193.2205</ele>
        <time>2021-07-05T11:21:06</time>
      </trkpt>
      <trkpt lat="45.42862" lon="6.18526">
        <ele>1193.2205</ele>
        <time>2021-07-05T11:21:07</time>
      </trkpt>
      <trkpt lat="45.42864" lon="6.18523">
        <ele>1193.2205</ele>
        <time>2021-07-05T11:21:09</time>
      </trkpt>
      <trkpt lat="45.42864" lon="6.18521">
        <ele>1193.2205</ele>
        <time>2021-07-05T11:21:10</time>
      </trkpt>
      <trkpt lat="45.42865" lon="6.18517">
        <ele>1193.2205</ele>
        <time>2021-07-05T11:21:12</time>
      </trkpt>
      <trkpt lat="45.42869" lon="6.18504">
        <ele>1193.2205</ele>
        <time>2021-07-05T11:21:22</time>
      </trkpt>
      <trkpt lat="45.42869" lon="6.18503">
        <ele>1193.2205</ele>
        <time>2021-07-05T11:21:23</time>
      </trkpt>
      <trkpt lat="45.42869" lon="6.18502">
        <ele>1193.2205</ele>
        <time>2021-07-05T11:21:24</time>
      </trkpt>
      <trkpt lat="45.4287" lon="6.18501">
        <ele>1193.2205</ele>
        <time>2021-07-05T11:21:25</time>
      </trkpt>
      <trkpt lat="45.4287" lon="6.185">
        <ele>1193.2205</ele>
        <time>2021-07-05T11:21:26</time>
      </trkpt>
      <trkpt lat="45.42869" lon="6.18499">
        <ele>1193.2205</ele>
        <time>2021-07-05T11:21:27</time>
      </trkpt>
      <trkpt lat="45.42868" lon="6.18497">
        <ele>1193.2205</ele>
        <time>2021-07-05T11:21:28</time>
      </trkpt>
      <trkpt lat="45.42868" lon="6.18496">
        <ele>1193.2205</ele>
        <time>2021-07-05T11:21:29</time>
      </trkpt>
      <trkpt lat="45.42868" lon="6.18493">
        <ele>1193.2205</ele>
        <time>2021-07-05T11:21:31</time>
      </trkpt>
      <trkpt lat="45.42868" lon="6.18491">
        <ele>1193.2205</ele>
        <time>2021-07-05T11:21:32</time>
      </trkpt>
      <trkpt lat="45.42868" lon="6.1849">
        <ele>1193.2205</ele>
        <time>2021-07-05T11:21:33</time>
      </trkpt>
      <trkpt lat="45.42864" lon="6.18489">
        <ele>1195.0204</ele>
        <time>2021-07-05T11:21:43</time>
      </trkpt>
      <trkpt lat="45.42864" lon="6.18489">
        <ele>1184.8204</ele>
        <time>2021-07-05T11:21:45</time>
      </trkpt>
      <trkpt lat="45.42863" lon="6.18491">
        <ele>1184.8204</ele>
        <time>2021-07-05T11:21:49</time>
      </trkpt>
      <trkpt lat="45.42861" lon="6.18494">
        <ele>1184.8204</ele>
        <time>2021-07-05T11:21:54</time>
      </trkpt>
      <trkpt lat="45.42859" lon="6.18498">
        <ele>1183.9204</ele>
        <time>2021-07-05T11:22:02</time>
      </trkpt>
      <trkpt lat="45.42858" lon="6.18498">
        <ele>1184.7538</ele>
        <time>2021-07-05T11:22:06</time>
      </trkpt>
      <trkpt lat="45.42856" lon="6.18499">
        <ele>1184.7538</ele>
        <time>2021-07-05T11:22:08</time>
      </trkpt>
      <trkpt lat="45.42853" lon="6.18501">
        <ele>1184.7538</ele>
        <time>2021-07-05T11:22:10</time>
      </trkpt>
      <trkpt lat="45.42852" lon="6.18502">
        <ele>1184.7538</ele>
        <time>2021-07-05T11:22:11</time>
      </trkpt>
      <trkpt lat="45.4285" lon="6.18504">
        <ele>1185.0204</ele>
        <time>2021-07-05T11:22:16</time>
      </trkpt>
      <trkpt lat="45.42849" lon="6.18503">
        <ele>1185.0204</ele>
        <time>2021-07-05T11:22:17</time>
      </trkpt>
      <trkpt lat="45.42848" lon="6.18503">
        <ele>1185.0204</ele>
        <time>2021-07-05T11:22:18</time>
      </trkpt>
      <trkpt lat="45.42846" lon="6.18517">
        <ele>1185.0204</ele>
        <time>2021-07-05T11:22:33</time>
      </trkpt>
      <trkpt lat="45.42845" lon="6.18518">
        <ele>1185.0204</ele>
        <time>2021-07-05T11:22:34</time>
      </trkpt>
      <trkpt lat="45.42845" lon="6.1852">
        <ele>1185.0204</ele>
        <time>2021-07-05T11:22:35</time>
      </trkpt>
      <trkpt lat="45.42844" lon="6.18521">
        <ele>1185.0204</ele>
        <time>2021-07-05T11:22:36</time>
      </trkpt>
      <trkpt lat="45.42844" lon="6.18522">
        <ele>1185.0204</ele>
        <time>2021-07-05T11:22:37</time>
      </trkpt>
      <trkpt lat="45.42843" lon="6.18523">
        <ele>1185.0204</ele>
        <time>2021-07-05T11:22:38</time>
      </trkpt>
      <trkpt lat="45.42843" lon="6.18524">
        <ele>1185.0204</ele>
        <time>2021-07-05T11:22:39</time>
      </trkpt>
      <trkpt lat="45.42843" lon="6.18526">
        <ele>1185.0204</ele>
        <time>2021-07-05T11:22:40</time>
      </trkpt>
      <trkpt lat="45.42842" lon="6.18528">
        <ele>1185.0204</ele>
        <time>2021-07-05T11:22:42</time>
      </trkpt>
      <trkpt lat="45.42842" lon="6.1853">
        <ele>1185.0204</ele>
        <time>2021-07-05T11:22:43</time>
      </trkpt>
      <trkpt lat="45.42842" lon="6.18531">
        <ele>1185.0204</ele>
        <time>2021-07-05T11:22:44</time>
      </trkpt>
      <trkpt lat="45.42841" lon="6.18532">
        <ele>1185.0204</ele>
        <time>2021-07-05T11:22:45</time>
      </trkpt>
      <trkpt lat="45.42842" lon="6.18532">
        <ele>1185.0204</ele>
        <time>2021-07-05T11:22:46</time>
      </trkpt>
      <trkpt lat="45.42842" lon="6.18534">
        <ele>1185.0204</ele>
        <time>2021-07-05T11:22:48</time>
      </trkpt>
      <trkpt lat="45.42838" lon="6.18547">
        <ele>1185.0204</ele>
        <time>2021-07-05T11:23:04</time>
      </trkpt>
      <trkpt lat="45.42831" lon="6.18565">
        <ele>1190.6205</ele>
        <time>2021-07-05T11:23:21</time>
      </trkpt>
      <trkpt lat="45.42828" lon="6.1858">
        <ele>1194.9204</ele>
        <time>2021-07-05T11:23:33</time>
      </trkpt>
      <trkpt lat="45.42828" lon="6.18585">
        <ele>1196.4204</ele>
        <time>2021-07-05T11:23:37</time>
      </trkpt>
      <trkpt lat="45.42828" lon="6.18588">
        <ele>1196.4204</ele>
        <time>2021-07-05T11:23:40</time>
      </trkpt>
      <trkpt lat="45.42829" lon="6.18598">
        <ele>1193.8204</ele>
        <time>2021-07-05T11:23:48</time>
      </trkpt>
      <trkpt lat="45.42829" lon="6.18599">
        <ele>1193.8204</ele>
        <time>2021-07-05T11:23:49</time>
      </trkpt>
      <trkpt lat="45.4283" lon="6.18603">
        <ele>1193.8204</ele>
        <time>2021-07-05T11:23:52</time>
      </trkpt>
      <trkpt lat="45.42831" lon="6.18605">
        <ele>1193.8204</ele>
        <time>2021-07-05T11:23:53</time>
      </trkpt>
      <trkpt lat="45.42831" lon="6.18608">
        <ele>1195.0204</ele>
        <time>2021-07-05T11:24:00</time>
      </trkpt>
      <trkpt lat="45.42829" lon="6.18609">
        <ele>1195.0204</ele>
        <time>2021-07-05T11:24:03</time>
      </trkpt>
      <trkpt lat="45.42829" lon="6.1861">
        <ele>1195.0204</ele>
        <time>2021-07-05T11:24:04</time>
      </trkpt>
      <trkpt lat="45.42828" lon="6.18611">
        <ele>1191.1205</ele>
        <time>2021-07-05T11:24:05</time>
      </trkpt>
      <trkpt lat="45.42829" lon="6.18618">
        <ele>1191.1205</ele>
        <time>2021-07-05T11:24:08</time>
      </trkpt>
      <trkpt lat="45.4283" lon="6.18621">
        <ele>1191.1205</ele>
        <time>2021-07-05T11:24:09</time>
      </trkpt>
      <trkpt lat="45.4283" lon="6.18623">
        <ele>1191.1205</ele>
        <time>2021-07-05T11:24:10</time>
      </trkpt>
      <trkpt lat="45.4283" lon="6.18628">
        <ele>1191.1205</ele>
        <time>2021-07-05T11:24:14</time>
      </trkpt>
      <trkpt lat="45.4283" lon="6.18629">
        <ele>1191.1205</ele>
        <time>2021-07-05T11:24:15</time>
      </trkpt>
      <trkpt lat="45.42829" lon="6.18631">
        <ele>1191.1205</ele>
        <time>2021-07-05T11:24:17</time>
      </trkpt>
      <trkpt lat="45.42828" lon="6.18631">
        <ele>1191.1205</ele>
        <time>2021-07-05T11:24:18</time>
      </trkpt>
      <trkpt lat="45.42827" lon="6.18634">
        <ele>1191.1205</ele>
        <time>2021-07-05T11:24:22</time>
      </trkpt>
      <trkpt lat="45.42827" lon="6.18635">
        <ele>1191.1205</ele>
        <time>2021-07-05T11:24:23</time>
      </trkpt>
      <trkpt lat="45.42828" lon="6.18635">
        <ele>1191.1205</ele>
        <time>2021-07-05T11:24:24</time>
      </trkpt>
      <trkpt lat="45.42828" lon="6.18636">
        <ele>1191.1205</ele>
        <time>2021-07-05T11:24:25</time>
      </trkpt>
      <trkpt lat="45.42828" lon="6.18635">
        <ele>1191.1205</ele>
        <time>2021-07-05T11:24:26</time>
      </trkpt>
      <trkpt lat="45.42827" lon="6.18636">
        <ele>1191.1205</ele>
        <time>2021-07-05T11:24:27</time>
      </trkpt>
      <trkpt lat="45.42826" lon="6.18637">
        <ele>1191.1205</ele>
        <time>2021-07-05T11:24:28</time>
      </trkpt>
      <trkpt lat="45.42825" lon="6.18637">
        <ele>1191.1205</ele>
        <time>2021-07-05T11:24:29</time>
      </trkpt>
      <trkpt lat="45.42824" lon="6.18638">
        <ele>1191.1205</ele>
        <time>2021-07-05T11:24:30</time>
      </trkpt>
      <trkpt lat="45.42824" lon="6.18638">
        <ele>1191.1205</ele>
        <time>2021-07-05T11:24:31</time>
      </trkpt>
      <trkpt lat="45.42823" lon="6.18639">
        <ele>1191.1205</ele>
        <time>2021-07-05T11:24:32</time>
      </trkpt>
      <trkpt lat="45.42822" lon="6.18642">
        <ele>1191.6205</ele>
        <time>2021-07-05T11:24:36</time>
      </trkpt>
      <trkpt lat="45.42822" lon="6.18643">
        <ele>1191.6205</ele>
        <time>2021-07-05T11:24:37</time>
      </trkpt>
      <trkpt lat="45.42822" lon="6.18643">
        <ele>1191.6205</ele>
        <time>2021-07-05T11:24:39</time>
      </trkpt>
      <trkpt lat="45.42822" lon="6.18644">
        <ele>1191.6205</ele>
        <time>2021-07-05T11:24:40</time>
      </trkpt>
      <trkpt lat="45.42821" lon="6.18644">
        <ele>1191.6205</ele>
        <time>2021-07-05T11:24:41</time>
      </trkpt>
      <trkpt lat="45.42821" lon="6.18645">
        <ele>1191.6205</ele>
        <time>2021-07-05T11:24:42</time>
      </trkpt>
      <trkpt lat="45.4282" lon="6.18646">
        <ele>1191.6205</ele>
        <time>2021-07-05T11:24:44</time>
      </trkpt>
      <trkpt lat="45.4282" lon="6.18647">
        <ele>1192.2205</ele>
        <time>2021-07-05T11:24:46</time>
      </trkpt>
      <trkpt lat="45.42818" lon="6.18648">
        <ele>1192.2205</ele>
        <time>2021-07-05T11:24:49</time>
      </trkpt>
      <trkpt lat="45.42818" lon="6.18649">
        <ele>1192.2205</ele>
        <time>2021-07-05T11:24:51</time>
      </trkpt>
      <trkpt lat="45.42818" lon="6.18649">
        <ele>1192.2205</ele>
        <time>2021-07-05T11:24:52</time>
      </trkpt>
      <trkpt lat="45.42818" lon="6.1865">
        <ele>1192.2205</ele>
        <time>2021-07-05T11:24:53</time>
      </trkpt>
      <trkpt lat="45.42818" lon="6.18651">
        <ele>1196.1205</ele>
        <time>2021-07-05T11:24:55</time>
      </trkpt>
      <trkpt lat="45.42818" lon="6.18653">
        <ele>1196.1205</ele>
        <time>2021-07-05T11:24:57</time>
      </trkpt>
      <trkpt lat="45.42817" lon="6.18654">
        <ele>1196.1205</ele>
        <time>2021-07-05T11:24:58</time>
      </trkpt>
      <trkpt lat="45.42816" lon="6.18654">
        <ele>1196.1205</ele>
        <time>2021-07-05T11:25:01</time>
      </trkpt>
      <trkpt lat="45.42815" lon="6.18654">
        <ele>1196.1205</ele>
        <time>2021-07-05T11:25:02</time>
      </trkpt>
      <trkpt lat="45.42814" lon="6.18653">
        <ele>1196.1205</ele>
        <time>2021-07-05T11:25:04</time>
      </trkpt>
      <trkpt lat="45.4281" lon="6.18654">
        <ele>1200.5204</ele>
        <time>2021-07-05T11:25:10</time>
      </trkpt>
      <trkpt lat="45.42803" lon="6.18662">
        <ele>1207.5204</ele>
        <time>2021-07-05T11:25:24</time>
      </trkpt>
      <trkpt lat="45.42802" lon="6.18662">
        <ele>1209.3204</ele>
        <time>2021-07-05T11:25:26</time>
      </trkpt>
      <trkpt lat="45.42802" lon="6.18662">
        <ele>1209.3204</ele>
        <time>2021-07-05T11:25:27</time>
      </trkpt>
      <trkpt lat="45.42796" lon="6.18669">
        <ele>1208.1205</ele>
        <time>2021-07-05T11:25:39</time>
      </trkpt>
      <trkpt lat="45.42795" lon="6.1867">
        <ele>1208.1205</ele>
        <time>2021-07-05T11:25:41</time>
      </trkpt>
      <trkpt lat="45.42793" lon="6.18673">
        <ele>1208.0204</ele>
        <time>2021-07-05T11:25:47</time>
      </trkpt>
      <trkpt lat="45.42793" lon="6.18674">
        <ele>1208.0204</ele>
        <time>2021-07-05T11:25:48</time>
      </trkpt>
      <trkpt lat="45.42788" lon="6.18681">
        <ele>1207.5204</ele>
        <time>2021-07-05T11:25:57</time>
      </trkpt>
      <trkpt lat="45.42787" lon="6.18682">
        <ele>1207.5204</ele>
        <time>2021-07-05T11:25:59</time>
      </trkpt>
      <trkpt lat="45.42786" lon="6.18682">
        <ele>1207.5204</ele>
        <time>2021-07-05T11:26:00</time>
      </trkpt>
      <trkpt lat="45.42786" lon="6.18683">
        <ele>1207.5204</ele>
        <time>2021-07-05T11:26:01</time>
      </trkpt>
      <trkpt lat="45.42784" lon="6.18684">
        <ele>1207.5204</ele>
        <time>2021-07-05T11:26:04</time>
      </trkpt>
      <trkpt lat="45.42784" lon="6.18684">
        <ele>1208.8204</ele>
        <time>2021-07-05T11:26:05</time>
      </trkpt>
      <trkpt lat="45.42784" lon="6.18685">
        <ele>1208.8204</ele>
        <time>2021-07-05T11:26:07</time>
      </trkpt>
      <trkpt lat="45.42784" lon="6.18687">
        <ele>1208.8204</ele>
        <time>2021-07-05T11:26:09</time>
      </trkpt>
      <trkpt lat="45.42784" lon="6.18689">
        <ele>1208.8204</ele>
        <time>2021-07-05T11:26:10</time>
      </trkpt>
      <trkpt lat="45.42787" lon="6.18689">
        <ele>1208.8204</ele>
        <time>2021-07-05T11:26:12</time>
      </trkpt>
      <trkpt lat="45.42786" lon="6.18691">
        <ele>1208.8204</ele>
        <time>2021-07-05T11:26:14</time>
      </trkpt>
      <trkpt lat="45.42784" lon="6.18694">
        <ele>1208.8204</ele>
        <time>2021-07-05T11:26:19</time>
      </trkpt>
      <trkpt lat="45.42779" lon="6.187">
        <ele>1208.8204</ele>
        <time>2021-07-05T11:26:29</time>
      </trkpt>
      <trkpt lat="45.42779" lon="6.18699">
        <ele>1208.8204</ele>
        <time>2021-07-05T11:26:35</time>
      </trkpt>
      <trkpt lat="45.42778" lon="6.18701">
        <ele>1208.8204</ele>
        <time>2021-07-05T11:26:37</time>
      </trkpt>
      <trkpt lat="45.42777" lon="6.18702">
        <ele>1208.8204</ele>
        <time>2021-07-05T11:26:38</time>
      </trkpt>
      <trkpt lat="45.42777" lon="6.18704">
        <ele>1208.8204</ele>
        <time>2021-07-05T11:26:39</time>
      </trkpt>
      <trkpt lat="45.42777" lon="6.18706">
        <ele>1208.8204</ele>
        <time>2021-07-05T11:26:42</time>
      </trkpt>
      <trkpt lat="45.42776" lon="6.18709">
        <ele>1208.8204</ele>
        <time>2021-07-05T11:26:45</time>
      </trkpt>
      <trkpt lat="45.4277" lon="6.1872">
        <ele>1221.2205</ele>
        <time>2021-07-05T11:27:04</time>
      </trkpt>
      <trkpt lat="45.42772" lon="6.18719">
        <ele>1222.9204</ele>
        <time>2021-07-05T11:27:10</time>
      </trkpt>
      <trkpt lat="45.42769" lon="6.18723">
        <ele>1226.8204</ele>
        <time>2021-07-05T11:27:16</time>
      </trkpt>
      <trkpt lat="45.42769" lon="6.18723">
        <ele>1226.8204</ele>
        <time>2021-07-05T11:27:17</time>
      </trkpt>
      <trkpt lat="45.42768" lon="6.18725">
        <ele>1226.8204</ele>
        <time>2021-07-05T11:27:20</time>
      </trkpt>
      <trkpt lat="45.42767" lon="6.18726">
        <ele>1226.8204</ele>
        <time>2021-07-05T11:27:21</time>
      </trkpt>
      <trkpt lat="45.42767" lon="6.18729">
        <ele>1226.8204</ele>
        <time>2021-07-05T11:27:24</time>
      </trkpt>
      <trkpt lat="45.42759" lon="6.18737">
        <ele>1226.8204</ele>
        <time>2021-07-05T11:27:38</time>
      </trkpt>
      <trkpt lat="45.42759" lon="6.18738">
        <ele>1226.8204</ele>
        <time>2021-07-05T11:27:39</time>
      </trkpt>
      <trkpt lat="45.42758" lon="6.18741">
        <ele>1226.8204</ele>
        <time>2021-07-05T11:27:43</time>
      </trkpt>
      <trkpt lat="45.42757" lon="6.18743">
        <ele>1226.8204</ele>
        <time>2021-07-05T11:27:45</time>
      </trkpt>
      <trkpt lat="45.42756" lon="6.18744">
        <ele>1226.8204</ele>
        <time>2021-07-05T11:27:46</time>
      </trkpt>
      <trkpt lat="45.42753" lon="6.18746">
        <ele>1226.8204</ele>
        <time>2021-07-05T11:27:52</time>
      </trkpt>
      <trkpt lat="45.42753" lon="6.18746">
        <ele>1226.8204</ele>
        <time>2021-07-05T11:27:53</time>
      </trkpt>
      <trkpt lat="45.42752" lon="6.18747">
        <ele>1236.5204</ele>
        <time>2021-07-05T11:27:56</time>
      </trkpt>
      <trkpt lat="45.42752" lon="6.18747">
        <ele>1236.5204</ele>
        <time>2021-07-05T11:27:57</time>
      </trkpt>
      <trkpt lat="45.42743" lon="6.18753">
        <ele>1240.3204</ele>
        <time>2021-07-05T11:28:09</time>
      </trkpt>
      <trkpt lat="45.42743" lon="6.18753">
        <ele>1240.3204</ele>
        <time>2021-07-05T11:28:10</time>
      </trkpt>
      <trkpt lat="45.42743" lon="6.18754">
        <ele>1240.3204</ele>
        <time>2021-07-05T11:28:12</time>
      </trkpt>
      <trkpt lat="45.42743" lon="6.18755">
        <ele>1240.3204</ele>
        <time>2021-07-05T11:28:13</time>
      </trkpt>
      <trkpt lat="45.42742" lon="6.18756">
        <ele>1242.5204</ele>
        <time>2021-07-05T11:28:15</time>
      </trkpt>
      <trkpt lat="45.42742" lon="6.18757">
        <ele>1242.5204</ele>
        <time>2021-07-05T11:28:16</time>
      </trkpt>
      <trkpt lat="45.42742" lon="6.18759">
        <ele>1242.5204</ele>
        <time>2021-07-05T11:28:20</time>
      </trkpt>
      <trkpt lat="45.42741" lon="6.1876">
        <ele>1242.5204</ele>
        <time>2021-07-05T11:28:22</time>
      </trkpt>
      <trkpt lat="45.42741" lon="6.1876">
        <ele>1242.5204</ele>
        <time>2021-07-05T11:28:23</time>
      </trkpt>
      <trkpt lat="45.42741" lon="6.18761">
        <ele>1239.6205</ele>
        <time>2021-07-05T11:28:25</time>
      </trkpt>
      <trkpt lat="45.42741" lon="6.18761">
        <ele>1239.6205</ele>
        <time>2021-07-05T11:28:26</time>
      </trkpt>
      <trkpt lat="45.4274" lon="6.18761">
        <ele>1239.6205</ele>
        <time>2021-07-05T11:28:27</time>
      </trkpt>
      <trkpt lat="45.42738" lon="6.18764">
        <ele>1239.6205</ele>
        <time>2021-07-05T11:28:32</time>
      </trkpt>
      <trkpt lat="45.42738" lon="6.18764">
        <ele>1239.6205</ele>
        <time>2021-07-05T11:28:33</time>
      </trkpt>
      <trkpt lat="45.42734" lon="6.18768">
        <ele>1246.7205</ele>
        <time>2021-07-05T11:28:42</time>
      </trkpt>
      <trkpt lat="45.42733" lon="6.18768">
        <ele>1246.7205</ele>
        <time>2021-07-05T11:28:44</time>
      </trkpt>
      <trkpt lat="45.42732" lon="6.18768">
        <ele>1250.5204</ele>
        <time>2021-07-05T11:28:46</time>
      </trkpt>
      <trkpt lat="45.4273" lon="6.18762">
        <ele>1253.2205</ele>
        <time>2021-07-05T11:28:56</time>
      </trkpt>
      <trkpt lat="45.42724" lon="6.18762">
        <ele>1257.3204</ele>
        <time>2021-07-05T11:29:09</time>
      </trkpt>
      <trkpt lat="45.42723" lon="6.18763">
        <ele>1257.3204</ele>
        <time>2021-07-05T11:29:10</time>
      </trkpt>
      <trkpt lat="45.42723" lon="6.18763">
        <ele>1257.3204</ele>
        <time>2021-07-05T11:29:11</time>
      </trkpt>
      <trkpt lat="45.42723" lon="6.18764">
        <ele>1253.5204</ele>
        <time>2021-07-05T11:29:16</time>
      </trkpt>
      <trkpt lat="45.42722" lon="6.18764">
        <ele>1253.5204</ele>
        <time>2021-07-05T11:29:17</time>
      </trkpt>
      <trkpt lat="45.42722" lon="6.18763">
        <ele>1253.5204</ele>
        <time>2021-07-05T11:29:19</time>
      </trkpt>
      <trkpt lat="45.42721" lon="6.18763">
        <ele>1253.5204</ele>
        <time>2021-07-05T11:29:22</time>
      </trkpt>
      <trkpt lat="45.42722" lon="6.18763">
        <ele>1253.5204</ele>
        <time>2021-07-05T11:29:24</time>
      </trkpt>
      <trkpt lat="45.42721" lon="6.18764">
        <ele>1256.2205</ele>
        <time>2021-07-05T11:29:25</time>
      </trkpt>
      <trkpt lat="45.42722" lon="6.18765">
        <ele>1256.2205</ele>
        <time>2021-07-05T11:29:26</time>
      </trkpt>
      <trkpt lat="45.42722" lon="6.18766">
        <ele>1256.2205</ele>
        <time>2021-07-05T11:29:28</time>
      </trkpt>
      <trkpt lat="45.42722" lon="6.18767">
        <ele>1256.2205</ele>
        <time>2021-07-05T11:29:29</time>
      </trkpt>
      <trkpt lat="45.42722" lon="6.18769">
        <ele>1256.2205</ele>
        <time>2021-07-05T11:29:32</time>
      </trkpt>
      <trkpt lat="45.42725" lon="6.18772">
        <ele>1256.7205</ele>
        <time>2021-07-05T11:29:37</time>
      </trkpt>
      <trkpt lat="45.42725" lon="6.18773">
        <ele>1256.7205</ele>
        <time>2021-07-05T11:29:38</time>
      </trkpt>
      <trkpt lat="45.42726" lon="6.18777">
        <ele>1256.7205</ele>
        <time>2021-07-05T11:29:41</time>
      </trkpt>
      <trkpt lat="45.42727" lon="6.18776">
        <ele>1253.5204</ele>
        <time>2021-07-05T11:29:45</time>
      </trkpt>
      <trkpt lat="45.42726" lon="6.18777">
        <ele>1253.5204</ele>
        <time>2021-07-05T11:29:46</time>
      </trkpt>
      <trkpt lat="45.42726" lon="6.18779">
        <ele>1253.5204</ele>
        <time>2021-07-05T11:29:48</time>
      </trkpt>
      <trkpt lat="45.42725" lon="6.1878">
        <ele>1253.5204</ele>
        <time>2021-07-05T11:29:49</time>
      </trkpt>
      <trkpt lat="45.42725" lon="6.18781">
        <ele>1253.5204</ele>
        <time>2021-07-05T11:29:50</time>
      </trkpt>
      <trkpt lat="45.42723" lon="6.18782">
        <ele>1253.5204</ele>
        <time>2021-07-05T11:29:52</time>
      </trkpt>
      <trkpt lat="45.42722" lon="6.18782">
        <ele>1253.5204</ele>
        <time>2021-07-05T11:29:53</time>
      </trkpt>
      <trkpt lat="45.42721" lon="6.18782">
        <ele>1257.2205</ele>
        <time>2021-07-05T11:29:55</time>
      </trkpt>
      <trkpt lat="45.42721" lon="6.18781">
        <ele>1257.2205</ele>
        <time>2021-07-05T11:29:56</time>
      </trkpt>
      <trkpt lat="45.4272" lon="6.18782">
        <ele>1257.2205</ele>
        <time>2021-07-05T11:29:59</time>
      </trkpt>
      <trkpt lat="45.42719" lon="6.18781">
        <ele>1257.2205</ele>
        <time>2021-07-05T11:30:00</time>
      </trkpt>
      <trkpt lat="45.42718" lon="6.18782">
        <ele>1257.2205</ele>
        <time>2021-07-05T11:30:02</time>
      </trkpt>
      <trkpt lat="45.42716" lon="6.18786">
        <ele>1254.7205</ele>
        <time>2021-07-05T11:30:10</time>
      </trkpt>
      <trkpt lat="45.42716" lon="6.18786">
        <ele>1254.0204</ele>
        <time>2021-07-05T11:30:17</time>
      </trkpt>
      <trkpt lat="45.42714" lon="6.1879">
        <ele>1254.0204</ele>
        <time>2021-07-05T11:30:21</time>
      </trkpt>
      <trkpt lat="45.42714" lon="6.1879">
        <ele>1254.0204</ele>
        <time>2021-07-05T11:30:24</time>
      </trkpt>
      <trkpt lat="45.42714" lon="6.18791">
        <ele>1257.7205</ele>
        <time>2021-07-05T11:30:25</time>
      </trkpt>
      <trkpt lat="45.42713" lon="6.18792">
        <ele>1258.9204</ele>
        <time>2021-07-05T11:30:35</time>
      </trkpt>
      <trkpt lat="45.42712" lon="6.18794">
        <ele>1258.9204</ele>
        <time>2021-07-05T11:30:37</time>
      </trkpt>
      <trkpt lat="45.42712" lon="6.18794">
        <ele>1258.9204</ele>
        <time>2021-07-05T11:30:38</time>
      </trkpt>
      <trkpt lat="45.42712" lon="6.18795">
        <ele>1258.9204</ele>
        <time>2021-07-05T11:30:39</time>
      </trkpt>
      <trkpt lat="45.42712" lon="6.18794">
        <ele>1258.9204</ele>
        <time>2021-07-05T11:30:41</time>
      </trkpt>
      <trkpt lat="45.42711" lon="6.18796">
        <ele>1260.5204</ele>
        <time>2021-07-05T11:30:46</time>
      </trkpt>
      <trkpt lat="45.42711" lon="6.18796">
        <ele>1260.5204</ele>
        <time>2021-07-05T11:30:50</time>
      </trkpt>
      <trkpt lat="45.4271" lon="6.18797">
        <ele>1260.5204</ele>
        <time>2021-07-05T11:30:51</time>
      </trkpt>
      <trkpt lat="45.42695" lon="6.18815">
        <ele>1269.9204</ele>
        <time>2021-07-05T11:31:13</time>
      </trkpt>
      <trkpt lat="45.42694" lon="6.18816">
        <ele>1269.9204</ele>
        <time>2021-07-05T11:31:14</time>
      </trkpt>
      <trkpt lat="45.42692" lon="6.18818">
        <ele>1273.9204</ele>
        <time>2021-07-05T11:31:17</time>
      </trkpt>
      <trkpt lat="45.42691" lon="6.18819">
        <ele>1273.9204</ele>
        <time>2021-07-05T11:31:19</time>
      </trkpt>
      <trkpt lat="45.4269" lon="6.18819">
        <ele>1273.9204</ele>
        <time>2021-07-05T11:31:20</time>
      </trkpt>
      <trkpt lat="45.42689" lon="6.1882">
        <ele>1273.9204</ele>
        <time>2021-07-05T11:31:21</time>
      </trkpt>
      <trkpt lat="45.42688" lon="6.18821">
        <ele>1273.9204</ele>
        <time>2021-07-05T11:31:22</time>
      </trkpt>
      <trkpt lat="45.42688" lon="6.18824">
        <ele>1271.8204</ele>
        <time>2021-07-05T11:31:25</time>
      </trkpt>
      <trkpt lat="45.42687" lon="6.18827">
        <ele>1271.8204</ele>
        <time>2021-07-05T11:31:27</time>
      </trkpt>
      <trkpt lat="45.42687" lon="6.18827">
        <ele>1271.8204</ele>
        <time>2021-07-05T11:31:28</time>
      </trkpt>
      <trkpt lat="45.42687" lon="6.18827">
        <ele>1271.8204</ele>
        <time>2021-07-05T11:31:29</time>
      </trkpt>
      <trkpt lat="45.42687" lon="6.18828">
        <ele>1271.8204</ele>
        <time>2021-07-05T11:31:30</time>
      </trkpt>
      <trkpt lat="45.42687" lon="6.18828">
        <ele>1271.8204</ele>
        <time>2021-07-05T11:31:31</time>
      </trkpt>
      <trkpt lat="45.42686" lon="6.1883">
        <ele>1271.8204</ele>
        <time>2021-07-05T11:31:33</time>
      </trkpt>
      <trkpt lat="45.42685" lon="6.18831">
        <ele>1271.8204</ele>
        <time>2021-07-05T11:31:34</time>
      </trkpt>
      <trkpt lat="45.42685" lon="6.18831">
        <ele>1271.8204</ele>
        <time>2021-07-05T11:31:35</time>
      </trkpt>
      <trkpt lat="45.42684" lon="6.18831">
        <ele>1271.8204</ele>
        <time>2021-07-05T11:31:36</time>
      </trkpt>
      <trkpt lat="45.42684" lon="6.18831">
        <ele>1271.8204</ele>
        <time>2021-07-05T11:31:38</time>
      </trkpt>
      <trkpt lat="45.42683" lon="6.18831">
        <ele>1271.8204</ele>
        <time>2021-07-05T11:31:39</time>
      </trkpt>
      <trkpt lat="45.42682" lon="6.18832">
        <ele>1271.8204</ele>
        <time>2021-07-05T11:31:40</time>
      </trkpt>
      <trkpt lat="45.42681" lon="6.18832">
        <ele>1271.8204</ele>
        <time>2021-07-05T11:31:41</time>
      </trkpt>
      <trkpt lat="45.42673" lon="6.18835">
        <ele>1274.4204</ele>
        <time>2021-07-05T11:31:51</time>
      </trkpt>
      <trkpt lat="45.42672" lon="6.18836">
        <ele>1274.4204</ele>
        <time>2021-07-05T11:31:52</time>
      </trkpt>
      <trkpt lat="45.42669" lon="6.18837">
        <ele>1278.3204</ele>
        <time>2021-07-05T11:31:58</time>
      </trkpt>
      <trkpt lat="45.42668" lon="6.18838">
        <ele>1278.3204</ele>
        <time>2021-07-05T11:31:59</time>
      </trkpt>
      <trkpt lat="45.42666" lon="6.1884">
        <ele>1278.3204</ele>
        <time>2021-07-05T11:32:02</time>
      </trkpt>
      <trkpt lat="45.42665" lon="6.18841">
        <ele>1278.3204</ele>
        <time>2021-07-05T11:32:03</time>
      </trkpt>
      <trkpt lat="45.42664" lon="6.18841">
        <ele>1278.3204</ele>
        <time>2021-07-05T11:32:04</time>
      </trkpt>
      <trkpt lat="45.42664" lon="6.18841">
        <ele>1279.4204</ele>
        <time>2021-07-05T11:32:05</time>
      </trkpt>
      <trkpt lat="45.42664" lon="6.18842">
        <ele>1279.4204</ele>
        <time>2021-07-05T11:32:07</time>
      </trkpt>
      <trkpt lat="45.42663" lon="6.18843">
        <ele>1279.4204</ele>
        <time>2021-07-05T11:32:08</time>
      </trkpt>
      <trkpt lat="45.42663" lon="6.18844">
        <ele>1279.4204</ele>
        <time>2021-07-05T11:32:09</time>
      </trkpt>
      <trkpt lat="45.42662" lon="6.18844">
        <ele>1279.4204</ele>
        <time>2021-07-05T11:32:10</time>
      </trkpt>
      <trkpt lat="45.42656" lon="6.18848">
        <ele>1279.6205</ele>
        <time>2021-07-05T11:32:20</time>
      </trkpt>
      <trkpt lat="45.42653" lon="6.1885">
        <ele>1277.3204</ele>
        <time>2021-07-05T11:32:27</time>
      </trkpt>
      <trkpt lat="45.42653" lon="6.1885">
        <ele>1277.3204</ele>
        <time>2021-07-05T11:32:28</time>
      </trkpt>
      <trkpt lat="45.4265" lon="6.18852">
        <ele>1277.3204</ele>
        <time>2021-07-05T11:32:32</time>
      </trkpt>
      <trkpt lat="45.42649" lon="6.18853">
        <ele>1277.3204</ele>
        <time>2021-07-05T11:32:33</time>
      </trkpt>
      <trkpt lat="45.42647" lon="6.18854">
        <ele>1277.3204</ele>
        <time>2021-07-05T11:32:34</time>
      </trkpt>
      <trkpt lat="45.42637" lon="6.18862">
        <ele>1283.2205</ele>
        <time>2021-07-05T11:32:48</time>
      </trkpt>
      <trkpt lat="45.42637" lon="6.18863">
        <ele>1283.2205</ele>
        <time>2021-07-05T11:32:49</time>
      </trkpt>
      <trkpt lat="45.42636" lon="6.18865">
        <ele>1283.2205</ele>
        <time>2021-07-05T11:32:51</time>
      </trkpt>
      <trkpt lat="45.42634" lon="6.18871">
        <ele>1286.8204</ele>
        <time>2021-07-05T11:32:56</time>
      </trkpt>
      <trkpt lat="45.42633" lon="6.18872">
        <ele>1286.8204</ele>
        <time>2021-07-05T11:32:58</time>
      </trkpt>
      <trkpt lat="45.42633" lon="6.18874">
        <ele>1286.8204</ele>
        <time>2021-07-05T11:32:59</time>
      </trkpt>
      <trkpt lat="45.42632" lon="6.18875">
        <ele>1286.8204</ele>
        <time>2021-07-05T11:33:00</time>
      </trkpt>
      <trkpt lat="45.4263" lon="6.18879">
        <ele>1286.8204</ele>
        <time>2021-07-05T11:33:03</time>
      </trkpt>
      <trkpt lat="45.42628" lon="6.18882">
        <ele>1290.2205</ele>
        <time>2021-07-05T11:33:07</time>
      </trkpt>
      <trkpt lat="45.42625" lon="6.18893">
        <ele>1290.9204</ele>
        <time>2021-07-05T11:33:18</time>
      </trkpt>
      <trkpt lat="45.42625" lon="6.18893">
        <ele>1290.9204</ele>
        <time>2021-07-05T11:33:19</time>
      </trkpt>
      <trkpt lat="45.42625" lon="6.18895">
        <ele>1290.9204</ele>
        <time>2021-07-05T11:33:22</time>
      </trkpt>
      <trkpt lat="45.42624" lon="6.18898">
        <ele>1280.0204</ele>
        <time>2021-07-05T11:33:25</time>
      </trkpt>
      <trkpt lat="45.42623" lon="6.18899">
        <ele>1280.0204</ele>
        <time>2021-07-05T11:33:26</time>
      </trkpt>
      <trkpt lat="45.42622" lon="6.189">
        <ele>1280.0204</ele>
        <time>2021-07-05T11:33:27</time>
      </trkpt>
      <trkpt lat="45.42622" lon="6.18901">
        <ele>1280.0204</ele>
        <time>2021-07-05T11:33:28</time>
      </trkpt>
      <trkpt lat="45.42622" lon="6.18902">
        <ele>1280.0204</ele>
        <time>2021-07-05T11:33:29</time>
      </trkpt>
      <trkpt lat="45.42622" lon="6.18903">
        <ele>1280.0204</ele>
        <time>2021-07-05T11:33:30</time>
      </trkpt>
      <trkpt lat="45.42622" lon="6.18904">
        <ele>1280.0204</ele>
        <time>2021-07-05T11:33:31</time>
      </trkpt>
      <trkpt lat="45.42622" lon="6.18906">
        <ele>1280.0204</ele>
        <time>2021-07-05T11:33:32</time>
      </trkpt>
      <trkpt lat="45.42622" lon="6.18908">
        <ele>1280.0204</ele>
        <time>2021-07-05T11:33:33</time>
      </trkpt>
      <trkpt lat="45.42622" lon="6.18911">
        <ele>1277.0204</ele>
        <time>2021-07-05T11:33:35</time>
      </trkpt>
      <trkpt lat="45.42621" lon="6.18913">
        <ele>1277.0204</ele>
        <time>2021-07-05T11:33:36</time>
      </trkpt>
      <trkpt lat="45.42621" lon="6.18914">
        <ele>1277.0204</ele>
        <time>2021-07-05T11:33:38</time>
      </trkpt>
      <trkpt lat="45.42621" lon="6.18915">
        <ele>1277.0204</ele>
        <time>2021-07-05T11:33:39</time>
      </trkpt>
      <trkpt lat="45.42621" lon="6.18915">
        <ele>1277.0204</ele>
        <time>2021-07-05T11:33:40</time>
      </trkpt>
      <trkpt lat="45.42622" lon="6.18916">
        <ele>1277.0204</ele>
        <time>2021-07-05T11:33:41</time>
      </trkpt>
      <trkpt lat="45.42622" lon="6.18917">
        <ele>1277.0204</ele>
        <time>2021-07-05T11:33:42</time>
      </trkpt>
      <trkpt lat="45.42622" lon="6.18918">
        <ele>1277.0204</ele>
        <time>2021-07-05T11:33:43</time>
      </trkpt>
      <trkpt lat="45.42622" lon="6.18918">
        <ele>1277.0204</ele>
        <time>2021-07-05T11:33:44</time>
      </trkpt>
      <trkpt lat="45.42622" lon="6.18918">
        <ele>1277.0204</ele>
        <time>2021-07-05T11:33:45</time>
      </trkpt>
      <trkpt lat="45.42621" lon="6.18919">
        <ele>1277.0204</ele>
        <time>2021-07-05T11:33:46</time>
      </trkpt>
      <trkpt lat="45.42621" lon="6.1892">
        <ele>1277.0204</ele>
        <time>2021-07-05T11:33:47</time>
      </trkpt>
      <trkpt lat="45.42621" lon="6.1892">
        <ele>1277.0204</ele>
        <time>2021-07-05T11:33:48</time>
      </trkpt>
      <trkpt lat="45.42621" lon="6.18922">
        <ele>1277.0204</ele>
        <time>2021-07-05T11:33:50</time>
      </trkpt>
      <trkpt lat="45.42621" lon="6.18923">
        <ele>1277.0204</ele>
        <time>2021-07-05T11:33:51</time>
      </trkpt>
      <trkpt lat="45.42621" lon="6.18925">
        <ele>1277.0204</ele>
        <time>2021-07-05T11:33:53</time>
      </trkpt>
      <trkpt lat="45.42621" lon="6.18927">
        <ele>1277.0204</ele>
        <time>2021-07-05T11:33:55</time>
      </trkpt>
      <trkpt lat="45.42621" lon="6.18928">
        <ele>1277.0204</ele>
        <time>2021-07-05T11:33:56</time>
      </trkpt>
      <trkpt lat="45.42621" lon="6.18929">
        <ele>1277.0204</ele>
        <time>2021-07-05T11:33:57</time>
      </trkpt>
      <trkpt lat="45.42619" lon="6.18931">
        <ele>1277.0204</ele>
        <time>2021-07-05T11:34:01</time>
      </trkpt>
      <trkpt lat="45.42619" lon="6.18946">
        <ele>1291.9204</ele>
        <time>2021-07-05T11:34:18</time>
      </trkpt>
      <trkpt lat="45.42619" lon="6.18947">
        <ele>1291.9204</ele>
        <time>2021-07-05T11:34:20</time>
      </trkpt>
      <trkpt lat="45.42621" lon="6.1895">
        <ele>1291.3204</ele>
        <time>2021-07-05T11:34:25</time>
      </trkpt>
      <trkpt lat="45.42621" lon="6.18951">
        <ele>1291.3204</ele>
        <time>2021-07-05T11:34:26</time>
      </trkpt>
      <trkpt lat="45.4262" lon="6.18953">
        <ele>1291.3204</ele>
        <time>2021-07-05T11:34:29</time>
      </trkpt>
      <trkpt lat="45.4262" lon="6.18954">
        <ele>1291.3204</ele>
        <time>2021-07-05T11:34:31</time>
      </trkpt>
      <trkpt lat="45.4262" lon="6.18957">
        <ele>1291.3204</ele>
        <time>2021-07-05T11:34:34</time>
      </trkpt>
      <trkpt lat="45.4262" lon="6.18959">
        <ele>1294.9204</ele>
        <time>2021-07-05T11:34:36</time>
      </trkpt>
      <trkpt lat="45.42619" lon="6.18964">
        <ele>1294.9204</ele>
        <time>2021-07-05T11:34:42</time>
      </trkpt>
      <trkpt lat="45.42619" lon="6.18965">
        <ele>1294.9204</ele>
        <time>2021-07-05T11:34:43</time>
      </trkpt>
      <trkpt lat="45.42619" lon="6.18967">
        <ele>1295.0204</ele>
        <time>2021-07-05T11:34:45</time>
      </trkpt>
      <trkpt lat="45.42617" lon="6.18973">
        <ele>1295.0204</ele>
        <time>2021-07-05T11:34:50</time>
      </trkpt>
      <trkpt lat="45.42617" lon="6.18973">
        <ele>1295.0204</ele>
        <time>2021-07-05T11:34:51</time>
      </trkpt>
      <trkpt lat="45.42617" lon="6.18975">
        <ele>1295.0204</ele>
        <time>2021-07-05T11:34:53</time>
      </trkpt>
      <trkpt lat="45.42617" lon="6.18976">
        <ele>1295.0204</ele>
        <time>2021-07-05T11:34:54</time>
      </trkpt>
      <trkpt lat="45.42615" lon="6.18976">
        <ele>1293.7205</ele>
        <time>2021-07-05T11:34:58</time>
      </trkpt>
      <trkpt lat="45.42615" lon="6.18977">
        <ele>1293.7205</ele>
        <time>2021-07-05T11:35:00</time>
      </trkpt>
      <trkpt lat="45.42615" lon="6.18978">
        <ele>1293.7205</ele>
        <time>2021-07-05T11:35:01</time>
      </trkpt>
      <trkpt lat="45.42614" lon="6.18979">
        <ele>1293.7205</ele>
        <time>2021-07-05T11:35:03</time>
      </trkpt>
      <trkpt lat="45.42614" lon="6.1898">
        <ele>1292.8204</ele>
        <time>2021-07-05T11:35:10</time>
      </trkpt>
      <trkpt lat="45.42614" lon="6.18981">
        <ele>1292.8204</ele>
        <time>2021-07-05T11:35:11</time>
      </trkpt>
      <trkpt lat="45.42613" lon="6.18982">
        <ele>1292.8204</ele>
        <time>2021-07-05T11:35:13</time>
      </trkpt>
      <trkpt lat="45.42613" lon="6.18983">
        <ele>1292.8204</ele>
        <time>2021-07-05T11:35:14</time>
      </trkpt>
      <trkpt lat="45.42613" lon="6.18984">
        <ele>1293.8204</ele>
        <time>2021-07-05T11:35:33</time>
      </trkpt>
      <trkpt lat="45.42611" lon="6.18985">
        <ele>1293.7205</ele>
        <time>2021-07-05T11:35:36</time>
      </trkpt>
      <trkpt lat="45.4261" lon="6.18986">
        <ele>1293.7205</ele>
        <time>2021-07-05T11:35:37</time>
      </trkpt>
      <trkpt lat="45.42609" lon="6.18988">
        <ele>1293.7205</ele>
        <time>2021-07-05T11:35:41</time>
      </trkpt>
      <trkpt lat="45.42608" lon="6.18989">
        <ele>1293.7205</ele>
        <time>2021-07-05T11:35:42</time>
      </trkpt>
      <trkpt lat="45.42608" lon="6.18989">
        <ele>1293.7205</ele>
        <time>2021-07-05T11:35:43</time>
      </trkpt>
      <trkpt lat="45.42608" lon="6.18988">
        <ele>1295.7205</ele>
        <time>2021-07-05T11:35:47</time>
      </trkpt>
      <trkpt lat="45.42609" lon="6.18989">
        <ele>1295.7205</ele>
        <time>2021-07-05T11:35:48</time>
      </trkpt>
      <trkpt lat="45.42608" lon="6.1899">
        <ele>1295.7205</ele>
        <time>2021-07-05T11:35:50</time>
      </trkpt>
      <trkpt lat="45.42608" lon="6.18991">
        <ele>1295.7205</ele>
        <time>2021-07-05T11:35:51</time>
      </trkpt>
      <trkpt lat="45.42608" lon="6.18992">
        <ele>1295.7205</ele>
        <time>2021-07-05T11:35:52</time>
      </trkpt>
      <trkpt lat="45.42608" lon="6.18992">
        <ele>1295.7205</ele>
        <time>2021-07-05T11:35:53</time>
      </trkpt>
      <trkpt lat="45.42608" lon="6.18993">
        <ele>1295.7205</ele>
        <time>2021-07-05T11:35:56</time>
      </trkpt>
      <trkpt lat="45.42608" lon="6.18993">
        <ele>1295.7205</ele>
        <time>2021-07-05T11:35:58</time>
      </trkpt>
      <trkpt lat="45.42608" lon="6.18993">
        <ele>1295.7205</ele>
        <time>2021-07-05T11:35:59</time>
      </trkpt>
      <trkpt lat="45.42608" lon="6.18994">
        <ele>1298.9204</ele>
        <time>2021-07-05T11:36:06</time>
      </trkpt>
      <trkpt lat="45.42608" lon="6.18996">
        <ele>1298.9204</ele>
        <time>2021-07-05T11:36:07</time>
      </trkpt>
      <trkpt lat="45.42609" lon="6.18999">
        <ele>1298.9204</ele>
        <time>2021-07-05T11:36:13</time>
      </trkpt>
      <trkpt lat="45.42608" lon="6.18998">
        <ele>1298.9204</ele>
        <time>2021-07-05T11:36:14</time>
      </trkpt>
      <trkpt lat="45.42607" lon="6.18998">
        <ele>1303.8204</ele>
        <time>2021-07-05T11:36:15</time>
      </trkpt>
      <trkpt lat="45.42606" lon="6.18997">
        <ele>1303.8204</ele>
        <time>2021-07-05T11:36:16</time>
      </trkpt>
      <trkpt lat="45.42603" lon="6.18996">
        <ele>1303.8204</ele>
        <time>2021-07-05T11:36:18</time>
      </trkpt>
      <trkpt lat="45.42601" lon="6.18997">
        <ele>1303.8204</ele>
        <time>2021-07-05T11:36:20</time>
      </trkpt>
      <trkpt lat="45.426" lon="6.18997">
        <ele>1303.8204</ele>
        <time>2021-07-05T11:36:21</time>
      </trkpt>
      <trkpt lat="45.42598" lon="6.18998">
        <ele>1303.8204</ele>
        <time>2021-07-05T11:36:22</time>
      </trkpt>
      <trkpt lat="45.42595" lon="6.18999">
        <ele>1303.8204</ele>
        <time>2021-07-05T11:36:25</time>
      </trkpt>
      <trkpt lat="45.42594" lon="6.18999">
        <ele>1303.8204</ele>
        <time>2021-07-05T11:36:26</time>
      </trkpt>
      <trkpt lat="45.42593" lon="6.18999">
        <ele>1303.8204</ele>
        <time>2021-07-05T11:36:27</time>
      </trkpt>
      <trkpt lat="45.42592" lon="6.18999">
        <ele>1303.8204</ele>
        <time>2021-07-05T11:36:28</time>
      </trkpt>
      <trkpt lat="45.4259" lon="6.18998">
        <ele>1303.8204</ele>
        <time>2021-07-05T11:36:31</time>
      </trkpt>
      <trkpt lat="45.4259" lon="6.18998">
        <ele>1303.8204</ele>
        <time>2021-07-05T11:36:32</time>
      </trkpt>
      <trkpt lat="45.4259" lon="6.18998">
        <ele>1303.8204</ele>
        <time>2021-07-05T11:36:33</time>
      </trkpt>
      <trkpt lat="45.42589" lon="6.18997">
        <ele>1303.8204</ele>
        <time>2021-07-05T11:36:34</time>
      </trkpt>
      <trkpt lat="45.42589" lon="6.18998">
        <ele>1303.8204</ele>
        <time>2021-07-05T11:36:35</time>
      </trkpt>
      <trkpt lat="45.42588" lon="6.18998">
        <ele>1303.8204</ele>
        <time>2021-07-05T11:36:38</time>
      </trkpt>
      <trkpt lat="45.42587" lon="6.18998">
        <ele>1303.8204</ele>
        <time>2021-07-05T11:36:39</time>
      </trkpt>
      <trkpt lat="45.42586" lon="6.18998">
        <ele>1303.8204</ele>
        <time>2021-07-05T11:36:40</time>
      </trkpt>
      <trkpt lat="45.42584" lon="6.18999">
        <ele>1303.8204</ele>
        <time>2021-07-05T11:36:44</time>
      </trkpt>
      <trkpt lat="45.4258" lon="6.19">
        <ele>1302.2205</ele>
        <time>2021-07-05T11:36:50</time>
      </trkpt>
      <trkpt lat="45.4258" lon="6.19">
        <ele>1302.2205</ele>
        <time>2021-07-05T11:36:54</time>
      </trkpt>
      <trkpt lat="45.4258" lon="6.19">
        <ele>1301.7205</ele>
        <time>2021-07-05T11:36:55</time>
      </trkpt>
      <trkpt lat="45.42579" lon="6.19001">
        <ele>1301.7205</ele>
        <time>2021-07-05T11:36:59</time>
      </trkpt>
      <trkpt lat="45.42579" lon="6.19001">
        <ele>1301.7205</ele>
        <time>2021-07-05T11:37:01</time>
      </trkpt>
      <trkpt lat="45.42579" lon="6.19001">
        <ele>1301.7205</ele>
        <time>2021-07-05T11:37:02</time>
      </trkpt>
      <trkpt lat="45.42578" lon="6.19002">
        <ele>1303.8204</ele>
        <time>2021-07-05T11:37:05</time>
      </trkpt>
      <trkpt lat="45.42578" lon="6.19002">
        <ele>1303.8204</ele>
        <time>2021-07-05T11:37:06</time>
      </trkpt>
      <trkpt lat="45.42578" lon="6.19003">
        <ele>1303.8204</ele>
        <time>2021-07-05T11:37:07</time>
      </trkpt>
      <trkpt lat="45.42575" lon="6.19005">
        <ele>1304.0204</ele>
        <time>2021-07-05T11:37:18</time>
      </trkpt>
      <trkpt lat="45.42575" lon="6.19005">
        <ele>1304.0204</ele>
        <time>2021-07-05T11:37:19</time>
      </trkpt>
      <trkpt lat="45.42575" lon="6.19005">
        <ele>1304.0204</ele>
        <time>2021-07-05T11:37:20</time>
      </trkpt>
      <trkpt lat="45.42575" lon="6.19004">
        <ele>1304.0204</ele>
        <time>2021-07-05T11:37:21</time>
      </trkpt>
      <trkpt lat="45.42575" lon="6.19004">
        <ele>1304.0204</ele>
        <time>2021-07-05T11:37:22</time>
      </trkpt>
      <trkpt lat="45.42574" lon="6.19004">
        <ele>1304.0204</ele>
        <time>2021-07-05T11:37:23</time>
      </trkpt>
      <trkpt lat="45.42573" lon="6.19007">
        <ele>1309.6205</ele>
        <time>2021-07-05T11:37:28</time>
      </trkpt>
      <trkpt lat="45.42573" lon="6.19009">
        <ele>1309.6205</ele>
        <time>2021-07-05T11:37:30</time>
      </trkpt>
      <trkpt lat="45.42573" lon="6.19014">
        <ele>1311.1205</ele>
        <time>2021-07-05T11:37:35</time>
      </trkpt>
      <trkpt lat="45.42573" lon="6.19015">
        <ele>1311.1205</ele>
        <time>2021-07-05T11:37:36</time>
      </trkpt>
      <trkpt lat="45.42573" lon="6.19017">
        <ele>1311.1205</ele>
        <time>2021-07-05T11:37:39</time>
      </trkpt>
      <trkpt lat="45.42573" lon="6.19017">
        <ele>1311.1205</ele>
        <time>2021-07-05T11:37:40</time>
      </trkpt>
      <trkpt lat="45.42572" lon="6.19019">
        <ele>1310.7205</ele>
        <time>2021-07-05T11:37:45</time>
      </trkpt>
      <trkpt lat="45.42572" lon="6.19021">
        <ele>1310.7205</ele>
        <time>2021-07-05T11:37:47</time>
      </trkpt>
      <trkpt lat="45.42572" lon="6.19022">
        <ele>1310.7205</ele>
        <time>2021-07-05T11:37:48</time>
      </trkpt>
      <trkpt lat="45.42569" lon="6.19025">
        <ele>1310.7205</ele>
        <time>2021-07-05T11:37:54</time>
      </trkpt>
      <trkpt lat="45.42569" lon="6.19026">
        <ele>1318.3204</ele>
        <time>2021-07-05T11:37:58</time>
      </trkpt>
      <trkpt lat="45.42569" lon="6.19029">
        <ele>1319.2205</ele>
        <time>2021-07-05T11:38:07</time>
      </trkpt>
      <trkpt lat="45.42569" lon="6.1903">
        <ele>1319.2205</ele>
        <time>2021-07-05T11:38:09</time>
      </trkpt>
      <trkpt lat="45.42567" lon="6.19032">
        <ele>1323.1205</ele>
        <time>2021-07-05T11:38:17</time>
      </trkpt>
      <trkpt lat="45.42567" lon="6.19033">
        <ele>1323.1205</ele>
        <time>2021-07-05T11:38:20</time>
      </trkpt>
      <trkpt lat="45.42566" lon="6.19031">
        <ele>1323.6205</ele>
        <time>2021-07-05T11:38:25</time>
      </trkpt>
      <trkpt lat="45.42567" lon="6.19031">
        <ele>1323.6205</ele>
        <time>2021-07-05T11:38:26</time>
      </trkpt>
      <trkpt lat="45.42567" lon="6.1903">
        <ele>1323.6205</ele>
        <time>2021-07-05T11:38:28</time>
      </trkpt>
      <trkpt lat="45.42567" lon="6.1903">
        <ele>1323.6205</ele>
        <time>2021-07-05T11:38:29</time>
      </trkpt>
      <trkpt lat="45.42568" lon="6.1903">
        <ele>1323.6205</ele>
        <time>2021-07-05T11:38:32</time>
      </trkpt>
      <trkpt lat="45.42568" lon="6.19025">
        <ele>1325.6205</ele>
        <time>2021-07-05T11:38:36</time>
      </trkpt>
      <trkpt lat="45.42567" lon="6.19025">
        <ele>1325.6205</ele>
        <time>2021-07-05T11:38:37</time>
      </trkpt>
      <trkpt lat="45.42558" lon="6.19012">
        <ele>1340.7205</ele>
        <time>2021-07-05T11:39:00</time>
      </trkpt>
      <trkpt lat="45.42557" lon="6.19012">
        <ele>1340.7205</ele>
        <time>2021-07-05T11:39:01</time>
      </trkpt>
      <trkpt lat="45.42556" lon="6.19012">
        <ele>1340.7205</ele>
        <time>2021-07-05T11:39:02</time>
      </trkpt>
      <trkpt lat="45.42555" lon="6.19012">
        <ele>1340.7205</ele>
        <time>2021-07-05T11:39:03</time>
      </trkpt>
      <trkpt lat="45.42554" lon="6.19012">
        <ele>1340.7205</ele>
        <time>2021-07-05T11:39:04</time>
      </trkpt>
      <trkpt lat="45.42553" lon="6.19013">
        <ele>1348.3204</ele>
        <time>2021-07-05T11:39:06</time>
      </trkpt>
      <trkpt lat="45.42552" lon="6.19013">
        <ele>1348.3204</ele>
        <time>2021-07-05T11:39:08</time>
      </trkpt>
      <trkpt lat="45.42552" lon="6.19013">
        <ele>1348.3204</ele>
        <time>2021-07-05T11:39:09</time>
      </trkpt>
      <trkpt lat="45.42551" lon="6.1901">
        <ele>1348.3204</ele>
        <time>2021-07-05T11:39:14</time>
      </trkpt>
      <trkpt lat="45.42551" lon="6.1901">
        <ele>1342.8204</ele>
        <time>2021-07-05T11:39:15</time>
      </trkpt>
      <trkpt lat="45.42551" lon="6.19009">
        <ele>1342.8204</ele>
        <time>2021-07-05T11:39:16</time>
      </trkpt>
      <trkpt lat="45.42552" lon="6.19009">
        <ele>1342.8204</ele>
        <time>2021-07-05T11:39:17</time>
      </trkpt>
      <trkpt lat="45.42552" lon="6.19008">
        <ele>1342.8204</ele>
        <time>2021-07-05T11:39:18</time>
      </trkpt>
      <trkpt lat="45.42552" lon="6.19008">
        <ele>1342.8204</ele>
        <time>2021-07-05T11:39:19</time>
      </trkpt>
      <trkpt lat="45.42551" lon="6.19006">
        <ele>1342.8204</ele>
        <time>2021-07-05T11:39:21</time>
      </trkpt>
      <trkpt lat="45.4255" lon="6.19006">
        <ele>1342.8204</ele>
        <time>2021-07-05T11:39:22</time>
      </trkpt>
      <trkpt lat="45.4255" lon="6.19006">
        <ele>1342.8204</ele>
        <time>2021-07-05T11:39:23</time>
      </trkpt>
      <trkpt lat="45.42549" lon="6.19006">
        <ele>1342.8204</ele>
        <time>2021-07-05T11:39:24</time>
      </trkpt>
      <trkpt lat="45.42549" lon="6.19006">
        <ele>1344.8204</ele>
        <time>2021-07-05T11:39:26</time>
      </trkpt>
      <trkpt lat="45.42548" lon="6.19006">
        <ele>1344.8204</ele>
        <time>2021-07-05T11:39:27</time>
      </trkpt>
      <trkpt lat="45.42548" lon="6.19006">
        <ele>1344.8204</ele>
        <time>2021-07-05T11:39:28</time>
      </trkpt>
      <trkpt lat="45.42547" lon="6.19003">
        <ele>1344.8204</ele>
        <time>2021-07-05T11:39:32</time>
      </trkpt>
      <trkpt lat="45.42547" lon="6.19003">
        <ele>1344.8204</ele>
        <time>2021-07-05T11:39:33</time>
      </trkpt>
      <trkpt lat="45.42547" lon="6.19002">
        <ele>1344.8204</ele>
        <time>2021-07-05T11:39:34</time>
      </trkpt>
      <trkpt lat="45.42547" lon="6.19002">
        <ele>1346.5204</ele>
        <time>2021-07-05T11:39:35</time>
      </trkpt>
      <trkpt lat="45.42547" lon="6.19001">
        <ele>1346.5204</ele>
        <time>2021-07-05T11:39:36</time>
      </trkpt>
      <trkpt lat="45.42542" lon="6.18985">
        <ele>1360.2205</ele>
        <time>2021-07-05T11:39:58</time>
      </trkpt>
      <trkpt lat="45.42543" lon="6.18985">
        <ele>1360.2205</ele>
        <time>2021-07-05T11:39:59</time>
      </trkpt>
      <trkpt lat="45.42541" lon="6.1898">
        <ele>1367.7205</ele>
        <time>2021-07-05T11:40:07</time>
      </trkpt>
      <trkpt lat="45.42534" lon="6.18973">
        <ele>1370.4204</ele>
        <time>2021-07-05T11:40:23</time>
      </trkpt>
      <trkpt lat="45.42533" lon="6.18974">
        <ele>1370.4204</ele>
        <time>2021-07-05T11:40:24</time>
      </trkpt>
      <trkpt lat="45.42532" lon="6.18975">
        <ele>1368.8204</ele>
        <time>2021-07-05T11:40:26</time>
      </trkpt>
      <trkpt lat="45.42531" lon="6.18975">
        <ele>1368.8204</ele>
        <time>2021-07-05T11:40:27</time>
      </trkpt>
      <trkpt lat="45.4253" lon="6.18976">
        <ele>1368.8204</ele>
        <time>2021-07-05T11:40:29</time>
      </trkpt>
      <trkpt lat="45.42529" lon="6.18977">
        <ele>1368.8204</ele>
        <time>2021-07-05T11:40:31</time>
      </trkpt>
      <trkpt lat="45.42528" lon="6.18978">
        <ele>1368.8204</ele>
        <time>2021-07-05T11:40:33</time>
      </trkpt>
      <trkpt lat="45.42528" lon="6.18978">
        <ele>1366.0204</ele>
        <time>2021-07-05T11:40:35</time>
      </trkpt>
      <trkpt lat="45.42526" lon="6.18978">
        <ele>1366.0204</ele>
        <time>2021-07-05T11:40:38</time>
      </trkpt>
      <trkpt lat="45.42525" lon="6.18978">
        <ele>1366.0204</ele>
        <time>2021-07-05T11:40:40</time>
      </trkpt>
      <trkpt lat="45.42524" lon="6.18978">
        <ele>1366.0204</ele>
        <time>2021-07-05T11:40:41</time>
      </trkpt>
      <trkpt lat="45.42523" lon="6.18977">
        <ele>1359.3204</ele>
        <time>2021-07-05T11:40:47</time>
      </trkpt>
      <trkpt lat="45.42523" lon="6.18976">
        <ele>1359.3204</ele>
        <time>2021-07-05T11:40:48</time>
      </trkpt>
      <trkpt lat="45.4252" lon="6.18978">
        <ele>1356.1205</ele>
        <time>2021-07-05T11:40:56</time>
      </trkpt>
      <trkpt lat="45.42519" lon="6.18977">
        <ele>1356.1205</ele>
        <time>2021-07-05T11:40:58</time>
      </trkpt>
      <trkpt lat="45.4252" lon="6.18979">
        <ele>1356.1205</ele>
        <time>2021-07-05T11:41:00</time>
      </trkpt>
      <trkpt lat="45.4252" lon="6.18982">
        <ele>1356.1205</ele>
        <time>2021-07-05T11:41:03</time>
      </trkpt>
      <trkpt lat="45.42519" lon="6.18982">
        <ele>1355.1205</ele>
        <time>2021-07-05T11:41:05</time>
      </trkpt>
      <trkpt lat="45.42519" lon="6.18982">
        <ele>1355.1205</ele>
        <time>2021-07-05T11:41:09</time>
      </trkpt>
      <trkpt lat="45.42518" lon="6.18981">
        <ele>1355.1205</ele>
        <time>2021-07-05T11:41:12</time>
      </trkpt>
      <trkpt lat="45.42518" lon="6.18981">
        <ele>1355.1205</ele>
        <time>2021-07-05T11:41:13</time>
      </trkpt>
      <trkpt lat="45.42517" lon="6.1898">
        <ele>1350.1205</ele>
        <time>2021-07-05T11:41:18</time>
      </trkpt>
      <trkpt lat="45.42517" lon="6.1898">
        <ele>1350.1205</ele>
        <time>2021-07-05T11:41:20</time>
      </trkpt>
      <trkpt lat="45.42516" lon="6.18982">
        <ele>1350.1205</ele>
        <time>2021-07-05T11:41:23</time>
      </trkpt>
      <trkpt lat="45.42514" lon="6.18983">
        <ele>1352.7205</ele>
        <time>2021-07-05T11:41:25</time>
      </trkpt>
      <trkpt lat="45.42514" lon="6.18983">
        <ele>1352.7205</ele>
        <time>2021-07-05T11:41:26</time>
      </trkpt>
      <trkpt lat="45.42514" lon="6.18984">
        <ele>1352.7205</ele>
        <time>2021-07-05T11:41:31</time>
      </trkpt>
      <trkpt lat="45.42514" lon="6.18984">
        <ele>1352.7205</ele>
        <time>2021-07-05T11:41:32</time>
      </trkpt>
      <trkpt lat="45.42511" lon="6.18985">
        <ele>1354.1205</ele>
        <time>2021-07-05T11:41:36</time>
      </trkpt>
      <trkpt lat="45.42509" lon="6.18987">
        <ele>1354.1205</ele>
        <time>2021-07-05T11:41:38</time>
      </trkpt>
      <trkpt lat="45.42508" lon="6.18989">
        <ele>1354.1205</ele>
        <time>2021-07-05T11:41:41</time>
      </trkpt>
      <trkpt lat="45.42508" lon="6.18989">
        <ele>1354.1205</ele>
        <time>2021-07-05T11:41:42</time>
      </trkpt>
      <trkpt lat="45.42507" lon="6.18989">
        <ele>1356.1205</ele>
        <time>2021-07-05T11:41:48</time>
      </trkpt>
      <trkpt lat="45.42506" lon="6.18989">
        <ele>1356.1205</ele>
        <time>2021-07-05T11:41:49</time>
      </trkpt>
      <trkpt lat="45.42506" lon="6.18989">
        <ele>1356.1205</ele>
        <time>2021-07-05T11:41:50</time>
      </trkpt>
      <trkpt lat="45.42504" lon="6.18998">
        <ele>1353.5204</ele>
        <time>2021-07-05T11:42:00</time>
      </trkpt>
      <trkpt lat="45.42504" lon="6.19002">
        <ele>1351.7205</ele>
        <time>2021-07-05T11:42:05</time>
      </trkpt>
      <trkpt lat="45.42504" lon="6.19003">
        <ele>1351.7205</ele>
        <time>2021-07-05T11:42:07</time>
      </trkpt>
      <trkpt lat="45.42507" lon="6.19018">
        <ele>1359.0204</ele>
        <time>2021-07-05T11:42:22</time>
      </trkpt>
      <trkpt lat="45.42506" lon="6.19018">
        <ele>1359.0204</ele>
        <time>2021-07-05T11:42:23</time>
      </trkpt>
      <trkpt lat="45.42506" lon="6.19019">
        <ele>1359.0204</ele>
        <time>2021-07-05T11:42:24</time>
      </trkpt>
      <trkpt lat="45.42506" lon="6.19019">
        <ele>1360.1205</ele>
        <time>2021-07-05T11:42:25</time>
      </trkpt>
      <trkpt lat="45.42506" lon="6.19019">
        <ele>1360.1205</ele>
        <time>2021-07-05T11:42:26</time>
      </trkpt>
      <trkpt lat="45.42506" lon="6.19019">
        <ele>1360.1205</ele>
        <time>2021-07-05T11:42:27</time>
      </trkpt>
      <trkpt lat="45.42506" lon="6.19018">
        <ele>1360.1205</ele>
        <time>2021-07-05T11:42:29</time>
      </trkpt>
      <trkpt lat="45.42505" lon="6.19018">
        <ele>1360.1205</ele>
        <time>2021-07-05T11:42:30</time>
      </trkpt>
      <trkpt lat="45.42505" lon="6.19018">
        <ele>1360.1205</ele>
        <time>2021-07-05T11:42:31</time>
      </trkpt>
      <trkpt lat="45.42505" lon="6.19018">
        <ele>1360.1205</ele>
        <time>2021-07-05T11:42:33</time>
      </trkpt>
      <trkpt lat="45.42504" lon="6.19018">
        <ele>1360.1205</ele>
        <time>2021-07-05T11:42:34</time>
      </trkpt>
      <trkpt lat="45.42504" lon="6.19018">
        <ele>1362.9204</ele>
        <time>2021-07-05T11:42:35</time>
      </trkpt>
      <trkpt lat="45.42503" lon="6.19018">
        <ele>1362.9204</ele>
        <time>2021-07-05T11:42:37</time>
      </trkpt>
      <trkpt lat="45.42502" lon="6.19019">
        <ele>1362.9204</ele>
        <time>2021-07-05T11:42:40</time>
      </trkpt>
      <trkpt lat="45.42502" lon="6.19019">
        <ele>1362.9204</ele>
        <time>2021-07-05T11:42:41</time>
      </trkpt>
      <trkpt lat="45.42502" lon="6.19019">
        <ele>1362.9204</ele>
        <time>2021-07-05T11:42:42</time>
      </trkpt>
      <trkpt lat="45.42502" lon="6.19021">
        <ele>1362.9204</ele>
        <time>2021-07-05T11:42:44</time>
      </trkpt>
      <trkpt lat="45.42502" lon="6.19022">
        <ele>1364.7205</ele>
        <time>2021-07-05T11:42:45</time>
      </trkpt>
      <trkpt lat="45.42501" lon="6.1902">
        <ele>1364.7205</ele>
        <time>2021-07-05T11:42:50</time>
      </trkpt>
      <trkpt lat="45.42501" lon="6.1902">
        <ele>1364.7205</ele>
        <time>2021-07-05T11:42:51</time>
      </trkpt>
      <trkpt lat="45.42501" lon="6.1902">
        <ele>1364.7205</ele>
        <time>2021-07-05T11:42:52</time>
      </trkpt>
      <trkpt lat="45.42501" lon="6.1902">
        <ele>1364.7205</ele>
        <time>2021-07-05T11:42:53</time>
      </trkpt>
      <trkpt lat="45.42501" lon="6.1902">
        <ele>1364.7205</ele>
        <time>2021-07-05T11:42:54</time>
      </trkpt>
      <trkpt lat="45.42499" lon="6.1902">
        <ele>1369.8204</ele>
        <time>2021-07-05T11:42:55</time>
      </trkpt>
      <trkpt lat="45.42497" lon="6.1902">
        <ele>1369.8204</ele>
        <time>2021-07-05T11:42:57</time>
      </trkpt>
      <trkpt lat="45.42495" lon="6.1902">
        <ele>1369.8204</ele>
        <time>2021-07-05T11:42:58</time>
      </trkpt>
      <trkpt lat="45.42494" lon="6.19021">
        <ele>1369.8204</ele>
        <time>2021-07-05T11:42:59</time>
      </trkpt>
      <trkpt lat="45.42493" lon="6.1902">
        <ele>1369.8204</ele>
        <time>2021-07-05T11:43:00</time>
      </trkpt>
      <trkpt lat="45.42492" lon="6.1902">
        <ele>1369.8204</ele>
        <time>2021-07-05T11:43:01</time>
      </trkpt>
      <trkpt lat="45.42491" lon="6.1902">
        <ele>1369.8204</ele>
        <time>2021-07-05T11:43:03</time>
      </trkpt>
      <trkpt lat="45.4249" lon="6.19019">
        <ele>1369.8204</ele>
        <time>2021-07-05T11:43:04</time>
      </trkpt>
      <trkpt lat="45.42491" lon="6.19019">
        <ele>1369.2205</ele>
        <time>2021-07-05T11:43:08</time>
      </trkpt>
      <trkpt lat="45.42491" lon="6.1902">
        <ele>1369.2205</ele>
        <time>2021-07-05T11:43:09</time>
      </trkpt>
      <trkpt lat="45.4249" lon="6.1902">
        <ele>1369.2205</ele>
        <time>2021-07-05T11:43:10</time>
      </trkpt>
      <trkpt lat="45.42489" lon="6.1902">
        <ele>1369.2205</ele>
        <time>2021-07-05T11:43:12</time>
      </trkpt>
      <trkpt lat="45.42488" lon="6.1902">
        <ele>1369.2205</ele>
        <time>2021-07-05T11:43:13</time>
      </trkpt>
      <trkpt lat="45.42486" lon="6.19021">
        <ele>1368.0204</ele>
        <time>2021-07-05T11:43:15</time>
      </trkpt>
      <trkpt lat="45.42485" lon="6.19021">
        <ele>1368.0204</ele>
        <time>2021-07-05T11:43:16</time>
      </trkpt>
      <trkpt lat="45.42485" lon="6.1902">
        <ele>1368.0204</ele>
        <time>2021-07-05T11:43:17</time>
      </trkpt>
      <trkpt lat="45.42484" lon="6.1902">
        <ele>1368.0204</ele>
        <time>2021-07-05T11:43:18</time>
      </trkpt>
      <trkpt lat="45.42483" lon="6.1902">
        <ele>1368.0204</ele>
        <time>2021-07-05T11:43:19</time>
      </trkpt>
      <trkpt lat="45.42483" lon="6.19021">
        <ele>1368.0204</ele>
        <time>2021-07-05T11:43:20</time>
      </trkpt>
      <trkpt lat="45.42481" lon="6.19021">
        <ele>1368.0204</ele>
        <time>2021-07-05T11:43:22</time>
      </trkpt>
      <trkpt lat="45.42481" lon="6.19021">
        <ele>1368.0204</ele>
        <time>2021-07-05T11:43:23</time>
      </trkpt>
      <trkpt lat="45.4248" lon="6.19021">
        <ele>1368.0204</ele>
        <time>2021-07-05T11:43:24</time>
      </trkpt>
      <trkpt lat="45.4248" lon="6.19021">
        <ele>1373.1205</ele>
        <time>2021-07-05T11:43:25</time>
      </trkpt>
      <trkpt lat="45.4248" lon="6.19021">
        <ele>1373.1205</ele>
        <time>2021-07-05T11:43:26</time>
      </trkpt>
      <trkpt lat="45.42479" lon="6.19021">
        <ele>1373.1205</ele>
        <time>2021-07-05T11:43:27</time>
      </trkpt>
      <trkpt lat="45.42479" lon="6.1902">
        <ele>1373.1205</ele>
        <time>2021-07-05T11:43:28</time>
      </trkpt>
      <trkpt lat="45.42478" lon="6.1902">
        <ele>1373.1205</ele>
        <time>2021-07-05T11:43:29</time>
      </trkpt>
      <trkpt lat="45.42478" lon="6.1902">
        <ele>1373.1205</ele>
        <time>2021-07-05T11:43:30</time>
      </trkpt>
      <trkpt lat="45.42475" lon="6.1902">
        <ele>1373.1205</ele>
        <time>2021-07-05T11:43:33</time>
      </trkpt>
      <trkpt lat="45.42474" lon="6.1902">
        <ele>1373.1205</ele>
        <time>2021-07-05T11:43:34</time>
      </trkpt>
      <trkpt lat="45.42473" lon="6.1902">
        <ele>1374.6205</ele>
        <time>2021-07-05T11:43:36</time>
      </trkpt>
      <trkpt lat="45.42472" lon="6.19021">
        <ele>1374.6205</ele>
        <time>2021-07-05T11:43:38</time>
      </trkpt>
      <trkpt lat="45.42468" lon="6.19022">
        <ele>1378.4204</ele>
        <time>2021-07-05T11:43:46</time>
      </trkpt>
      <trkpt lat="45.42468" lon="6.19022">
        <ele>1378.4204</ele>
        <time>2021-07-05T11:43:49</time>
      </trkpt>
      <trkpt lat="45.42468" lon="6.19022">
        <ele>1378.4204</ele>
        <time>2021-07-05T11:43:50</time>
      </trkpt>
      <trkpt lat="45.42468" lon="6.19022">
        <ele>1378.4204</ele>
        <time>2021-07-05T11:43:51</time>
      </trkpt>
      <trkpt lat="45.42467" lon="6.19022">
        <ele>1378.4204</ele>
        <time>2021-07-05T11:43:52</time>
      </trkpt>
      <trkpt lat="45.42467" lon="6.19023">
        <ele>1378.4204</ele>
        <time>2021-07-05T11:43:53</time>
      </trkpt>
      <trkpt lat="45.42467" lon="6.19023">
        <ele>1378.4204</ele>
        <time>2021-07-05T11:43:54</time>
      </trkpt>
      <trkpt lat="45.42466" lon="6.19023">
        <ele>1379.8204</ele>
        <time>2021-07-05T11:43:55</time>
      </trkpt>
      <trkpt lat="45.42465" lon="6.19022">
        <ele>1379.8204</ele>
        <time>2021-07-05T11:43:56</time>
      </trkpt>
      <trkpt lat="45.4246" lon="6.19022">
        <ele>1379.8204</ele>
        <time>2021-07-05T11:44:01</time>
      </trkpt>
      <trkpt lat="45.42459" lon="6.19023">
        <ele>1379.8204</ele>
        <time>2021-07-05T11:44:02</time>
      </trkpt>
      <trkpt lat="45.42457" lon="6.19027">
        <ele>1381.4204</ele>
        <time>2021-07-05T11:44:05</time>
      </trkpt>
      <trkpt lat="45.42457" lon="6.19029">
        <ele>1381.4204</ele>
        <time>2021-07-05T11:44:06</time>
      </trkpt>
      <trkpt lat="45.42456" lon="6.19033">
        <ele>1381.4204</ele>
        <time>2021-07-05T11:44:10</time>
      </trkpt>
      <trkpt lat="45.42456" lon="6.19034">
        <ele>1381.4204</ele>
        <time>2021-07-05T11:44:11</time>
      </trkpt>
      <trkpt lat="45.42455" lon="6.19035">
        <ele>1378.5204</ele>
        <time>2021-07-05T11:44:16</time>
      </trkpt>
      <trkpt lat="45.42454" lon="6.19035">
        <ele>1378.5204</ele>
        <time>2021-07-05T11:44:17</time>
      </trkpt>
      <trkpt lat="45.42453" lon="6.19035">
        <ele>1378.5204</ele>
        <time>2021-07-05T11:44:18</time>
      </trkpt>
      <trkpt lat="45.4245" lon="6.19037">
        <ele>1378.5204</ele>
        <time>2021-07-05T11:44:22</time>
      </trkpt>
      <trkpt lat="45.42451" lon="6.19037">
        <ele>1378.5204</ele>
        <time>2021-07-05T11:44:23</time>
      </trkpt>
      <trkpt lat="45.42452" lon="6.19038">
        <ele>1379.8204</ele>
        <time>2021-07-05T11:44:26</time>
      </trkpt>
      <trkpt lat="45.42451" lon="6.19039">
        <ele>1379.8204</ele>
        <time>2021-07-05T11:44:27</time>
      </trkpt>
      <trkpt lat="45.42451" lon="6.1904">
        <ele>1379.8204</ele>
        <time>2021-07-05T11:44:28</time>
      </trkpt>
      <trkpt lat="45.42451" lon="6.19041">
        <ele>1379.8204</ele>
        <time>2021-07-05T11:44:29</time>
      </trkpt>
      <trkpt lat="45.4245" lon="6.19042">
        <ele>1379.8204</ele>
        <time>2021-07-05T11:44:30</time>
      </trkpt>
      <trkpt lat="45.4245" lon="6.19043">
        <ele>1379.8204</ele>
        <time>2021-07-05T11:44:31</time>
      </trkpt>
      <trkpt lat="45.42448" lon="6.19044">
        <ele>1379.8204</ele>
        <time>2021-07-05T11:44:32</time>
      </trkpt>
      <trkpt lat="45.42447" lon="6.19045">
        <ele>1379.8204</ele>
        <time>2021-07-05T11:44:34</time>
      </trkpt>
      <trkpt lat="45.42446" lon="6.19045">
        <ele>1381.3204</ele>
        <time>2021-07-05T11:44:35</time>
      </trkpt>
      <trkpt lat="45.42446" lon="6.19046">
        <ele>1381.3204</ele>
        <time>2021-07-05T11:44:36</time>
      </trkpt>
      <trkpt lat="45.42446" lon="6.19046">
        <ele>1381.3204</ele>
        <time>2021-07-05T11:44:37</time>
      </trkpt>
      <trkpt lat="45.42446" lon="6.19046">
        <ele>1381.3204</ele>
        <time>2021-07-05T11:44:38</time>
      </trkpt>
      <trkpt lat="45.42446" lon="6.19046">
        <ele>1381.3204</ele>
        <time>2021-07-05T11:44:39</time>
      </trkpt>
      <trkpt lat="45.42446" lon="6.19047">
        <ele>1381.3204</ele>
        <time>2021-07-05T11:44:40</time>
      </trkpt>
      <trkpt lat="45.42446" lon="6.19048">
        <ele>1381.3204</ele>
        <time>2021-07-05T11:44:41</time>
      </trkpt>
      <trkpt lat="45.42445" lon="6.19048">
        <ele>1381.3204</ele>
        <time>2021-07-05T11:44:42</time>
      </trkpt>
      <trkpt lat="45.42444" lon="6.19049">
        <ele>1381.3204</ele>
        <time>2021-07-05T11:44:44</time>
      </trkpt>
      <trkpt lat="45.42442" lon="6.19049">
        <ele>1380.5204</ele>
        <time>2021-07-05T11:44:45</time>
      </trkpt>
      <trkpt lat="45.42442" lon="6.19049">
        <ele>1380.5204</ele>
        <time>2021-07-05T11:44:46</time>
      </trkpt>
      <trkpt lat="45.42441" lon="6.19049">
        <ele>1380.5204</ele>
        <time>2021-07-05T11:44:47</time>
      </trkpt>
      <trkpt lat="45.42434" lon="6.19056">
        <ele>1384.2205</ele>
        <time>2021-07-05T11:44:56</time>
      </trkpt>
      <trkpt lat="45.42434" lon="6.19057">
        <ele>1384.2205</ele>
        <time>2021-07-05T11:44:57</time>
      </trkpt>
      <trkpt lat="45.42433" lon="6.19058">
        <ele>1384.2205</ele>
        <time>2021-07-05T11:44:59</time>
      </trkpt>
      <trkpt lat="45.42427" lon="6.19061">
        <ele>1384.4204</ele>
        <time>2021-07-05T11:45:09</time>
      </trkpt>
      <trkpt lat="45.42427" lon="6.19061">
        <ele>1384.4204</ele>
        <time>2021-07-05T11:45:10</time>
      </trkpt>
      <trkpt lat="45.42427" lon="6.19062">
        <ele>1384.4204</ele>
        <time>2021-07-05T11:45:11</time>
      </trkpt>
      <trkpt lat="45.42421" lon="6.19066">
        <ele>1386.7205</ele>
        <time>2021-07-05T11:45:20</time>
      </trkpt>
      <trkpt lat="45.42416" lon="6.19071">
        <ele>1388.7205</ele>
        <time>2021-07-05T11:45:34</time>
      </trkpt>
      <trkpt lat="45.42415" lon="6.19072">
        <ele>1395.0204</ele>
        <time>2021-07-05T11:45:35</time>
      </trkpt>
      <trkpt lat="45.42411" lon="6.19077">
        <ele>1395.0204</ele>
        <time>2021-07-05T11:45:47</time>
      </trkpt>
      <trkpt lat="45.42411" lon="6.19078">
        <ele>1395.0204</ele>
        <time>2021-07-05T11:45:48</time>
      </trkpt>
      <trkpt lat="45.42411" lon="6.19079">
        <ele>1395.0204</ele>
        <time>2021-07-05T11:45:49</time>
      </trkpt>
      <trkpt lat="45.4241" lon="6.1908">
        <ele>1395.0204</ele>
        <time>2021-07-05T11:45:50</time>
      </trkpt>
      <trkpt lat="45.42407" lon="6.19081">
        <ele>1395.0204</ele>
        <time>2021-07-05T11:45:54</time>
      </trkpt>
      <trkpt lat="45.42406" lon="6.19082">
        <ele>1399.0204</ele>
        <time>2021-07-05T11:45:55</time>
      </trkpt>
      <trkpt lat="45.42406" lon="6.19082">
        <ele>1399.0204</ele>
        <time>2021-07-05T11:45:56</time>
      </trkpt>
      <trkpt lat="45.42406" lon="6.19083">
        <ele>1399.0204</ele>
        <time>2021-07-05T11:45:57</time>
      </trkpt>
      <trkpt lat="45.42406" lon="6.19084">
        <ele>1399.0204</ele>
        <time>2021-07-05T11:45:59</time>
      </trkpt>
      <trkpt lat="45.42406" lon="6.19086">
        <ele>1399.0204</ele>
        <time>2021-07-05T11:46:00</time>
      </trkpt>
      <trkpt lat="45.42406" lon="6.19087">
        <ele>1399.0204</ele>
        <time>2021-07-05T11:46:01</time>
      </trkpt>
      <trkpt lat="45.42404" lon="6.19092">
        <ele>1398.4204</ele>
        <time>2021-07-05T11:46:06</time>
      </trkpt>
      <trkpt lat="45.42401" lon="6.19102">
        <ele>1400.5204</ele>
        <time>2021-07-05T11:46:18</time>
      </trkpt>
      <trkpt lat="45.42401" lon="6.19102">
        <ele>1400.5204</ele>
        <time>2021-07-05T11:46:19</time>
      </trkpt>
      <trkpt lat="45.42401" lon="6.19102">
        <ele>1400.5204</ele>
        <time>2021-07-05T11:46:20</time>
      </trkpt>
      <trkpt lat="45.42397" lon="6.19111">
        <ele>1405.6205</ele>
        <time>2021-07-05T11:46:36</time>
      </trkpt>
      <trkpt lat="45.42397" lon="6.19111">
        <ele>1405.6205</ele>
        <time>2021-07-05T11:46:37</time>
      </trkpt>
      <trkpt lat="45.42396" lon="6.19113">
        <ele>1405.6205</ele>
        <time>2021-07-05T11:46:41</time>
      </trkpt>
      <trkpt lat="45.42396" lon="6.19116">
        <ele>1405.6205</ele>
        <time>2021-07-05T11:46:43</time>
      </trkpt>
      <trkpt lat="45.42396" lon="6.19118">
        <ele>1402.5204</ele>
        <time>2021-07-05T11:46:48</time>
      </trkpt>
      <trkpt lat="45.42396" lon="6.19118">
        <ele>1402.5204</ele>
        <time>2021-07-05T11:46:49</time>
      </trkpt>
      <trkpt lat="45.42396" lon="6.19118">
        <ele>1402.5204</ele>
        <time>2021-07-05T11:46:50</time>
      </trkpt>
      <trkpt lat="45.42396" lon="6.19118">
        <ele>1402.5204</ele>
        <time>2021-07-05T11:46:51</time>
      </trkpt>
      <trkpt lat="45.42396" lon="6.19118">
        <ele>1402.5204</ele>
        <time>2021-07-05T11:46:53</time>
      </trkpt>
      <trkpt lat="45.42396" lon="6.19119">
        <ele>1402.5204</ele>
        <time>2021-07-05T11:46:54</time>
      </trkpt>
      <trkpt lat="45.42395" lon="6.19125">
        <ele>1409.5204</ele>
        <time>2021-07-05T11:47:00</time>
      </trkpt>
      <trkpt lat="45.42394" lon="6.19133">
        <ele>1413.1205</ele>
        <time>2021-07-05T11:47:13</time>
      </trkpt>
      <trkpt lat="45.42394" lon="6.19134">
        <ele>1413.1205</ele>
        <time>2021-07-05T11:47:14</time>
      </trkpt>
      <trkpt lat="45.42396" lon="6.19139">
        <ele>1414.9204</ele>
        <time>2021-07-05T11:47:18</time>
      </trkpt>
      <trkpt lat="45.42396" lon="6.1914">
        <ele>1414.9204</ele>
        <time>2021-07-05T11:47:19</time>
      </trkpt>
      <trkpt lat="45.42397" lon="6.19141">
        <ele>1414.9204</ele>
        <time>2021-07-05T11:47:20</time>
      </trkpt>
      <trkpt lat="45.42397" lon="6.19142">
        <ele>1414.9204</ele>
        <time>2021-07-05T11:47:21</time>
      </trkpt>
      <trkpt lat="45.42398" lon="6.19143">
        <ele>1414.9204</ele>
        <time>2021-07-05T11:47:22</time>
      </trkpt>
      <trkpt lat="45.42399" lon="6.19143">
        <ele>1415.5204</ele>
        <time>2021-07-05T11:47:28</time>
      </trkpt>
      <trkpt lat="45.42398" lon="6.19145">
        <ele>1415.5204</ele>
        <time>2021-07-05T11:47:31</time>
      </trkpt>
      <trkpt lat="45.42398" lon="6.19148">
        <ele>1418.2205</ele>
        <time>2021-07-05T11:47:44</time>
      </trkpt>
      <trkpt lat="45.42398" lon="6.1915">
        <ele>1419.8204</ele>
        <time>2021-07-05T11:47:45</time>
      </trkpt>
      <trkpt lat="45.42397" lon="6.19151">
        <ele>1419.8204</ele>
        <time>2021-07-05T11:47:46</time>
      </trkpt>
      <trkpt lat="45.42396" lon="6.19152">
        <ele>1419.8204</ele>
        <time>2021-07-05T11:47:47</time>
      </trkpt>
      <trkpt lat="45.42396" lon="6.19153">
        <ele>1419.8204</ele>
        <time>2021-07-05T11:47:49</time>
      </trkpt>
      <trkpt lat="45.42396" lon="6.19156">
        <ele>1419.8204</ele>
        <time>2021-07-05T11:47:54</time>
      </trkpt>
      <trkpt lat="45.42396" lon="6.19157">
        <ele>1418.7205</ele>
        <time>2021-07-05T11:47:55</time>
      </trkpt>
      <trkpt lat="45.42395" lon="6.19157">
        <ele>1418.7205</ele>
        <time>2021-07-05T11:47:56</time>
      </trkpt>
      <trkpt lat="45.42395" lon="6.19157">
        <ele>1418.7205</ele>
        <time>2021-07-05T11:47:57</time>
      </trkpt>
      <trkpt lat="45.42395" lon="6.19158">
        <ele>1418.7205</ele>
        <time>2021-07-05T11:47:58</time>
      </trkpt>
      <trkpt lat="45.42395" lon="6.1916">
        <ele>1418.7205</ele>
        <time>2021-07-05T11:48:03</time>
      </trkpt>
      <trkpt lat="45.42395" lon="6.1916">
        <ele>1418.7205</ele>
        <time>2021-07-05T11:48:04</time>
      </trkpt>
      <trkpt lat="45.42394" lon="6.19161">
        <ele>1418.6205</ele>
        <time>2021-07-05T11:48:05</time>
      </trkpt>
      <trkpt lat="45.42394" lon="6.19162">
        <ele>1418.6205</ele>
        <time>2021-07-05T11:48:06</time>
      </trkpt>
      <trkpt lat="45.42394" lon="6.19163">
        <ele>1418.6205</ele>
        <time>2021-07-05T11:48:07</time>
      </trkpt>
      <trkpt lat="45.42394" lon="6.19163">
        <ele>1418.6205</ele>
        <time>2021-07-05T11:48:09</time>
      </trkpt>
      <trkpt lat="45.42394" lon="6.19164">
        <ele>1418.6205</ele>
        <time>2021-07-05T11:48:12</time>
      </trkpt>
      <trkpt lat="45.42392" lon="6.19165">
        <ele>1420.4204</ele>
        <time>2021-07-05T11:48:15</time>
      </trkpt>
      <trkpt lat="45.42392" lon="6.19165">
        <ele>1420.4204</ele>
        <time>2021-07-05T11:48:16</time>
      </trkpt>
      <trkpt lat="45.42388" lon="6.19167">
        <ele>1420.4204</ele>
        <time>2021-07-05T11:48:21</time>
      </trkpt>
      <trkpt lat="45.42386" lon="6.19168">
        <ele>1415.8204</ele>
        <time>2021-07-05T11:48:48</time>
      </trkpt>
      <trkpt lat="45.42386" lon="6.19169">
        <ele>1415.8204</ele>
        <time>2021-07-05T11:48:49</time>
      </trkpt>
      <trkpt lat="45.42385" lon="6.19169">
        <ele>1413.7205</ele>
        <time>2021-07-05T11:49:22</time>
      </trkpt>
      <trkpt lat="45.42383" lon="6.19169">
        <ele>1413.6205</ele>
        <time>2021-07-05T11:49:57</time>
      </trkpt>
      <trkpt lat="45.42384" lon="6.19169">
        <ele>1412.5204</ele>
        <time>2021-07-05T11:50:16</time>
      </trkpt>
      <trkpt lat="45.42384" lon="6.19169">
        <ele>1412.5204</ele>
        <time>2021-07-05T11:50:17</time>
      </trkpt>
      <trkpt lat="45.42384" lon="6.19168">
        <ele>1412.5204</ele>
        <time>2021-07-05T11:50:18</time>
      </trkpt>
      <trkpt lat="45.42384" lon="6.19168">
        <ele>1412.5204</ele>
        <time>2021-07-05T11:50:19</time>
      </trkpt>
      <trkpt lat="45.42386" lon="6.19168">
        <ele>1412.5204</ele>
        <time>2021-07-05T11:50:21</time>
      </trkpt>
      <trkpt lat="45.42387" lon="6.19169">
        <ele>1412.5204</ele>
        <time>2021-07-05T11:50:23</time>
      </trkpt>
      <trkpt lat="45.42387" lon="6.1917">
        <ele>1412.5204</ele>
        <time>2021-07-05T11:50:24</time>
      </trkpt>
      <trkpt lat="45.42388" lon="6.19171">
        <ele>1412.8204</ele>
        <time>2021-07-05T11:50:27</time>
      </trkpt>
      <trkpt lat="45.42391" lon="6.19174">
        <ele>1412.8204</ele>
        <time>2021-07-05T11:50:31</time>
      </trkpt>
      <trkpt lat="45.42394" lon="6.1918">
        <ele>1419.4204</ele>
        <time>2021-07-05T11:50:38</time>
      </trkpt>
      <trkpt lat="45.42396" lon="6.19186">
        <ele>1421.2205</ele>
        <time>2021-07-05T11:50:46</time>
      </trkpt>
      <trkpt lat="45.42396" lon="6.19186">
        <ele>1421.2205</ele>
        <time>2021-07-05T11:50:47</time>
      </trkpt>
      <trkpt lat="45.42397" lon="6.19188">
        <ele>1421.2205</ele>
        <time>2021-07-05T11:50:54</time>
      </trkpt>
      <trkpt lat="45.42397" lon="6.19189">
        <ele>1424.1205</ele>
        <time>2021-07-05T11:50:57</time>
      </trkpt>
      <trkpt lat="45.42397" lon="6.19189">
        <ele>1424.1205</ele>
        <time>2021-07-05T11:51:03</time>
      </trkpt>
      <trkpt lat="45.424" lon="6.19199">
        <ele>1422.9204</ele>
        <time>2021-07-05T11:51:12</time>
      </trkpt>
      <trkpt lat="45.42401" lon="6.19202">
        <ele>1426.2205</ele>
        <time>2021-07-05T11:51:16</time>
      </trkpt>
      <trkpt lat="45.42401" lon="6.19203">
        <ele>1426.2205</ele>
        <time>2021-07-05T11:51:17</time>
      </trkpt>
      <trkpt lat="45.42401" lon="6.19204">
        <ele>1426.2205</ele>
        <time>2021-07-05T11:51:18</time>
      </trkpt>
      <trkpt lat="45.42401" lon="6.19205">
        <ele>1426.2205</ele>
        <time>2021-07-05T11:51:20</time>
      </trkpt>
      <trkpt lat="45.42398" lon="6.19215">
        <ele>1429.2205</ele>
        <time>2021-07-05T11:51:32</time>
      </trkpt>
      <trkpt lat="45.42398" lon="6.19216">
        <ele>1429.2205</ele>
        <time>2021-07-05T11:51:33</time>
      </trkpt>
      <trkpt lat="45.42398" lon="6.19218">
        <ele>1429.2205</ele>
        <time>2021-07-05T11:51:34</time>
      </trkpt>
      <trkpt lat="45.42398" lon="6.19219">
        <ele>1436.3204</ele>
        <time>2021-07-05T11:51:35</time>
      </trkpt>
      <trkpt lat="45.42398" lon="6.19219">
        <ele>1436.3204</ele>
        <time>2021-07-05T11:51:36</time>
      </trkpt>
      <trkpt lat="45.42398" lon="6.1922">
        <ele>1435.8204</ele>
        <time>2021-07-05T11:51:45</time>
      </trkpt>
      <trkpt lat="45.42398" lon="6.19221">
        <ele>1435.8204</ele>
        <time>2021-07-05T11:51:46</time>
      </trkpt>
      <trkpt lat="45.42401" lon="6.19227">
        <ele>1434.4204</ele>
        <time>2021-07-05T11:52:04</time>
      </trkpt>
      <trkpt lat="45.42401" lon="6.19228">
        <ele>1432.7205</ele>
        <time>2021-07-05T11:52:05</time>
      </trkpt>
      <trkpt lat="45.424" lon="6.19228">
        <ele>1432.7205</ele>
        <time>2021-07-05T11:52:06</time>
      </trkpt>
      <trkpt lat="45.42399" lon="6.19229">
        <ele>1432.7205</ele>
        <time>2021-07-05T11:52:07</time>
      </trkpt>
      <trkpt lat="45.42399" lon="6.19229">
        <ele>1432.7205</ele>
        <time>2021-07-05T11:52:08</time>
      </trkpt>
      <trkpt lat="45.42399" lon="6.19229">
        <ele>1432.7205</ele>
        <time>2021-07-05T11:52:09</time>
      </trkpt>
      <trkpt lat="45.42399" lon="6.19229">
        <ele>1432.7205</ele>
        <time>2021-07-05T11:52:10</time>
      </trkpt>
      <trkpt lat="45.424" lon="6.19229">
        <ele>1432.7205</ele>
        <time>2021-07-05T11:52:11</time>
      </trkpt>
      <trkpt lat="45.42399" lon="6.19229">
        <ele>1433.1205</ele>
        <time>2021-07-05T11:52:20</time>
      </trkpt>
      <trkpt lat="45.42399" lon="6.1923">
        <ele>1433.1205</ele>
        <time>2021-07-05T11:52:21</time>
      </trkpt>
      <trkpt lat="45.424" lon="6.19234">
        <ele>1438.6205</ele>
        <time>2021-07-05T11:52:25</time>
      </trkpt>
      <trkpt lat="45.42399" lon="6.19235">
        <ele>1438.6205</ele>
        <time>2021-07-05T11:52:26</time>
      </trkpt>
      <trkpt lat="45.42399" lon="6.19236">
        <ele>1438.6205</ele>
        <time>2021-07-05T11:52:27</time>
      </trkpt>
      <trkpt lat="45.42399" lon="6.19238">
        <ele>1438.6205</ele>
        <time>2021-07-05T11:52:29</time>
      </trkpt>
      <trkpt lat="45.42399" lon="6.19239">
        <ele>1438.6205</ele>
        <time>2021-07-05T11:52:31</time>
      </trkpt>
      <trkpt lat="45.42398" lon="6.19241">
        <ele>1438.6205</ele>
        <time>2021-07-05T11:52:33</time>
      </trkpt>
      <trkpt lat="45.42399" lon="6.19242">
        <ele>1440.2205</ele>
        <time>2021-07-05T11:52:35</time>
      </trkpt>
      <trkpt lat="45.42399" lon="6.19245">
        <ele>1440.2205</ele>
        <time>2021-07-05T11:52:39</time>
      </trkpt>
      <trkpt lat="45.42401" lon="6.19247">
        <ele>1440.2205</ele>
        <time>2021-07-05T11:52:41</time>
      </trkpt>
      <trkpt lat="45.42401" lon="6.19248">
        <ele>1440.2205</ele>
        <time>2021-07-05T11:52:43</time>
      </trkpt>
      <trkpt lat="45.42401" lon="6.19248">
        <ele>1440.2205</ele>
        <time>2021-07-05T11:52:44</time>
      </trkpt>
      <trkpt lat="45.42401" lon="6.19248">
        <ele>1443.3204</ele>
        <time>2021-07-05T11:52:45</time>
      </trkpt>
      <trkpt lat="45.42401" lon="6.19249">
        <ele>1443.3204</ele>
        <time>2021-07-05T11:52:46</time>
      </trkpt>
      <trkpt lat="45.42401" lon="6.1925">
        <ele>1443.3204</ele>
        <time>2021-07-05T11:52:47</time>
      </trkpt>
      <trkpt lat="45.424" lon="6.19251">
        <ele>1443.3204</ele>
        <time>2021-07-05T11:52:48</time>
      </trkpt>
      <trkpt lat="45.424" lon="6.19252">
        <ele>1443.3204</ele>
        <time>2021-07-05T11:52:49</time>
      </trkpt>
      <trkpt lat="45.42399" lon="6.19253">
        <ele>1443.3204</ele>
        <time>2021-07-05T11:52:50</time>
      </trkpt>
      <trkpt lat="45.42399" lon="6.19254">
        <ele>1443.3204</ele>
        <time>2021-07-05T11:52:51</time>
      </trkpt>
      <trkpt lat="45.42399" lon="6.19254">
        <ele>1443.3204</ele>
        <time>2021-07-05T11:52:52</time>
      </trkpt>
      <trkpt lat="45.42398" lon="6.19255">
        <ele>1443.3204</ele>
        <time>2021-07-05T11:52:54</time>
      </trkpt>
      <trkpt lat="45.42396" lon="6.19257">
        <ele>1440.6205</ele>
        <time>2021-07-05T11:52:57</time>
      </trkpt>
      <trkpt lat="45.42396" lon="6.19259">
        <ele>1440.6205</ele>
        <time>2021-07-05T11:52:58</time>
      </trkpt>
      <trkpt lat="45.42396" lon="6.19261">
        <ele>1440.6205</ele>
        <time>2021-07-05T11:52:59</time>
      </trkpt>
      <trkpt lat="45.42396" lon="6.19263">
        <ele>1440.6205</ele>
        <time>2021-07-05T11:53:01</time>
      </trkpt>
      <trkpt lat="45.42396" lon="6.19266">
        <ele>1440.6205</ele>
        <time>2021-07-05T11:53:03</time>
      </trkpt>
      <trkpt lat="45.42395" lon="6.19268">
        <ele>1440.6205</ele>
        <time>2021-07-05T11:53:04</time>
      </trkpt>
      <trkpt lat="45.42394" lon="6.19268">
        <ele>1443.1205</ele>
        <time>2021-07-05T11:53:05</time>
      </trkpt>
      <trkpt lat="45.42393" lon="6.19269">
        <ele>1443.1205</ele>
        <time>2021-07-05T11:53:06</time>
      </trkpt>
      <trkpt lat="45.42392" lon="6.1927">
        <ele>1443.1205</ele>
        <time>2021-07-05T11:53:07</time>
      </trkpt>
      <trkpt lat="45.4239" lon="6.19272">
        <ele>1443.1205</ele>
        <time>2021-07-05T11:53:09</time>
      </trkpt>
      <trkpt lat="45.42388" lon="6.19275">
        <ele>1443.1205</ele>
        <time>2021-07-05T11:53:12</time>
      </trkpt>
      <trkpt lat="45.42387" lon="6.19277">
        <ele>1443.1205</ele>
        <time>2021-07-05T11:53:13</time>
      </trkpt>
      <trkpt lat="45.42387" lon="6.19277">
        <ele>1443.1205</ele>
        <time>2021-07-05T11:53:14</time>
      </trkpt>
      <trkpt lat="45.42386" lon="6.19278">
        <ele>1440.0204</ele>
        <time>2021-07-05T11:53:15</time>
      </trkpt>
      <trkpt lat="45.42385" lon="6.19278">
        <ele>1440.0204</ele>
        <time>2021-07-05T11:53:16</time>
      </trkpt>
      <trkpt lat="45.42384" lon="6.19277">
        <ele>1440.0204</ele>
        <time>2021-07-05T11:53:17</time>
      </trkpt>
      <trkpt lat="45.42383" lon="6.19278">
        <ele>1440.0204</ele>
        <time>2021-07-05T11:53:19</time>
      </trkpt>
      <trkpt lat="45.42382" lon="6.19279">
        <ele>1440.0204</ele>
        <time>2021-07-05T11:53:20</time>
      </trkpt>
      <trkpt lat="45.42382" lon="6.19282">
        <ele>1440.0204</ele>
        <time>2021-07-05T11:53:24</time>
      </trkpt>
      <trkpt lat="45.42383" lon="6.19285">
        <ele>1443.0204</ele>
        <time>2021-07-05T11:53:28</time>
      </trkpt>
      <trkpt lat="45.42382" lon="6.19286">
        <ele>1443.0204</ele>
        <time>2021-07-05T11:53:29</time>
      </trkpt>
      <trkpt lat="45.42383" lon="6.19289">
        <ele>1449.5204</ele>
        <time>2021-07-05T11:53:45</time>
      </trkpt>
      <trkpt lat="45.42383" lon="6.19289">
        <ele>1449.5204</ele>
        <time>2021-07-05T11:53:46</time>
      </trkpt>
      <trkpt lat="45.42383" lon="6.19289">
        <ele>1449.5204</ele>
        <time>2021-07-05T11:53:50</time>
      </trkpt>
      <trkpt lat="45.42383" lon="6.19289">
        <ele>1449.5204</ele>
        <time>2021-07-05T11:53:51</time>
      </trkpt>
      <trkpt lat="45.42383" lon="6.19289">
        <ele>1449.5204</ele>
        <time>2021-07-05T11:53:52</time>
      </trkpt>
      <trkpt lat="45.42383" lon="6.19291">
        <ele>1449.5204</ele>
        <time>2021-07-05T11:53:54</time>
      </trkpt>
      <trkpt lat="45.42383" lon="6.19291">
        <ele>1448.9204</ele>
        <time>2021-07-05T11:53:55</time>
      </trkpt>
      <trkpt lat="45.42382" lon="6.19293">
        <ele>1448.9204</ele>
        <time>2021-07-05T11:53:58</time>
      </trkpt>
      <trkpt lat="45.42381" lon="6.19294">
        <ele>1448.9204</ele>
        <time>2021-07-05T11:54:00</time>
      </trkpt>
      <trkpt lat="45.42382" lon="6.19295">
        <ele>1448.9204</ele>
        <time>2021-07-05T11:54:01</time>
      </trkpt>
      <trkpt lat="45.42383" lon="6.19295">
        <ele>1448.9204</ele>
        <time>2021-07-05T11:54:03</time>
      </trkpt>
      <trkpt lat="45.42383" lon="6.19296">
        <ele>1448.9204</ele>
        <time>2021-07-05T11:54:04</time>
      </trkpt>
      <trkpt lat="45.42383" lon="6.19296">
        <ele>1451.9204</ele>
        <time>2021-07-05T11:54:05</time>
      </trkpt>
      <trkpt lat="45.42381" lon="6.19298">
        <ele>1451.9204</ele>
        <time>2021-07-05T11:54:07</time>
      </trkpt>
      <trkpt lat="45.42381" lon="6.19299">
        <ele>1451.9204</ele>
        <time>2021-07-05T11:54:08</time>
      </trkpt>
      <trkpt lat="45.4238" lon="6.19304">
        <ele>1452.5204</ele>
        <time>2021-07-05T11:54:15</time>
      </trkpt>
      <trkpt lat="45.4238" lon="6.19305">
        <ele>1452.5204</ele>
        <time>2021-07-05T11:54:17</time>
      </trkpt>
      <trkpt lat="45.42383" lon="6.1931">
        <ele>1452.5204</ele>
        <time>2021-07-05T11:54:23</time>
      </trkpt>
      <trkpt lat="45.42383" lon="6.1931">
        <ele>1452.5204</ele>
        <time>2021-07-05T11:54:24</time>
      </trkpt>
      <trkpt lat="45.42382" lon="6.1931">
        <ele>1455.8204</ele>
        <time>2021-07-05T11:54:26</time>
      </trkpt>
      <trkpt lat="45.42383" lon="6.19311">
        <ele>1455.8204</ele>
        <time>2021-07-05T11:54:27</time>
      </trkpt>
      <trkpt lat="45.42382" lon="6.19311">
        <ele>1455.8204</ele>
        <time>2021-07-05T11:54:28</time>
      </trkpt>
      <trkpt lat="45.42381" lon="6.19311">
        <ele>1455.8204</ele>
        <time>2021-07-05T11:54:30</time>
      </trkpt>
      <trkpt lat="45.4238" lon="6.19311">
        <ele>1455.8204</ele>
        <time>2021-07-05T11:54:31</time>
      </trkpt>
      <trkpt lat="45.42379" lon="6.19312">
        <ele>1455.8204</ele>
        <time>2021-07-05T11:54:32</time>
      </trkpt>
      <trkpt lat="45.42379" lon="6.19312">
        <ele>1455.8204</ele>
        <time>2021-07-05T11:54:33</time>
      </trkpt>
      <trkpt lat="45.42379" lon="6.19313">
        <ele>1460.1205</ele>
        <time>2021-07-05T11:54:35</time>
      </trkpt>
      <trkpt lat="45.42379" lon="6.19314">
        <ele>1460.1205</ele>
        <time>2021-07-05T11:54:36</time>
      </trkpt>
      <trkpt lat="45.42378" lon="6.19314">
        <ele>1460.1205</ele>
        <time>2021-07-05T11:54:37</time>
      </trkpt>
      <trkpt lat="45.42378" lon="6.19315">
        <ele>1460.1205</ele>
        <time>2021-07-05T11:54:38</time>
      </trkpt>
      <trkpt lat="45.42377" lon="6.19318">
        <ele>1460.1205</ele>
        <time>2021-07-05T11:54:43</time>
      </trkpt>
      <trkpt lat="45.42375" lon="6.1932">
        <ele>1459.5204</ele>
        <time>2021-07-05T11:54:47</time>
      </trkpt>
      <trkpt lat="45.42374" lon="6.1932">
        <ele>1459.5204</ele>
        <time>2021-07-05T11:54:50</time>
      </trkpt>
      <trkpt lat="45.42374" lon="6.19321">
        <ele>1459.5204</ele>
        <time>2021-07-05T11:54:52</time>
      </trkpt>
      <trkpt lat="45.4237" lon="6.19325">
        <ele>1461.9204</ele>
        <time>2021-07-05T11:55:00</time>
      </trkpt>
      <trkpt lat="45.42369" lon="6.19325">
        <ele>1461.9204</ele>
        <time>2021-07-05T11:55:04</time>
      </trkpt>
      <trkpt lat="45.42369" lon="6.19325">
        <ele>1464.2205</ele>
        <time>2021-07-05T11:55:05</time>
      </trkpt>
      <trkpt lat="45.42368" lon="6.19327">
        <ele>1464.2205</ele>
        <time>2021-07-05T11:55:10</time>
      </trkpt>
      <trkpt lat="45.42369" lon="6.19328">
        <ele>1464.2205</ele>
        <time>2021-07-05T11:55:11</time>
      </trkpt>
      <trkpt lat="45.42369" lon="6.19329">
        <ele>1464.2205</ele>
        <time>2021-07-05T11:55:12</time>
      </trkpt>
      <trkpt lat="45.4237" lon="6.1933">
        <ele>1464.2205</ele>
        <time>2021-07-05T11:55:13</time>
      </trkpt>
      <trkpt lat="45.42371" lon="6.19331">
        <ele>1464.2205</ele>
        <time>2021-07-05T11:55:14</time>
      </trkpt>
      <trkpt lat="45.42371" lon="6.19331">
        <ele>1465.8204</ele>
        <time>2021-07-05T11:55:15</time>
      </trkpt>
      <trkpt lat="45.42373" lon="6.19332">
        <ele>1465.8204</ele>
        <time>2021-07-05T11:55:18</time>
      </trkpt>
      <trkpt lat="45.42374" lon="6.19332">
        <ele>1465.8204</ele>
        <time>2021-07-05T11:55:19</time>
      </trkpt>
      <trkpt lat="45.42374" lon="6.19332">
        <ele>1465.8204</ele>
        <time>2021-07-05T11:55:21</time>
      </trkpt>
      <trkpt lat="45.42374" lon="6.19334">
        <ele>1465.8204</ele>
        <time>2021-07-05T11:55:23</time>
      </trkpt>
      <trkpt lat="45.42373" lon="6.19335">
        <ele>1465.8204</ele>
        <time>2021-07-05T11:55:24</time>
      </trkpt>
      <trkpt lat="45.42373" lon="6.19337">
        <ele>1468.0204</ele>
        <time>2021-07-05T11:55:26</time>
      </trkpt>
      <trkpt lat="45.42372" lon="6.19339">
        <ele>1468.0204</ele>
        <time>2021-07-05T11:55:28</time>
      </trkpt>
      <trkpt lat="45.42373" lon="6.19341">
        <ele>1468.0204</ele>
        <time>2021-07-05T11:55:30</time>
      </trkpt>
      <trkpt lat="45.42373" lon="6.19341">
        <ele>1468.0204</ele>
        <time>2021-07-05T11:55:31</time>
      </trkpt>
      <trkpt lat="45.42373" lon="6.19342">
        <ele>1468.0204</ele>
        <time>2021-07-05T11:55:32</time>
      </trkpt>
      <trkpt lat="45.42373" lon="6.19342">
        <ele>1468.0204</ele>
        <time>2021-07-05T11:55:33</time>
      </trkpt>
      <trkpt lat="45.42373" lon="6.19343">
        <ele>1469.3204</ele>
        <time>2021-07-05T11:55:36</time>
      </trkpt>
      <trkpt lat="45.42373" lon="6.19344">
        <ele>1469.3204</ele>
        <time>2021-07-05T11:55:38</time>
      </trkpt>
      <trkpt lat="45.42372" lon="6.19345">
        <ele>1469.3204</ele>
        <time>2021-07-05T11:55:41</time>
      </trkpt>
      <trkpt lat="45.4237" lon="6.19346">
        <ele>1469.3204</ele>
        <time>2021-07-05T11:55:43</time>
      </trkpt>
      <trkpt lat="45.42368" lon="6.19348">
        <ele>1470.4537</ele>
        <time>2021-07-05T11:55:47</time>
      </trkpt>
      <trkpt lat="45.42368" lon="6.1935">
        <ele>1470.4537</ele>
        <time>2021-07-05T11:55:53</time>
      </trkpt>
      <trkpt lat="45.42369" lon="6.19353">
        <ele>1469.6205</ele>
        <time>2021-07-05T11:55:55</time>
      </trkpt>
      <trkpt lat="45.4237" lon="6.19354">
        <ele>1469.6205</ele>
        <time>2021-07-05T11:55:56</time>
      </trkpt>
      <trkpt lat="45.42371" lon="6.19358">
        <ele>1469.6205</ele>
        <time>2021-07-05T11:55:59</time>
      </trkpt>
      <trkpt lat="45.42371" lon="6.19359">
        <ele>1469.6205</ele>
        <time>2021-07-05T11:56:00</time>
      </trkpt>
      <trkpt lat="45.42371" lon="6.19359">
        <ele>1469.6205</ele>
        <time>2021-07-05T11:56:03</time>
      </trkpt>
      <trkpt lat="45.42371" lon="6.1936">
        <ele>1469.6205</ele>
        <time>2021-07-05T11:56:04</time>
      </trkpt>
      <trkpt lat="45.4237" lon="6.1936">
        <ele>1471.4204</ele>
        <time>2021-07-05T11:56:05</time>
      </trkpt>
      <trkpt lat="45.4237" lon="6.1936">
        <ele>1471.4204</ele>
        <time>2021-07-05T11:56:06</time>
      </trkpt>
      <trkpt lat="45.4237" lon="6.19362">
        <ele>1471.4204</ele>
        <time>2021-07-05T11:56:08</time>
      </trkpt>
      <trkpt lat="45.42369" lon="6.19364">
        <ele>1471.4204</ele>
        <time>2021-07-05T11:56:10</time>
      </trkpt>
      <trkpt lat="45.4237" lon="6.19365">
        <ele>1471.4204</ele>
        <time>2021-07-05T11:56:12</time>
      </trkpt>
      <trkpt lat="45.4237" lon="6.19367">
        <ele>1471.4204</ele>
        <time>2021-07-05T11:56:13</time>
      </trkpt>
      <trkpt lat="45.42371" lon="6.19368">
        <ele>1471.4204</ele>
        <time>2021-07-05T11:56:14</time>
      </trkpt>
      <trkpt lat="45.42373" lon="6.19369">
        <ele>1474.9204</ele>
        <time>2021-07-05T11:56:17</time>
      </trkpt>
      <trkpt lat="45.42373" lon="6.1937">
        <ele>1474.9204</ele>
        <time>2021-07-05T11:56:18</time>
      </trkpt>
      <trkpt lat="45.42375" lon="6.19372">
        <ele>1474.9204</ele>
        <time>2021-07-05T11:56:21</time>
      </trkpt>
      <trkpt lat="45.42375" lon="6.19372">
        <ele>1474.9204</ele>
        <time>2021-07-05T11:56:22</time>
      </trkpt>
      <trkpt lat="45.42375" lon="6.19372">
        <ele>1474.9204</ele>
        <time>2021-07-05T11:56:23</time>
      </trkpt>
      <trkpt lat="45.42375" lon="6.19372">
        <ele>1474.9204</ele>
        <time>2021-07-05T11:56:24</time>
      </trkpt>
      <trkpt lat="45.42375" lon="6.19374">
        <ele>1479.5204</ele>
        <time>2021-07-05T11:56:30</time>
      </trkpt>
      <trkpt lat="45.42375" lon="6.19374">
        <ele>1479.5204</ele>
        <time>2021-07-05T11:56:31</time>
      </trkpt>
      <trkpt lat="45.42375" lon="6.19375">
        <ele>1479.5204</ele>
        <time>2021-07-05T11:56:32</time>
      </trkpt>
      <trkpt lat="45.42374" lon="6.19376">
        <ele>1479.5204</ele>
        <time>2021-07-05T11:56:33</time>
      </trkpt>
      <trkpt lat="45.42378" lon="6.19393">
        <ele>1482.2205</ele>
        <time>2021-07-05T11:56:55</time>
      </trkpt>
      <trkpt lat="45.42377" lon="6.19394">
        <ele>1482.2205</ele>
        <time>2021-07-05T11:57:00</time>
      </trkpt>
      <trkpt lat="45.42377" lon="6.19394">
        <ele>1482.2205</ele>
        <time>2021-07-05T11:57:01</time>
      </trkpt>
      <trkpt lat="45.42376" lon="6.19394">
        <ele>1482.2205</ele>
        <time>2021-07-05T11:57:02</time>
      </trkpt>
      <trkpt lat="45.42376" lon="6.19394">
        <ele>1482.2205</ele>
        <time>2021-07-05T11:57:03</time>
      </trkpt>
      <trkpt lat="45.42375" lon="6.19395">
        <ele>1485.1205</ele>
        <time>2021-07-05T11:57:07</time>
      </trkpt>
      <trkpt lat="45.42375" lon="6.19395">
        <ele>1485.1205</ele>
        <time>2021-07-05T11:57:08</time>
      </trkpt>
      <trkpt lat="45.42374" lon="6.19398">
        <ele>1485.1205</ele>
        <time>2021-07-05T11:57:13</time>
      </trkpt>
      <trkpt lat="45.42373" lon="6.19399">
        <ele>1486.2205</ele>
        <time>2021-07-05T11:57:15</time>
      </trkpt>
      <trkpt lat="45.42373" lon="6.19399">
        <ele>1486.2205</ele>
        <time>2021-07-05T11:57:16</time>
      </trkpt>
      <trkpt lat="45.42373" lon="6.194">
        <ele>1486.2205</ele>
        <time>2021-07-05T11:57:17</time>
      </trkpt>
      <trkpt lat="45.42372" lon="6.194">
        <ele>1486.2205</ele>
        <time>2021-07-05T11:57:19</time>
      </trkpt>
      <trkpt lat="45.42372" lon="6.19401">
        <ele>1486.2205</ele>
        <time>2021-07-05T11:57:20</time>
      </trkpt>
      <trkpt lat="45.42372" lon="6.19401">
        <ele>1486.2205</ele>
        <time>2021-07-05T11:57:21</time>
      </trkpt>
      <trkpt lat="45.42372" lon="6.19403">
        <ele>1486.2205</ele>
        <time>2021-07-05T11:57:24</time>
      </trkpt>
      <trkpt lat="45.42371" lon="6.19405">
        <ele>1486.8204</ele>
        <time>2021-07-05T11:57:26</time>
      </trkpt>
      <trkpt lat="45.42371" lon="6.19407">
        <ele>1486.8204</ele>
        <time>2021-07-05T11:57:33</time>
      </trkpt>
      <trkpt lat="45.42371" lon="6.19407">
        <ele>1486.8204</ele>
        <time>2021-07-05T11:57:34</time>
      </trkpt>
      <trkpt lat="45.4237" lon="6.19407">
        <ele>1488.7205</ele>
        <time>2021-07-05T11:57:38</time>
      </trkpt>
      <trkpt lat="45.42371" lon="6.19407">
        <ele>1488.7205</ele>
        <time>2021-07-05T11:57:40</time>
      </trkpt>
      <trkpt lat="45.4237" lon="6.19406">
        <ele>1486.8204</ele>
        <time>2021-07-05T11:57:48</time>
      </trkpt>
      <trkpt lat="45.42364" lon="6.19407">
        <ele>1488.7205</ele>
        <time>2021-07-05T11:57:58</time>
      </trkpt>
      <trkpt lat="45.42363" lon="6.19408">
        <ele>1488.7205</ele>
        <time>2021-07-05T11:57:59</time>
      </trkpt>
      <trkpt lat="45.42361" lon="6.19409">
        <ele>1488.7205</ele>
        <time>2021-07-05T11:58:04</time>
      </trkpt>
      <trkpt lat="45.42361" lon="6.19409">
        <ele>1491.4204</ele>
        <time>2021-07-05T11:58:07</time>
      </trkpt>
      <trkpt lat="45.42361" lon="6.1941">
        <ele>1491.4204</ele>
        <time>2021-07-05T11:58:08</time>
      </trkpt>
      <trkpt lat="45.42361" lon="6.1941">
        <ele>1491.4204</ele>
        <time>2021-07-05T11:58:09</time>
      </trkpt>
      <trkpt lat="45.42361" lon="6.1941">
        <ele>1491.4204</ele>
        <time>2021-07-05T11:58:10</time>
      </trkpt>
      <trkpt lat="45.4236" lon="6.1941">
        <ele>1491.4204</ele>
        <time>2021-07-05T11:58:12</time>
      </trkpt>
      <trkpt lat="45.4236" lon="6.19412">
        <ele>1491.4204</ele>
        <time>2021-07-05T11:58:13</time>
      </trkpt>
      <trkpt lat="45.42359" lon="6.19413">
        <ele>1496.8204</ele>
        <time>2021-07-05T11:58:17</time>
      </trkpt>
      <trkpt lat="45.42358" lon="6.19414">
        <ele>1496.8204</ele>
        <time>2021-07-05T11:58:20</time>
      </trkpt>
      <trkpt lat="45.42358" lon="6.19415">
        <ele>1496.8204</ele>
        <time>2021-07-05T11:58:21</time>
      </trkpt>
      <trkpt lat="45.42358" lon="6.19414">
        <ele>1496.8204</ele>
        <time>2021-07-05T11:58:22</time>
      </trkpt>
      <trkpt lat="45.42357" lon="6.19414">
        <ele>1496.9204</ele>
        <time>2021-07-05T11:58:28</time>
      </trkpt>
      <trkpt lat="45.42356" lon="6.19414">
        <ele>1496.9204</ele>
        <time>2021-07-05T11:58:29</time>
      </trkpt>
      <trkpt lat="45.42355" lon="6.19414">
        <ele>1496.9204</ele>
        <time>2021-07-05T11:58:30</time>
      </trkpt>
      <trkpt lat="45.4235" lon="6.19414">
        <ele>1496.9204</ele>
        <time>2021-07-05T11:58:34</time>
      </trkpt>
      <trkpt lat="45.42346" lon="6.19413">
        <ele>1500.1205</ele>
        <time>2021-07-05T11:58:41</time>
      </trkpt>
      <trkpt lat="45.42345" lon="6.19413">
        <ele>1500.1205</ele>
        <time>2021-07-05T11:58:42</time>
      </trkpt>
      <trkpt lat="45.42344" lon="6.19412">
        <ele>1500.1205</ele>
        <time>2021-07-05T11:58:44</time>
      </trkpt>
      <trkpt lat="45.42343" lon="6.19413">
        <ele>1499.4204</ele>
        <time>2021-07-05T11:58:47</time>
      </trkpt>
      <trkpt lat="45.42337" lon="6.19411">
        <ele>1499.4204</ele>
        <time>2021-07-05T11:58:54</time>
      </trkpt>
      <trkpt lat="45.42337" lon="6.19411">
        <ele>1500.1205</ele>
        <time>2021-07-05T11:58:57</time>
      </trkpt>
      <trkpt lat="45.42337" lon="6.19411">
        <ele>1500.1205</ele>
        <time>2021-07-05T11:58:58</time>
      </trkpt>
      <trkpt lat="45.42337" lon="6.19411">
        <ele>1500.1205</ele>
        <time>2021-07-05T11:59:01</time>
      </trkpt>
      <trkpt lat="45.42337" lon="6.1941">
        <ele>1500.1205</ele>
        <time>2021-07-05T11:59:02</time>
      </trkpt>
      <trkpt lat="45.42336" lon="6.1941">
        <ele>1503.9204</ele>
        <time>2021-07-05T11:59:08</time>
      </trkpt>
      <trkpt lat="45.42332" lon="6.19411">
        <ele>1503.9204</ele>
        <time>2021-07-05T11:59:12</time>
      </trkpt>
      <trkpt lat="45.42332" lon="6.19411">
        <ele>1503.9204</ele>
        <time>2021-07-05T11:59:14</time>
      </trkpt>
      <trkpt lat="45.42332" lon="6.19411">
        <ele>1506.1205</ele>
        <time>2021-07-05T11:59:15</time>
      </trkpt>
      <trkpt lat="45.42329" lon="6.19413">
        <ele>1506.1205</ele>
        <time>2021-07-05T11:59:24</time>
      </trkpt>
      <trkpt lat="45.42329" lon="6.19414">
        <ele>1506.6205</ele>
        <time>2021-07-05T11:59:26</time>
      </trkpt>
      <trkpt lat="45.42328" lon="6.19414">
        <ele>1506.6205</ele>
        <time>2021-07-05T11:59:30</time>
      </trkpt>
      <trkpt lat="45.42326" lon="6.19414">
        <ele>1506.6205</ele>
        <time>2021-07-05T11:59:34</time>
      </trkpt>
      <trkpt lat="45.42325" lon="6.19416">
        <ele>1505.6205</ele>
        <time>2021-07-05T11:59:37</time>
      </trkpt>
      <trkpt lat="45.42324" lon="6.19418">
        <ele>1505.6205</ele>
        <time>2021-07-05T11:59:41</time>
      </trkpt>
      <trkpt lat="45.42324" lon="6.19418">
        <ele>1508.2205</ele>
        <time>2021-07-05T11:59:45</time>
      </trkpt>
      <trkpt lat="45.42324" lon="6.19419">
        <ele>1508.2205</ele>
        <time>2021-07-05T11:59:46</time>
      </trkpt>
      <trkpt lat="45.42325" lon="6.19421">
        <ele>1508.2205</ele>
        <time>2021-07-05T11:59:51</time>
      </trkpt>
      <trkpt lat="45.42324" lon="6.19421">
        <ele>1508.2205</ele>
        <time>2021-07-05T11:59:53</time>
      </trkpt>
      <trkpt lat="45.42325" lon="6.19422">
        <ele>1510.6205</ele>
        <time>2021-07-05T11:59:59</time>
      </trkpt>
      <trkpt lat="45.42324" lon="6.19424">
        <ele>1510.6205</ele>
        <time>2021-07-05T12:00:02</time>
      </trkpt>
      <trkpt lat="45.42325" lon="6.19426">
        <ele>1513.5872</ele>
        <time>2021-07-05T12:00:14</time>
      </trkpt>
      <trkpt lat="45.42324" lon="6.19427">
        <ele>1516.4204</ele>
        <time>2021-07-05T12:00:15</time>
      </trkpt>
      <trkpt lat="45.42324" lon="6.19428">
        <ele>1516.4204</ele>
        <time>2021-07-05T12:00:21</time>
      </trkpt>
      <trkpt lat="45.42324" lon="6.19429">
        <ele>1516.4204</ele>
        <time>2021-07-05T12:00:22</time>
      </trkpt>
      <trkpt lat="45.42322" lon="6.19432">
        <ele>1517.4204</ele>
        <time>2021-07-05T12:00:26</time>
      </trkpt>
      <trkpt lat="45.42322" lon="6.19436">
        <ele>1517.4204</ele>
        <time>2021-07-05T12:00:29</time>
      </trkpt>
      <trkpt lat="45.42322" lon="6.19436">
        <ele>1517.4204</ele>
        <time>2021-07-05T12:00:30</time>
      </trkpt>
      <trkpt lat="45.42323" lon="6.1944">
        <ele>1521.3204</ele>
        <time>2021-07-05T12:00:35</time>
      </trkpt>
      <trkpt lat="45.42324" lon="6.19442">
        <ele>1521.3204</ele>
        <time>2021-07-05T12:00:38</time>
      </trkpt>
      <trkpt lat="45.42325" lon="6.19447">
        <ele>1521.3204</ele>
        <time>2021-07-05T12:00:44</time>
      </trkpt>
      <trkpt lat="45.42325" lon="6.19447">
        <ele>1521.6205</ele>
        <time>2021-07-05T12:00:46</time>
      </trkpt>
      <trkpt lat="45.42325" lon="6.19447">
        <ele>1521.6205</ele>
        <time>2021-07-05T12:00:47</time>
      </trkpt>
      <trkpt lat="45.42325" lon="6.19447">
        <ele>1521.6205</ele>
        <time>2021-07-05T12:00:49</time>
      </trkpt>
      <trkpt lat="45.42326" lon="6.19448">
        <ele>1521.6205</ele>
        <time>2021-07-05T12:00:50</time>
      </trkpt>
      <trkpt lat="45.42327" lon="6.1945">
        <ele>1521.6205</ele>
        <time>2021-07-05T12:00:51</time>
      </trkpt>
      <trkpt lat="45.4233" lon="6.19455">
        <ele>1522.1205</ele>
        <time>2021-07-05T12:00:56</time>
      </trkpt>
      <trkpt lat="45.4233" lon="6.19455">
        <ele>1522.1205</ele>
        <time>2021-07-05T12:00:57</time>
      </trkpt>
      <trkpt lat="45.4233" lon="6.19457">
        <ele>1522.1205</ele>
        <time>2021-07-05T12:01:03</time>
      </trkpt>
      <trkpt lat="45.4233" lon="6.19457">
        <ele>1522.1205</ele>
        <time>2021-07-05T12:01:04</time>
      </trkpt>
      <trkpt lat="45.4233" lon="6.19458">
        <ele>1520.6205</ele>
        <time>2021-07-05T12:01:05</time>
      </trkpt>
      <trkpt lat="45.42333" lon="6.19461">
        <ele>1520.6205</ele>
        <time>2021-07-05T12:01:12</time>
      </trkpt>
      <trkpt lat="45.42334" lon="6.19462">
        <ele>1520.6205</ele>
        <time>2021-07-05T12:01:13</time>
      </trkpt>
      <trkpt lat="45.42335" lon="6.19463">
        <ele>1520.6205</ele>
        <time>2021-07-05T12:01:14</time>
      </trkpt>
      <trkpt lat="45.42335" lon="6.19464">
        <ele>1522.8204</ele>
        <time>2021-07-05T12:01:15</time>
      </trkpt>
      <trkpt lat="45.42336" lon="6.19467">
        <ele>1522.8204</ele>
        <time>2021-07-05T12:01:18</time>
      </trkpt>
      <trkpt lat="45.42336" lon="6.19468">
        <ele>1522.8204</ele>
        <time>2021-07-05T12:01:19</time>
      </trkpt>
      <trkpt lat="45.42336" lon="6.19468">
        <ele>1526.0204</ele>
        <time>2021-07-05T12:01:37</time>
      </trkpt>
      <trkpt lat="45.42336" lon="6.19468">
        <ele>1526.0204</ele>
        <time>2021-07-05T12:01:38</time>
      </trkpt>
      <trkpt lat="45.42336" lon="6.19468">
        <ele>1526.0204</ele>
        <time>2021-07-05T12:01:39</time>
      </trkpt>
      <trkpt lat="45.42336" lon="6.19469">
        <ele>1526.0204</ele>
        <time>2021-07-05T12:01:40</time>
      </trkpt>
      <trkpt lat="45.42336" lon="6.19471">
        <ele>1526.0204</ele>
        <time>2021-07-05T12:01:41</time>
      </trkpt>
      <trkpt lat="45.42336" lon="6.19472">
        <ele>1526.0204</ele>
        <time>2021-07-05T12:01:42</time>
      </trkpt>
      <trkpt lat="45.42336" lon="6.19473">
        <ele>1527.0204</ele>
        <time>2021-07-05T12:01:46</time>
      </trkpt>
      <trkpt lat="45.42338" lon="6.19477">
        <ele>1527.0204</ele>
        <time>2021-07-05T12:01:48</time>
      </trkpt>
      <trkpt lat="45.42338" lon="6.19479">
        <ele>1527.0204</ele>
        <time>2021-07-05T12:01:49</time>
      </trkpt>
      <trkpt lat="45.4234" lon="6.19484">
        <ele>1527.0204</ele>
        <time>2021-07-05T12:01:52</time>
      </trkpt>
      <trkpt lat="45.42341" lon="6.19485">
        <ele>1527.0204</ele>
        <time>2021-07-05T12:01:53</time>
      </trkpt>
      <trkpt lat="45.42341" lon="6.19486">
        <ele>1527.0204</ele>
        <time>2021-07-05T12:01:54</time>
      </trkpt>
      <trkpt lat="45.42342" lon="6.19486">
        <ele>1528.1205</ele>
        <time>2021-07-05T12:01:55</time>
      </trkpt>
      <trkpt lat="45.42342" lon="6.19488">
        <ele>1528.1205</ele>
        <time>2021-07-05T12:01:56</time>
      </trkpt>
      <trkpt lat="45.42342" lon="6.19492">
        <ele>1528.1205</ele>
        <time>2021-07-05T12:01:58</time>
      </trkpt>
      <trkpt lat="45.42343" lon="6.19493">
        <ele>1528.1205</ele>
        <time>2021-07-05T12:01:59</time>
      </trkpt>
      <trkpt lat="45.42343" lon="6.19494">
        <ele>1528.1205</ele>
        <time>2021-07-05T12:02:00</time>
      </trkpt>
      <trkpt lat="45.42343" lon="6.19495">
        <ele>1528.1205</ele>
        <time>2021-07-05T12:02:01</time>
      </trkpt>
      <trkpt lat="45.42344" lon="6.19496">
        <ele>1528.1205</ele>
        <time>2021-07-05T12:02:02</time>
      </trkpt>
      <trkpt lat="45.42344" lon="6.19497">
        <ele>1528.1205</ele>
        <time>2021-07-05T12:02:03</time>
      </trkpt>
      <trkpt lat="45.42345" lon="6.195">
        <ele>1527.7205</ele>
        <time>2021-07-05T12:02:07</time>
      </trkpt>
      <trkpt lat="45.42344" lon="6.195">
        <ele>1527.7205</ele>
        <time>2021-07-05T12:02:11</time>
      </trkpt>
      <trkpt lat="45.42344" lon="6.19502">
        <ele>1531.5204</ele>
        <time>2021-07-05T12:02:15</time>
      </trkpt>
      <trkpt lat="45.42344" lon="6.19503">
        <ele>1531.5204</ele>
        <time>2021-07-05T12:02:16</time>
      </trkpt>
      <trkpt lat="45.42344" lon="6.19503">
        <ele>1531.5204</ele>
        <time>2021-07-05T12:02:17</time>
      </trkpt>
      <trkpt lat="45.42344" lon="6.19503">
        <ele>1531.5204</ele>
        <time>2021-07-05T12:02:18</time>
      </trkpt>
      <trkpt lat="45.42345" lon="6.19507">
        <ele>1531.5204</ele>
        <time>2021-07-05T12:02:21</time>
      </trkpt>
      <trkpt lat="45.42346" lon="6.19509">
        <ele>1531.5204</ele>
        <time>2021-07-05T12:02:23</time>
      </trkpt>
      <trkpt lat="45.42345" lon="6.19511">
        <ele>1532.6205</ele>
        <time>2021-07-05T12:02:25</time>
      </trkpt>
      <trkpt lat="45.42345" lon="6.19511">
        <ele>1532.6205</ele>
        <time>2021-07-05T12:02:26</time>
      </trkpt>
      <trkpt lat="45.42345" lon="6.19513">
        <ele>1532.6205</ele>
        <time>2021-07-05T12:02:28</time>
      </trkpt>
      <trkpt lat="45.42345" lon="6.19515">
        <ele>1532.6205</ele>
        <time>2021-07-05T12:02:31</time>
      </trkpt>
      <trkpt lat="45.42345" lon="6.19518">
        <ele>1532.6205</ele>
        <time>2021-07-05T12:02:33</time>
      </trkpt>
      <trkpt lat="45.42345" lon="6.1952">
        <ele>1532.6205</ele>
        <time>2021-07-05T12:02:34</time>
      </trkpt>
      <trkpt lat="45.42345" lon="6.19522">
        <ele>1533.7205</ele>
        <time>2021-07-05T12:02:37</time>
      </trkpt>
      <trkpt lat="45.42345" lon="6.19523">
        <ele>1533.7205</ele>
        <time>2021-07-05T12:02:38</time>
      </trkpt>
      <trkpt lat="45.42345" lon="6.19523">
        <ele>1533.7205</ele>
        <time>2021-07-05T12:02:39</time>
      </trkpt>
      <trkpt lat="45.42345" lon="6.19524">
        <ele>1533.7205</ele>
        <time>2021-07-05T12:02:40</time>
      </trkpt>
      <trkpt lat="45.42346" lon="6.19525">
        <ele>1533.7205</ele>
        <time>2021-07-05T12:02:41</time>
      </trkpt>
      <trkpt lat="45.42346" lon="6.19526">
        <ele>1533.7205</ele>
        <time>2021-07-05T12:02:42</time>
      </trkpt>
      <trkpt lat="45.42346" lon="6.1953">
        <ele>1531.5204</ele>
        <time>2021-07-05T12:02:48</time>
      </trkpt>
      <trkpt lat="45.42347" lon="6.19531">
        <ele>1531.5204</ele>
        <time>2021-07-05T12:02:49</time>
      </trkpt>
      <trkpt lat="45.42349" lon="6.19535">
        <ele>1534.2205</ele>
        <time>2021-07-05T12:02:56</time>
      </trkpt>
      <trkpt lat="45.4235" lon="6.19536">
        <ele>1534.2205</ele>
        <time>2021-07-05T12:02:57</time>
      </trkpt>
      <trkpt lat="45.42352" lon="6.19539">
        <ele>1534.2205</ele>
        <time>2021-07-05T12:02:59</time>
      </trkpt>
      <trkpt lat="45.42353" lon="6.1954">
        <ele>1534.2205</ele>
        <time>2021-07-05T12:03:00</time>
      </trkpt>
      <trkpt lat="45.42354" lon="6.1954">
        <ele>1534.2205</ele>
        <time>2021-07-05T12:03:01</time>
      </trkpt>
      <trkpt lat="45.42354" lon="6.19541">
        <ele>1534.2205</ele>
        <time>2021-07-05T12:03:02</time>
      </trkpt>
      <trkpt lat="45.42355" lon="6.19542">
        <ele>1534.2205</ele>
        <time>2021-07-05T12:03:03</time>
      </trkpt>
      <trkpt lat="45.42355" lon="6.19543">
        <ele>1534.2205</ele>
        <time>2021-07-05T12:03:04</time>
      </trkpt>
      <trkpt lat="45.42355" lon="6.19544">
        <ele>1535.6205</ele>
        <time>2021-07-05T12:03:06</time>
      </trkpt>
      <trkpt lat="45.42355" lon="6.19545">
        <ele>1535.6205</ele>
        <time>2021-07-05T12:03:07</time>
      </trkpt>
      <trkpt lat="45.42357" lon="6.19547">
        <ele>1535.6205</ele>
        <time>2021-07-05T12:03:10</time>
      </trkpt>
      <trkpt lat="45.42357" lon="6.19548">
        <ele>1535.6205</ele>
        <time>2021-07-05T12:03:11</time>
      </trkpt>
      <trkpt lat="45.42358" lon="6.19548">
        <ele>1535.6205</ele>
        <time>2021-07-05T12:03:12</time>
      </trkpt>
      <trkpt lat="45.42359" lon="6.19549">
        <ele>1535.6205</ele>
        <time>2021-07-05T12:03:13</time>
      </trkpt>
      <trkpt lat="45.42359" lon="6.19552">
        <ele>1543.8204</ele>
        <time>2021-07-05T12:03:15</time>
      </trkpt>
      <trkpt lat="45.42359" lon="6.19553">
        <ele>1543.8204</ele>
        <time>2021-07-05T12:03:16</time>
      </trkpt>
      <trkpt lat="45.4236" lon="6.19555">
        <ele>1543.8204</ele>
        <time>2021-07-05T12:03:18</time>
      </trkpt>
      <trkpt lat="45.4236" lon="6.19556">
        <ele>1543.8204</ele>
        <time>2021-07-05T12:03:19</time>
      </trkpt>
      <trkpt lat="45.42361" lon="6.19558">
        <ele>1543.8204</ele>
        <time>2021-07-05T12:03:22</time>
      </trkpt>
      <trkpt lat="45.42361" lon="6.19559">
        <ele>1543.8204</ele>
        <time>2021-07-05T12:03:23</time>
      </trkpt>
      <trkpt lat="45.42362" lon="6.19561">
        <ele>1545.4204</ele>
        <time>2021-07-05T12:03:26</time>
      </trkpt>
      <trkpt lat="45.42364" lon="6.19563">
        <ele>1545.4204</ele>
        <time>2021-07-05T12:03:29</time>
      </trkpt>
      <trkpt lat="45.42365" lon="6.19564">
        <ele>1545.4204</ele>
        <time>2021-07-05T12:03:31</time>
      </trkpt>
      <trkpt lat="45.42367" lon="6.19568">
        <ele>1545.4204</ele>
        <time>2021-07-05T12:03:34</time>
      </trkpt>
      <trkpt lat="45.42369" lon="6.19572">
        <ele>1548.5204</ele>
        <time>2021-07-05T12:03:40</time>
      </trkpt>
      <trkpt lat="45.42371" lon="6.19577">
        <ele>1548.3204</ele>
        <time>2021-07-05T12:03:47</time>
      </trkpt>
      <trkpt lat="45.42371" lon="6.19583">
        <ele>1550.5204</ele>
        <time>2021-07-05T12:03:58</time>
      </trkpt>
      <trkpt lat="45.4237" lon="6.19587">
        <ele>1550.5204</ele>
        <time>2021-07-05T12:04:01</time>
      </trkpt>
      <trkpt lat="45.4237" lon="6.19588">
        <ele>1550.5204</ele>
        <time>2021-07-05T12:04:02</time>
      </trkpt>
      <trkpt lat="45.42369" lon="6.19589">
        <ele>1550.5204</ele>
        <time>2021-07-05T12:04:03</time>
      </trkpt>
      <trkpt lat="45.42369" lon="6.19591">
        <ele>1550.5204</ele>
        <time>2021-07-05T12:04:04</time>
      </trkpt>
      <trkpt lat="45.42369" lon="6.19592">
        <ele>1550.5204</ele>
        <time>2021-07-05T12:04:05</time>
      </trkpt>
      <trkpt lat="45.42369" lon="6.19595">
        <ele>1548.8204</ele>
        <time>2021-07-05T12:04:07</time>
      </trkpt>
      <trkpt lat="45.4237" lon="6.19597">
        <ele>1548.8204</ele>
        <time>2021-07-05T12:04:08</time>
      </trkpt>
      <trkpt lat="45.42372" lon="6.19604">
        <ele>1548.8204</ele>
        <time>2021-07-05T12:04:12</time>
      </trkpt>
      <trkpt lat="45.42375" lon="6.19609">
        <ele>1548.1205</ele>
        <time>2021-07-05T12:04:26</time>
      </trkpt>
      <trkpt lat="45.42376" lon="6.19612">
        <ele>1550.5204</ele>
        <time>2021-07-05T12:04:30</time>
      </trkpt>
      <trkpt lat="45.42375" lon="6.19614">
        <ele>1550.5204</ele>
        <time>2021-07-05T12:04:32</time>
      </trkpt>
      <trkpt lat="45.42375" lon="6.19614">
        <ele>1550.5204</ele>
        <time>2021-07-05T12:04:35</time>
      </trkpt>
      <trkpt lat="45.42375" lon="6.19615">
        <ele>1550.5204</ele>
        <time>2021-07-05T12:04:36</time>
      </trkpt>
      <trkpt lat="45.42375" lon="6.19618">
        <ele>1550.9204</ele>
        <time>2021-07-05T12:04:39</time>
      </trkpt>
      <trkpt lat="45.42375" lon="6.19619">
        <ele>1550.9204</ele>
        <time>2021-07-05T12:04:41</time>
      </trkpt>
      <trkpt lat="45.42375" lon="6.1962">
        <ele>1550.9204</ele>
        <time>2021-07-05T12:04:42</time>
      </trkpt>
      <trkpt lat="45.42376" lon="6.19621">
        <ele>1550.9204</ele>
        <time>2021-07-05T12:04:44</time>
      </trkpt>
      <trkpt lat="45.42376" lon="6.19622">
        <ele>1550.9204</ele>
        <time>2021-07-05T12:04:45</time>
      </trkpt>
      <trkpt lat="45.42376" lon="6.19623">
        <ele>1554.4204</ele>
        <time>2021-07-05T12:04:47</time>
      </trkpt>
      <trkpt lat="45.42377" lon="6.19624">
        <ele>1554.4204</ele>
        <time>2021-07-05T12:04:49</time>
      </trkpt>
      <trkpt lat="45.42378" lon="6.19628">
        <ele>1554.4204</ele>
        <time>2021-07-05T12:04:53</time>
      </trkpt>
      <trkpt lat="45.42378" lon="6.1963">
        <ele>1554.4204</ele>
        <time>2021-07-05T12:04:56</time>
      </trkpt>
      <trkpt lat="45.42378" lon="6.1963">
        <ele>1554.6205</ele>
        <time>2021-07-05T12:04:57</time>
      </trkpt>
      <trkpt lat="45.42378" lon="6.1963">
        <ele>1554.6205</ele>
        <time>2021-07-05T12:04:59</time>
      </trkpt>
      <trkpt lat="45.42378" lon="6.19632">
        <ele>1554.6205</ele>
        <time>2021-07-05T12:05:02</time>
      </trkpt>
      <trkpt lat="45.42378" lon="6.19633">
        <ele>1554.6205</ele>
        <time>2021-07-05T12:05:04</time>
      </trkpt>
      <trkpt lat="45.42379" lon="6.19635">
        <ele>1554.6205</ele>
        <time>2021-07-05T12:05:05</time>
      </trkpt>
      <trkpt lat="45.4238" lon="6.19637">
        <ele>1554.6205</ele>
        <time>2021-07-05T12:05:06</time>
      </trkpt>
      <trkpt lat="45.42381" lon="6.19641">
        <ele>1557.1205</ele>
        <time>2021-07-05T12:05:11</time>
      </trkpt>
      <trkpt lat="45.42381" lon="6.19642">
        <ele>1557.1205</ele>
        <time>2021-07-05T12:05:12</time>
      </trkpt>
      <trkpt lat="45.42382" lon="6.19646">
        <ele>1556.8204</ele>
        <time>2021-07-05T12:05:17</time>
      </trkpt>
      <trkpt lat="45.42383" lon="6.19647">
        <ele>1556.8204</ele>
        <time>2021-07-05T12:05:18</time>
      </trkpt>
      <trkpt lat="45.42384" lon="6.19651">
        <ele>1556.8204</ele>
        <time>2021-07-05T12:05:20</time>
      </trkpt>
      <trkpt lat="45.42385" lon="6.19653">
        <ele>1556.8204</ele>
        <time>2021-07-05T12:05:21</time>
      </trkpt>
      <trkpt lat="45.42386" lon="6.19656">
        <ele>1556.8204</ele>
        <time>2021-07-05T12:05:25</time>
      </trkpt>
      <trkpt lat="45.42385" lon="6.19656">
        <ele>1557.6205</ele>
        <time>2021-07-05T12:05:28</time>
      </trkpt>
      <trkpt lat="45.42385" lon="6.19656">
        <ele>1557.6205</ele>
        <time>2021-07-05T12:05:29</time>
      </trkpt>
      <trkpt lat="45.42385" lon="6.19657">
        <ele>1557.6205</ele>
        <time>2021-07-05T12:05:32</time>
      </trkpt>
      <trkpt lat="45.42385" lon="6.19661">
        <ele>1557.6205</ele>
        <time>2021-07-05T12:05:35</time>
      </trkpt>
      <trkpt lat="45.42385" lon="6.19663">
        <ele>1557.8204</ele>
        <time>2021-07-05T12:05:37</time>
      </trkpt>
      <trkpt lat="45.42385" lon="6.19666">
        <ele>1557.8204</ele>
        <time>2021-07-05T12:05:40</time>
      </trkpt>
      <trkpt lat="45.42385" lon="6.1967">
        <ele>1557.8204</ele>
        <time>2021-07-05T12:05:45</time>
      </trkpt>
      <trkpt lat="45.42385" lon="6.19671">
        <ele>1557.9204</ele>
        <time>2021-07-05T12:05:47</time>
      </trkpt>
      <trkpt lat="45.42385" lon="6.19672">
        <ele>1557.9204</ele>
        <time>2021-07-05T12:05:48</time>
      </trkpt>
      <trkpt lat="45.42384" lon="6.19675">
        <ele>1560.4204</ele>
        <time>2021-07-05T12:06:13</time>
      </trkpt>
      <trkpt lat="45.42385" lon="6.19678">
        <ele>1560.4204</ele>
        <time>2021-07-05T12:06:17</time>
      </trkpt>
      <trkpt lat="45.42387" lon="6.19681">
        <ele>1560.4204</ele>
        <time>2021-07-05T12:06:29</time>
      </trkpt>
      <trkpt lat="45.42386" lon="6.19682">
        <ele>1560.4204</ele>
        <time>2021-07-05T12:06:30</time>
      </trkpt>
      <trkpt lat="45.42385" lon="6.19686">
        <ele>1560.4204</ele>
        <time>2021-07-05T12:06:34</time>
      </trkpt>
      <trkpt lat="45.42382" lon="6.19697">
        <ele>1562.2205</ele>
        <time>2021-07-05T12:06:45</time>
      </trkpt>
      <trkpt lat="45.4238" lon="6.19703">
        <ele>1562.2205</ele>
        <time>2021-07-05T12:06:49</time>
      </trkpt>
      <trkpt lat="45.4238" lon="6.19704">
        <ele>1564.9204</ele>
        <time>2021-07-05T12:06:52</time>
      </trkpt>
      <trkpt lat="45.42381" lon="6.19705">
        <ele>1564.9204</ele>
        <time>2021-07-05T12:06:53</time>
      </trkpt>
      <trkpt lat="45.42381" lon="6.19711">
        <ele>1565.6205</ele>
        <time>2021-07-05T12:07:00</time>
      </trkpt>
      <trkpt lat="45.42383" lon="6.19718">
        <ele>1565.6205</ele>
        <time>2021-07-05T12:07:09</time>
      </trkpt>
      <trkpt lat="45.42385" lon="6.19737">
        <ele>1567.1205</ele>
        <time>2021-07-05T12:07:27</time>
      </trkpt>
      <trkpt lat="45.42384" lon="6.19741">
        <ele>1571.2205</ele>
        <time>2021-07-05T12:07:31</time>
      </trkpt>
      <trkpt lat="45.42382" lon="6.19748">
        <ele>1571.2205</ele>
        <time>2021-07-05T12:07:36</time>
      </trkpt>
      <trkpt lat="45.42381" lon="6.19753">
        <ele>1570.9204</ele>
        <time>2021-07-05T12:07:41</time>
      </trkpt>
      <trkpt lat="45.4238" lon="6.19756">
        <ele>1570.9204</ele>
        <time>2021-07-05T12:07:44</time>
      </trkpt>
      <trkpt lat="45.42378" lon="6.19763">
        <ele>1571.4204</ele>
        <time>2021-07-05T12:07:51</time>
      </trkpt>
      <trkpt lat="45.42379" lon="6.19768">
        <ele>1571.4204</ele>
        <time>2021-07-05T12:07:56</time>
      </trkpt>
      <trkpt lat="45.42379" lon="6.19771">
        <ele>1572.9204</ele>
        <time>2021-07-05T12:08:00</time>
      </trkpt>
      <trkpt lat="45.42379" lon="6.19781">
        <ele>1572.9204</ele>
        <time>2021-07-05T12:08:08</time>
      </trkpt>
      <trkpt lat="45.42377" lon="6.19783">
        <ele>1573.5204</ele>
        <time>2021-07-05T12:08:11</time>
      </trkpt>
      <trkpt lat="45.42376" lon="6.19786">
        <ele>1573.5204</ele>
        <time>2021-07-05T12:08:17</time>
      </trkpt>
      <trkpt lat="45.42376" lon="6.19786">
        <ele>1573.5204</ele>
        <time>2021-07-05T12:08:19</time>
      </trkpt>
      <trkpt lat="45.42376" lon="6.19787">
        <ele>1575.2205</ele>
        <time>2021-07-05T12:08:20</time>
      </trkpt>
      <trkpt lat="45.42377" lon="6.19788">
        <ele>1575.2205</ele>
        <time>2021-07-05T12:08:23</time>
      </trkpt>
      <trkpt lat="45.42376" lon="6.19788">
        <ele>1575.2205</ele>
        <time>2021-07-05T12:08:24</time>
      </trkpt>
      <trkpt lat="45.42376" lon="6.19788">
        <ele>1575.2205</ele>
        <time>2021-07-05T12:08:25</time>
      </trkpt>
      <trkpt lat="45.42376" lon="6.19789">
        <ele>1575.2205</ele>
        <time>2021-07-05T12:08:27</time>
      </trkpt>
      <trkpt lat="45.42375" lon="6.1979">
        <ele>1575.2205</ele>
        <time>2021-07-05T12:08:28</time>
      </trkpt>
      <trkpt lat="45.42374" lon="6.19802">
        <ele>1577.3204</ele>
        <time>2021-07-05T12:08:37</time>
      </trkpt>
      <trkpt lat="45.42374" lon="6.19806">
        <ele>1582.2205</ele>
        <time>2021-07-05T12:08:40</time>
      </trkpt>
      <trkpt lat="45.42373" lon="6.19813">
        <ele>1582.2205</ele>
        <time>2021-07-05T12:08:46</time>
      </trkpt>
      <trkpt lat="45.42372" lon="6.19814">
        <ele>1582.2205</ele>
        <time>2021-07-05T12:08:47</time>
      </trkpt>
      <trkpt lat="45.42372" lon="6.19815">
        <ele>1582.2205</ele>
        <time>2021-07-05T12:08:49</time>
      </trkpt>
      <trkpt lat="45.42371" lon="6.19819">
        <ele>1580.9204</ele>
        <time>2021-07-05T12:08:53</time>
      </trkpt>
      <trkpt lat="45.4237" lon="6.19822">
        <ele>1580.9204</ele>
        <time>2021-07-05T12:08:55</time>
      </trkpt>
      <trkpt lat="45.42367" lon="6.19828">
        <ele>1583.4204</ele>
        <time>2021-07-05T12:09:01</time>
      </trkpt>
      <trkpt lat="45.42365" lon="6.19831">
        <ele>1583.4204</ele>
        <time>2021-07-05T12:09:05</time>
      </trkpt>
      <trkpt lat="45.42363" lon="6.19834">
        <ele>1583.4204</ele>
        <time>2021-07-05T12:09:09</time>
      </trkpt>
      <trkpt lat="45.42363" lon="6.19836">
        <ele>1581.5204</ele>
        <time>2021-07-05T12:09:13</time>
      </trkpt>
      <trkpt lat="45.42363" lon="6.19838">
        <ele>1584.4204</ele>
        <time>2021-07-05T12:09:35</time>
      </trkpt>
      <trkpt lat="45.42363" lon="6.1984">
        <ele>1584.4204</ele>
        <time>2021-07-05T12:09:38</time>
      </trkpt>
      <trkpt lat="45.42363" lon="6.19842">
        <ele>1584.0204</ele>
        <time>2021-07-05T12:09:42</time>
      </trkpt>
      <trkpt lat="45.42362" lon="6.19842">
        <ele>1584.0204</ele>
        <time>2021-07-05T12:09:43</time>
      </trkpt>
      <trkpt lat="45.42362" lon="6.19842">
        <ele>1584.0204</ele>
        <time>2021-07-05T12:09:49</time>
      </trkpt>
      <trkpt lat="45.42363" lon="6.19845">
        <ele>1583.4204</ele>
        <time>2021-07-05T12:09:52</time>
      </trkpt>
      <trkpt lat="45.42363" lon="6.19846">
        <ele>1583.4204</ele>
        <time>2021-07-05T12:09:59</time>
      </trkpt>
      <trkpt lat="45.42362" lon="6.19847">
        <ele>1584.1205</ele>
        <time>2021-07-05T12:10:02</time>
      </trkpt>
      <trkpt lat="45.42361" lon="6.1985">
        <ele>1584.1205</ele>
        <time>2021-07-05T12:10:09</time>
      </trkpt>
      <trkpt lat="45.42361" lon="6.1985">
        <ele>1583.0204</ele>
        <time>2021-07-05T12:10:10</time>
      </trkpt>
      <trkpt lat="45.4236" lon="6.19853">
        <ele>1583.0204</ele>
        <time>2021-07-05T12:10:18</time>
      </trkpt>
      <trkpt lat="45.42359" lon="6.19856">
        <ele>1581.5204</ele>
        <time>2021-07-05T12:10:22</time>
      </trkpt>
      <trkpt lat="45.42359" lon="6.19857">
        <ele>1581.5204</ele>
        <time>2021-07-05T12:10:24</time>
      </trkpt>
      <trkpt lat="45.42358" lon="6.19857">
        <ele>1581.5204</ele>
        <time>2021-07-05T12:10:28</time>
      </trkpt>
      <trkpt lat="45.42359" lon="6.19856">
        <ele>1581.1205</ele>
        <time>2021-07-05T12:10:30</time>
      </trkpt>
      <trkpt lat="45.42359" lon="6.19855">
        <ele>1581.1205</ele>
        <time>2021-07-05T12:10:32</time>
      </trkpt>
      <trkpt lat="45.4236" lon="6.19855">
        <ele>1581.1205</ele>
        <time>2021-07-05T12:10:34</time>
      </trkpt>
      <trkpt lat="45.42359" lon="6.19856">
        <ele>1581.1205</ele>
        <time>2021-07-05T12:10:36</time>
      </trkpt>
      <trkpt lat="45.4236" lon="6.19858">
        <ele>1581.1205</ele>
        <time>2021-07-05T12:10:38</time>
      </trkpt>
      <trkpt lat="45.4236" lon="6.19859">
        <ele>1578.5204</ele>
        <time>2021-07-05T12:10:40</time>
      </trkpt>
      <trkpt lat="45.4236" lon="6.1986">
        <ele>1578.5204</ele>
        <time>2021-07-05T12:10:41</time>
      </trkpt>
      <trkpt lat="45.42361" lon="6.19863">
        <ele>1578.5204</ele>
        <time>2021-07-05T12:10:45</time>
      </trkpt>
      <trkpt lat="45.42361" lon="6.19864">
        <ele>1578.5204</ele>
        <time>2021-07-05T12:10:46</time>
      </trkpt>
      <trkpt lat="45.42361" lon="6.19864">
        <ele>1578.5204</ele>
        <time>2021-07-05T12:10:47</time>
      </trkpt>
      <trkpt lat="45.42362" lon="6.19867">
        <ele>1575.5204</ele>
        <time>2021-07-05T12:10:51</time>
      </trkpt>
      <trkpt lat="45.42364" lon="6.19871">
        <ele>1575.5204</ele>
        <time>2021-07-05T12:10:56</time>
      </trkpt>
      <trkpt lat="45.42366" lon="6.19873">
        <ele>1575.5204</ele>
        <time>2021-07-05T12:10:59</time>
      </trkpt>
      <trkpt lat="45.42366" lon="6.19873">
        <ele>1574.4204</ele>
        <time>2021-07-05T12:11:00</time>
      </trkpt>
      <trkpt lat="45.42371" lon="6.19873">
        <ele>1574.4204</ele>
        <time>2021-07-05T12:11:05</time>
      </trkpt>
      <trkpt lat="45.42371" lon="6.19873">
        <ele>1574.4204</ele>
        <time>2021-07-05T12:11:07</time>
      </trkpt>
      <trkpt lat="45.42381" lon="6.1987">
        <ele>1575.9204</ele>
        <time>2021-07-05T12:11:20</time>
      </trkpt>
      <trkpt lat="45.42382" lon="6.19869">
        <ele>1575.9204</ele>
        <time>2021-07-05T12:11:21</time>
      </trkpt>
      <trkpt lat="45.42383" lon="6.19868">
        <ele>1575.9204</ele>
        <time>2021-07-05T12:11:23</time>
      </trkpt>
      <trkpt lat="45.42384" lon="6.19868">
        <ele>1575.9204</ele>
        <time>2021-07-05T12:11:25</time>
      </trkpt>
      <trkpt lat="45.42385" lon="6.19867">
        <ele>1575.9204</ele>
        <time>2021-07-05T12:11:27</time>
      </trkpt>
      <trkpt lat="45.42386" lon="6.19867">
        <ele>1575.9204</ele>
        <time>2021-07-05T12:11:28</time>
      </trkpt>
      <trkpt lat="45.42387" lon="6.19866">
        <ele>1575.9204</ele>
        <time>2021-07-05T12:11:29</time>
      </trkpt>
      <trkpt lat="45.42388" lon="6.19865">
        <ele>1577.6205</ele>
        <time>2021-07-05T12:11:31</time>
      </trkpt>
      <trkpt lat="45.42389" lon="6.19864">
        <ele>1577.6205</ele>
        <time>2021-07-05T12:11:32</time>
      </trkpt>
      <trkpt lat="45.42391" lon="6.19864">
        <ele>1577.6205</ele>
        <time>2021-07-05T12:11:35</time>
      </trkpt>
      <trkpt lat="45.42392" lon="6.19864">
        <ele>1577.6205</ele>
        <time>2021-07-05T12:11:36</time>
      </trkpt>
      <trkpt lat="45.42393" lon="6.19864">
        <ele>1577.6205</ele>
        <time>2021-07-05T12:11:37</time>
      </trkpt>
      <trkpt lat="45.42395" lon="6.19865">
        <ele>1575.0204</ele>
        <time>2021-07-05T12:11:40</time>
      </trkpt>
      <trkpt lat="45.42395" lon="6.19866">
        <ele>1575.0204</ele>
        <time>2021-07-05T12:11:41</time>
      </trkpt>
      <trkpt lat="45.42394" lon="6.19867">
        <ele>1575.0204</ele>
        <time>2021-07-05T12:11:42</time>
      </trkpt>
      <trkpt lat="45.42393" lon="6.1987">
        <ele>1575.0204</ele>
        <time>2021-07-05T12:11:45</time>
      </trkpt>
      <trkpt lat="45.42393" lon="6.1987">
        <ele>1575.0204</ele>
        <time>2021-07-05T12:11:46</time>
      </trkpt>
      <trkpt lat="45.42392" lon="6.1987">
        <ele>1575.0204</ele>
        <time>2021-07-05T12:11:47</time>
      </trkpt>
      <trkpt lat="45.42392" lon="6.1987">
        <ele>1575.0204</ele>
        <time>2021-07-05T12:11:48</time>
      </trkpt>
      <trkpt lat="45.42392" lon="6.19871">
        <ele>1575.0204</ele>
        <time>2021-07-05T12:11:49</time>
      </trkpt>
      <trkpt lat="45.42388" lon="6.19878">
        <ele>1580.0204</ele>
        <time>2021-07-05T12:12:01</time>
      </trkpt>
      <trkpt lat="45.42382" lon="6.19889">
        <ele>1582.6538</ele>
        <time>2021-07-05T12:12:20</time>
      </trkpt>
      <trkpt lat="45.42382" lon="6.19889">
        <ele>1582.6538</ele>
        <time>2021-07-05T12:12:21</time>
      </trkpt>
      <trkpt lat="45.42382" lon="6.19891">
        <ele>1582.6538</ele>
        <time>2021-07-05T12:12:23</time>
      </trkpt>
      <trkpt lat="45.42382" lon="6.19893">
        <ele>1582.6538</ele>
        <time>2021-07-05T12:12:25</time>
      </trkpt>
      <trkpt lat="45.42383" lon="6.19896">
        <ele>1582.6538</ele>
        <time>2021-07-05T12:12:29</time>
      </trkpt>
      <trkpt lat="45.42383" lon="6.19896">
        <ele>1582.2205</ele>
        <time>2021-07-05T12:12:30</time>
      </trkpt>
      <trkpt lat="45.42384" lon="6.19898">
        <ele>1582.2205</ele>
        <time>2021-07-05T12:12:38</time>
      </trkpt>
      <trkpt lat="45.42384" lon="6.19903">
        <ele>1583.1205</ele>
        <time>2021-07-05T12:12:44</time>
      </trkpt>
      <trkpt lat="45.42384" lon="6.19904">
        <ele>1583.1205</ele>
        <time>2021-07-05T12:12:46</time>
      </trkpt>
      <trkpt lat="45.42384" lon="6.19909">
        <ele>1584.4204</ele>
        <time>2021-07-05T12:12:52</time>
      </trkpt>
      <trkpt lat="45.42389" lon="6.19912">
        <ele>1588.3204</ele>
        <time>2021-07-05T12:13:00</time>
      </trkpt>
      <trkpt lat="45.42389" lon="6.19911">
        <ele>1588.3204</ele>
        <time>2021-07-05T12:13:01</time>
      </trkpt>
      <trkpt lat="45.4239" lon="6.1991">
        <ele>1588.3204</ele>
        <time>2021-07-05T12:13:04</time>
      </trkpt>
      <trkpt lat="45.42389" lon="6.1991">
        <ele>1588.3204</ele>
        <time>2021-07-05T12:13:09</time>
      </trkpt>
      <trkpt lat="45.42392" lon="6.19911">
        <ele>1589.1205</ele>
        <time>2021-07-05T12:13:14</time>
      </trkpt>
      <trkpt lat="45.42393" lon="6.19911">
        <ele>1589.1205</ele>
        <time>2021-07-05T12:13:16</time>
      </trkpt>
      <trkpt lat="45.42394" lon="6.1991">
        <ele>1589.1205</ele>
        <time>2021-07-05T12:13:19</time>
      </trkpt>
      <trkpt lat="45.42397" lon="6.19906">
        <ele>1591.0204</ele>
        <time>2021-07-05T12:13:27</time>
      </trkpt>
      <trkpt lat="45.42403" lon="6.19901">
        <ele>1593.2205</ele>
        <time>2021-07-05T12:13:58</time>
      </trkpt>
      <trkpt lat="45.42404" lon="6.19898">
        <ele>1595.7205</ele>
        <time>2021-07-05T12:14:03</time>
      </trkpt>
      <trkpt lat="45.42405" lon="6.19898">
        <ele>1595.7205</ele>
        <time>2021-07-05T12:14:04</time>
      </trkpt>
      <trkpt lat="45.42409" lon="6.19895">
        <ele>1602.0204</ele>
        <time>2021-07-05T12:14:18</time>
      </trkpt>
      <trkpt lat="45.4241" lon="6.19894">
        <ele>1602.0204</ele>
        <time>2021-07-05T12:14:19</time>
      </trkpt>
      <trkpt lat="45.4241" lon="6.19894">
        <ele>1598.0204</ele>
        <time>2021-07-05T12:14:21</time>
      </trkpt>
      <trkpt lat="45.42411" lon="6.19893">
        <ele>1598.0204</ele>
        <time>2021-07-05T12:14:22</time>
      </trkpt>
      <trkpt lat="45.42412" lon="6.19893">
        <ele>1598.0204</ele>
        <time>2021-07-05T12:14:23</time>
      </trkpt>
      <trkpt lat="45.42412" lon="6.19893">
        <ele>1598.0204</ele>
        <time>2021-07-05T12:14:24</time>
      </trkpt>
      <trkpt lat="45.42413" lon="6.19892">
        <ele>1598.0204</ele>
        <time>2021-07-05T12:14:25</time>
      </trkpt>
      <trkpt lat="45.42414" lon="6.19892">
        <ele>1598.0204</ele>
        <time>2021-07-05T12:14:26</time>
      </trkpt>
      <trkpt lat="45.42414" lon="6.19891">
        <ele>1598.0204</ele>
        <time>2021-07-05T12:14:27</time>
      </trkpt>
      <trkpt lat="45.42415" lon="6.1989">
        <ele>1598.0204</ele>
        <time>2021-07-05T12:14:28</time>
      </trkpt>
      <trkpt lat="45.42416" lon="6.19891">
        <ele>1598.0204</ele>
        <time>2021-07-05T12:14:29</time>
      </trkpt>
      <trkpt lat="45.42417" lon="6.19891">
        <ele>1595.7205</ele>
        <time>2021-07-05T12:14:30</time>
      </trkpt>
      <trkpt lat="45.42418" lon="6.1989">
        <ele>1595.7205</ele>
        <time>2021-07-05T12:14:31</time>
      </trkpt>
      <trkpt lat="45.42419" lon="6.1989">
        <ele>1595.7205</ele>
        <time>2021-07-05T12:14:32</time>
      </trkpt>
      <trkpt lat="45.42419" lon="6.1989">
        <ele>1595.7205</ele>
        <time>2021-07-05T12:14:33</time>
      </trkpt>
      <trkpt lat="45.42421" lon="6.19889">
        <ele>1595.7205</ele>
        <time>2021-07-05T12:14:35</time>
      </trkpt>
      <trkpt lat="45.42425" lon="6.19892">
        <ele>1597.6205</ele>
        <time>2021-07-05T12:14:46</time>
      </trkpt>
      <trkpt lat="45.42426" lon="6.19893">
        <ele>1597.6205</ele>
        <time>2021-07-05T12:14:47</time>
      </trkpt>
      <trkpt lat="45.42428" lon="6.19894">
        <ele>1597.6205</ele>
        <time>2021-07-05T12:14:49</time>
      </trkpt>
      <trkpt lat="45.42431" lon="6.19893">
        <ele>1598.9204</ele>
        <time>2021-07-05T12:14:52</time>
      </trkpt>
      <trkpt lat="45.42434" lon="6.19892">
        <ele>1598.9204</ele>
        <time>2021-07-05T12:14:56</time>
      </trkpt>
      <trkpt lat="45.4244" lon="6.1989">
        <ele>1599.8204</ele>
        <time>2021-07-05T12:15:02</time>
      </trkpt>
      <trkpt lat="45.42441" lon="6.19888">
        <ele>1599.8204</ele>
        <time>2021-07-05T12:15:07</time>
      </trkpt>
      <trkpt lat="45.42444" lon="6.19887">
        <ele>1603.2205</ele>
        <time>2021-07-05T12:15:12</time>
      </trkpt>
      <trkpt lat="45.42447" lon="6.19894">
        <ele>1606.2205</ele>
        <time>2021-07-05T12:15:23</time>
      </trkpt>
      <trkpt lat="45.42446" lon="6.19894">
        <ele>1606.2205</ele>
        <time>2021-07-05T12:15:24</time>
      </trkpt>
      <trkpt lat="45.42446" lon="6.19893">
        <ele>1606.2205</ele>
        <time>2021-07-05T12:15:25</time>
      </trkpt>
      <trkpt lat="45.42445" lon="6.19893">
        <ele>1606.2205</ele>
        <time>2021-07-05T12:15:26</time>
      </trkpt>
      <trkpt lat="45.42445" lon="6.19894">
        <ele>1606.2205</ele>
        <time>2021-07-05T12:15:27</time>
      </trkpt>
      <trkpt lat="45.42445" lon="6.19894">
        <ele>1606.2205</ele>
        <time>2021-07-05T12:15:28</time>
      </trkpt>
      <trkpt lat="45.42446" lon="6.19897">
        <ele>1605.9204</ele>
        <time>2021-07-05T12:15:32</time>
      </trkpt>
      <trkpt lat="45.42445" lon="6.19902">
        <ele>1605.9204</ele>
        <time>2021-07-05T12:15:39</time>
      </trkpt>
      <trkpt lat="45.42444" lon="6.19905">
        <ele>1609.4204</ele>
        <time>2021-07-05T12:15:44</time>
      </trkpt>
      <trkpt lat="45.42444" lon="6.19906">
        <ele>1609.4204</ele>
        <time>2021-07-05T12:15:45</time>
      </trkpt>
      <trkpt lat="45.42444" lon="6.19907">
        <ele>1609.4204</ele>
        <time>2021-07-05T12:15:46</time>
      </trkpt>
      <trkpt lat="45.42442" lon="6.19914">
        <ele>1615.2205</ele>
        <time>2021-07-05T12:15:58</time>
      </trkpt>
      <trkpt lat="45.42441" lon="6.19915">
        <ele>1617.6205</ele>
        <time>2021-07-05T12:16:00</time>
      </trkpt>
      <trkpt lat="45.42441" lon="6.19916">
        <ele>1617.6205</ele>
        <time>2021-07-05T12:16:02</time>
      </trkpt>
      <trkpt lat="45.42441" lon="6.19916">
        <ele>1617.6205</ele>
        <time>2021-07-05T12:16:03</time>
      </trkpt>
      <trkpt lat="45.42441" lon="6.19916">
        <ele>1617.6205</ele>
        <time>2021-07-05T12:16:04</time>
      </trkpt>
      <trkpt lat="45.42439" lon="6.19919">
        <ele>1620.8204</ele>
        <time>2021-07-05T12:16:10</time>
      </trkpt>
      <trkpt lat="45.4244" lon="6.19923">
        <ele>1620.8204</ele>
        <time>2021-07-05T12:16:13</time>
      </trkpt>
      <trkpt lat="45.4244" lon="6.19926">
        <ele>1620.8204</ele>
        <time>2021-07-05T12:16:16</time>
      </trkpt>
      <trkpt lat="45.4244" lon="6.19926">
        <ele>1620.8204</ele>
        <time>2021-07-05T12:16:17</time>
      </trkpt>
      <trkpt lat="45.42438" lon="6.19934">
        <ele>1622.6205</ele>
        <time>2021-07-05T12:16:25</time>
      </trkpt>
      <trkpt lat="45.42436" lon="6.19938">
        <ele>1622.6205</ele>
        <time>2021-07-05T12:16:30</time>
      </trkpt>
      <trkpt lat="45.42432" lon="6.19948">
        <ele>1623.4204</ele>
        <time>2021-07-05T12:16:41</time>
      </trkpt>
      <trkpt lat="45.42431" lon="6.19956">
        <ele>1624.5204</ele>
        <time>2021-07-05T12:16:52</time>
      </trkpt>
      <trkpt lat="45.4243" lon="6.19957">
        <ele>1624.5204</ele>
        <time>2021-07-05T12:16:54</time>
      </trkpt>
      <trkpt lat="45.42431" lon="6.19963">
        <ele>1627.7205</ele>
        <time>2021-07-05T12:17:00</time>
      </trkpt>
      <trkpt lat="45.42431" lon="6.19963">
        <ele>1627.7205</ele>
        <time>2021-07-05T12:17:02</time>
      </trkpt>
      <trkpt lat="45.4243" lon="6.19965">
        <ele>1627.7205</ele>
        <time>2021-07-05T12:17:07</time>
      </trkpt>
      <trkpt lat="45.4243" lon="6.19966">
        <ele>1628.2205</ele>
        <time>2021-07-05T12:17:10</time>
      </trkpt>
      <trkpt lat="45.4243" lon="6.19967">
        <ele>1628.2205</ele>
        <time>2021-07-05T12:17:12</time>
      </trkpt>
      <trkpt lat="45.42431" lon="6.19968">
        <ele>1628.2205</ele>
        <time>2021-07-05T12:17:14</time>
      </trkpt>
      <trkpt lat="45.42431" lon="6.19968">
        <ele>1628.2205</ele>
        <time>2021-07-05T12:17:15</time>
      </trkpt>
      <trkpt lat="45.42431" lon="6.19968">
        <ele>1630.0204</ele>
        <time>2021-07-05T12:17:20</time>
      </trkpt>
      <trkpt lat="45.42432" lon="6.1997">
        <ele>1630.0204</ele>
        <time>2021-07-05T12:17:22</time>
      </trkpt>
      <trkpt lat="45.42432" lon="6.19971">
        <ele>1630.0204</ele>
        <time>2021-07-05T12:17:23</time>
      </trkpt>
      <trkpt lat="45.42432" lon="6.19972">
        <ele>1630.0204</ele>
        <time>2021-07-05T12:17:24</time>
      </trkpt>
      <trkpt lat="45.42433" lon="6.19972">
        <ele>1630.0204</ele>
        <time>2021-07-05T12:17:26</time>
      </trkpt>
      <trkpt lat="45.42433" lon="6.19973">
        <ele>1630.0204</ele>
        <time>2021-07-05T12:17:27</time>
      </trkpt>
      <trkpt lat="45.42434" lon="6.19974">
        <ele>1630.1205</ele>
        <time>2021-07-05T12:17:30</time>
      </trkpt>
      <trkpt lat="45.42435" lon="6.19974">
        <ele>1630.1205</ele>
        <time>2021-07-05T12:17:31</time>
      </trkpt>
      <trkpt lat="45.42436" lon="6.19974">
        <ele>1630.1205</ele>
        <time>2021-07-05T12:17:33</time>
      </trkpt>
      <trkpt lat="45.42437" lon="6.19974">
        <ele>1630.1205</ele>
        <time>2021-07-05T12:17:37</time>
      </trkpt>
      <trkpt lat="45.42439" lon="6.19971">
        <ele>1630.3204</ele>
        <time>2021-07-05T12:17:42</time>
      </trkpt>
      <trkpt lat="45.42441" lon="6.19974">
        <ele>1634.8204</ele>
        <time>2021-07-05T12:18:01</time>
      </trkpt>
      <trkpt lat="45.42443" lon="6.19976">
        <ele>1634.8204</ele>
        <time>2021-07-05T12:18:07</time>
      </trkpt>
      <trkpt lat="45.42444" lon="6.19977">
        <ele>1634.8204</ele>
        <time>2021-07-05T12:18:09</time>
      </trkpt>
      <trkpt lat="45.42444" lon="6.19978">
        <ele>1637.0204</ele>
        <time>2021-07-05T12:18:10</time>
      </trkpt>
      <trkpt lat="45.42444" lon="6.19978">
        <ele>1637.0204</ele>
        <time>2021-07-05T12:18:12</time>
      </trkpt>
      <trkpt lat="45.42445" lon="6.19979">
        <ele>1637.0204</ele>
        <time>2021-07-05T12:18:17</time>
      </trkpt>
      <trkpt lat="45.42444" lon="6.1998">
        <ele>1637.0204</ele>
        <time>2021-07-05T12:18:19</time>
      </trkpt>
      <trkpt lat="45.42444" lon="6.19981">
        <ele>1637.5204</ele>
        <time>2021-07-05T12:18:24</time>
      </trkpt>
      <trkpt lat="45.42443" lon="6.19989">
        <ele>1637.8204</ele>
        <time>2021-07-05T12:18:33</time>
      </trkpt>
      <trkpt lat="45.42445" lon="6.19991">
        <ele>1636.1205</ele>
        <time>2021-07-05T12:18:47</time>
      </trkpt>
      <trkpt lat="45.42446" lon="6.1999">
        <ele>1636.1205</ele>
        <time>2021-07-05T12:18:49</time>
      </trkpt>
      <trkpt lat="45.42446" lon="6.1999">
        <ele>1637.6205</ele>
        <time>2021-07-05T12:18:50</time>
      </trkpt>
      <trkpt lat="45.42446" lon="6.19989">
        <ele>1637.6205</ele>
        <time>2021-07-05T12:18:59</time>
      </trkpt>
      <trkpt lat="45.42447" lon="6.19989">
        <ele>1637.7205</ele>
        <time>2021-07-05T12:19:00</time>
      </trkpt>
      <trkpt lat="45.42448" lon="6.19988">
        <ele>1637.7205</ele>
        <time>2021-07-05T12:19:01</time>
      </trkpt>
      <trkpt lat="45.42449" lon="6.19988">
        <ele>1637.7205</ele>
        <time>2021-07-05T12:19:02</time>
      </trkpt>
      <trkpt lat="45.42449" lon="6.19989">
        <ele>1637.7205</ele>
        <time>2021-07-05T12:19:03</time>
      </trkpt>
      <trkpt lat="45.4245" lon="6.1999">
        <ele>1637.7205</ele>
        <time>2021-07-05T12:19:05</time>
      </trkpt>
      <trkpt lat="45.42451" lon="6.1999">
        <ele>1637.7205</ele>
        <time>2021-07-05T12:19:07</time>
      </trkpt>
      <trkpt lat="45.42452" lon="6.1999">
        <ele>1638.5204</ele>
        <time>2021-07-05T12:19:10</time>
      </trkpt>
      <trkpt lat="45.42455" lon="6.1999">
        <ele>1638.5204</ele>
        <time>2021-07-05T12:19:14</time>
      </trkpt>
      <trkpt lat="45.42457" lon="6.19992">
        <ele>1638.5204</ele>
        <time>2021-07-05T12:19:17</time>
      </trkpt>
      <trkpt lat="45.42458" lon="6.19993">
        <ele>1638.5204</ele>
        <time>2021-07-05T12:19:18</time>
      </trkpt>
      <trkpt lat="45.42459" lon="6.19994">
        <ele>1638.1205</ele>
        <time>2021-07-05T12:19:20</time>
      </trkpt>
      <trkpt lat="45.42461" lon="6.19995">
        <ele>1638.1205</ele>
        <time>2021-07-05T12:19:23</time>
      </trkpt>
      <trkpt lat="45.42462" lon="6.19994">
        <ele>1638.0204</ele>
        <time>2021-07-05T12:19:30</time>
      </trkpt>
      <trkpt lat="45.42462" lon="6.19993">
        <ele>1638.0204</ele>
        <time>2021-07-05T12:19:31</time>
      </trkpt>
      <trkpt lat="45.42463" lon="6.19993">
        <ele>1638.0204</ele>
        <time>2021-07-05T12:19:34</time>
      </trkpt>
      <trkpt lat="45.42463" lon="6.19993">
        <ele>1638.0204</ele>
        <time>2021-07-05T12:19:35</time>
      </trkpt>
      <trkpt lat="45.42463" lon="6.19993">
        <ele>1638.0204</ele>
        <time>2021-07-05T12:19:38</time>
      </trkpt>
      <trkpt lat="45.42462" lon="6.19995">
        <ele>1639.3538</ele>
        <time>2021-07-05T12:19:41</time>
      </trkpt>
      <trkpt lat="45.42462" lon="6.19996">
        <ele>1639.3538</ele>
        <time>2021-07-05T12:19:42</time>
      </trkpt>
      <trkpt lat="45.42463" lon="6.19997">
        <ele>1639.3538</ele>
        <time>2021-07-05T12:19:43</time>
      </trkpt>
      <trkpt lat="45.42463" lon="6.19999">
        <ele>1639.3538</ele>
        <time>2021-07-05T12:19:47</time>
      </trkpt>
      <trkpt lat="45.42464" lon="6.2">
        <ele>1639.3538</ele>
        <time>2021-07-05T12:19:48</time>
      </trkpt>
      <trkpt lat="45.42463" lon="6.20001">
        <ele>1642.1205</ele>
        <time>2021-07-05T12:19:55</time>
      </trkpt>
      <trkpt lat="45.42462" lon="6.20002">
        <ele>1642.1205</ele>
        <time>2021-07-05T12:19:57</time>
      </trkpt>
      <trkpt lat="45.42463" lon="6.20001">
        <ele>1642.4204</ele>
        <time>2021-07-05T12:20:00</time>
      </trkpt>
      <trkpt lat="45.42464" lon="6.20002">
        <ele>1642.4204</ele>
        <time>2021-07-05T12:20:01</time>
      </trkpt>
      <trkpt lat="45.42467" lon="6.20001">
        <ele>1642.4204</ele>
        <time>2021-07-05T12:20:06</time>
      </trkpt>
      <trkpt lat="45.42468" lon="6.20004">
        <ele>1645.8204</ele>
        <time>2021-07-05T12:20:28</time>
      </trkpt>
      <trkpt lat="45.42468" lon="6.20005">
        <ele>1645.8204</ele>
        <time>2021-07-05T12:20:29</time>
      </trkpt>
      <trkpt lat="45.42469" lon="6.20006">
        <ele>1647.0204</ele>
        <time>2021-07-05T12:20:31</time>
      </trkpt>
      <trkpt lat="45.4247" lon="6.20007">
        <ele>1647.0204</ele>
        <time>2021-07-05T12:20:33</time>
      </trkpt>
      <trkpt lat="45.4247" lon="6.20008">
        <ele>1647.0204</ele>
        <time>2021-07-05T12:20:34</time>
      </trkpt>
      <trkpt lat="45.42471" lon="6.20009">
        <ele>1647.0204</ele>
        <time>2021-07-05T12:20:35</time>
      </trkpt>
      <trkpt lat="45.42472" lon="6.20012">
        <ele>1648.1205</ele>
        <time>2021-07-05T12:20:43</time>
      </trkpt>
      <trkpt lat="45.42473" lon="6.20014">
        <ele>1648.1205</ele>
        <time>2021-07-05T12:20:45</time>
      </trkpt>
      <trkpt lat="45.42473" lon="6.20015">
        <ele>1648.1205</ele>
        <time>2021-07-05T12:20:47</time>
      </trkpt>
      <trkpt lat="45.42472" lon="6.20016">
        <ele>1648.1205</ele>
        <time>2021-07-05T12:20:49</time>
      </trkpt>
      <trkpt lat="45.42472" lon="6.20017">
        <ele>1652.9204</ele>
        <time>2021-07-05T12:20:50</time>
      </trkpt>
      <trkpt lat="45.42471" lon="6.2003">
        <ele>1658.0204</ele>
        <time>2021-07-05T12:21:05</time>
      </trkpt>
      <trkpt lat="45.4247" lon="6.20035">
        <ele>1658.0204</ele>
        <time>2021-07-05T12:21:09</time>
      </trkpt>
      <trkpt lat="45.42469" lon="6.20042">
        <ele>1663.6205</ele>
        <time>2021-07-05T12:21:16</time>
      </trkpt>
      <trkpt lat="45.4247" lon="6.20045">
        <ele>1663.6205</ele>
        <time>2021-07-05T12:21:19</time>
      </trkpt>
      <trkpt lat="45.4247" lon="6.20049">
        <ele>1668.3204</ele>
        <time>2021-07-05T12:21:25</time>
      </trkpt>
      <trkpt lat="45.42468" lon="6.20053">
        <ele>1671.0204</ele>
        <time>2021-07-05T12:21:30</time>
      </trkpt>
      <trkpt lat="45.42468" lon="6.20056">
        <ele>1671.0204</ele>
        <time>2021-07-05T12:21:35</time>
      </trkpt>
      <trkpt lat="45.42467" lon="6.20058">
        <ele>1671.0204</ele>
        <time>2021-07-05T12:21:39</time>
      </trkpt>
      <trkpt lat="45.42467" lon="6.20063">
        <ele>1674.9204</ele>
        <time>2021-07-05T12:21:44</time>
      </trkpt>
      <trkpt lat="45.42466" lon="6.20067">
        <ele>1674.4204</ele>
        <time>2021-07-05T12:21:50</time>
      </trkpt>
      <trkpt lat="45.42465" lon="6.20072">
        <ele>1674.4204</ele>
        <time>2021-07-05T12:21:57</time>
      </trkpt>
      <trkpt lat="45.42464" lon="6.20076">
        <ele>1677.9204</ele>
        <time>2021-07-05T12:22:02</time>
      </trkpt>
      <trkpt lat="45.42462" lon="6.20089">
        <ele>1680.9204</ele>
        <time>2021-07-05T12:22:20</time>
      </trkpt>
      <trkpt lat="45.42462" lon="6.20089">
        <ele>1680.9204</ele>
        <time>2021-07-05T12:22:21</time>
      </trkpt>
      <trkpt lat="45.42462" lon="6.2009">
        <ele>1680.9204</ele>
        <time>2021-07-05T12:22:22</time>
      </trkpt>
      <trkpt lat="45.42462" lon="6.2009">
        <ele>1680.9204</ele>
        <time>2021-07-05T12:22:24</time>
      </trkpt>
      <trkpt lat="45.42462" lon="6.2009">
        <ele>1680.9204</ele>
        <time>2021-07-05T12:22:26</time>
      </trkpt>
      <trkpt lat="45.42462" lon="6.20089">
        <ele>1680.9204</ele>
        <time>2021-07-05T12:22:27</time>
      </trkpt>
      <trkpt lat="45.4246" lon="6.2009">
        <ele>1680.7205</ele>
        <time>2021-07-05T12:22:33</time>
      </trkpt>
      <trkpt lat="45.4246" lon="6.20093">
        <ele>1680.7205</ele>
        <time>2021-07-05T12:22:37</time>
      </trkpt>
      <trkpt lat="45.4246" lon="6.20094">
        <ele>1681.4204</ele>
        <time>2021-07-05T12:22:40</time>
      </trkpt>
      <trkpt lat="45.4246" lon="6.20097">
        <ele>1681.4204</ele>
        <time>2021-07-05T12:22:43</time>
      </trkpt>
      <trkpt lat="45.42461" lon="6.20097">
        <ele>1681.4204</ele>
        <time>2021-07-05T12:22:49</time>
      </trkpt>
      <trkpt lat="45.42461" lon="6.20097">
        <ele>1679.6205</ele>
        <time>2021-07-05T12:22:52</time>
      </trkpt>
      <trkpt lat="45.42461" lon="6.201">
        <ele>1679.6205</ele>
        <time>2021-07-05T12:22:54</time>
      </trkpt>
      <trkpt lat="45.42461" lon="6.201">
        <ele>1679.6205</ele>
        <time>2021-07-05T12:22:55</time>
      </trkpt>
      <trkpt lat="45.42461" lon="6.20101">
        <ele>1679.6205</ele>
        <time>2021-07-05T12:22:56</time>
      </trkpt>
      <trkpt lat="45.42461" lon="6.20102">
        <ele>1679.6205</ele>
        <time>2021-07-05T12:22:58</time>
      </trkpt>
      <trkpt lat="45.42461" lon="6.20104">
        <ele>1679.6205</ele>
        <time>2021-07-05T12:23:04</time>
      </trkpt>
      <trkpt lat="45.42462" lon="6.20106">
        <ele>1679.6205</ele>
        <time>2021-07-05T12:23:08</time>
      </trkpt>
      <trkpt lat="45.42461" lon="6.2011">
        <ele>1681.2205</ele>
        <time>2021-07-05T12:23:13</time>
      </trkpt>
      <trkpt lat="45.4246" lon="6.20111">
        <ele>1681.2205</ele>
        <time>2021-07-05T12:23:15</time>
      </trkpt>
      <trkpt lat="45.42461" lon="6.20119">
        <ele>1683.9204</ele>
        <time>2021-07-05T12:23:23</time>
      </trkpt>
      <trkpt lat="45.42459" lon="6.20128">
        <ele>1690.0537</ele>
        <time>2021-07-05T12:23:32</time>
      </trkpt>
      <trkpt lat="45.42452" lon="6.20133">
        <ele>1691.6205</ele>
        <time>2021-07-05T12:23:43</time>
      </trkpt>
      <trkpt lat="45.4245" lon="6.20137">
        <ele>1690.3204</ele>
        <time>2021-07-05T12:23:50</time>
      </trkpt>
      <trkpt lat="45.4245" lon="6.20138">
        <ele>1690.3204</ele>
        <time>2021-07-05T12:23:52</time>
      </trkpt>
      <trkpt lat="45.4245" lon="6.2014">
        <ele>1690.3204</ele>
        <time>2021-07-05T12:23:55</time>
      </trkpt>
      <trkpt lat="45.4245" lon="6.20141">
        <ele>1690.3204</ele>
        <time>2021-07-05T12:23:57</time>
      </trkpt>
      <trkpt lat="45.42449" lon="6.20142">
        <ele>1693.5204</ele>
        <time>2021-07-05T12:24:00</time>
      </trkpt>
      <trkpt lat="45.42448" lon="6.20142">
        <ele>1693.5204</ele>
        <time>2021-07-05T12:24:01</time>
      </trkpt>
      <trkpt lat="45.42448" lon="6.20142">
        <ele>1693.5204</ele>
        <time>2021-07-05T12:24:02</time>
      </trkpt>
      <trkpt lat="45.42448" lon="6.20142">
        <ele>1693.5204</ele>
        <time>2021-07-05T12:24:03</time>
      </trkpt>
      <trkpt lat="45.42448" lon="6.20143">
        <ele>1693.5204</ele>
        <time>2021-07-05T12:24:05</time>
      </trkpt>
      <trkpt lat="45.42448" lon="6.20143">
        <ele>1693.5204</ele>
        <time>2021-07-05T12:24:06</time>
      </trkpt>
      <trkpt lat="45.42448" lon="6.20144">
        <ele>1693.5204</ele>
        <time>2021-07-05T12:24:07</time>
      </trkpt>
      <trkpt lat="45.42448" lon="6.20145">
        <ele>1693.5204</ele>
        <time>2021-07-05T12:24:09</time>
      </trkpt>
      <trkpt lat="45.42447" lon="6.20146">
        <ele>1694.6205</ele>
        <time>2021-07-05T12:24:12</time>
      </trkpt>
      <trkpt lat="45.42446" lon="6.20153">
        <ele>1694.6205</ele>
        <time>2021-07-05T12:24:19</time>
      </trkpt>
      <trkpt lat="45.42445" lon="6.20155">
        <ele>1695.4204</ele>
        <time>2021-07-05T12:24:22</time>
      </trkpt>
      <trkpt lat="45.42446" lon="6.20158">
        <ele>1695.4204</ele>
        <time>2021-07-05T12:24:27</time>
      </trkpt>
      <trkpt lat="45.42446" lon="6.20158">
        <ele>1695.4204</ele>
        <time>2021-07-05T12:24:28</time>
      </trkpt>
      <trkpt lat="45.42447" lon="6.20161">
        <ele>1697.5204</ele>
        <time>2021-07-05T12:24:34</time>
      </trkpt>
      <trkpt lat="45.42447" lon="6.20162">
        <ele>1697.5204</ele>
        <time>2021-07-05T12:24:37</time>
      </trkpt>
      <trkpt lat="45.4245" lon="6.20165">
        <ele>1699.5204</ele>
        <time>2021-07-05T12:24:43</time>
      </trkpt>
      <trkpt lat="45.42451" lon="6.20166">
        <ele>1699.5204</ele>
        <time>2021-07-05T12:24:46</time>
      </trkpt>
      <trkpt lat="45.42451" lon="6.20166">
        <ele>1699.5204</ele>
        <time>2021-07-05T12:24:47</time>
      </trkpt>
      <trkpt lat="45.42451" lon="6.20167">
        <ele>1699.5204</ele>
        <time>2021-07-05T12:24:49</time>
      </trkpt>
      <trkpt lat="45.42451" lon="6.20168">
        <ele>1699.6205</ele>
        <time>2021-07-05T12:24:51</time>
      </trkpt>
      <trkpt lat="45.42451" lon="6.20168">
        <ele>1699.6205</ele>
        <time>2021-07-05T12:24:52</time>
      </trkpt>
      <trkpt lat="45.42451" lon="6.20169">
        <ele>1699.6205</ele>
        <time>2021-07-05T12:24:53</time>
      </trkpt>
      <trkpt lat="45.42451" lon="6.2017">
        <ele>1699.6205</ele>
        <time>2021-07-05T12:24:56</time>
      </trkpt>
      <trkpt lat="45.42451" lon="6.20174">
        <ele>1699.6205</ele>
        <time>2021-07-05T12:24:59</time>
      </trkpt>
      <trkpt lat="45.42448" lon="6.20182">
        <ele>1704.0204</ele>
        <time>2021-07-05T12:25:12</time>
      </trkpt>
      <trkpt lat="45.42447" lon="6.20184">
        <ele>1704.0204</ele>
        <time>2021-07-05T12:25:14</time>
      </trkpt>
      <trkpt lat="45.42447" lon="6.20184">
        <ele>1704.0204</ele>
        <time>2021-07-05T12:25:17</time>
      </trkpt>
      <trkpt lat="45.42446" lon="6.20186">
        <ele>1704.0204</ele>
        <time>2021-07-05T12:25:19</time>
      </trkpt>
      <trkpt lat="45.42446" lon="6.20188">
        <ele>1707.7205</ele>
        <time>2021-07-05T12:25:21</time>
      </trkpt>
      <trkpt lat="45.42446" lon="6.2019">
        <ele>1707.7205</ele>
        <time>2021-07-05T12:25:23</time>
      </trkpt>
      <trkpt lat="45.42442" lon="6.202">
        <ele>1707.2205</ele>
        <time>2021-07-05T12:25:39</time>
      </trkpt>
      <trkpt lat="45.42441" lon="6.20203">
        <ele>1709.7205</ele>
        <time>2021-07-05T12:25:43</time>
      </trkpt>
      <trkpt lat="45.42441" lon="6.20205">
        <ele>1709.7205</ele>
        <time>2021-07-05T12:25:46</time>
      </trkpt>
      <trkpt lat="45.42441" lon="6.20206">
        <ele>1709.7205</ele>
        <time>2021-07-05T12:25:48</time>
      </trkpt>
      <trkpt lat="45.4244" lon="6.20206">
        <ele>1709.7205</ele>
        <time>2021-07-05T12:25:49</time>
      </trkpt>
      <trkpt lat="45.4244" lon="6.20207">
        <ele>1710.0204</ele>
        <time>2021-07-05T12:25:50</time>
      </trkpt>
      <trkpt lat="45.42439" lon="6.20207">
        <ele>1710.0204</ele>
        <time>2021-07-05T12:25:55</time>
      </trkpt>
      <trkpt lat="45.42434" lon="6.20209">
        <ele>1711.4204</ele>
        <time>2021-07-05T12:26:02</time>
      </trkpt>
      <trkpt lat="45.42432" lon="6.20209">
        <ele>1711.4204</ele>
        <time>2021-07-05T12:26:04</time>
      </trkpt>
      <trkpt lat="45.42432" lon="6.2021">
        <ele>1711.4204</ele>
        <time>2021-07-05T12:26:06</time>
      </trkpt>
      <trkpt lat="45.42431" lon="6.2021">
        <ele>1711.4204</ele>
        <time>2021-07-05T12:26:09</time>
      </trkpt>
      <trkpt lat="45.4243" lon="6.2021">
        <ele>1713.2205</ele>
        <time>2021-07-05T12:26:10</time>
      </trkpt>
      <trkpt lat="45.4243" lon="6.2021">
        <ele>1713.2205</ele>
        <time>2021-07-05T12:26:11</time>
      </trkpt>
      <trkpt lat="45.4243" lon="6.2021">
        <ele>1713.2205</ele>
        <time>2021-07-05T12:26:12</time>
      </trkpt>
      <trkpt lat="45.4243" lon="6.2021">
        <ele>1713.2205</ele>
        <time>2021-07-05T12:26:13</time>
      </trkpt>
      <trkpt lat="45.42429" lon="6.2021">
        <ele>1713.2205</ele>
        <time>2021-07-05T12:26:14</time>
      </trkpt>
      <trkpt lat="45.42429" lon="6.2021">
        <ele>1713.2205</ele>
        <time>2021-07-05T12:26:15</time>
      </trkpt>
      <trkpt lat="45.42427" lon="6.2021">
        <ele>1713.2205</ele>
        <time>2021-07-05T12:26:19</time>
      </trkpt>
      <trkpt lat="45.42426" lon="6.20209">
        <ele>1716.7205</ele>
        <time>2021-07-05T12:26:25</time>
      </trkpt>
      <trkpt lat="45.42425" lon="6.20212">
        <ele>1716.7205</ele>
        <time>2021-07-05T12:26:29</time>
      </trkpt>
      <trkpt lat="45.42424" lon="6.20214">
        <ele>1716.1205</ele>
        <time>2021-07-05T12:26:32</time>
      </trkpt>
      <trkpt lat="45.42423" lon="6.20214">
        <ele>1716.1205</ele>
        <time>2021-07-05T12:26:36</time>
      </trkpt>
      <trkpt lat="45.42424" lon="6.20215">
        <ele>1716.1205</ele>
        <time>2021-07-05T12:26:39</time>
      </trkpt>
      <trkpt lat="45.42424" lon="6.20214">
        <ele>1716.4204</ele>
        <time>2021-07-05T12:26:44</time>
      </trkpt>
      <trkpt lat="45.42424" lon="6.20216">
        <ele>1716.4204</ele>
        <time>2021-07-05T12:26:45</time>
      </trkpt>
      <trkpt lat="45.42424" lon="6.20217">
        <ele>1716.4204</ele>
        <time>2021-07-05T12:26:47</time>
      </trkpt>
      <trkpt lat="45.42424" lon="6.20219">
        <ele>1716.4204</ele>
        <time>2021-07-05T12:26:48</time>
      </trkpt>
      <trkpt lat="45.42423" lon="6.20223">
        <ele>1714.8204</ele>
        <time>2021-07-05T12:26:54</time>
      </trkpt>
      <trkpt lat="45.42424" lon="6.20227">
        <ele>1714.8204</ele>
        <time>2021-07-05T12:26:58</time>
      </trkpt>
      <trkpt lat="45.42425" lon="6.20229">
        <ele>1719.4204</ele>
        <time>2021-07-05T12:27:00</time>
      </trkpt>
      <trkpt lat="45.42425" lon="6.20229">
        <ele>1719.4204</ele>
        <time>2021-07-05T12:27:02</time>
      </trkpt>
      <trkpt lat="45.42425" lon="6.20229">
        <ele>1719.4204</ele>
        <time>2021-07-05T12:27:03</time>
      </trkpt>
      <trkpt lat="45.42425" lon="6.2023">
        <ele>1719.4204</ele>
        <time>2021-07-05T12:27:05</time>
      </trkpt>
      <trkpt lat="45.42426" lon="6.20233">
        <ele>1719.4204</ele>
        <time>2021-07-05T12:27:09</time>
      </trkpt>
      <trkpt lat="45.42426" lon="6.20234">
        <ele>1721.5204</ele>
        <time>2021-07-05T12:27:10</time>
      </trkpt>
      <trkpt lat="45.42425" lon="6.20234">
        <ele>1721.5204</ele>
        <time>2021-07-05T12:27:13</time>
      </trkpt>
      <trkpt lat="45.42424" lon="6.20238">
        <ele>1721.5204</ele>
        <time>2021-07-05T12:27:18</time>
      </trkpt>
      <trkpt lat="45.42424" lon="6.20238">
        <ele>1723.3204</ele>
        <time>2021-07-05T12:27:20</time>
      </trkpt>
      <trkpt lat="45.42425" lon="6.20241">
        <ele>1723.3204</ele>
        <time>2021-07-05T12:27:22</time>
      </trkpt>
      <trkpt lat="45.42425" lon="6.20243">
        <ele>1723.3204</ele>
        <time>2021-07-05T12:27:27</time>
      </trkpt>
      <trkpt lat="45.42426" lon="6.20244">
        <ele>1722.7205</ele>
        <time>2021-07-05T12:27:30</time>
      </trkpt>
      <trkpt lat="45.42425" lon="6.20245">
        <ele>1722.7205</ele>
        <time>2021-07-05T12:27:33</time>
      </trkpt>
      <trkpt lat="45.42425" lon="6.20246">
        <ele>1722.7205</ele>
        <time>2021-07-05T12:27:34</time>
      </trkpt>
      <trkpt lat="45.42427" lon="6.20248">
        <ele>1722.7205</ele>
        <time>2021-07-05T12:27:39</time>
      </trkpt>
      <trkpt lat="45.42427" lon="6.20249">
        <ele>1725.0204</ele>
        <time>2021-07-05T12:27:40</time>
      </trkpt>
      <trkpt lat="45.42428" lon="6.20249">
        <ele>1725.0204</ele>
        <time>2021-07-05T12:27:46</time>
      </trkpt>
      <trkpt lat="45.42428" lon="6.2025">
        <ele>1725.0204</ele>
        <time>2021-07-05T12:27:47</time>
      </trkpt>
      <trkpt lat="45.42428" lon="6.2025">
        <ele>1724.2205</ele>
        <time>2021-07-05T12:27:50</time>
      </trkpt>
      <trkpt lat="45.42428" lon="6.20251">
        <ele>1724.2205</ele>
        <time>2021-07-05T12:27:52</time>
      </trkpt>
      <trkpt lat="45.42429" lon="6.20253">
        <ele>1725.2205</ele>
        <time>2021-07-05T12:28:03</time>
      </trkpt>
      <trkpt lat="45.42428" lon="6.20255">
        <ele>1725.2205</ele>
        <time>2021-07-05T12:28:05</time>
      </trkpt>
      <trkpt lat="45.42429" lon="6.20256">
        <ele>1725.2205</ele>
        <time>2021-07-05T12:28:06</time>
      </trkpt>
      <trkpt lat="45.42431" lon="6.20258">
        <ele>1726.2205</ele>
        <time>2021-07-05T12:28:10</time>
      </trkpt>
      <trkpt lat="45.42432" lon="6.20259">
        <ele>1726.2205</ele>
        <time>2021-07-05T12:28:12</time>
      </trkpt>
      <trkpt lat="45.42435" lon="6.20261">
        <ele>1726.2205</ele>
        <time>2021-07-05T12:28:16</time>
      </trkpt>
      <trkpt lat="45.42435" lon="6.20262">
        <ele>1728.0204</ele>
        <time>2021-07-05T12:28:20</time>
      </trkpt>
      <trkpt lat="45.42436" lon="6.20263">
        <ele>1728.0204</ele>
        <time>2021-07-05T12:28:21</time>
      </trkpt>
      <trkpt lat="45.42436" lon="6.20264">
        <ele>1728.0204</ele>
        <time>2021-07-05T12:28:24</time>
      </trkpt>
      <trkpt lat="45.42436" lon="6.20266">
        <ele>1728.0204</ele>
        <time>2021-07-05T12:28:26</time>
      </trkpt>
      <trkpt lat="45.42436" lon="6.20268">
        <ele>1729.1205</ele>
        <time>2021-07-05T12:28:37</time>
      </trkpt>
      <trkpt lat="45.42437" lon="6.20269">
        <ele>1729.1205</ele>
        <time>2021-07-05T12:28:38</time>
      </trkpt>
      <trkpt lat="45.42438" lon="6.20269">
        <ele>1729.1205</ele>
        <time>2021-07-05T12:28:39</time>
      </trkpt>
      <trkpt lat="45.42439" lon="6.20269">
        <ele>1728.3204</ele>
        <time>2021-07-05T12:28:43</time>
      </trkpt>
      <trkpt lat="45.42439" lon="6.20273">
        <ele>1728.3204</ele>
        <time>2021-07-05T12:28:47</time>
      </trkpt>
      <trkpt lat="45.42439" lon="6.20274">
        <ele>1728.3204</ele>
        <time>2021-07-05T12:28:48</time>
      </trkpt>
      <trkpt lat="45.42439" lon="6.20274">
        <ele>1728.3204</ele>
        <time>2021-07-05T12:28:49</time>
      </trkpt>
      <trkpt lat="45.42439" lon="6.20276">
        <ele>1729.6205</ele>
        <time>2021-07-05T12:28:51</time>
      </trkpt>
      <trkpt lat="45.42439" lon="6.20277">
        <ele>1729.6205</ele>
        <time>2021-07-05T12:28:55</time>
      </trkpt>
      <trkpt lat="45.4244" lon="6.20277">
        <ele>1729.6205</ele>
        <time>2021-07-05T12:28:56</time>
      </trkpt>
      <trkpt lat="45.4244" lon="6.20277">
        <ele>1729.6205</ele>
        <time>2021-07-05T12:28:57</time>
      </trkpt>
      <trkpt lat="45.4244" lon="6.20278">
        <ele>1732.1205</ele>
        <time>2021-07-05T12:29:03</time>
      </trkpt>
      <trkpt lat="45.42441" lon="6.2028">
        <ele>1732.1205</ele>
        <time>2021-07-05T12:29:06</time>
      </trkpt>
      <trkpt lat="45.4244" lon="6.20281">
        <ele>1732.1205</ele>
        <time>2021-07-05T12:29:07</time>
      </trkpt>
      <trkpt lat="45.4244" lon="6.20282">
        <ele>1735.1205</ele>
        <time>2021-07-05T12:29:10</time>
      </trkpt>
      <trkpt lat="45.42441" lon="6.20283">
        <ele>1735.1205</ele>
        <time>2021-07-05T12:29:12</time>
      </trkpt>
      <trkpt lat="45.42441" lon="6.20284">
        <ele>1735.1205</ele>
        <time>2021-07-05T12:29:13</time>
      </trkpt>
      <trkpt lat="45.42442" lon="6.20285">
        <ele>1735.1205</ele>
        <time>2021-07-05T12:29:15</time>
      </trkpt>
      <trkpt lat="45.42442" lon="6.20285">
        <ele>1735.1205</ele>
        <time>2021-07-05T12:29:16</time>
      </trkpt>
      <trkpt lat="45.42442" lon="6.20286">
        <ele>1735.1205</ele>
        <time>2021-07-05T12:29:17</time>
      </trkpt>
      <trkpt lat="45.42443" lon="6.20287">
        <ele>1735.1205</ele>
        <time>2021-07-05T12:29:18</time>
      </trkpt>
      <trkpt lat="45.42443" lon="6.20287">
        <ele>1736.3204</ele>
        <time>2021-07-05T12:29:21</time>
      </trkpt>
      <trkpt lat="45.42443" lon="6.20288">
        <ele>1736.3204</ele>
        <time>2021-07-05T12:29:22</time>
      </trkpt>
      <trkpt lat="45.42443" lon="6.20288">
        <ele>1736.3204</ele>
        <time>2021-07-05T12:29:24</time>
      </trkpt>
      <trkpt lat="45.42444" lon="6.20289">
        <ele>1736.3204</ele>
        <time>2021-07-05T12:29:25</time>
      </trkpt>
      <trkpt lat="45.42444" lon="6.2029">
        <ele>1736.3204</ele>
        <time>2021-07-05T12:29:28</time>
      </trkpt>
      <trkpt lat="45.42445" lon="6.2029">
        <ele>1736.3204</ele>
        <time>2021-07-05T12:29:29</time>
      </trkpt>
      <trkpt lat="45.42446" lon="6.20291">
        <ele>1737.6205</ele>
        <time>2021-07-05T12:29:34</time>
      </trkpt>
      <trkpt lat="45.42446" lon="6.20291">
        <ele>1737.6205</ele>
        <time>2021-07-05T12:29:35</time>
      </trkpt>
      <trkpt lat="45.42447" lon="6.20291">
        <ele>1737.6205</ele>
        <time>2021-07-05T12:29:37</time>
      </trkpt>
      <trkpt lat="45.42447" lon="6.20292">
        <ele>1737.6205</ele>
        <time>2021-07-05T12:29:39</time>
      </trkpt>
      <trkpt lat="45.42448" lon="6.20292">
        <ele>1740.5204</ele>
        <time>2021-07-05T12:29:41</time>
      </trkpt>
      <trkpt lat="45.42449" lon="6.20295">
        <ele>1740.5204</ele>
        <time>2021-07-05T12:29:45</time>
      </trkpt>
      <trkpt lat="45.42449" lon="6.20296">
        <ele>1740.5204</ele>
        <time>2021-07-05T12:29:49</time>
      </trkpt>
      <trkpt lat="45.42449" lon="6.20296">
        <ele>1741.2205</ele>
        <time>2021-07-05T12:29:50</time>
      </trkpt>
      <trkpt lat="45.42451" lon="6.20297">
        <ele>1741.2205</ele>
        <time>2021-07-05T12:29:53</time>
      </trkpt>
      <trkpt lat="45.42451" lon="6.20297">
        <ele>1741.2205</ele>
        <time>2021-07-05T12:29:54</time>
      </trkpt>
      <trkpt lat="45.42453" lon="6.20297">
        <ele>1741.2205</ele>
        <time>2021-07-05T12:29:58</time>
      </trkpt>
      <trkpt lat="45.42454" lon="6.20297">
        <ele>1741.2205</ele>
        <time>2021-07-05T12:29:59</time>
      </trkpt>
      <trkpt lat="45.42454" lon="6.20297">
        <ele>1741.1205</ele>
        <time>2021-07-05T12:30:00</time>
      </trkpt>
      <trkpt lat="45.42454" lon="6.20297">
        <ele>1741.1205</ele>
        <time>2021-07-05T12:30:01</time>
      </trkpt>
      <trkpt lat="45.42455" lon="6.20297">
        <ele>1741.1205</ele>
        <time>2021-07-05T12:30:02</time>
      </trkpt>
      <trkpt lat="45.42456" lon="6.20298">
        <ele>1741.1205</ele>
        <time>2021-07-05T12:30:05</time>
      </trkpt>
      <trkpt lat="45.42457" lon="6.20298">
        <ele>1741.1205</ele>
        <time>2021-07-05T12:30:09</time>
      </trkpt>
      <trkpt lat="45.42458" lon="6.203">
        <ele>1743.0204</ele>
        <time>2021-07-05T12:30:11</time>
      </trkpt>
      <trkpt lat="45.42458" lon="6.20304">
        <ele>1743.0204</ele>
        <time>2021-07-05T12:30:17</time>
      </trkpt>
      <trkpt lat="45.42458" lon="6.20304">
        <ele>1743.0204</ele>
        <time>2021-07-05T12:30:18</time>
      </trkpt>
      <trkpt lat="45.42458" lon="6.20304">
        <ele>1743.0204</ele>
        <time>2021-07-05T12:30:19</time>
      </trkpt>
      <trkpt lat="45.42458" lon="6.20305">
        <ele>1743.3204</ele>
        <time>2021-07-05T12:30:21</time>
      </trkpt>
      <trkpt lat="45.42458" lon="6.20306">
        <ele>1743.3204</ele>
        <time>2021-07-05T12:30:23</time>
      </trkpt>
      <trkpt lat="45.42459" lon="6.20308">
        <ele>1743.3204</ele>
        <time>2021-07-05T12:30:27</time>
      </trkpt>
      <trkpt lat="45.42461" lon="6.2031">
        <ele>1745.3204</ele>
        <time>2021-07-05T12:30:32</time>
      </trkpt>
      <trkpt lat="45.42462" lon="6.2031">
        <ele>1745.3204</ele>
        <time>2021-07-05T12:30:34</time>
      </trkpt>
      <trkpt lat="45.42462" lon="6.20311">
        <ele>1745.3204</ele>
        <time>2021-07-05T12:30:35</time>
      </trkpt>
      <trkpt lat="45.42463" lon="6.20311">
        <ele>1745.3204</ele>
        <time>2021-07-05T12:30:36</time>
      </trkpt>
      <trkpt lat="45.42463" lon="6.20312">
        <ele>1745.3204</ele>
        <time>2021-07-05T12:30:38</time>
      </trkpt>
      <trkpt lat="45.42464" lon="6.20314">
        <ele>1747.0204</ele>
        <time>2021-07-05T12:30:48</time>
      </trkpt>
      <trkpt lat="45.42466" lon="6.20319">
        <ele>1747.9204</ele>
        <time>2021-07-05T12:30:52</time>
      </trkpt>
      <trkpt lat="45.4247" lon="6.20322">
        <ele>1747.9204</ele>
        <time>2021-07-05T12:30:58</time>
      </trkpt>
      <trkpt lat="45.4247" lon="6.20323">
        <ele>1747.9204</ele>
        <time>2021-07-05T12:30:59</time>
      </trkpt>
      <trkpt lat="45.4247" lon="6.20324">
        <ele>1748.5204</ele>
        <time>2021-07-05T12:31:02</time>
      </trkpt>
      <trkpt lat="45.4247" lon="6.20325">
        <ele>1748.5204</ele>
        <time>2021-07-05T12:31:03</time>
      </trkpt>
      <trkpt lat="45.4247" lon="6.20326">
        <ele>1748.5204</ele>
        <time>2021-07-05T12:31:05</time>
      </trkpt>
      <trkpt lat="45.42475" lon="6.20328">
        <ele>1750.6205</ele>
        <time>2021-07-05T12:31:12</time>
      </trkpt>
      <trkpt lat="45.42478" lon="6.20327">
        <ele>1750.6205</ele>
        <time>2021-07-05T12:31:17</time>
      </trkpt>
      <trkpt lat="45.4248" lon="6.20327">
        <ele>1750.6205</ele>
        <time>2021-07-05T12:31:19</time>
      </trkpt>
      <trkpt lat="45.4248" lon="6.20325">
        <ele>1751.6205</ele>
        <time>2021-07-05T12:31:23</time>
      </trkpt>
      <trkpt lat="45.42482" lon="6.20327">
        <ele>1751.6205</ele>
        <time>2021-07-05T12:31:28</time>
      </trkpt>
      <trkpt lat="45.42483" lon="6.20327">
        <ele>1751.5204</ele>
        <time>2021-07-05T12:31:33</time>
      </trkpt>
      <trkpt lat="45.42483" lon="6.20327">
        <ele>1751.5204</ele>
        <time>2021-07-05T12:31:34</time>
      </trkpt>
      <trkpt lat="45.42484" lon="6.20328">
        <ele>1755.9204</ele>
        <time>2021-07-05T12:31:47</time>
      </trkpt>
      <trkpt lat="45.42485" lon="6.2033">
        <ele>1757.2205</ele>
        <time>2021-07-05T12:31:51</time>
      </trkpt>
      <trkpt lat="45.42486" lon="6.20331">
        <ele>1757.2205</ele>
        <time>2021-07-05T12:31:54</time>
      </trkpt>
      <trkpt lat="45.42486" lon="6.20333">
        <ele>1757.2205</ele>
        <time>2021-07-05T12:31:58</time>
      </trkpt>
      <trkpt lat="45.42486" lon="6.20333">
        <ele>1757.2205</ele>
        <time>2021-07-05T12:31:59</time>
      </trkpt>
      <trkpt lat="45.42486" lon="6.20334">
        <ele>1758.2205</ele>
        <time>2021-07-05T12:32:00</time>
      </trkpt>
      <trkpt lat="45.42486" lon="6.20336">
        <ele>1758.2205</ele>
        <time>2021-07-05T12:32:01</time>
      </trkpt>
      <trkpt lat="45.42487" lon="6.20339">
        <ele>1758.2205</ele>
        <time>2021-07-05T12:32:06</time>
      </trkpt>
      <trkpt lat="45.42489" lon="6.20341">
        <ele>1758.2205</ele>
        <time>2021-07-05T12:32:08</time>
      </trkpt>
      <trkpt lat="45.42489" lon="6.20341">
        <ele>1758.2205</ele>
        <time>2021-07-05T12:32:09</time>
      </trkpt>
      <trkpt lat="45.42489" lon="6.20342">
        <ele>1762.5204</ele>
        <time>2021-07-05T12:32:10</time>
      </trkpt>
      <trkpt lat="45.4249" lon="6.20343">
        <ele>1762.5204</ele>
        <time>2021-07-05T12:32:13</time>
      </trkpt>
      <trkpt lat="45.42491" lon="6.20343">
        <ele>1762.5204</ele>
        <time>2021-07-05T12:32:14</time>
      </trkpt>
      <trkpt lat="45.42493" lon="6.20352">
        <ele>1765.2205</ele>
        <time>2021-07-05T12:32:44</time>
      </trkpt>
      <trkpt lat="45.42493" lon="6.20354">
        <ele>1765.2205</ele>
        <time>2021-07-05T12:32:47</time>
      </trkpt>
      <trkpt lat="45.42494" lon="6.20357">
        <ele>1767.1205</ele>
        <time>2021-07-05T12:32:50</time>
      </trkpt>
      <trkpt lat="45.42496" lon="6.20363">
        <ele>1767.1205</ele>
        <time>2021-07-05T12:32:59</time>
      </trkpt>
      <trkpt lat="45.42496" lon="6.20368">
        <ele>1769.5204</ele>
        <time>2021-07-05T12:33:03</time>
      </trkpt>
      <trkpt lat="45.42496" lon="6.20369">
        <ele>1769.5204</ele>
        <time>2021-07-05T12:33:04</time>
      </trkpt>
      <trkpt lat="45.42496" lon="6.2037">
        <ele>1769.5204</ele>
        <time>2021-07-05T12:33:05</time>
      </trkpt>
      <trkpt lat="45.42496" lon="6.2037">
        <ele>1769.5204</ele>
        <time>2021-07-05T12:33:06</time>
      </trkpt>
      <trkpt lat="45.42496" lon="6.20372">
        <ele>1769.5204</ele>
        <time>2021-07-05T12:33:08</time>
      </trkpt>
      <trkpt lat="45.42495" lon="6.20373">
        <ele>1768.4204</ele>
        <time>2021-07-05T12:33:11</time>
      </trkpt>
      <trkpt lat="45.42496" lon="6.20375">
        <ele>1768.4204</ele>
        <time>2021-07-05T12:33:13</time>
      </trkpt>
      <trkpt lat="45.42497" lon="6.20378">
        <ele>1769.6205</ele>
        <time>2021-07-05T12:33:21</time>
      </trkpt>
      <trkpt lat="45.42499" lon="6.20379">
        <ele>1769.6205</ele>
        <time>2021-07-05T12:33:25</time>
      </trkpt>
      <trkpt lat="45.42499" lon="6.20379">
        <ele>1769.6205</ele>
        <time>2021-07-05T12:33:27</time>
      </trkpt>
      <trkpt lat="45.42499" lon="6.20379">
        <ele>1769.6205</ele>
        <time>2021-07-05T12:33:28</time>
      </trkpt>
      <trkpt lat="45.42501" lon="6.20381">
        <ele>1772.9204</ele>
        <time>2021-07-05T12:33:39</time>
      </trkpt>
      <trkpt lat="45.425" lon="6.20381">
        <ele>1773.6205</ele>
        <time>2021-07-05T12:33:40</time>
      </trkpt>
      <trkpt lat="45.425" lon="6.20383">
        <ele>1773.6205</ele>
        <time>2021-07-05T12:33:43</time>
      </trkpt>
      <trkpt lat="45.425" lon="6.20384">
        <ele>1773.6205</ele>
        <time>2021-07-05T12:33:44</time>
      </trkpt>
      <trkpt lat="45.425" lon="6.20386">
        <ele>1773.6205</ele>
        <time>2021-07-05T12:33:47</time>
      </trkpt>
      <trkpt lat="45.425" lon="6.20387">
        <ele>1773.6205</ele>
        <time>2021-07-05T12:33:48</time>
      </trkpt>
      <trkpt lat="45.425" lon="6.20391">
        <ele>1774.6205</ele>
        <time>2021-07-05T12:33:52</time>
      </trkpt>
      <trkpt lat="45.425" lon="6.20391">
        <ele>1774.6205</ele>
        <time>2021-07-05T12:33:53</time>
      </trkpt>
      <trkpt lat="45.42501" lon="6.20392">
        <ele>1774.6205</ele>
        <time>2021-07-05T12:33:54</time>
      </trkpt>
      <trkpt lat="45.42501" lon="6.20393">
        <ele>1774.6205</ele>
        <time>2021-07-05T12:33:56</time>
      </trkpt>
      <trkpt lat="45.42503" lon="6.20393">
        <ele>1774.6205</ele>
        <time>2021-07-05T12:33:59</time>
      </trkpt>
      <trkpt lat="45.42503" lon="6.20393">
        <ele>1775.0204</ele>
        <time>2021-07-05T12:34:01</time>
      </trkpt>
      <trkpt lat="45.42503" lon="6.20393">
        <ele>1775.0204</ele>
        <time>2021-07-05T12:34:03</time>
      </trkpt>
      <trkpt lat="45.42504" lon="6.20393">
        <ele>1775.0204</ele>
        <time>2021-07-05T12:34:04</time>
      </trkpt>
      <trkpt lat="45.42504" lon="6.20395">
        <ele>1775.0204</ele>
        <time>2021-07-05T12:34:08</time>
      </trkpt>
      <trkpt lat="45.42504" lon="6.20395">
        <ele>1775.0204</ele>
        <time>2021-07-05T12:34:09</time>
      </trkpt>
      <trkpt lat="45.42504" lon="6.20396">
        <ele>1780.1205</ele>
        <time>2021-07-05T12:34:10</time>
      </trkpt>
      <trkpt lat="45.42503" lon="6.20396">
        <ele>1780.1205</ele>
        <time>2021-07-05T12:34:11</time>
      </trkpt>
      <trkpt lat="45.42504" lon="6.204">
        <ele>1780.1205</ele>
        <time>2021-07-05T12:34:16</time>
      </trkpt>
      <trkpt lat="45.42504" lon="6.20401">
        <ele>1783.3204</ele>
        <time>2021-07-05T12:34:20</time>
      </trkpt>
      <trkpt lat="45.42504" lon="6.20402">
        <ele>1783.3204</ele>
        <time>2021-07-05T12:34:22</time>
      </trkpt>
      <trkpt lat="45.42505" lon="6.20404">
        <ele>1783.3204</ele>
        <time>2021-07-05T12:34:26</time>
      </trkpt>
      <trkpt lat="45.42505" lon="6.20405">
        <ele>1783.3204</ele>
        <time>2021-07-05T12:34:27</time>
      </trkpt>
      <trkpt lat="45.42505" lon="6.20407">
        <ele>1783.5204</ele>
        <time>2021-07-05T12:34:30</time>
      </trkpt>
      <trkpt lat="45.42505" lon="6.20407">
        <ele>1783.5204</ele>
        <time>2021-07-05T12:34:31</time>
      </trkpt>
      <trkpt lat="45.42504" lon="6.20408">
        <ele>1783.5204</ele>
        <time>2021-07-05T12:34:33</time>
      </trkpt>
      <trkpt lat="45.42504" lon="6.20408">
        <ele>1783.5204</ele>
        <time>2021-07-05T12:34:34</time>
      </trkpt>
      <trkpt lat="45.42505" lon="6.2041">
        <ele>1783.5204</ele>
        <time>2021-07-05T12:34:37</time>
      </trkpt>
      <trkpt lat="45.42505" lon="6.2041">
        <ele>1783.5204</ele>
        <time>2021-07-05T12:34:39</time>
      </trkpt>
      <trkpt lat="45.42505" lon="6.20413">
        <ele>1784.2205</ele>
        <time>2021-07-05T12:34:42</time>
      </trkpt>
      <trkpt lat="45.42504" lon="6.20414">
        <ele>1784.2205</ele>
        <time>2021-07-05T12:34:45</time>
      </trkpt>
      <trkpt lat="45.42504" lon="6.20414">
        <ele>1784.2205</ele>
        <time>2021-07-05T12:34:46</time>
      </trkpt>
      <trkpt lat="45.42504" lon="6.20414">
        <ele>1784.2205</ele>
        <time>2021-07-05T12:34:47</time>
      </trkpt>
      <trkpt lat="45.42503" lon="6.20415">
        <ele>1784.2205</ele>
        <time>2021-07-05T12:34:49</time>
      </trkpt>
      <trkpt lat="45.42503" lon="6.20416">
        <ele>1785.0204</ele>
        <time>2021-07-05T12:34:51</time>
      </trkpt>
      <trkpt lat="45.42503" lon="6.20417">
        <ele>1785.0204</ele>
        <time>2021-07-05T12:34:52</time>
      </trkpt>
      <trkpt lat="45.42502" lon="6.20428">
        <ele>1785.5204</ele>
        <time>2021-07-05T12:35:03</time>
      </trkpt>
      <trkpt lat="45.42503" lon="6.20429">
        <ele>1785.5204</ele>
        <time>2021-07-05T12:35:06</time>
      </trkpt>
      <trkpt lat="45.42503" lon="6.20429">
        <ele>1785.5204</ele>
        <time>2021-07-05T12:35:07</time>
      </trkpt>
      <trkpt lat="45.42504" lon="6.20431">
        <ele>1786.9204</ele>
        <time>2021-07-05T12:35:12</time>
      </trkpt>
      <trkpt lat="45.42505" lon="6.20433">
        <ele>1786.9204</ele>
        <time>2021-07-05T12:35:14</time>
      </trkpt>
      <trkpt lat="45.42505" lon="6.20433">
        <ele>1786.9204</ele>
        <time>2021-07-05T12:35:15</time>
      </trkpt>
      <trkpt lat="45.42506" lon="6.20435">
        <ele>1786.9204</ele>
        <time>2021-07-05T12:35:18</time>
      </trkpt>
      <trkpt lat="45.42506" lon="6.20437">
        <ele>1788.4204</ele>
        <time>2021-07-05T12:35:20</time>
      </trkpt>
      <trkpt lat="45.42506" lon="6.20438">
        <ele>1788.4204</ele>
        <time>2021-07-05T12:35:21</time>
      </trkpt>
      <trkpt lat="45.42506" lon="6.2044">
        <ele>1788.4204</ele>
        <time>2021-07-05T12:35:24</time>
      </trkpt>
      <trkpt lat="45.42506" lon="6.2044">
        <ele>1788.4204</ele>
        <time>2021-07-05T12:35:26</time>
      </trkpt>
      <trkpt lat="45.42506" lon="6.20441">
        <ele>1788.4204</ele>
        <time>2021-07-05T12:35:27</time>
      </trkpt>
      <trkpt lat="45.42507" lon="6.20441">
        <ele>1788.4204</ele>
        <time>2021-07-05T12:35:28</time>
      </trkpt>
      <trkpt lat="45.42507" lon="6.20442">
        <ele>1788.4204</ele>
        <time>2021-07-05T12:35:29</time>
      </trkpt>
      <trkpt lat="45.42507" lon="6.20442">
        <ele>1786.9204</ele>
        <time>2021-07-05T12:35:31</time>
      </trkpt>
      <trkpt lat="45.42507" lon="6.20443">
        <ele>1786.9204</ele>
        <time>2021-07-05T12:35:33</time>
      </trkpt>
      <trkpt lat="45.42507" lon="6.20444">
        <ele>1786.9204</ele>
        <time>2021-07-05T12:35:36</time>
      </trkpt>
      <trkpt lat="45.42507" lon="6.20444">
        <ele>1786.9204</ele>
        <time>2021-07-05T12:35:37</time>
      </trkpt>
      <trkpt lat="45.42507" lon="6.20445">
        <ele>1786.9204</ele>
        <time>2021-07-05T12:35:38</time>
      </trkpt>
      <trkpt lat="45.42509" lon="6.20449">
        <ele>1789.9204</ele>
        <time>2021-07-05T12:35:43</time>
      </trkpt>
      <trkpt lat="45.4251" lon="6.20451">
        <ele>1789.9204</ele>
        <time>2021-07-05T12:35:45</time>
      </trkpt>
      <trkpt lat="45.4251" lon="6.20453">
        <ele>1789.9204</ele>
        <time>2021-07-05T12:35:47</time>
      </trkpt>
      <trkpt lat="45.4251" lon="6.20453">
        <ele>1789.9204</ele>
        <time>2021-07-05T12:35:48</time>
      </trkpt>
      <trkpt lat="45.4251" lon="6.20454">
        <ele>1789.9204</ele>
        <time>2021-07-05T12:35:49</time>
      </trkpt>
      <trkpt lat="45.4251" lon="6.20454">
        <ele>1791.8204</ele>
        <time>2021-07-05T12:35:50</time>
      </trkpt>
      <trkpt lat="45.42511" lon="6.20455">
        <ele>1791.8204</ele>
        <time>2021-07-05T12:35:51</time>
      </trkpt>
      <trkpt lat="45.42512" lon="6.20458">
        <ele>1791.8204</ele>
        <time>2021-07-05T12:35:54</time>
      </trkpt>
      <trkpt lat="45.42512" lon="6.20459">
        <ele>1791.8204</ele>
        <time>2021-07-05T12:35:56</time>
      </trkpt>
      <trkpt lat="45.42513" lon="6.20461">
        <ele>1791.8204</ele>
        <time>2021-07-05T12:35:58</time>
      </trkpt>
      <trkpt lat="45.42514" lon="6.20464">
        <ele>1791.9204</ele>
        <time>2021-07-05T12:36:01</time>
      </trkpt>
      <trkpt lat="45.42515" lon="6.20467">
        <ele>1791.9204</ele>
        <time>2021-07-05T12:36:03</time>
      </trkpt>
      <trkpt lat="45.42516" lon="6.20469">
        <ele>1791.9204</ele>
        <time>2021-07-05T12:36:06</time>
      </trkpt>
      <trkpt lat="45.42517" lon="6.2047">
        <ele>1791.9204</ele>
        <time>2021-07-05T12:36:08</time>
      </trkpt>
      <trkpt lat="45.42519" lon="6.20473">
        <ele>1792.2205</ele>
        <time>2021-07-05T12:36:12</time>
      </trkpt>
      <trkpt lat="45.4252" lon="6.20475">
        <ele>1792.2205</ele>
        <time>2021-07-05T12:36:18</time>
      </trkpt>
      <trkpt lat="45.4252" lon="6.20475">
        <ele>1792.2205</ele>
        <time>2021-07-05T12:36:19</time>
      </trkpt>
      <trkpt lat="45.42521" lon="6.20478">
        <ele>1794.6205</ele>
        <time>2021-07-05T12:36:30</time>
      </trkpt>
      <trkpt lat="45.42522" lon="6.20479">
        <ele>1794.6205</ele>
        <time>2021-07-05T12:36:31</time>
      </trkpt>
      <trkpt lat="45.42522" lon="6.20479">
        <ele>1794.6205</ele>
        <time>2021-07-05T12:36:33</time>
      </trkpt>
      <trkpt lat="45.42525" lon="6.20482">
        <ele>1794.6205</ele>
        <time>2021-07-05T12:36:37</time>
      </trkpt>
      <trkpt lat="45.42526" lon="6.20482">
        <ele>1794.6205</ele>
        <time>2021-07-05T12:36:39</time>
      </trkpt>
      <trkpt lat="45.42527" lon="6.20485">
        <ele>1796.1205</ele>
        <time>2021-07-05T12:36:43</time>
      </trkpt>
      <trkpt lat="45.42528" lon="6.20485">
        <ele>1796.1205</ele>
        <time>2021-07-05T12:36:44</time>
      </trkpt>
      <trkpt lat="45.42528" lon="6.20486">
        <ele>1796.1205</ele>
        <time>2021-07-05T12:36:46</time>
      </trkpt>
      <trkpt lat="45.4253" lon="6.20488">
        <ele>1796.1205</ele>
        <time>2021-07-05T12:36:48</time>
      </trkpt>
      <trkpt lat="45.42535" lon="6.20494">
        <ele>1797.6871</ele>
        <time>2021-07-05T12:36:56</time>
      </trkpt>
      <trkpt lat="45.42535" lon="6.20494">
        <ele>1797.6871</ele>
        <time>2021-07-05T12:36:58</time>
      </trkpt>
      <trkpt lat="45.42536" lon="6.20495">
        <ele>1797.2205</ele>
        <time>2021-07-05T12:37:00</time>
      </trkpt>
      <trkpt lat="45.42537" lon="6.20496">
        <ele>1797.2205</ele>
        <time>2021-07-05T12:37:02</time>
      </trkpt>
      <trkpt lat="45.42538" lon="6.20498">
        <ele>1797.2205</ele>
        <time>2021-07-05T12:37:09</time>
      </trkpt>
      <trkpt lat="45.42538" lon="6.20498">
        <ele>1795.9204</ele>
        <time>2021-07-05T12:37:10</time>
      </trkpt>
      <trkpt lat="45.42538" lon="6.20499">
        <ele>1795.9204</ele>
        <time>2021-07-05T12:37:12</time>
      </trkpt>
      <trkpt lat="45.42539" lon="6.205">
        <ele>1795.9204</ele>
        <time>2021-07-05T12:37:13</time>
      </trkpt>
      <trkpt lat="45.42539" lon="6.20501">
        <ele>1795.9204</ele>
        <time>2021-07-05T12:37:14</time>
      </trkpt>
      <trkpt lat="45.4254" lon="6.20504">
        <ele>1795.9204</ele>
        <time>2021-07-05T12:37:16</time>
      </trkpt>
      <trkpt lat="45.42543" lon="6.20512">
        <ele>1797.4204</ele>
        <time>2021-07-05T12:37:22</time>
      </trkpt>
      <trkpt lat="45.42545" lon="6.20514">
        <ele>1797.4204</ele>
        <time>2021-07-05T12:37:28</time>
      </trkpt>
      <trkpt lat="45.42546" lon="6.20516">
        <ele>1797.4204</ele>
        <time>2021-07-05T12:37:29</time>
      </trkpt>
      <trkpt lat="45.42549" lon="6.20525">
        <ele>1797.3204</ele>
        <time>2021-07-05T12:38:47</time>
      </trkpt>
      <trkpt lat="45.42549" lon="6.20526">
        <ele>1797.3204</ele>
        <time>2021-07-05T12:39:43</time>
      </trkpt>
      <trkpt lat="45.42552" lon="6.20528">
        <ele>1797.3204</ele>
        <time>2021-07-05T12:39:47</time>
      </trkpt>
      <trkpt lat="45.42552" lon="6.20529">
        <ele>1797.3204</ele>
        <time>2021-07-05T12:39:49</time>
      </trkpt>
      <trkpt lat="45.42552" lon="6.20529">
        <ele>1797.3204</ele>
        <time>2021-07-05T12:39:50</time>
      </trkpt>
      <trkpt lat="45.42553" lon="6.20533">
        <ele>1797.9204</ele>
        <time>2021-07-05T12:39:57</time>
      </trkpt>
      <trkpt lat="45.42556" lon="6.20536">
        <ele>1797.9204</ele>
        <time>2021-07-05T12:40:01</time>
      </trkpt>
      <trkpt lat="45.4256" lon="6.2054">
        <ele>1797.7205</ele>
        <time>2021-07-05T12:40:07</time>
      </trkpt>
      <trkpt lat="45.42564" lon="6.20543">
        <ele>1797.7205</ele>
        <time>2021-07-05T12:40:12</time>
      </trkpt>
      <trkpt lat="45.42565" lon="6.20543">
        <ele>1797.2205</ele>
        <time>2021-07-05T12:40:13</time>
      </trkpt>
      <trkpt lat="45.42567" lon="6.20546">
        <ele>1797.2205</ele>
        <time>2021-07-05T12:40:17</time>
      </trkpt>
      <trkpt lat="45.42567" lon="6.20547">
        <ele>1797.2205</ele>
        <time>2021-07-05T12:40:18</time>
      </trkpt>
      <trkpt lat="45.42572" lon="6.20553">
        <ele>1799.0204</ele>
        <time>2021-07-05T12:40:27</time>
      </trkpt>
      <trkpt lat="45.42573" lon="6.20555">
        <ele>1799.0204</ele>
        <time>2021-07-05T12:40:29</time>
      </trkpt>
      <trkpt lat="45.42575" lon="6.20558">
        <ele>1801.0204</ele>
        <time>2021-07-05T12:40:33</time>
      </trkpt>
      <trkpt lat="45.42576" lon="6.20558">
        <ele>1801.0204</ele>
        <time>2021-07-05T12:40:34</time>
      </trkpt>
      <trkpt lat="45.42576" lon="6.20558">
        <ele>1801.0204</ele>
        <time>2021-07-05T12:40:35</time>
      </trkpt>
      <trkpt lat="45.42577" lon="6.2056">
        <ele>1801.0204</ele>
        <time>2021-07-05T12:40:39</time>
      </trkpt>
      <trkpt lat="45.42579" lon="6.20563">
        <ele>1804.5204</ele>
        <time>2021-07-05T12:40:43</time>
      </trkpt>
      <trkpt lat="45.4258" lon="6.20564">
        <ele>1804.5204</ele>
        <time>2021-07-05T12:40:44</time>
      </trkpt>
      <trkpt lat="45.42584" lon="6.20567">
        <ele>1804.5204</ele>
        <time>2021-07-05T12:40:49</time>
      </trkpt>
      <trkpt lat="45.42585" lon="6.20569">
        <ele>1804.5204</ele>
        <time>2021-07-05T12:40:52</time>
      </trkpt>
      <trkpt lat="45.42585" lon="6.20569">
        <ele>1805.2205</ele>
        <time>2021-07-05T12:40:54</time>
      </trkpt>
      <trkpt lat="45.42586" lon="6.2057">
        <ele>1805.2205</ele>
        <time>2021-07-05T12:40:55</time>
      </trkpt>
      <trkpt lat="45.42586" lon="6.20571">
        <ele>1805.2205</ele>
        <time>2021-07-05T12:40:56</time>
      </trkpt>
      <trkpt lat="45.42587" lon="6.20571">
        <ele>1805.2205</ele>
        <time>2021-07-05T12:40:57</time>
      </trkpt>
      <trkpt lat="45.42587" lon="6.20572">
        <ele>1805.2205</ele>
        <time>2021-07-05T12:40:59</time>
      </trkpt>
      <trkpt lat="45.42588" lon="6.20574">
        <ele>1806.6205</ele>
        <time>2021-07-05T12:41:03</time>
      </trkpt>
      <trkpt lat="45.42588" lon="6.20575">
        <ele>1806.6205</ele>
        <time>2021-07-05T12:41:04</time>
      </trkpt>
      <trkpt lat="45.42588" lon="6.20575">
        <ele>1806.6205</ele>
        <time>2021-07-05T12:41:05</time>
      </trkpt>
      <trkpt lat="45.42588" lon="6.20576">
        <ele>1806.6205</ele>
        <time>2021-07-05T12:41:06</time>
      </trkpt>
      <trkpt lat="45.4259" lon="6.20581">
        <ele>1806.6205</ele>
        <time>2021-07-05T12:41:10</time>
      </trkpt>
      <trkpt lat="45.4259" lon="6.20582">
        <ele>1806.6205</ele>
        <time>2021-07-05T12:41:12</time>
      </trkpt>
      <trkpt lat="45.42591" lon="6.20585">
        <ele>1809.6205</ele>
        <time>2021-07-05T12:41:17</time>
      </trkpt>
      <trkpt lat="45.42591" lon="6.20586">
        <ele>1813.1205</ele>
        <time>2021-07-05T12:41:25</time>
      </trkpt>
      <trkpt lat="45.42592" lon="6.20586">
        <ele>1813.1205</ele>
        <time>2021-07-05T12:41:26</time>
      </trkpt>
      <trkpt lat="45.42592" lon="6.20587">
        <ele>1813.1205</ele>
        <time>2021-07-05T12:41:32</time>
      </trkpt>
      <trkpt lat="45.42592" lon="6.20588">
        <ele>1813.3204</ele>
        <time>2021-07-05T12:41:33</time>
      </trkpt>
      <trkpt lat="45.42591" lon="6.20588">
        <ele>1813.3204</ele>
        <time>2021-07-05T12:41:34</time>
      </trkpt>
      <trkpt lat="45.42592" lon="6.20588">
        <ele>1813.3204</ele>
        <time>2021-07-05T12:41:35</time>
      </trkpt>
      <trkpt lat="45.42592" lon="6.2059">
        <ele>1813.3204</ele>
        <time>2021-07-05T12:41:39</time>
      </trkpt>
      <trkpt lat="45.42593" lon="6.20593">
        <ele>1813.3204</ele>
        <time>2021-07-05T12:41:42</time>
      </trkpt>
      <trkpt lat="45.42594" lon="6.20596">
        <ele>1815.9204</ele>
        <time>2021-07-05T12:41:45</time>
      </trkpt>
      <trkpt lat="45.42595" lon="6.20598">
        <ele>1815.9204</ele>
        <time>2021-07-05T12:41:49</time>
      </trkpt>
      <trkpt lat="45.42596" lon="6.20601">
        <ele>1815.9204</ele>
        <time>2021-07-05T12:41:52</time>
      </trkpt>
      <trkpt lat="45.42596" lon="6.20601">
        <ele>1816.6205</ele>
        <time>2021-07-05T12:41:55</time>
      </trkpt>
      <trkpt lat="45.42596" lon="6.20601">
        <ele>1816.6205</ele>
        <time>2021-07-05T12:41:56</time>
      </trkpt>
      <trkpt lat="45.42597" lon="6.20601">
        <ele>1819.6205</ele>
        <time>2021-07-05T12:42:05</time>
      </trkpt>
      <trkpt lat="45.42599" lon="6.20605">
        <ele>1819.6205</ele>
        <time>2021-07-05T12:42:08</time>
      </trkpt>
      <trkpt lat="45.42599" lon="6.20605">
        <ele>1819.6205</ele>
        <time>2021-07-05T12:42:09</time>
      </trkpt>
      <trkpt lat="45.42599" lon="6.20606">
        <ele>1819.6205</ele>
        <time>2021-07-05T12:42:10</time>
      </trkpt>
      <trkpt lat="45.42601" lon="6.20613">
        <ele>1821.0204</ele>
        <time>2021-07-05T12:42:31</time>
      </trkpt>
      <trkpt lat="45.42603" lon="6.20616">
        <ele>1822.9204</ele>
        <time>2021-07-05T12:42:35</time>
      </trkpt>
      <trkpt lat="45.42604" lon="6.20616">
        <ele>1822.9204</ele>
        <time>2021-07-05T12:42:36</time>
      </trkpt>
      <trkpt lat="45.42605" lon="6.20615">
        <ele>1822.9204</ele>
        <time>2021-07-05T12:42:37</time>
      </trkpt>
      <trkpt lat="45.42605" lon="6.20615">
        <ele>1822.9204</ele>
        <time>2021-07-05T12:42:38</time>
      </trkpt>
      <trkpt lat="45.42605" lon="6.20616">
        <ele>1822.9204</ele>
        <time>2021-07-05T12:42:40</time>
      </trkpt>
      <trkpt lat="45.42606" lon="6.20617">
        <ele>1822.9204</ele>
        <time>2021-07-05T12:42:43</time>
      </trkpt>
      <trkpt lat="45.42607" lon="6.20618">
        <ele>1822.9204</ele>
        <time>2021-07-05T12:42:45</time>
      </trkpt>
      <trkpt lat="45.42607" lon="6.20619">
        <ele>1822.9204</ele>
        <time>2021-07-05T12:42:46</time>
      </trkpt>
      <trkpt lat="45.42608" lon="6.2062">
        <ele>1822.9204</ele>
        <time>2021-07-05T12:42:48</time>
      </trkpt>
      <trkpt lat="45.42608" lon="6.20621">
        <ele>1822.9204</ele>
        <time>2021-07-05T12:42:49</time>
      </trkpt>
      <trkpt lat="45.4261" lon="6.20625">
        <ele>1824.4204</ele>
        <time>2021-07-05T12:42:53</time>
      </trkpt>
      <trkpt lat="45.42611" lon="6.20626">
        <ele>1824.4204</ele>
        <time>2021-07-05T12:42:55</time>
      </trkpt>
      <trkpt lat="45.42611" lon="6.20626">
        <ele>1824.4204</ele>
        <time>2021-07-05T12:43:00</time>
      </trkpt>
      <trkpt lat="45.42611" lon="6.20626">
        <ele>1824.4204</ele>
        <time>2021-07-05T12:43:01</time>
      </trkpt>
      <trkpt lat="45.42611" lon="6.20627">
        <ele>1824.4204</ele>
        <time>2021-07-05T12:43:02</time>
      </trkpt>
      <trkpt lat="45.42612" lon="6.20628">
        <ele>1827.1205</ele>
        <time>2021-07-05T12:43:03</time>
      </trkpt>
      <trkpt lat="45.42612" lon="6.20629">
        <ele>1827.1205</ele>
        <time>2021-07-05T12:43:04</time>
      </trkpt>
      <trkpt lat="45.42612" lon="6.2063">
        <ele>1827.1205</ele>
        <time>2021-07-05T12:43:05</time>
      </trkpt>
      <trkpt lat="45.42612" lon="6.20631">
        <ele>1827.1205</ele>
        <time>2021-07-05T12:43:07</time>
      </trkpt>
      <trkpt lat="45.42611" lon="6.20634">
        <ele>1827.1205</ele>
        <time>2021-07-05T12:43:12</time>
      </trkpt>
      <trkpt lat="45.42611" lon="6.20635">
        <ele>1829.0204</ele>
        <time>2021-07-05T12:43:13</time>
      </trkpt>
      <trkpt lat="45.4261" lon="6.20635">
        <ele>1829.0204</ele>
        <time>2021-07-05T12:43:14</time>
      </trkpt>
      <trkpt lat="45.42609" lon="6.20635">
        <ele>1829.0204</ele>
        <time>2021-07-05T12:43:15</time>
      </trkpt>
      <trkpt lat="45.4261" lon="6.20635">
        <ele>1829.0204</ele>
        <time>2021-07-05T12:43:16</time>
      </trkpt>
      <trkpt lat="45.4261" lon="6.20635">
        <ele>1829.0204</ele>
        <time>2021-07-05T12:43:17</time>
      </trkpt>
      <trkpt lat="45.4261" lon="6.20635">
        <ele>1829.0204</ele>
        <time>2021-07-05T12:43:18</time>
      </trkpt>
      <trkpt lat="45.4261" lon="6.20635">
        <ele>1829.0204</ele>
        <time>2021-07-05T12:43:19</time>
      </trkpt>
      <trkpt lat="45.42608" lon="6.20636">
        <ele>1828.9204</ele>
        <time>2021-07-05T12:43:23</time>
      </trkpt>
      <trkpt lat="45.42609" lon="6.20637">
        <ele>1828.4204</ele>
        <time>2021-07-05T12:43:38</time>
      </trkpt>
      <trkpt lat="45.42608" lon="6.20636">
        <ele>1828.4204</ele>
        <time>2021-07-05T12:43:40</time>
      </trkpt>
      <trkpt lat="45.42606" lon="6.20635">
        <ele>1824.7205</ele>
        <time>2021-07-05T12:43:58</time>
      </trkpt>
      <trkpt lat="45.42606" lon="6.20635">
        <ele>1824.7205</ele>
        <time>2021-07-05T12:43:59</time>
      </trkpt>
      <trkpt lat="45.42605" lon="6.20635">
        <ele>1825.4204</ele>
        <time>2021-07-05T12:44:04</time>
      </trkpt>
      <trkpt lat="45.42605" lon="6.20635">
        <ele>1825.4204</ele>
        <time>2021-07-05T12:44:05</time>
      </trkpt>
      <trkpt lat="45.42602" lon="6.20634">
        <ele>1825.2205</ele>
        <time>2021-07-05T12:44:23</time>
      </trkpt>
      <trkpt lat="45.426" lon="6.20633">
        <ele>1825.2205</ele>
        <time>2021-07-05T12:44:25</time>
      </trkpt>
      <trkpt lat="45.42599" lon="6.20633">
        <ele>1825.2205</ele>
        <time>2021-07-05T12:44:39</time>
      </trkpt>
      <trkpt lat="45.42599" lon="6.20633">
        <ele>1825.2205</ele>
        <time>2021-07-05T12:44:40</time>
      </trkpt>
      <trkpt lat="45.42598" lon="6.20633">
        <ele>1827.0204</ele>
        <time>2021-07-05T12:44:44</time>
      </trkpt>
      <trkpt lat="45.42597" lon="6.20632">
        <ele>1827.0204</ele>
        <time>2021-07-05T12:44:47</time>
      </trkpt>
      <trkpt lat="45.42596" lon="6.20631">
        <ele>1827.0204</ele>
        <time>2021-07-05T12:44:52</time>
      </trkpt>
      <trkpt lat="45.42595" lon="6.20631">
        <ele>1828.1205</ele>
        <time>2021-07-05T12:44:53</time>
      </trkpt>
      <trkpt lat="45.42594" lon="6.2063">
        <ele>1827.9204</ele>
        <time>2021-07-05T12:45:13</time>
      </trkpt>
      <trkpt lat="45.42593" lon="6.20629">
        <ele>1827.9204</ele>
        <time>2021-07-05T12:45:14</time>
      </trkpt>
      <trkpt lat="45.42591" lon="6.20629">
        <ele>1827.3204</ele>
        <time>2021-07-05T12:45:23</time>
      </trkpt>
      <trkpt lat="45.42591" lon="6.20628">
        <ele>1827.3204</ele>
        <time>2021-07-05T12:45:24</time>
      </trkpt>
      <trkpt lat="45.4259" lon="6.20626">
        <ele>1827.3204</ele>
        <time>2021-07-05T12:45:32</time>
      </trkpt>
      <trkpt lat="45.4259" lon="6.20625">
        <ele>1825.2205</ele>
        <time>2021-07-05T12:45:33</time>
      </trkpt>
      <trkpt lat="45.42591" lon="6.20624">
        <ele>1825.2205</ele>
        <time>2021-07-05T12:45:35</time>
      </trkpt>
      <trkpt lat="45.42592" lon="6.20622">
        <ele>1825.2205</ele>
        <time>2021-07-05T12:45:38</time>
      </trkpt>
      <trkpt lat="45.4259" lon="6.20622">
        <ele>1825.5204</ele>
        <time>2021-07-05T12:46:08</time>
      </trkpt>
      <trkpt lat="45.4259" lon="6.20622">
        <ele>1825.5204</ele>
        <time>2021-07-05T12:46:17</time>
      </trkpt>
      <trkpt lat="45.4259" lon="6.20623">
        <ele>1825.5204</ele>
        <time>2021-07-05T12:46:18</time>
      </trkpt>
      <trkpt lat="45.4259" lon="6.20623">
        <ele>1827.0204</ele>
        <time>2021-07-05T12:46:49</time>
      </trkpt>
      <trkpt lat="45.4259" lon="6.20623">
        <ele>1827.0204</ele>
        <time>2021-07-05T12:46:50</time>
      </trkpt>
      <trkpt lat="45.4259" lon="6.20623">
        <ele>1827.0204</ele>
        <time>2021-07-05T12:46:54</time>
      </trkpt>
      <trkpt lat="45.4259" lon="6.20623">
        <ele>1827.0204</ele>
        <time>2021-07-05T12:46:55</time>
      </trkpt>
      <trkpt lat="45.42589" lon="6.20623">
        <ele>1827.0204</ele>
        <time>2021-07-05T12:46:59</time>
      </trkpt>
      <trkpt lat="45.42589" lon="6.20623">
        <ele>1827.0204</ele>
        <time>2021-07-05T12:47:00</time>
      </trkpt>
      <trkpt lat="45.42589" lon="6.20624">
        <ele>1826.4204</ele>
        <time>2021-07-05T12:47:31</time>
      </trkpt>
      <trkpt lat="45.42589" lon="6.20624">
        <ele>1826.4204</ele>
        <time>2021-07-05T12:48:01</time>
      </trkpt>
      <trkpt lat="45.42589" lon="6.20624">
        <ele>1826.4204</ele>
        <time>2021-07-05T12:48:32</time>
      </trkpt>
      <trkpt lat="45.42589" lon="6.20624">
        <ele>1826.5204</ele>
        <time>2021-07-05T12:48:59</time>
      </trkpt>
      <trkpt lat="45.42589" lon="6.20623">
        <ele>1826.5204</ele>
        <time>2021-07-05T12:49:00</time>
      </trkpt>
      <trkpt lat="45.42589" lon="6.20622">
        <ele>1826.4204</ele>
        <time>2021-07-05T12:49:39</time>
      </trkpt>
      <trkpt lat="45.42589" lon="6.20622">
        <ele>1826.5204</ele>
        <time>2021-07-05T12:51:13</time>
      </trkpt>
      <trkpt lat="45.42589" lon="6.20622">
        <ele>1826.5204</ele>
        <time>2021-07-05T12:51:35</time>
      </trkpt>
      <trkpt lat="45.42588" lon="6.20622">
        <ele>1826.5204</ele>
        <time>2021-07-05T12:51:36</time>
      </trkpt>
      <trkpt lat="45.42588" lon="6.20622">
        <ele>1826.5204</ele>
        <time>2021-07-05T12:51:37</time>
      </trkpt>
      <trkpt lat="45.42588" lon="6.20621">
        <ele>1826.5204</ele>
        <time>2021-07-05T12:51:39</time>
      </trkpt>
      <trkpt lat="45.42587" lon="6.20621">
        <ele>1826.5204</ele>
        <time>2021-07-05T12:51:40</time>
      </trkpt>
      <trkpt lat="45.42587" lon="6.20622">
        <ele>1827.8204</ele>
        <time>2021-07-05T12:52:10</time>
      </trkpt>
      <trkpt lat="45.42586" lon="6.20622">
        <ele>1827.8204</ele>
        <time>2021-07-05T12:52:16</time>
      </trkpt>
      <trkpt lat="45.42586" lon="6.20623">
        <ele>1827.8204</ele>
        <time>2021-07-05T12:52:17</time>
      </trkpt>
      <trkpt lat="45.42586" lon="6.20623">
        <ele>1827.8204</ele>
        <time>2021-07-05T12:52:24</time>
      </trkpt>
      <trkpt lat="45.42585" lon="6.20624">
        <ele>1827.8204</ele>
        <time>2021-07-05T12:52:28</time>
      </trkpt>
      <trkpt lat="45.42586" lon="6.20625">
        <ele>1827.8204</ele>
        <time>2021-07-05T12:52:29</time>
      </trkpt>
      <trkpt lat="45.42586" lon="6.20625">
        <ele>1827.8204</ele>
        <time>2021-07-05T12:52:30</time>
      </trkpt>
      <trkpt lat="45.42587" lon="6.20626">
        <ele>1830.487</ele>
        <time>2021-07-05T12:52:34</time>
      </trkpt>
      <trkpt lat="45.42586" lon="6.20626">
        <ele>1830.487</ele>
        <time>2021-07-05T12:52:35</time>
      </trkpt>
      <trkpt lat="45.42588" lon="6.2063">
        <ele>1830.6205</ele>
        <time>2021-07-05T12:52:49</time>
      </trkpt>
      <trkpt lat="45.4259" lon="6.20632">
        <ele>1830.6205</ele>
        <time>2021-07-05T12:52:53</time>
      </trkpt>
      <trkpt lat="45.42596" lon="6.20633">
        <ele>1830.4537</ele>
        <time>2021-07-05T12:53:23</time>
      </trkpt>
      <trkpt lat="45.42597" lon="6.20634">
        <ele>1834.8204</ele>
        <time>2021-07-05T12:53:31</time>
      </trkpt>
      <trkpt lat="45.42597" lon="6.20634">
        <ele>1834.8204</ele>
        <time>2021-07-05T12:53:32</time>
      </trkpt>
      <trkpt lat="45.42597" lon="6.20634">
        <ele>1830.3204</ele>
        <time>2021-07-05T12:53:37</time>
      </trkpt>
      <trkpt lat="45.42598" lon="6.20635">
        <ele>1830.3204</ele>
        <time>2021-07-05T12:53:38</time>
      </trkpt>
      <trkpt lat="45.42599" lon="6.20636">
        <ele>1830.3204</ele>
        <time>2021-07-05T12:53:42</time>
      </trkpt>
      <trkpt lat="45.426" lon="6.20636">
        <ele>1830.3204</ele>
        <time>2021-07-05T12:53:43</time>
      </trkpt>
      <trkpt lat="45.42601" lon="6.20636">
        <ele>1830.0204</ele>
        <time>2021-07-05T12:53:46</time>
      </trkpt>
      <trkpt lat="45.42601" lon="6.20636">
        <ele>1830.0204</ele>
        <time>2021-07-05T12:53:47</time>
      </trkpt>
      <trkpt lat="45.42602" lon="6.20636">
        <ele>1830.0204</ele>
        <time>2021-07-05T12:53:49</time>
      </trkpt>
      <trkpt lat="45.42603" lon="6.20636">
        <ele>1830.0204</ele>
        <time>2021-07-05T12:53:51</time>
      </trkpt>
      <trkpt lat="45.42611" lon="6.20635">
        <ele>1824.5204</ele>
        <time>2021-07-05T12:54:09</time>
      </trkpt>
      <trkpt lat="45.42612" lon="6.20634">
        <ele>1824.5204</ele>
        <time>2021-07-05T12:54:10</time>
      </trkpt>
      <trkpt lat="45.42612" lon="6.20632">
        <ele>1824.5204</ele>
        <time>2021-07-05T12:54:11</time>
      </trkpt>
      <trkpt lat="45.42612" lon="6.2063">
        <ele>1824.5204</ele>
        <time>2021-07-05T12:54:12</time>
      </trkpt>
      <trkpt lat="45.42612" lon="6.20626">
        <ele>1823.1205</ele>
        <time>2021-07-05T12:54:15</time>
      </trkpt>
      <trkpt lat="45.42612" lon="6.20625">
        <ele>1823.1205</ele>
        <time>2021-07-05T12:54:16</time>
      </trkpt>
      <trkpt lat="45.42612" lon="6.20623">
        <ele>1823.1205</ele>
        <time>2021-07-05T12:54:23</time>
      </trkpt>
      <trkpt lat="45.42612" lon="6.20621">
        <ele>1821.3204</ele>
        <time>2021-07-05T12:54:25</time>
      </trkpt>
      <trkpt lat="45.42612" lon="6.20618">
        <ele>1821.3204</ele>
        <time>2021-07-05T12:54:30</time>
      </trkpt>
      <trkpt lat="45.42611" lon="6.20605">
        <ele>1822.2205</ele>
        <time>2021-07-05T12:54:36</time>
      </trkpt>
      <trkpt lat="45.42611" lon="6.20602">
        <ele>1822.2205</ele>
        <time>2021-07-05T12:54:37</time>
      </trkpt>
      <trkpt lat="45.42611" lon="6.20601">
        <ele>1822.2205</ele>
        <time>2021-07-05T12:54:38</time>
      </trkpt>
      <trkpt lat="45.4261" lon="6.20599">
        <ele>1822.2205</ele>
        <time>2021-07-05T12:54:39</time>
      </trkpt>
      <trkpt lat="45.4261" lon="6.20597">
        <ele>1822.2205</ele>
        <time>2021-07-05T12:54:40</time>
      </trkpt>
      <trkpt lat="45.42611" lon="6.20594">
        <ele>1822.2205</ele>
        <time>2021-07-05T12:54:42</time>
      </trkpt>
      <trkpt lat="45.42611" lon="6.20592">
        <ele>1819.2205</ele>
        <time>2021-07-05T12:54:44</time>
      </trkpt>
      <trkpt lat="45.4261" lon="6.20589">
        <ele>1819.2205</ele>
        <time>2021-07-05T12:54:46</time>
      </trkpt>
      <trkpt lat="45.42611" lon="6.20588">
        <ele>1819.2205</ele>
        <time>2021-07-05T12:54:47</time>
      </trkpt>
      <trkpt lat="45.4261" lon="6.20587">
        <ele>1819.2205</ele>
        <time>2021-07-05T12:54:48</time>
      </trkpt>
      <trkpt lat="45.42612" lon="6.20581">
        <ele>1819.2205</ele>
        <time>2021-07-05T12:54:53</time>
      </trkpt>
      <trkpt lat="45.42613" lon="6.20578">
        <ele>1820.7205</ele>
        <time>2021-07-05T12:54:57</time>
      </trkpt>
      <trkpt lat="45.42612" lon="6.2057">
        <ele>1820.7205</ele>
        <time>2021-07-05T12:55:03</time>
      </trkpt>
      <trkpt lat="45.42612" lon="6.20569">
        <ele>1823.6205</ele>
        <time>2021-07-05T12:55:04</time>
      </trkpt>
      <trkpt lat="45.42612" lon="6.20568">
        <ele>1823.6205</ele>
        <time>2021-07-05T12:55:05</time>
      </trkpt>
      <trkpt lat="45.4261" lon="6.2056">
        <ele>1823.6205</ele>
        <time>2021-07-05T12:55:10</time>
      </trkpt>
      <trkpt lat="45.42606" lon="6.20546">
        <ele>1821.3204</ele>
        <time>2021-07-05T12:55:21</time>
      </trkpt>
      <trkpt lat="45.42608" lon="6.20545">
        <ele>1818.1205</ele>
        <time>2021-07-05T12:55:28</time>
      </trkpt>
      <trkpt lat="45.42608" lon="6.20544">
        <ele>1818.1205</ele>
        <time>2021-07-05T12:55:29</time>
      </trkpt>
      <trkpt lat="45.42607" lon="6.20542">
        <ele>1818.1205</ele>
        <time>2021-07-05T12:55:30</time>
      </trkpt>
      <trkpt lat="45.42605" lon="6.20535">
        <ele>1819.5204</ele>
        <time>2021-07-05T12:55:35</time>
      </trkpt>
      <trkpt lat="45.42603" lon="6.20522">
        <ele>1820.8204</ele>
        <time>2021-07-05T12:55:44</time>
      </trkpt>
      <trkpt lat="45.42601" lon="6.20518">
        <ele>1820.8204</ele>
        <time>2021-07-05T12:55:47</time>
      </trkpt>
      <trkpt lat="45.426" lon="6.20508">
        <ele>1825.2205</ele>
        <time>2021-07-05T12:55:55</time>
      </trkpt>
      <trkpt lat="45.42598" lon="6.20502">
        <ele>1825.2205</ele>
        <time>2021-07-05T12:56:01</time>
      </trkpt>
      <trkpt lat="45.42598" lon="6.20499">
        <ele>1824.5204</ele>
        <time>2021-07-05T12:56:04</time>
      </trkpt>
      <trkpt lat="45.42597" lon="6.20495">
        <ele>1824.5204</ele>
        <time>2021-07-05T12:56:07</time>
      </trkpt>
      <trkpt lat="45.42596" lon="6.2049">
        <ele>1824.5204</ele>
        <time>2021-07-05T12:56:11</time>
      </trkpt>
      <trkpt lat="45.42596" lon="6.20489">
        <ele>1824.5204</ele>
        <time>2021-07-05T12:56:12</time>
      </trkpt>
      <trkpt lat="45.42597" lon="6.20488">
        <ele>1824.5204</ele>
        <time>2021-07-05T12:56:13</time>
      </trkpt>
      <trkpt lat="45.42589" lon="6.20473">
        <ele>1832.0204</ele>
        <time>2021-07-05T12:56:32</time>
      </trkpt>
      <trkpt lat="45.42588" lon="6.20472">
        <ele>1829.9204</ele>
        <time>2021-07-05T12:56:34</time>
      </trkpt>
      <trkpt lat="45.42586" lon="6.20471">
        <ele>1829.9204</ele>
        <time>2021-07-05T12:56:36</time>
      </trkpt>
      <trkpt lat="45.42586" lon="6.2047">
        <ele>1829.9204</ele>
        <time>2021-07-05T12:56:37</time>
      </trkpt>
      <trkpt lat="45.42584" lon="6.20468">
        <ele>1829.9204</ele>
        <time>2021-07-05T12:56:40</time>
      </trkpt>
      <trkpt lat="45.42584" lon="6.20467">
        <ele>1829.9204</ele>
        <time>2021-07-05T12:56:41</time>
      </trkpt>
      <trkpt lat="45.42584" lon="6.20466">
        <ele>1829.9204</ele>
        <time>2021-07-05T12:56:42</time>
      </trkpt>
      <trkpt lat="45.42584" lon="6.20465">
        <ele>1829.4204</ele>
        <time>2021-07-05T12:56:53</time>
      </trkpt>
      <trkpt lat="45.42584" lon="6.20463">
        <ele>1831.7205</ele>
        <time>2021-07-05T12:56:54</time>
      </trkpt>
      <trkpt lat="45.42584" lon="6.20462">
        <ele>1831.7205</ele>
        <time>2021-07-05T12:56:55</time>
      </trkpt>
      <trkpt lat="45.42584" lon="6.2046">
        <ele>1831.7205</ele>
        <time>2021-07-05T12:56:56</time>
      </trkpt>
      <trkpt lat="45.42584" lon="6.20456">
        <ele>1831.7205</ele>
        <time>2021-07-05T12:57:00</time>
      </trkpt>
      <trkpt lat="45.42584" lon="6.20456">
        <ele>1831.7205</ele>
        <time>2021-07-05T12:57:01</time>
      </trkpt>
      <trkpt lat="45.42583" lon="6.20454">
        <ele>1834.9204</ele>
        <time>2021-07-05T12:57:04</time>
      </trkpt>
      <trkpt lat="45.42584" lon="6.20453">
        <ele>1834.9204</ele>
        <time>2021-07-05T12:57:05</time>
      </trkpt>
      <trkpt lat="45.42583" lon="6.20453">
        <ele>1834.9204</ele>
        <time>2021-07-05T12:57:06</time>
      </trkpt>
      <trkpt lat="45.42581" lon="6.20451">
        <ele>1834.9204</ele>
        <time>2021-07-05T12:57:08</time>
      </trkpt>
      <trkpt lat="45.42579" lon="6.20449">
        <ele>1834.9204</ele>
        <time>2021-07-05T12:57:13</time>
      </trkpt>
      <trkpt lat="45.42578" lon="6.20447">
        <ele>1838.4204</ele>
        <time>2021-07-05T12:57:15</time>
      </trkpt>
      <trkpt lat="45.42579" lon="6.20443">
        <ele>1838.4204</ele>
        <time>2021-07-05T12:57:23</time>
      </trkpt>
      <trkpt lat="45.4258" lon="6.20442">
        <ele>1838.0204</ele>
        <time>2021-07-05T12:57:24</time>
      </trkpt>
      <trkpt lat="45.42581" lon="6.20441">
        <ele>1838.0204</ele>
        <time>2021-07-05T12:57:26</time>
      </trkpt>
      <trkpt lat="45.42581" lon="6.2044">
        <ele>1838.0204</ele>
        <time>2021-07-05T12:57:27</time>
      </trkpt>
      <trkpt lat="45.42583" lon="6.20438">
        <ele>1838.0204</ele>
        <time>2021-07-05T12:57:30</time>
      </trkpt>
      <trkpt lat="45.42586" lon="6.20437">
        <ele>1838.0204</ele>
        <time>2021-07-05T12:57:33</time>
      </trkpt>
      <trkpt lat="45.42588" lon="6.20435">
        <ele>1836.8204</ele>
        <time>2021-07-05T12:57:35</time>
      </trkpt>
      <trkpt lat="45.42588" lon="6.20434">
        <ele>1836.8204</ele>
        <time>2021-07-05T12:57:36</time>
      </trkpt>
      <trkpt lat="45.42592" lon="6.20433">
        <ele>1836.8204</ele>
        <time>2021-07-05T12:57:40</time>
      </trkpt>
      <trkpt lat="45.42593" lon="6.20433">
        <ele>1836.8204</ele>
        <time>2021-07-05T12:57:41</time>
      </trkpt>
      <trkpt lat="45.42602" lon="6.20427">
        <ele>1837.1205</ele>
        <time>2021-07-05T12:57:53</time>
      </trkpt>
      <trkpt lat="45.42604" lon="6.20426">
        <ele>1837.0204</ele>
        <time>2021-07-05T12:57:55</time>
      </trkpt>
      <trkpt lat="45.42613" lon="6.20426">
        <ele>1832.9204</ele>
        <time>2021-07-05T12:58:06</time>
      </trkpt>
      <trkpt lat="45.42615" lon="6.20427">
        <ele>1832.9204</ele>
        <time>2021-07-05T12:58:09</time>
      </trkpt>
      <trkpt lat="45.42616" lon="6.20427">
        <ele>1832.9204</ele>
        <time>2021-07-05T12:58:12</time>
      </trkpt>
      <trkpt lat="45.42617" lon="6.20426">
        <ele>1829.5204</ele>
        <time>2021-07-05T12:58:24</time>
      </trkpt>
      <trkpt lat="45.42617" lon="6.20425">
        <ele>1829.5204</ele>
        <time>2021-07-05T12:58:25</time>
      </trkpt>
      <trkpt lat="45.42618" lon="6.20424">
        <ele>1829.5204</ele>
        <time>2021-07-05T12:58:26</time>
      </trkpt>
      <trkpt lat="45.42619" lon="6.20423">
        <ele>1829.5204</ele>
        <time>2021-07-05T12:58:27</time>
      </trkpt>
      <trkpt lat="45.42621" lon="6.20423">
        <ele>1829.5204</ele>
        <time>2021-07-05T12:58:28</time>
      </trkpt>
      <trkpt lat="45.42623" lon="6.20422">
        <ele>1829.5204</ele>
        <time>2021-07-05T12:58:30</time>
      </trkpt>
      <trkpt lat="45.42625" lon="6.20421">
        <ele>1829.5204</ele>
        <time>2021-07-05T12:58:32</time>
      </trkpt>
      <trkpt lat="45.42625" lon="6.20421">
        <ele>1829.5204</ele>
        <time>2021-07-05T12:58:33</time>
      </trkpt>
      <trkpt lat="45.42631" lon="6.20416">
        <ele>1828.6205</ele>
        <time>2021-07-05T12:58:42</time>
      </trkpt>
      <trkpt lat="45.42632" lon="6.20415">
        <ele>1828.6205</ele>
        <time>2021-07-05T12:58:43</time>
      </trkpt>
      <trkpt lat="45.42645" lon="6.20406">
        <ele>1827.4204</ele>
        <time>2021-07-05T12:58:59</time>
      </trkpt>
      <trkpt lat="45.42646" lon="6.20404">
        <ele>1827.4204</ele>
        <time>2021-07-05T12:59:01</time>
      </trkpt>
      <trkpt lat="45.4265" lon="6.20402">
        <ele>1825.8204</ele>
        <time>2021-07-05T12:59:06</time>
      </trkpt>
      <trkpt lat="45.42656" lon="6.20402">
        <ele>1825.8204</ele>
        <time>2021-07-05T12:59:13</time>
      </trkpt>
      <trkpt lat="45.42664" lon="6.204">
        <ele>1826.7205</ele>
        <time>2021-07-05T12:59:21</time>
      </trkpt>
      <trkpt lat="45.42666" lon="6.20399">
        <ele>1826.7205</ele>
        <time>2021-07-05T12:59:23</time>
      </trkpt>
      <trkpt lat="45.4267" lon="6.20396">
        <ele>1823.6205</ele>
        <time>2021-07-05T12:59:28</time>
      </trkpt>
      <trkpt lat="45.4267" lon="6.20398">
        <ele>1820.4204</ele>
        <time>2021-07-05T12:59:35</time>
      </trkpt>
      <trkpt lat="45.42674" lon="6.20397">
        <ele>1820.4204</ele>
        <time>2021-07-05T12:59:41</time>
      </trkpt>
      <trkpt lat="45.42679" lon="6.20397">
        <ele>1820.8204</ele>
        <time>2021-07-05T12:59:48</time>
      </trkpt>
      <trkpt lat="45.42683" lon="6.20398">
        <ele>1820.8204</ele>
        <time>2021-07-05T12:59:53</time>
      </trkpt>
      <trkpt lat="45.42686" lon="6.20397">
        <ele>1818.5204</ele>
        <time>2021-07-05T12:59:57</time>
      </trkpt>
      <trkpt lat="45.42698" lon="6.204">
        <ele>1817.0204</ele>
        <time>2021-07-05T13:00:11</time>
      </trkpt>
      <trkpt lat="45.42702" lon="6.204">
        <ele>1813.7205</ele>
        <time>2021-07-05T13:00:15</time>
      </trkpt>
      <trkpt lat="45.42705" lon="6.20399">
        <ele>1813.7205</ele>
        <time>2021-07-05T13:00:17</time>
      </trkpt>
      <trkpt lat="45.42707" lon="6.20399">
        <ele>1813.7205</ele>
        <time>2021-07-05T13:00:20</time>
      </trkpt>
      <trkpt lat="45.42708" lon="6.20399">
        <ele>1813.7205</ele>
        <time>2021-07-05T13:00:22</time>
      </trkpt>
      <trkpt lat="45.42709" lon="6.20399">
        <ele>1813.7205</ele>
        <time>2021-07-05T13:00:23</time>
      </trkpt>
      <trkpt lat="45.42711" lon="6.20401">
        <ele>1813.1205</ele>
        <time>2021-07-05T13:00:26</time>
      </trkpt>
      <trkpt lat="45.42712" lon="6.20402">
        <ele>1813.1205</ele>
        <time>2021-07-05T13:00:28</time>
      </trkpt>
      <trkpt lat="45.42713" lon="6.20402">
        <ele>1813.1205</ele>
        <time>2021-07-05T13:00:30</time>
      </trkpt>
      <trkpt lat="45.42714" lon="6.20401">
        <ele>1810.3204</ele>
        <time>2021-07-05T13:00:34</time>
      </trkpt>
      <trkpt lat="45.42717" lon="6.20402">
        <ele>1810.3204</ele>
        <time>2021-07-05T13:00:37</time>
      </trkpt>
      <trkpt lat="45.42718" lon="6.20401">
        <ele>1810.3204</ele>
        <time>2021-07-05T13:00:39</time>
      </trkpt>
      <trkpt lat="45.42721" lon="6.20401">
        <ele>1810.3204</ele>
        <time>2021-07-05T13:00:41</time>
      </trkpt>
      <trkpt lat="45.42725" lon="6.20397">
        <ele>1811.5204</ele>
        <time>2021-07-05T13:00:47</time>
      </trkpt>
      <trkpt lat="45.42726" lon="6.20398">
        <ele>1809.0204</ele>
        <time>2021-07-05T13:01:00</time>
      </trkpt>
      <trkpt lat="45.42727" lon="6.20398">
        <ele>1809.0204</ele>
        <time>2021-07-05T13:01:01</time>
      </trkpt>
      <trkpt lat="45.42728" lon="6.20397">
        <ele>1809.0204</ele>
        <time>2021-07-05T13:01:02</time>
      </trkpt>
      <trkpt lat="45.42729" lon="6.20397">
        <ele>1809.0204</ele>
        <time>2021-07-05T13:01:03</time>
      </trkpt>
      <trkpt lat="45.42732" lon="6.20395">
        <ele>1812.7205</ele>
        <time>2021-07-05T13:01:08</time>
      </trkpt>
      <trkpt lat="45.42732" lon="6.20394">
        <ele>1812.7205</ele>
        <time>2021-07-05T13:01:12</time>
      </trkpt>
      <trkpt lat="45.42731" lon="6.20394">
        <ele>1812.7205</ele>
        <time>2021-07-05T13:01:13</time>
      </trkpt>
      <trkpt lat="45.42726" lon="6.2039">
        <ele>1812.1205</ele>
        <time>2021-07-05T13:01:22</time>
      </trkpt>
      <trkpt lat="45.42726" lon="6.20385">
        <ele>1813.5204</ele>
        <time>2021-07-05T13:01:28</time>
      </trkpt>
      <trkpt lat="45.42725" lon="6.20383">
        <ele>1811.4204</ele>
        <time>2021-07-05T13:01:40</time>
      </trkpt>
      <trkpt lat="45.42725" lon="6.20382">
        <ele>1811.4204</ele>
        <time>2021-07-05T13:01:41</time>
      </trkpt>
      <trkpt lat="45.42724" lon="6.20382">
        <ele>1811.4204</ele>
        <time>2021-07-05T13:01:43</time>
      </trkpt>
      <trkpt lat="45.42723" lon="6.2038">
        <ele>1815.7205</ele>
        <time>2021-07-05T13:01:44</time>
      </trkpt>
      <trkpt lat="45.42722" lon="6.2038">
        <ele>1815.7205</ele>
        <time>2021-07-05T13:01:45</time>
      </trkpt>
      <trkpt lat="45.42721" lon="6.2038">
        <ele>1815.7205</ele>
        <time>2021-07-05T13:01:46</time>
      </trkpt>
      <trkpt lat="45.42717" lon="6.20376">
        <ele>1815.7205</ele>
        <time>2021-07-05T13:01:51</time>
      </trkpt>
      <trkpt lat="45.42717" lon="6.20375">
        <ele>1815.7205</ele>
        <time>2021-07-05T13:01:52</time>
      </trkpt>
      <trkpt lat="45.42715" lon="6.20366">
        <ele>1815.1205</ele>
        <time>2021-07-05T13:02:01</time>
      </trkpt>
      <trkpt lat="45.42716" lon="6.20366">
        <ele>1814.4204</ele>
        <time>2021-07-05T13:02:09</time>
      </trkpt>
      <trkpt lat="45.42717" lon="6.20365">
        <ele>1814.4204</ele>
        <time>2021-07-05T13:02:12</time>
      </trkpt>
      <trkpt lat="45.42718" lon="6.20364">
        <ele>1814.5204</ele>
        <time>2021-07-05T13:02:15</time>
      </trkpt>
      <trkpt lat="45.42719" lon="6.20359">
        <ele>1814.5204</ele>
        <time>2021-07-05T13:02:18</time>
      </trkpt>
      <trkpt lat="45.42719" lon="6.20358">
        <ele>1814.5204</ele>
        <time>2021-07-05T13:02:21</time>
      </trkpt>
      <trkpt lat="45.4272" lon="6.20357">
        <ele>1814.5204</ele>
        <time>2021-07-05T13:02:22</time>
      </trkpt>
      <trkpt lat="45.42721" lon="6.20357">
        <ele>1808.0204</ele>
        <time>2021-07-05T13:02:37</time>
      </trkpt>
      <trkpt lat="45.42721" lon="6.20356">
        <ele>1808.0204</ele>
        <time>2021-07-05T13:02:38</time>
      </trkpt>
      <trkpt lat="45.42721" lon="6.20356">
        <ele>1808.0204</ele>
        <time>2021-07-05T13:02:40</time>
      </trkpt>
      <trkpt lat="45.4272" lon="6.20355">
        <ele>1808.0204</ele>
        <time>2021-07-05T13:02:42</time>
      </trkpt>
      <trkpt lat="45.42719" lon="6.20351">
        <ele>1806.7205</ele>
        <time>2021-07-05T13:20:55</time>
      </trkpt>
      <trkpt lat="45.42719" lon="6.20351">
        <ele>1806.7205</ele>
        <time>2021-07-05T13:21:25</time>
      </trkpt>
      <trkpt lat="45.42719" lon="6.20351">
        <ele>1806.7205</ele>
        <time>2021-07-05T13:21:45</time>
      </trkpt>
      <trkpt lat="45.42719" lon="6.20351">
        <ele>1806.7205</ele>
        <time>2021-07-05T13:21:46</time>
      </trkpt>
      <trkpt lat="45.42717" lon="6.20348">
        <ele>1806.7205</ele>
        <time>2021-07-05T13:22:03</time>
      </trkpt>
      <trkpt lat="45.42716" lon="6.20347">
        <ele>1806.7205</ele>
        <time>2021-07-05T13:22:04</time>
      </trkpt>
      <trkpt lat="45.42717" lon="6.20347">
        <ele>1806.7205</ele>
        <time>2021-07-05T13:22:35</time>
      </trkpt>
      <trkpt lat="45.42717" lon="6.20347">
        <ele>1806.7205</ele>
        <time>2021-07-05T13:22:36</time>
      </trkpt>
      <trkpt lat="45.4272" lon="6.20356">
        <ele>1812.8204</ele>
        <time>2021-07-05T13:24:29</time>
      </trkpt>
      <trkpt lat="45.4272" lon="6.20356">
        <ele>1812.8204</ele>
        <time>2021-07-05T13:33:18</time>
      </trkpt>
      <trkpt lat="45.4272" lon="6.20356">
        <ele>1812.8204</ele>
        <time>2021-07-05T13:33:48</time>
      </trkpt>
      <trkpt lat="45.4272" lon="6.20357">
        <ele>1811.0204</ele>
        <time>2021-07-05T13:50:58</time>
      </trkpt>
      <trkpt lat="45.42717" lon="6.20358">
        <ele>1811.0204</ele>
        <time>2021-07-05T14:21:01</time>
      </trkpt>
      <trkpt lat="45.42717" lon="6.20358">
        <ele>1807.5204</ele>
        <time>2021-07-05T14:21:31</time>
      </trkpt>
      <trkpt lat="45.42717" lon="6.20357">
        <ele>1807.7205</ele>
        <time>2021-07-05T14:22:10</time>
      </trkpt>
      <trkpt lat="45.42716" lon="6.20355">
        <ele>1807.7205</ele>
        <time>2021-07-05T14:22:11</time>
      </trkpt>
      <trkpt lat="45.42717" lon="6.20354">
        <ele>1808.6205</ele>
        <time>2021-07-05T14:23:08</time>
      </trkpt>
      <trkpt lat="45.42716" lon="6.20354">
        <ele>1807.2205</ele>
        <time>2021-07-05T14:23:10</time>
      </trkpt>
      <trkpt lat="45.42716" lon="6.20354">
        <ele>1807.2205</ele>
        <time>2021-07-05T14:23:11</time>
      </trkpt>
      <trkpt lat="45.42716" lon="6.20355">
        <ele>1807.2205</ele>
        <time>2021-07-05T14:23:13</time>
      </trkpt>
      <trkpt lat="45.42715" lon="6.20354">
        <ele>1807.2205</ele>
        <time>2021-07-05T14:23:17</time>
      </trkpt>
      <trkpt lat="45.42714" lon="6.20354">
        <ele>1806.4204</ele>
        <time>2021-07-05T14:23:20</time>
      </trkpt>
      <trkpt lat="45.42713" lon="6.20354">
        <ele>1806.4204</ele>
        <time>2021-07-05T14:23:22</time>
      </trkpt>
      <trkpt lat="45.42712" lon="6.20354">
        <ele>1806.4204</ele>
        <time>2021-07-05T14:23:24</time>
      </trkpt>
      <trkpt lat="45.42709" lon="6.20354">
        <ele>1807.5204</ele>
        <time>2021-07-05T14:23:31</time>
      </trkpt>
      <trkpt lat="45.42708" lon="6.20354">
        <ele>1807.5204</ele>
        <time>2021-07-05T14:23:32</time>
      </trkpt>
      <trkpt lat="45.42708" lon="6.20356">
        <ele>1807.5204</ele>
        <time>2021-07-05T14:23:36</time>
      </trkpt>
      <trkpt lat="45.42709" lon="6.20357">
        <ele>1807.5204</ele>
        <time>2021-07-05T14:23:37</time>
      </trkpt>
      <trkpt lat="45.4271" lon="6.20361">
        <ele>1807.5204</ele>
        <time>2021-07-05T14:23:41</time>
      </trkpt>
      <trkpt lat="45.42711" lon="6.20362">
        <ele>1807.5204</ele>
        <time>2021-07-05T14:23:45</time>
      </trkpt>
      <trkpt lat="45.42712" lon="6.20365">
        <ele>1806.8204</ele>
        <time>2021-07-05T14:23:49</time>
      </trkpt>
      <trkpt lat="45.42712" lon="6.20365">
        <ele>1806.8204</ele>
        <time>2021-07-05T14:23:50</time>
      </trkpt>
      <trkpt lat="45.42712" lon="6.20366">
        <ele>1806.8204</ele>
        <time>2021-07-05T14:23:52</time>
      </trkpt>
      <trkpt lat="45.42712" lon="6.20366">
        <ele>1806.8204</ele>
        <time>2021-07-05T14:23:53</time>
      </trkpt>
      <trkpt lat="45.42712" lon="6.20366">
        <ele>1806.8204</ele>
        <time>2021-07-05T14:23:54</time>
      </trkpt>
      <trkpt lat="45.42712" lon="6.20366">
        <ele>1806.8204</ele>
        <time>2021-07-05T14:23:57</time>
      </trkpt>
      <trkpt lat="45.42713" lon="6.20367">
        <ele>1806.8204</ele>
        <time>2021-07-05T14:23:58</time>
      </trkpt>
      <trkpt lat="45.42713" lon="6.20367">
        <ele>1807.8204</ele>
        <time>2021-07-05T14:23:59</time>
      </trkpt>
      <trkpt lat="45.42715" lon="6.20367">
        <ele>1807.8204</ele>
        <time>2021-07-05T14:24:01</time>
      </trkpt>
      <trkpt lat="45.42715" lon="6.20367">
        <ele>1807.8204</ele>
        <time>2021-07-05T14:24:03</time>
      </trkpt>
      <trkpt lat="45.42715" lon="6.20367">
        <ele>1807.8204</ele>
        <time>2021-07-05T14:24:06</time>
      </trkpt>
      <trkpt lat="45.42715" lon="6.20367">
        <ele>1807.8204</ele>
        <time>2021-07-05T14:24:07</time>
      </trkpt>
      <trkpt lat="45.42715" lon="6.20368">
        <ele>1811.1205</ele>
        <time>2021-07-05T14:24:10</time>
      </trkpt>
      <trkpt lat="45.42716" lon="6.20369">
        <ele>1811.1205</ele>
        <time>2021-07-05T14:24:11</time>
      </trkpt>
      <trkpt lat="45.42716" lon="6.2037">
        <ele>1811.1205</ele>
        <time>2021-07-05T14:24:12</time>
      </trkpt>
      <trkpt lat="45.42716" lon="6.20371">
        <ele>1811.1205</ele>
        <time>2021-07-05T14:24:13</time>
      </trkpt>
      <trkpt lat="45.42716" lon="6.20372">
        <ele>1811.1205</ele>
        <time>2021-07-05T14:24:14</time>
      </trkpt>
      <trkpt lat="45.42716" lon="6.20373">
        <ele>1811.1205</ele>
        <time>2021-07-05T14:24:15</time>
      </trkpt>
      <trkpt lat="45.42716" lon="6.20375">
        <ele>1811.1205</ele>
        <time>2021-07-05T14:24:17</time>
      </trkpt>
      <trkpt lat="45.42716" lon="6.20375">
        <ele>1811.1205</ele>
        <time>2021-07-05T14:24:18</time>
      </trkpt>
      <trkpt lat="45.42716" lon="6.20376">
        <ele>1816.3204</ele>
        <time>2021-07-05T14:24:19</time>
      </trkpt>
      <trkpt lat="45.42716" lon="6.20377">
        <ele>1816.3204</ele>
        <time>2021-07-05T14:24:20</time>
      </trkpt>
      <trkpt lat="45.42717" lon="6.20378">
        <ele>1816.3204</ele>
        <time>2021-07-05T14:24:21</time>
      </trkpt>
      <trkpt lat="45.42718" lon="6.20379">
        <ele>1816.3204</ele>
        <time>2021-07-05T14:24:27</time>
      </trkpt>
      <trkpt lat="45.42719" lon="6.20379">
        <ele>1816.3204</ele>
        <time>2021-07-05T14:24:28</time>
      </trkpt>
      <trkpt lat="45.4272" lon="6.2038">
        <ele>1814.8204</ele>
        <time>2021-07-05T14:24:31</time>
      </trkpt>
      <trkpt lat="45.42722" lon="6.20379">
        <ele>1814.8204</ele>
        <time>2021-07-05T14:24:34</time>
      </trkpt>
      <trkpt lat="45.42722" lon="6.2038">
        <ele>1814.8204</ele>
        <time>2021-07-05T14:24:35</time>
      </trkpt>
      <trkpt lat="45.42723" lon="6.20381">
        <ele>1814.8204</ele>
        <time>2021-07-05T14:24:36</time>
      </trkpt>
      <trkpt lat="45.42723" lon="6.20382">
        <ele>1814.8204</ele>
        <time>2021-07-05T14:24:37</time>
      </trkpt>
      <trkpt lat="45.42724" lon="6.20386">
        <ele>1815.5204</ele>
        <time>2021-07-05T14:24:41</time>
      </trkpt>
      <trkpt lat="45.42725" lon="6.20389">
        <ele>1815.5204</ele>
        <time>2021-07-05T14:24:44</time>
      </trkpt>
      <trkpt lat="45.42725" lon="6.2039">
        <ele>1815.5204</ele>
        <time>2021-07-05T14:24:45</time>
      </trkpt>
      <trkpt lat="45.42725" lon="6.20391">
        <ele>1815.5204</ele>
        <time>2021-07-05T14:24:46</time>
      </trkpt>
      <trkpt lat="45.42726" lon="6.20391">
        <ele>1815.5204</ele>
        <time>2021-07-05T14:24:47</time>
      </trkpt>
      <trkpt lat="45.42726" lon="6.20393">
        <ele>1819.2205</ele>
        <time>2021-07-05T14:24:52</time>
      </trkpt>
      <trkpt lat="45.42727" lon="6.20396">
        <ele>1819.2205</ele>
        <time>2021-07-05T14:24:55</time>
      </trkpt>
      <trkpt lat="45.42728" lon="6.204">
        <ele>1819.8204</ele>
        <time>2021-07-05T14:25:00</time>
      </trkpt>
      <trkpt lat="45.42727" lon="6.204">
        <ele>1819.8204</ele>
        <time>2021-07-05T14:25:06</time>
      </trkpt>
      <trkpt lat="45.42726" lon="6.204">
        <ele>1819.8204</ele>
        <time>2021-07-05T14:25:08</time>
      </trkpt>
      <trkpt lat="45.42723" lon="6.20399">
        <ele>1816.7205</ele>
        <time>2021-07-05T14:25:12</time>
      </trkpt>
      <trkpt lat="45.4272" lon="6.20398">
        <ele>1816.7205</ele>
        <time>2021-07-05T14:25:16</time>
      </trkpt>
      <trkpt lat="45.42718" lon="6.20399">
        <ele>1818.3204</ele>
        <time>2021-07-05T14:25:21</time>
      </trkpt>
      <trkpt lat="45.42717" lon="6.20399">
        <ele>1818.3204</ele>
        <time>2021-07-05T14:25:23</time>
      </trkpt>
      <trkpt lat="45.42717" lon="6.20399">
        <ele>1818.3204</ele>
        <time>2021-07-05T14:25:24</time>
      </trkpt>
      <trkpt lat="45.42716" lon="6.20399">
        <ele>1818.3204</ele>
        <time>2021-07-05T14:25:25</time>
      </trkpt>
      <trkpt lat="45.42712" lon="6.20399">
        <ele>1819.0204</ele>
        <time>2021-07-05T14:25:29</time>
      </trkpt>
      <trkpt lat="45.42709" lon="6.20397">
        <ele>1819.0204</ele>
        <time>2021-07-05T14:25:33</time>
      </trkpt>
      <trkpt lat="45.42704" lon="6.20395">
        <ele>1821.2205</ele>
        <time>2021-07-05T14:25:39</time>
      </trkpt>
      <trkpt lat="45.427" lon="6.20394">
        <ele>1821.2205</ele>
        <time>2021-07-05T14:25:46</time>
      </trkpt>
      <trkpt lat="45.42698" lon="6.20393">
        <ele>1823.6205</ele>
        <time>2021-07-05T14:25:49</time>
      </trkpt>
      <trkpt lat="45.42698" lon="6.20393">
        <ele>1823.6205</ele>
        <time>2021-07-05T14:25:51</time>
      </trkpt>
      <trkpt lat="45.42697" lon="6.20393">
        <ele>1823.6205</ele>
        <time>2021-07-05T14:25:52</time>
      </trkpt>
      <trkpt lat="45.42696" lon="6.20393">
        <ele>1823.6205</ele>
        <time>2021-07-05T14:25:54</time>
      </trkpt>
      <trkpt lat="45.42696" lon="6.20393">
        <ele>1823.6205</ele>
        <time>2021-07-05T14:25:55</time>
      </trkpt>
      <trkpt lat="45.42695" lon="6.20393">
        <ele>1823.6205</ele>
        <time>2021-07-05T14:25:56</time>
      </trkpt>
      <trkpt lat="45.42695" lon="6.20393">
        <ele>1823.6205</ele>
        <time>2021-07-05T14:25:57</time>
      </trkpt>
      <trkpt lat="45.42694" lon="6.20394">
        <ele>1822.0204</ele>
        <time>2021-07-05T14:25:59</time>
      </trkpt>
      <trkpt lat="45.42692" lon="6.20395">
        <ele>1822.0204</ele>
        <time>2021-07-05T14:26:01</time>
      </trkpt>
      <trkpt lat="45.42691" lon="6.20395">
        <ele>1822.0204</ele>
        <time>2021-07-05T14:26:03</time>
      </trkpt>
      <trkpt lat="45.42689" lon="6.20394">
        <ele>1822.0204</ele>
        <time>2021-07-05T14:26:06</time>
      </trkpt>
      <trkpt lat="45.42682" lon="6.20395">
        <ele>1822.6205</ele>
        <time>2021-07-05T14:26:15</time>
      </trkpt>
      <trkpt lat="45.42678" lon="6.20396">
        <ele>1823.7205</ele>
        <time>2021-07-05T14:26:20</time>
      </trkpt>
      <trkpt lat="45.42678" lon="6.20396">
        <ele>1823.7205</ele>
        <time>2021-07-05T14:26:21</time>
      </trkpt>
      <trkpt lat="45.42677" lon="6.20396">
        <ele>1823.7205</ele>
        <time>2021-07-05T14:26:22</time>
      </trkpt>
      <trkpt lat="45.42671" lon="6.20395">
        <ele>1823.5204</ele>
        <time>2021-07-05T14:26:32</time>
      </trkpt>
      <trkpt lat="45.42671" lon="6.20396">
        <ele>1823.5204</ele>
        <time>2021-07-05T14:26:33</time>
      </trkpt>
      <trkpt lat="45.42669" lon="6.20396">
        <ele>1823.5204</ele>
        <time>2021-07-05T14:26:35</time>
      </trkpt>
      <trkpt lat="45.42669" lon="6.20396">
        <ele>1823.5204</ele>
        <time>2021-07-05T14:26:36</time>
      </trkpt>
      <trkpt lat="45.42668" lon="6.20396">
        <ele>1825.8204</ele>
        <time>2021-07-05T14:26:39</time>
      </trkpt>
      <trkpt lat="45.42667" lon="6.20397">
        <ele>1825.8204</ele>
        <time>2021-07-05T14:26:40</time>
      </trkpt>
      <trkpt lat="45.42665" lon="6.20397">
        <ele>1825.8204</ele>
        <time>2021-07-05T14:26:45</time>
      </trkpt>
      <trkpt lat="45.42654" lon="6.20401">
        <ele>1825.8204</ele>
        <time>2021-07-05T14:26:56</time>
      </trkpt>
      <trkpt lat="45.42652" lon="6.20402">
        <ele>1823.4204</ele>
        <time>2021-07-05T14:26:59</time>
      </trkpt>
      <trkpt lat="45.42651" lon="6.20402">
        <ele>1823.4204</ele>
        <time>2021-07-05T14:27:00</time>
      </trkpt>
      <trkpt lat="45.4265" lon="6.20402">
        <ele>1823.4204</ele>
        <time>2021-07-05T14:27:01</time>
      </trkpt>
      <trkpt lat="45.42649" lon="6.20402">
        <ele>1823.4204</ele>
        <time>2021-07-05T14:27:02</time>
      </trkpt>
      <trkpt lat="45.42649" lon="6.20402">
        <ele>1823.4204</ele>
        <time>2021-07-05T14:27:03</time>
      </trkpt>
      <trkpt lat="45.42647" lon="6.20403">
        <ele>1823.4204</ele>
        <time>2021-07-05T14:27:07</time>
      </trkpt>
      <trkpt lat="45.42646" lon="6.20404">
        <ele>1823.3204</ele>
        <time>2021-07-05T14:27:11</time>
      </trkpt>
      <trkpt lat="45.42645" lon="6.20404">
        <ele>1823.3204</ele>
        <time>2021-07-05T14:27:12</time>
      </trkpt>
      <trkpt lat="45.42645" lon="6.20404">
        <ele>1823.3204</ele>
        <time>2021-07-05T14:27:14</time>
      </trkpt>
      <trkpt lat="45.42641" lon="6.20405">
        <ele>1824.0204</ele>
        <time>2021-07-05T14:27:21</time>
      </trkpt>
      <trkpt lat="45.42641" lon="6.20405">
        <ele>1824.0204</ele>
        <time>2021-07-05T14:27:22</time>
      </trkpt>
      <trkpt lat="45.42638" lon="6.20406">
        <ele>1824.0204</ele>
        <time>2021-07-05T14:27:25</time>
      </trkpt>
      <trkpt lat="45.42638" lon="6.20406">
        <ele>1824.0204</ele>
        <time>2021-07-05T14:27:26</time>
      </trkpt>
      <trkpt lat="45.42634" lon="6.20409">
        <ele>1824.5204</ele>
        <time>2021-07-05T14:27:32</time>
      </trkpt>
      <trkpt lat="45.42634" lon="6.20409">
        <ele>1824.5204</ele>
        <time>2021-07-05T14:27:33</time>
      </trkpt>
      <trkpt lat="45.42633" lon="6.2041">
        <ele>1824.5204</ele>
        <time>2021-07-05T14:27:35</time>
      </trkpt>
      <trkpt lat="45.42631" lon="6.20412">
        <ele>1824.5204</ele>
        <time>2021-07-05T14:27:38</time>
      </trkpt>
      <trkpt lat="45.4263" lon="6.20414">
        <ele>1826.1205</ele>
        <time>2021-07-05T14:27:41</time>
      </trkpt>
      <trkpt lat="45.4263" lon="6.20414">
        <ele>1826.1205</ele>
        <time>2021-07-05T14:27:43</time>
      </trkpt>
      <trkpt lat="45.42629" lon="6.20416">
        <ele>1826.1205</ele>
        <time>2021-07-05T14:27:46</time>
      </trkpt>
      <trkpt lat="45.42628" lon="6.20416">
        <ele>1826.1205</ele>
        <time>2021-07-05T14:27:47</time>
      </trkpt>
      <trkpt lat="45.42625" lon="6.20418">
        <ele>1825.9204</ele>
        <time>2021-07-05T14:27:52</time>
      </trkpt>
      <trkpt lat="45.42623" lon="6.20418">
        <ele>1825.9204</ele>
        <time>2021-07-05T14:27:54</time>
      </trkpt>
      <trkpt lat="45.42622" lon="6.20419">
        <ele>1825.9204</ele>
        <time>2021-07-05T14:27:56</time>
      </trkpt>
      <trkpt lat="45.42621" lon="6.2042">
        <ele>1829.3204</ele>
        <time>2021-07-05T14:28:00</time>
      </trkpt>
      <trkpt lat="45.4262" lon="6.2042">
        <ele>1829.3204</ele>
        <time>2021-07-05T14:28:01</time>
      </trkpt>
      <trkpt lat="45.42618" lon="6.20423">
        <ele>1829.3204</ele>
        <time>2021-07-05T14:28:05</time>
      </trkpt>
      <trkpt lat="45.42617" lon="6.20423">
        <ele>1829.3204</ele>
        <time>2021-07-05T14:28:07</time>
      </trkpt>
      <trkpt lat="45.42615" lon="6.20424">
        <ele>1831.9204</ele>
        <time>2021-07-05T14:28:10</time>
      </trkpt>
      <trkpt lat="45.42614" lon="6.20424">
        <ele>1831.9204</ele>
        <time>2021-07-05T14:28:11</time>
      </trkpt>
      <trkpt lat="45.42608" lon="6.20421">
        <ele>1832.6205</ele>
        <time>2021-07-05T14:28:20</time>
      </trkpt>
      <trkpt lat="45.42608" lon="6.20422">
        <ele>1832.6205</ele>
        <time>2021-07-05T14:28:21</time>
      </trkpt>
      <trkpt lat="45.42607" lon="6.20422">
        <ele>1832.6205</ele>
        <time>2021-07-05T14:28:22</time>
      </trkpt>
      <trkpt lat="45.42606" lon="6.20422">
        <ele>1832.6205</ele>
        <time>2021-07-05T14:28:23</time>
      </trkpt>
      <trkpt lat="45.42603" lon="6.20423">
        <ele>1832.4204</ele>
        <time>2021-07-05T14:28:29</time>
      </trkpt>
      <trkpt lat="45.42602" lon="6.20423">
        <ele>1832.4204</ele>
        <time>2021-07-05T14:28:31</time>
      </trkpt>
      <trkpt lat="45.42601" lon="6.20423">
        <ele>1832.4204</ele>
        <time>2021-07-05T14:28:34</time>
      </trkpt>
      <trkpt lat="45.42596" lon="6.20424">
        <ele>1834.3204</ele>
        <time>2021-07-05T14:28:39</time>
      </trkpt>
      <trkpt lat="45.42596" lon="6.20424">
        <ele>1834.3204</ele>
        <time>2021-07-05T14:28:40</time>
      </trkpt>
      <trkpt lat="45.42595" lon="6.20425">
        <ele>1834.3204</ele>
        <time>2021-07-05T14:28:41</time>
      </trkpt>
      <trkpt lat="45.42591" lon="6.20425">
        <ele>1834.3204</ele>
        <time>2021-07-05T14:28:47</time>
      </trkpt>
      <trkpt lat="45.42588" lon="6.20425">
        <ele>1834.5204</ele>
        <time>2021-07-05T14:28:52</time>
      </trkpt>
      <trkpt lat="45.42586" lon="6.20425">
        <ele>1834.5204</ele>
        <time>2021-07-05T14:28:55</time>
      </trkpt>
      <trkpt lat="45.42586" lon="6.20424">
        <ele>1834.5204</ele>
        <time>2021-07-05T14:28:58</time>
      </trkpt>
      <trkpt lat="45.42582" lon="6.20426">
        <ele>1836.9204</ele>
        <time>2021-07-05T14:29:05</time>
      </trkpt>
      <trkpt lat="45.42581" lon="6.2043">
        <ele>1836.9204</ele>
        <time>2021-07-05T14:29:08</time>
      </trkpt>
      <trkpt lat="45.42581" lon="6.20434">
        <ele>1836.5204</ele>
        <time>2021-07-05T14:29:12</time>
      </trkpt>
      <trkpt lat="45.4258" lon="6.20438">
        <ele>1836.5204</ele>
        <time>2021-07-05T14:29:15</time>
      </trkpt>
      <trkpt lat="45.42577" lon="6.20446">
        <ele>1836.4204</ele>
        <time>2021-07-05T14:29:25</time>
      </trkpt>
      <trkpt lat="45.42577" lon="6.20447">
        <ele>1836.4204</ele>
        <time>2021-07-05T14:29:26</time>
      </trkpt>
      <trkpt lat="45.42577" lon="6.20449">
        <ele>1836.5204</ele>
        <time>2021-07-05T14:29:30</time>
      </trkpt>
      <trkpt lat="45.42578" lon="6.20451">
        <ele>1836.5204</ele>
        <time>2021-07-05T14:29:34</time>
      </trkpt>
      <trkpt lat="45.42577" lon="6.20452">
        <ele>1836.5204</ele>
        <time>2021-07-05T14:29:37</time>
      </trkpt>
      <trkpt lat="45.4258" lon="6.20458">
        <ele>1841.0204</ele>
        <time>2021-07-05T14:29:45</time>
      </trkpt>
      <trkpt lat="45.42581" lon="6.2046">
        <ele>1841.0204</ele>
        <time>2021-07-05T14:29:47</time>
      </trkpt>
      <trkpt lat="45.42581" lon="6.20463">
        <ele>1843.3204</ele>
        <time>2021-07-05T14:29:53</time>
      </trkpt>
      <trkpt lat="45.42581" lon="6.20463">
        <ele>1843.3204</ele>
        <time>2021-07-05T14:29:55</time>
      </trkpt>
      <trkpt lat="45.42581" lon="6.20464">
        <ele>1843.3204</ele>
        <time>2021-07-05T14:29:56</time>
      </trkpt>
      <trkpt lat="45.42581" lon="6.20465">
        <ele>1842.3204</ele>
        <time>2021-07-05T14:30:00</time>
      </trkpt>
      <trkpt lat="45.42581" lon="6.2047">
        <ele>1842.3204</ele>
        <time>2021-07-05T14:30:06</time>
      </trkpt>
      <trkpt lat="45.42586" lon="6.20483">
        <ele>1842.8204</ele>
        <time>2021-07-05T14:30:22</time>
      </trkpt>
      <trkpt lat="45.42587" lon="6.20487">
        <ele>1842.8204</ele>
        <time>2021-07-05T14:30:26</time>
      </trkpt>
      <trkpt lat="45.4259" lon="6.20498">
        <ele>1842.6205</ele>
        <time>2021-07-05T14:30:35</time>
      </trkpt>
      <trkpt lat="45.42592" lon="6.20501">
        <ele>1842.6205</ele>
        <time>2021-07-05T14:30:38</time>
      </trkpt>
      <trkpt lat="45.42597" lon="6.20517">
        <ele>1842.6205</ele>
        <time>2021-07-05T14:30:56</time>
      </trkpt>
      <trkpt lat="45.42597" lon="6.20518">
        <ele>1842.6205</ele>
        <time>2021-07-05T14:30:57</time>
      </trkpt>
      <trkpt lat="45.42598" lon="6.2052">
        <ele>1842.6205</ele>
        <time>2021-07-05T14:30:58</time>
      </trkpt>
      <trkpt lat="45.42601" lon="6.20527">
        <ele>1842.6205</ele>
        <time>2021-07-05T14:31:06</time>
      </trkpt>
      <trkpt lat="45.42602" lon="6.20535">
        <ele>1842.6205</ele>
        <time>2021-07-05T14:31:11</time>
      </trkpt>
      <trkpt lat="45.42603" lon="6.2054">
        <ele>1842.6205</ele>
        <time>2021-07-05T14:31:15</time>
      </trkpt>
      <trkpt lat="45.42603" lon="6.20549">
        <ele>1842.6205</ele>
        <time>2021-07-05T14:31:22</time>
      </trkpt>
      <trkpt lat="45.42604" lon="6.20554">
        <ele>1842.6205</ele>
        <time>2021-07-05T14:31:27</time>
      </trkpt>
      <trkpt lat="45.42605" lon="6.20554">
        <ele>1835.1205</ele>
        <time>2021-07-05T14:31:36</time>
      </trkpt>
      <trkpt lat="45.42609" lon="6.20562">
        <ele>1833.0204</ele>
        <time>2021-07-05T14:31:47</time>
      </trkpt>
      <trkpt lat="45.4261" lon="6.20568">
        <ele>1832.1205</ele>
        <time>2021-07-05T14:31:54</time>
      </trkpt>
      <trkpt lat="45.4261" lon="6.20571">
        <ele>1832.1205</ele>
        <time>2021-07-05T14:31:56</time>
      </trkpt>
      <trkpt lat="45.42609" lon="6.20577">
        <ele>1835.2205</ele>
        <time>2021-07-05T14:32:03</time>
      </trkpt>
      <trkpt lat="45.4261" lon="6.2059">
        <ele>1835.7205</ele>
        <time>2021-07-05T14:32:14</time>
      </trkpt>
      <trkpt lat="45.42611" lon="6.20594">
        <ele>1835.7205</ele>
        <time>2021-07-05T14:32:17</time>
      </trkpt>
      <trkpt lat="45.42611" lon="6.20596">
        <ele>1839.5204</ele>
        <time>2021-07-05T14:32:19</time>
      </trkpt>
      <trkpt lat="45.42612" lon="6.20599">
        <ele>1839.5204</ele>
        <time>2021-07-05T14:32:23</time>
      </trkpt>
      <trkpt lat="45.42613" lon="6.20601">
        <ele>1839.5204</ele>
        <time>2021-07-05T14:32:25</time>
      </trkpt>
      <trkpt lat="45.42613" lon="6.20603">
        <ele>1839.5204</ele>
        <time>2021-07-05T14:32:27</time>
      </trkpt>
      <trkpt lat="45.42612" lon="6.20615">
        <ele>1839.8204</ele>
        <time>2021-07-05T14:32:36</time>
      </trkpt>
      <trkpt lat="45.42612" lon="6.20618">
        <ele>1839.8204</ele>
        <time>2021-07-05T14:32:38</time>
      </trkpt>
      <trkpt lat="45.42613" lon="6.20626">
        <ele>1839.2205</ele>
        <time>2021-07-05T14:32:44</time>
      </trkpt>
      <trkpt lat="45.42614" lon="6.20628">
        <ele>1839.2205</ele>
        <time>2021-07-05T14:32:46</time>
      </trkpt>
      <trkpt lat="45.42616" lon="6.20633">
        <ele>1838.4204</ele>
        <time>2021-07-05T14:32:50</time>
      </trkpt>
      <trkpt lat="45.42616" lon="6.20633">
        <ele>1838.4204</ele>
        <time>2021-07-05T14:32:52</time>
      </trkpt>
      <trkpt lat="45.42615" lon="6.20633">
        <ele>1838.4204</ele>
        <time>2021-07-05T14:33:05</time>
      </trkpt>
      <trkpt lat="45.42611" lon="6.20633">
        <ele>1835.9204</ele>
        <time>2021-07-05T14:33:12</time>
      </trkpt>
      <trkpt lat="45.4261" lon="6.20632">
        <ele>1835.9204</ele>
        <time>2021-07-05T14:33:13</time>
      </trkpt>
      <trkpt lat="45.42608" lon="6.20629">
        <ele>1835.9204</ele>
        <time>2021-07-05T14:33:18</time>
      </trkpt>
      <trkpt lat="45.42604" lon="6.20623">
        <ele>1836.9204</ele>
        <time>2021-07-05T14:33:28</time>
      </trkpt>
      <trkpt lat="45.42605" lon="6.20623">
        <ele>1837.1205</ele>
        <time>2021-07-05T14:33:30</time>
      </trkpt>
      <trkpt lat="45.42605" lon="6.20623">
        <ele>1837.1205</ele>
        <time>2021-07-05T14:33:31</time>
      </trkpt>
      <trkpt lat="45.42604" lon="6.20623">
        <ele>1837.1205</ele>
        <time>2021-07-05T14:33:34</time>
      </trkpt>
      <trkpt lat="45.426" lon="6.20619">
        <ele>1834.7205</ele>
        <time>2021-07-05T14:33:40</time>
      </trkpt>
      <trkpt lat="45.42596" lon="6.20615">
        <ele>1834.7205</ele>
        <time>2021-07-05T14:33:47</time>
      </trkpt>
      <trkpt lat="45.42596" lon="6.20613">
        <ele>1833.0204</ele>
        <time>2021-07-05T14:33:50</time>
      </trkpt>
      <trkpt lat="45.42594" lon="6.20606">
        <ele>1833.0204</ele>
        <time>2021-07-05T14:33:58</time>
      </trkpt>
      <trkpt lat="45.42594" lon="6.20603">
        <ele>1831.0204</ele>
        <time>2021-07-05T14:34:01</time>
      </trkpt>
      <trkpt lat="45.42594" lon="6.20602">
        <ele>1831.0204</ele>
        <time>2021-07-05T14:34:02</time>
      </trkpt>
      <trkpt lat="45.42594" lon="6.20602">
        <ele>1831.0204</ele>
        <time>2021-07-05T14:34:03</time>
      </trkpt>
      <trkpt lat="45.42592" lon="6.20599">
        <ele>1831.0204</ele>
        <time>2021-07-05T14:34:07</time>
      </trkpt>
      <trkpt lat="45.4259" lon="6.20596">
        <ele>1827.7205</ele>
        <time>2021-07-05T14:34:12</time>
      </trkpt>
      <trkpt lat="45.42589" lon="6.20595">
        <ele>1827.7205</ele>
        <time>2021-07-05T14:34:13</time>
      </trkpt>
      <trkpt lat="45.42589" lon="6.20595">
        <ele>1827.7205</ele>
        <time>2021-07-05T14:34:14</time>
      </trkpt>
      <trkpt lat="45.42585" lon="6.20584">
        <ele>1826.4204</ele>
        <time>2021-07-05T14:34:30</time>
      </trkpt>
      <trkpt lat="45.42583" lon="6.20584">
        <ele>1822.8204</ele>
        <time>2021-07-05T14:34:42</time>
      </trkpt>
      <trkpt lat="45.42582" lon="6.20582">
        <ele>1822.8204</ele>
        <time>2021-07-05T14:34:43</time>
      </trkpt>
      <trkpt lat="45.42582" lon="6.20581">
        <ele>1822.8204</ele>
        <time>2021-07-05T14:34:44</time>
      </trkpt>
      <trkpt lat="45.42581" lon="6.20581">
        <ele>1822.8204</ele>
        <time>2021-07-05T14:34:45</time>
      </trkpt>
      <trkpt lat="45.4258" lon="6.2058">
        <ele>1822.8204</ele>
        <time>2021-07-05T14:34:47</time>
      </trkpt>
      <trkpt lat="45.4258" lon="6.20578">
        <ele>1822.4204</ele>
        <time>2021-07-05T14:34:49</time>
      </trkpt>
      <trkpt lat="45.42574" lon="6.20569">
        <ele>1824.5204</ele>
        <time>2021-07-05T14:35:03</time>
      </trkpt>
      <trkpt lat="45.42574" lon="6.20568">
        <ele>1824.5204</ele>
        <time>2021-07-05T14:35:04</time>
      </trkpt>
      <trkpt lat="45.42573" lon="6.20567">
        <ele>1824.5204</ele>
        <time>2021-07-05T14:35:05</time>
      </trkpt>
      <trkpt lat="45.42572" lon="6.20567">
        <ele>1824.5204</ele>
        <time>2021-07-05T14:35:06</time>
      </trkpt>
      <trkpt lat="45.42572" lon="6.20567">
        <ele>1824.5204</ele>
        <time>2021-07-05T14:35:07</time>
      </trkpt>
      <trkpt lat="45.42571" lon="6.20566">
        <ele>1824.5204</ele>
        <time>2021-07-05T14:35:08</time>
      </trkpt>
      <trkpt lat="45.42571" lon="6.20564">
        <ele>1817.2871</ele>
        <time>2021-07-05T14:35:09</time>
      </trkpt>
      <trkpt lat="45.4257" lon="6.20563">
        <ele>1817.2871</ele>
        <time>2021-07-05T14:35:10</time>
      </trkpt>
      <trkpt lat="45.42563" lon="6.20556">
        <ele>1815.8204</ele>
        <time>2021-07-05T14:35:21</time>
      </trkpt>
      <trkpt lat="45.4256" lon="6.20555">
        <ele>1815.8204</ele>
        <time>2021-07-05T14:35:23</time>
      </trkpt>
      <trkpt lat="45.42559" lon="6.20555">
        <ele>1815.8204</ele>
        <time>2021-07-05T14:35:24</time>
      </trkpt>
      <trkpt lat="45.42558" lon="6.20553">
        <ele>1815.8204</ele>
        <time>2021-07-05T14:35:26</time>
      </trkpt>
      <trkpt lat="45.42549" lon="6.20543">
        <ele>1813.5204</ele>
        <time>2021-07-05T14:35:40</time>
      </trkpt>
      <trkpt lat="45.42547" lon="6.2054">
        <ele>1813.5204</ele>
        <time>2021-07-05T14:35:44</time>
      </trkpt>
      <trkpt lat="45.42547" lon="6.2054">
        <ele>1813.5204</ele>
        <time>2021-07-05T14:35:45</time>
      </trkpt>
      <trkpt lat="45.42543" lon="6.20536">
        <ele>1810.0204</ele>
        <time>2021-07-05T14:35:50</time>
      </trkpt>
      <trkpt lat="45.42543" lon="6.20534">
        <ele>1810.0204</ele>
        <time>2021-07-05T14:35:52</time>
      </trkpt>
      <trkpt lat="45.42542" lon="6.20533">
        <ele>1810.0204</ele>
        <time>2021-07-05T14:35:53</time>
      </trkpt>
      <trkpt lat="45.42541" lon="6.20532">
        <ele>1810.0204</ele>
        <time>2021-07-05T14:35:54</time>
      </trkpt>
      <trkpt lat="45.4254" lon="6.20528">
        <ele>1810.0204</ele>
        <time>2021-07-05T14:35:58</time>
      </trkpt>
      <trkpt lat="45.4254" lon="6.20526">
        <ele>1806.2205</ele>
        <time>2021-07-05T14:35:59</time>
      </trkpt>
      <trkpt lat="45.42542" lon="6.20519">
        <ele>1802.6205</ele>
        <time>2021-07-05T14:36:41</time>
      </trkpt>
      <trkpt lat="45.42543" lon="6.20519">
        <ele>1802.6205</ele>
        <time>2021-07-05T14:37:11</time>
      </trkpt>
      <trkpt lat="45.42543" lon="6.20518">
        <ele>1802.6205</ele>
        <time>2021-07-05T14:38:42</time>
      </trkpt>
      <trkpt lat="45.42542" lon="6.20519">
        <ele>1802.6205</ele>
        <time>2021-07-05T14:38:54</time>
      </trkpt>
      <trkpt lat="45.42541" lon="6.2052">
        <ele>1802.6205</ele>
        <time>2021-07-05T14:38:56</time>
      </trkpt>
      <trkpt lat="45.4254" lon="6.20519">
        <ele>1802.6205</ele>
        <time>2021-07-05T14:38:57</time>
      </trkpt>
      <trkpt lat="45.4254" lon="6.20519">
        <ele>1804.9204</ele>
        <time>2021-07-05T14:39:22</time>
      </trkpt>
      <trkpt lat="45.4254" lon="6.20518">
        <ele>1804.9204</ele>
        <time>2021-07-05T14:39:23</time>
      </trkpt>
      <trkpt lat="45.42539" lon="6.20516">
        <ele>1804.9204</ele>
        <time>2021-07-05T14:39:25</time>
      </trkpt>
      <trkpt lat="45.42538" lon="6.20515">
        <ele>1804.9204</ele>
        <time>2021-07-05T14:39:26</time>
      </trkpt>
      <trkpt lat="45.42535" lon="6.20506">
        <ele>1807.2205</ele>
        <time>2021-07-05T14:39:34</time>
      </trkpt>
      <trkpt lat="45.42534" lon="6.20505">
        <ele>1807.2205</ele>
        <time>2021-07-05T14:39:35</time>
      </trkpt>
      <trkpt lat="45.4253" lon="6.20499">
        <ele>1804.5204</ele>
        <time>2021-07-05T14:39:42</time>
      </trkpt>
      <trkpt lat="45.42529" lon="6.20498">
        <ele>1804.5204</ele>
        <time>2021-07-05T14:39:43</time>
      </trkpt>
      <trkpt lat="45.42528" lon="6.20498">
        <ele>1804.5204</ele>
        <time>2021-07-05T14:39:44</time>
      </trkpt>
      <trkpt lat="45.42528" lon="6.20498">
        <ele>1804.5204</ele>
        <time>2021-07-05T14:39:46</time>
      </trkpt>
      <trkpt lat="45.42528" lon="6.20498">
        <ele>1804.5204</ele>
        <time>2021-07-05T14:39:49</time>
      </trkpt>
      <trkpt lat="45.42524" lon="6.20495">
        <ele>1805.4204</ele>
        <time>2021-07-05T14:39:56</time>
      </trkpt>
      <trkpt lat="45.42516" lon="6.20486">
        <ele>1804.9204</ele>
        <time>2021-07-05T14:40:13</time>
      </trkpt>
      <trkpt lat="45.42516" lon="6.20482">
        <ele>1804.9204</ele>
        <time>2021-07-05T14:40:15</time>
      </trkpt>
      <trkpt lat="45.42515" lon="6.20476">
        <ele>1804.9204</ele>
        <time>2021-07-05T14:40:18</time>
      </trkpt>
      <trkpt lat="45.42514" lon="6.20473">
        <ele>1802.8204</ele>
        <time>2021-07-05T14:40:21</time>
      </trkpt>
      <trkpt lat="45.42513" lon="6.20471">
        <ele>1802.8204</ele>
        <time>2021-07-05T14:40:23</time>
      </trkpt>
      <trkpt lat="45.42512" lon="6.20471">
        <ele>1802.8204</ele>
        <time>2021-07-05T14:40:24</time>
      </trkpt>
      <trkpt lat="45.42511" lon="6.20469">
        <ele>1802.8204</ele>
        <time>2021-07-05T14:40:26</time>
      </trkpt>
      <trkpt lat="45.42511" lon="6.20468">
        <ele>1802.8204</ele>
        <time>2021-07-05T14:40:27</time>
      </trkpt>
      <trkpt lat="45.4251" lon="6.20462">
        <ele>1801.2205</ele>
        <time>2021-07-05T14:40:32</time>
      </trkpt>
      <trkpt lat="45.42509" lon="6.20461">
        <ele>1801.2205</ele>
        <time>2021-07-05T14:40:33</time>
      </trkpt>
      <trkpt lat="45.42508" lon="6.20458">
        <ele>1801.2205</ele>
        <time>2021-07-05T14:40:37</time>
      </trkpt>
      <trkpt lat="45.42501" lon="6.20447">
        <ele>1799.3204</ele>
        <time>2021-07-05T14:40:52</time>
      </trkpt>
      <trkpt lat="45.42502" lon="6.20447">
        <ele>1799.3204</ele>
        <time>2021-07-05T14:40:53</time>
      </trkpt>
      <trkpt lat="45.42498" lon="6.20439">
        <ele>1798.5204</ele>
        <time>2021-07-05T14:41:00</time>
      </trkpt>
      <trkpt lat="45.42498" lon="6.20437">
        <ele>1798.5204</ele>
        <time>2021-07-05T14:41:01</time>
      </trkpt>
      <trkpt lat="45.42498" lon="6.20436">
        <ele>1798.5204</ele>
        <time>2021-07-05T14:41:02</time>
      </trkpt>
      <trkpt lat="45.42498" lon="6.20435">
        <ele>1798.5204</ele>
        <time>2021-07-05T14:41:03</time>
      </trkpt>
      <trkpt lat="45.42498" lon="6.20433">
        <ele>1798.5204</ele>
        <time>2021-07-05T14:41:04</time>
      </trkpt>
      <trkpt lat="45.42498" lon="6.20432">
        <ele>1798.5204</ele>
        <time>2021-07-05T14:41:05</time>
      </trkpt>
      <trkpt lat="45.42499" lon="6.2043">
        <ele>1798.5204</ele>
        <time>2021-07-05T14:41:06</time>
      </trkpt>
      <trkpt lat="45.42499" lon="6.20429">
        <ele>1798.5204</ele>
        <time>2021-07-05T14:41:07</time>
      </trkpt>
      <trkpt lat="45.425" lon="6.20426">
        <ele>1798.5204</ele>
        <time>2021-07-05T14:41:09</time>
      </trkpt>
      <trkpt lat="45.42501" lon="6.20425">
        <ele>1799.4204</ele>
        <time>2021-07-05T14:41:11</time>
      </trkpt>
      <trkpt lat="45.42501" lon="6.20424">
        <ele>1799.4204</ele>
        <time>2021-07-05T14:41:12</time>
      </trkpt>
      <trkpt lat="45.42501" lon="6.2042">
        <ele>1799.4204</ele>
        <time>2021-07-05T14:41:15</time>
      </trkpt>
      <trkpt lat="45.425" lon="6.20421">
        <ele>1799.4204</ele>
        <time>2021-07-05T14:41:17</time>
      </trkpt>
      <trkpt lat="45.42501" lon="6.20422">
        <ele>1794.2538</ele>
        <time>2021-07-05T14:41:23</time>
      </trkpt>
      <trkpt lat="45.42501" lon="6.20422">
        <ele>1794.2538</ele>
        <time>2021-07-05T14:41:24</time>
      </trkpt>
      <trkpt lat="45.42504" lon="6.20419">
        <ele>1794.2205</ele>
        <time>2021-07-05T14:41:36</time>
      </trkpt>
      <trkpt lat="45.42504" lon="6.20419">
        <ele>1794.2205</ele>
        <time>2021-07-05T14:41:37</time>
      </trkpt>
      <trkpt lat="45.42504" lon="6.20418">
        <ele>1791.7205</ele>
        <time>2021-07-05T14:41:40</time>
      </trkpt>
      <trkpt lat="45.42503" lon="6.20418">
        <ele>1791.7205</ele>
        <time>2021-07-05T14:41:41</time>
      </trkpt>
      <trkpt lat="45.42503" lon="6.20419">
        <ele>1791.7205</ele>
        <time>2021-07-05T14:41:45</time>
      </trkpt>
      <trkpt lat="45.42502" lon="6.20418">
        <ele>1791.7205</ele>
        <time>2021-07-05T14:41:47</time>
      </trkpt>
      <trkpt lat="45.42501" lon="6.20418">
        <ele>1794.5204</ele>
        <time>2021-07-05T14:41:52</time>
      </trkpt>
      <trkpt lat="45.42501" lon="6.20416">
        <ele>1794.5204</ele>
        <time>2021-07-05T14:41:56</time>
      </trkpt>
      <trkpt lat="45.425" lon="6.20414">
        <ele>1795.1205</ele>
        <time>2021-07-05T14:42:02</time>
      </trkpt>
      <trkpt lat="45.425" lon="6.20412">
        <ele>1795.1205</ele>
        <time>2021-07-05T14:42:06</time>
      </trkpt>
      <trkpt lat="45.425" lon="6.20411">
        <ele>1795.1205</ele>
        <time>2021-07-05T14:42:07</time>
      </trkpt>
      <trkpt lat="45.42501" lon="6.20409">
        <ele>1795.1205</ele>
        <time>2021-07-05T14:42:08</time>
      </trkpt>
      <trkpt lat="45.42501" lon="6.20407">
        <ele>1793.9204</ele>
        <time>2021-07-05T14:42:15</time>
      </trkpt>
      <trkpt lat="45.42502" lon="6.20406">
        <ele>1793.9204</ele>
        <time>2021-07-05T14:42:16</time>
      </trkpt>
      <trkpt lat="45.42503" lon="6.20405">
        <ele>1786.6205</ele>
        <time>2021-07-05T14:42:21</time>
      </trkpt>
      <trkpt lat="45.42501" lon="6.20405">
        <ele>1786.6205</ele>
        <time>2021-07-05T14:42:23</time>
      </trkpt>
      <trkpt lat="45.425" lon="6.20404">
        <ele>1786.6205</ele>
        <time>2021-07-05T14:42:24</time>
      </trkpt>
      <trkpt lat="45.42499" lon="6.20403">
        <ele>1786.6205</ele>
        <time>2021-07-05T14:42:25</time>
      </trkpt>
      <trkpt lat="45.42499" lon="6.20402">
        <ele>1786.6205</ele>
        <time>2021-07-05T14:42:27</time>
      </trkpt>
      <trkpt lat="45.42499" lon="6.204">
        <ele>1786.6205</ele>
        <time>2021-07-05T14:42:28</time>
      </trkpt>
      <trkpt lat="45.42499" lon="6.20399">
        <ele>1786.6205</ele>
        <time>2021-07-05T14:42:29</time>
      </trkpt>
      <trkpt lat="45.42499" lon="6.20397">
        <ele>1783.3204</ele>
        <time>2021-07-05T14:42:32</time>
      </trkpt>
      <trkpt lat="45.42499" lon="6.20396">
        <ele>1783.3204</ele>
        <time>2021-07-05T14:42:33</time>
      </trkpt>
      <trkpt lat="45.42499" lon="6.20395">
        <ele>1783.3204</ele>
        <time>2021-07-05T14:42:34</time>
      </trkpt>
      <trkpt lat="45.42499" lon="6.20395">
        <ele>1783.3204</ele>
        <time>2021-07-05T14:42:35</time>
      </trkpt>
      <trkpt lat="45.42499" lon="6.20394">
        <ele>1783.3204</ele>
        <time>2021-07-05T14:42:39</time>
      </trkpt>
      <trkpt lat="45.42499" lon="6.20393">
        <ele>1782.2205</ele>
        <time>2021-07-05T14:42:40</time>
      </trkpt>
      <trkpt lat="45.42499" lon="6.20393">
        <ele>1782.2205</ele>
        <time>2021-07-05T14:42:43</time>
      </trkpt>
      <trkpt lat="45.42499" lon="6.20392">
        <ele>1782.2205</ele>
        <time>2021-07-05T14:42:44</time>
      </trkpt>
      <trkpt lat="45.42499" lon="6.20392">
        <ele>1782.2205</ele>
        <time>2021-07-05T14:42:45</time>
      </trkpt>
      <trkpt lat="45.42499" lon="6.20391">
        <ele>1782.2205</ele>
        <time>2021-07-05T14:42:46</time>
      </trkpt>
      <trkpt lat="45.42499" lon="6.20391">
        <ele>1780.4204</ele>
        <time>2021-07-05T14:42:50</time>
      </trkpt>
      <trkpt lat="45.42499" lon="6.20391">
        <ele>1780.4204</ele>
        <time>2021-07-05T14:42:51</time>
      </trkpt>
      <trkpt lat="45.42499" lon="6.20391">
        <ele>1780.4204</ele>
        <time>2021-07-05T14:42:52</time>
      </trkpt>
      <trkpt lat="45.42498" lon="6.2039">
        <ele>1780.4204</ele>
        <time>2021-07-05T14:42:54</time>
      </trkpt>
      <trkpt lat="45.42498" lon="6.2039">
        <ele>1780.4204</ele>
        <time>2021-07-05T14:42:55</time>
      </trkpt>
      <trkpt lat="45.42497" lon="6.20387">
        <ele>1774.5204</ele>
        <time>2021-07-05T14:43:02</time>
      </trkpt>
      <trkpt lat="45.42497" lon="6.20386">
        <ele>1774.5204</ele>
        <time>2021-07-05T14:43:05</time>
      </trkpt>
      <trkpt lat="45.42496" lon="6.20383">
        <ele>1774.5204</ele>
        <time>2021-07-05T14:43:07</time>
      </trkpt>
      <trkpt lat="45.42496" lon="6.20381">
        <ele>1774.5204</ele>
        <time>2021-07-05T14:43:10</time>
      </trkpt>
      <trkpt lat="45.42496" lon="6.2038">
        <ele>1774.5204</ele>
        <time>2021-07-05T14:43:11</time>
      </trkpt>
      <trkpt lat="45.42495" lon="6.20377">
        <ele>1774.8204</ele>
        <time>2021-07-05T14:43:14</time>
      </trkpt>
      <trkpt lat="45.42495" lon="6.20376">
        <ele>1774.8204</ele>
        <time>2021-07-05T14:43:15</time>
      </trkpt>
      <trkpt lat="45.42496" lon="6.20376">
        <ele>1774.8204</ele>
        <time>2021-07-05T14:43:17</time>
      </trkpt>
      <trkpt lat="45.42495" lon="6.20376">
        <ele>1774.8204</ele>
        <time>2021-07-05T14:43:19</time>
      </trkpt>
      <trkpt lat="45.42494" lon="6.20372">
        <ele>1769.4204</ele>
        <time>2021-07-05T14:43:24</time>
      </trkpt>
      <trkpt lat="45.42494" lon="6.20372">
        <ele>1769.4204</ele>
        <time>2021-07-05T14:43:26</time>
      </trkpt>
      <trkpt lat="45.42493" lon="6.20371">
        <ele>1769.4204</ele>
        <time>2021-07-05T14:43:28</time>
      </trkpt>
      <trkpt lat="45.42493" lon="6.2037">
        <ele>1769.4204</ele>
        <time>2021-07-05T14:43:29</time>
      </trkpt>
      <trkpt lat="45.42493" lon="6.20369">
        <ele>1769.4204</ele>
        <time>2021-07-05T14:43:30</time>
      </trkpt>
      <trkpt lat="45.42493" lon="6.20368">
        <ele>1769.4204</ele>
        <time>2021-07-05T14:43:31</time>
      </trkpt>
      <trkpt lat="45.42493" lon="6.20368">
        <ele>1769.4204</ele>
        <time>2021-07-05T14:43:32</time>
      </trkpt>
      <trkpt lat="45.42492" lon="6.20367">
        <ele>1767.7205</ele>
        <time>2021-07-05T14:43:35</time>
      </trkpt>
      <trkpt lat="45.42491" lon="6.20366">
        <ele>1767.7205</ele>
        <time>2021-07-05T14:43:42</time>
      </trkpt>
      <trkpt lat="45.42491" lon="6.20363">
        <ele>1767.8204</ele>
        <time>2021-07-05T14:43:44</time>
      </trkpt>
      <trkpt lat="45.42491" lon="6.20362">
        <ele>1767.8204</ele>
        <time>2021-07-05T14:43:45</time>
      </trkpt>
      <trkpt lat="45.42491" lon="6.20362">
        <ele>1767.8204</ele>
        <time>2021-07-05T14:43:46</time>
      </trkpt>
      <trkpt lat="45.42491" lon="6.2036">
        <ele>1767.8204</ele>
        <time>2021-07-05T14:43:49</time>
      </trkpt>
      <trkpt lat="45.42491" lon="6.20359">
        <ele>1767.8204</ele>
        <time>2021-07-05T14:43:50</time>
      </trkpt>
      <trkpt lat="45.4249" lon="6.20359">
        <ele>1771.7205</ele>
        <time>2021-07-05T14:43:53</time>
      </trkpt>
      <trkpt lat="45.42487" lon="6.20355">
        <ele>1771.7205</ele>
        <time>2021-07-05T14:43:59</time>
      </trkpt>
      <trkpt lat="45.42487" lon="6.20354">
        <ele>1771.7205</ele>
        <time>2021-07-05T14:44:00</time>
      </trkpt>
      <trkpt lat="45.42487" lon="6.20353">
        <ele>1771.7205</ele>
        <time>2021-07-05T14:44:01</time>
      </trkpt>
      <trkpt lat="45.42486" lon="6.20351">
        <ele>1769.6205</ele>
        <time>2021-07-05T14:44:03</time>
      </trkpt>
      <trkpt lat="45.42485" lon="6.2035">
        <ele>1769.6205</ele>
        <time>2021-07-05T14:44:06</time>
      </trkpt>
      <trkpt lat="45.42484" lon="6.2035">
        <ele>1769.6205</ele>
        <time>2021-07-05T14:44:09</time>
      </trkpt>
      <trkpt lat="45.42483" lon="6.20344">
        <ele>1763.6205</ele>
        <time>2021-07-05T14:44:14</time>
      </trkpt>
      <trkpt lat="45.42482" lon="6.2034">
        <ele>1763.6205</ele>
        <time>2021-07-05T14:44:17</time>
      </trkpt>
      <trkpt lat="45.42482" lon="6.2034">
        <ele>1763.6205</ele>
        <time>2021-07-05T14:44:18</time>
      </trkpt>
      <trkpt lat="45.42482" lon="6.20338">
        <ele>1763.6205</ele>
        <time>2021-07-05T14:44:19</time>
      </trkpt>
      <trkpt lat="45.42481" lon="6.20334">
        <ele>1767.5204</ele>
        <time>2021-07-05T14:44:28</time>
      </trkpt>
      <trkpt lat="45.4248" lon="6.20335">
        <ele>1767.5204</ele>
        <time>2021-07-05T14:44:29</time>
      </trkpt>
      <trkpt lat="45.42478" lon="6.20335">
        <ele>1769.1205</ele>
        <time>2021-07-05T14:44:34</time>
      </trkpt>
      <trkpt lat="45.42478" lon="6.20334">
        <ele>1769.1205</ele>
        <time>2021-07-05T14:44:38</time>
      </trkpt>
      <trkpt lat="45.42475" lon="6.20334">
        <ele>1769.1205</ele>
        <time>2021-07-05T14:44:42</time>
      </trkpt>
      <trkpt lat="45.42472" lon="6.20332">
        <ele>1754.7205</ele>
        <time>2021-07-05T14:44:49</time>
      </trkpt>
      <trkpt lat="45.42471" lon="6.20332">
        <ele>1754.7205</ele>
        <time>2021-07-05T14:44:51</time>
      </trkpt>
      <trkpt lat="45.42462" lon="6.20326">
        <ele>1755.4204</ele>
        <time>2021-07-05T14:45:07</time>
      </trkpt>
      <trkpt lat="45.42461" lon="6.20326">
        <ele>1755.4204</ele>
        <time>2021-07-05T14:45:08</time>
      </trkpt>
      <trkpt lat="45.42459" lon="6.20325">
        <ele>1755.4204</ele>
        <time>2021-07-05T14:45:10</time>
      </trkpt>
      <trkpt lat="45.42459" lon="6.20324">
        <ele>1755.4204</ele>
        <time>2021-07-05T14:45:11</time>
      </trkpt>
      <trkpt lat="45.42457" lon="6.20322">
        <ele>1755.2205</ele>
        <time>2021-07-05T14:45:15</time>
      </trkpt>
      <trkpt lat="45.42456" lon="6.20321">
        <ele>1755.2205</ele>
        <time>2021-07-05T14:45:16</time>
      </trkpt>
      <trkpt lat="45.42456" lon="6.20319">
        <ele>1755.2205</ele>
        <time>2021-07-05T14:45:17</time>
      </trkpt>
      <trkpt lat="45.42457" lon="6.20318">
        <ele>1755.2205</ele>
        <time>2021-07-05T14:45:18</time>
      </trkpt>
      <trkpt lat="45.42457" lon="6.20317">
        <ele>1755.2205</ele>
        <time>2021-07-05T14:45:19</time>
      </trkpt>
      <trkpt lat="45.42457" lon="6.20312">
        <ele>1751.5204</ele>
        <time>2021-07-05T14:45:24</time>
      </trkpt>
      <trkpt lat="45.42457" lon="6.20311">
        <ele>1751.5204</ele>
        <time>2021-07-05T14:45:26</time>
      </trkpt>
      <trkpt lat="45.42456" lon="6.20309">
        <ele>1751.5204</ele>
        <time>2021-07-05T14:45:28</time>
      </trkpt>
      <trkpt lat="45.42455" lon="6.20307">
        <ele>1751.5204</ele>
        <time>2021-07-05T14:45:29</time>
      </trkpt>
      <trkpt lat="45.42455" lon="6.20307">
        <ele>1751.5204</ele>
        <time>2021-07-05T14:45:30</time>
      </trkpt>
      <trkpt lat="45.42454" lon="6.20305">
        <ele>1751.5204</ele>
        <time>2021-07-05T14:45:32</time>
      </trkpt>
      <trkpt lat="45.42453" lon="6.20305">
        <ele>1752.5204</ele>
        <time>2021-07-05T14:45:33</time>
      </trkpt>
      <trkpt lat="45.42452" lon="6.20304">
        <ele>1752.5204</ele>
        <time>2021-07-05T14:45:37</time>
      </trkpt>
      <trkpt lat="45.42453" lon="6.20304">
        <ele>1752.5204</ele>
        <time>2021-07-05T14:45:41</time>
      </trkpt>
      <trkpt lat="45.42451" lon="6.20304">
        <ele>1754.8204</ele>
        <time>2021-07-05T14:45:46</time>
      </trkpt>
      <trkpt lat="45.42449" lon="6.20304">
        <ele>1746.9204</ele>
        <time>2021-07-05T14:45:53</time>
      </trkpt>
      <trkpt lat="45.42447" lon="6.20302">
        <ele>1746.9204</ele>
        <time>2021-07-05T14:45:56</time>
      </trkpt>
      <trkpt lat="45.42447" lon="6.20301">
        <ele>1746.9204</ele>
        <time>2021-07-05T14:45:58</time>
      </trkpt>
      <trkpt lat="45.42446" lon="6.20301">
        <ele>1746.9204</ele>
        <time>2021-07-05T14:45:59</time>
      </trkpt>
      <trkpt lat="45.42446" lon="6.20301">
        <ele>1746.9204</ele>
        <time>2021-07-05T14:46:00</time>
      </trkpt>
      <trkpt lat="45.42446" lon="6.20301">
        <ele>1746.9204</ele>
        <time>2021-07-05T14:46:01</time>
      </trkpt>
      <trkpt lat="45.42445" lon="6.20302">
        <ele>1746.9204</ele>
        <time>2021-07-05T14:46:02</time>
      </trkpt>
      <trkpt lat="45.42442" lon="6.20296">
        <ele>1745.3204</ele>
        <time>2021-07-05T14:46:10</time>
      </trkpt>
      <trkpt lat="45.42442" lon="6.20295">
        <ele>1745.3204</ele>
        <time>2021-07-05T14:46:11</time>
      </trkpt>
      <trkpt lat="45.42442" lon="6.20294">
        <ele>1745.3204</ele>
        <time>2021-07-05T14:46:12</time>
      </trkpt>
      <trkpt lat="45.42442" lon="6.20293">
        <ele>1742.5204</ele>
        <time>2021-07-05T14:46:13</time>
      </trkpt>
      <trkpt lat="45.42442" lon="6.20288">
        <ele>1742.5204</ele>
        <time>2021-07-05T14:46:18</time>
      </trkpt>
      <trkpt lat="45.42442" lon="6.20287">
        <ele>1742.5204</ele>
        <time>2021-07-05T14:46:20</time>
      </trkpt>
      <trkpt lat="45.42442" lon="6.20286">
        <ele>1742.5204</ele>
        <time>2021-07-05T14:46:21</time>
      </trkpt>
      <trkpt lat="45.42442" lon="6.20285">
        <ele>1742.5204</ele>
        <time>2021-07-05T14:46:22</time>
      </trkpt>
      <trkpt lat="45.4244" lon="6.20285">
        <ele>1741.9204</ele>
        <time>2021-07-05T14:46:28</time>
      </trkpt>
      <trkpt lat="45.4244" lon="6.20285">
        <ele>1741.9204</ele>
        <time>2021-07-05T14:46:29</time>
      </trkpt>
      <trkpt lat="45.42439" lon="6.20285">
        <ele>1741.9204</ele>
        <time>2021-07-05T14:46:31</time>
      </trkpt>
      <trkpt lat="45.42439" lon="6.20283">
        <ele>1740.2205</ele>
        <time>2021-07-05T14:46:33</time>
      </trkpt>
      <trkpt lat="45.42439" lon="6.20281">
        <ele>1740.2205</ele>
        <time>2021-07-05T14:46:36</time>
      </trkpt>
      <trkpt lat="45.42438" lon="6.2028">
        <ele>1740.2205</ele>
        <time>2021-07-05T14:46:37</time>
      </trkpt>
      <trkpt lat="45.42437" lon="6.20278">
        <ele>1740.2205</ele>
        <time>2021-07-05T14:46:39</time>
      </trkpt>
      <trkpt lat="45.42436" lon="6.20277">
        <ele>1740.2205</ele>
        <time>2021-07-05T14:46:41</time>
      </trkpt>
      <trkpt lat="45.42438" lon="6.20272">
        <ele>1741.8204</ele>
        <time>2021-07-05T14:46:52</time>
      </trkpt>
      <trkpt lat="45.42437" lon="6.20273">
        <ele>1737.2205</ele>
        <time>2021-07-05T14:46:53</time>
      </trkpt>
      <trkpt lat="45.42436" lon="6.20272">
        <ele>1735.3204</ele>
        <time>2021-07-05T14:47:03</time>
      </trkpt>
      <trkpt lat="45.42436" lon="6.20271">
        <ele>1735.3204</ele>
        <time>2021-07-05T14:47:04</time>
      </trkpt>
      <trkpt lat="45.42436" lon="6.2027">
        <ele>1734.3204</ele>
        <time>2021-07-05T14:47:15</time>
      </trkpt>
      <trkpt lat="45.42435" lon="6.2027">
        <ele>1734.3204</ele>
        <time>2021-07-05T14:47:16</time>
      </trkpt>
      <trkpt lat="45.42434" lon="6.2027">
        <ele>1734.3204</ele>
        <time>2021-07-05T14:47:17</time>
      </trkpt>
      <trkpt lat="45.42433" lon="6.20268">
        <ele>1734.3204</ele>
        <time>2021-07-05T14:47:19</time>
      </trkpt>
      <trkpt lat="45.42433" lon="6.20266">
        <ele>1734.3204</ele>
        <time>2021-07-05T14:47:21</time>
      </trkpt>
      <trkpt lat="45.42433" lon="6.20265">
        <ele>1734.3204</ele>
        <time>2021-07-05T14:47:22</time>
      </trkpt>
      <trkpt lat="45.42433" lon="6.20265">
        <ele>1730.3204</ele>
        <time>2021-07-05T14:47:23</time>
      </trkpt>
      <trkpt lat="45.42432" lon="6.20263">
        <ele>1730.3204</ele>
        <time>2021-07-05T14:47:25</time>
      </trkpt>
      <trkpt lat="45.42432" lon="6.20261">
        <ele>1730.3204</ele>
        <time>2021-07-05T14:47:27</time>
      </trkpt>
      <trkpt lat="45.42432" lon="6.20261">
        <ele>1730.3204</ele>
        <time>2021-07-05T14:47:28</time>
      </trkpt>
      <trkpt lat="45.42431" lon="6.20261">
        <ele>1730.3204</ele>
        <time>2021-07-05T14:47:29</time>
      </trkpt>
      <trkpt lat="45.42431" lon="6.20258">
        <ele>1727.9204</ele>
        <time>2021-07-05T14:47:36</time>
      </trkpt>
      <trkpt lat="45.42432" lon="6.20257">
        <ele>1727.9204</ele>
        <time>2021-07-05T14:47:37</time>
      </trkpt>
      <trkpt lat="45.42431" lon="6.20255">
        <ele>1727.8204</ele>
        <time>2021-07-05T14:47:47</time>
      </trkpt>
      <trkpt lat="45.4243" lon="6.20255">
        <ele>1727.8204</ele>
        <time>2021-07-05T14:47:48</time>
      </trkpt>
      <trkpt lat="45.42429" lon="6.20254">
        <ele>1727.8204</ele>
        <time>2021-07-05T14:47:49</time>
      </trkpt>
      <trkpt lat="45.42427" lon="6.20253">
        <ele>1727.8204</ele>
        <time>2021-07-05T14:47:50</time>
      </trkpt>
      <trkpt lat="45.42427" lon="6.20252">
        <ele>1727.8204</ele>
        <time>2021-07-05T14:47:51</time>
      </trkpt>
      <trkpt lat="45.42426" lon="6.20251">
        <ele>1727.8204</ele>
        <time>2021-07-05T14:47:52</time>
      </trkpt>
      <trkpt lat="45.42424" lon="6.20247">
        <ele>1724.1205</ele>
        <time>2021-07-05T14:47:56</time>
      </trkpt>
      <trkpt lat="45.42423" lon="6.20246">
        <ele>1724.1205</ele>
        <time>2021-07-05T14:47:57</time>
      </trkpt>
      <trkpt lat="45.42423" lon="6.20245">
        <ele>1724.1205</ele>
        <time>2021-07-05T14:47:58</time>
      </trkpt>
      <trkpt lat="45.42423" lon="6.20243">
        <ele>1724.1205</ele>
        <time>2021-07-05T14:48:00</time>
      </trkpt>
      <trkpt lat="45.42423" lon="6.20241">
        <ele>1724.1205</ele>
        <time>2021-07-05T14:48:01</time>
      </trkpt>
      <trkpt lat="45.42423" lon="6.20239">
        <ele>1723.0204</ele>
        <time>2021-07-05T14:48:03</time>
      </trkpt>
      <trkpt lat="45.42424" lon="6.20237">
        <ele>1723.0204</ele>
        <time>2021-07-05T14:48:04</time>
      </trkpt>
      <trkpt lat="45.42424" lon="6.20235">
        <ele>1723.0204</ele>
        <time>2021-07-05T14:48:07</time>
      </trkpt>
      <trkpt lat="45.42423" lon="6.20231">
        <ele>1723.0204</ele>
        <time>2021-07-05T14:48:10</time>
      </trkpt>
      <trkpt lat="45.42423" lon="6.20229">
        <ele>1723.0204</ele>
        <time>2021-07-05T14:48:12</time>
      </trkpt>
      <trkpt lat="45.42424" lon="6.20228">
        <ele>1720.6205</ele>
        <time>2021-07-05T14:48:13</time>
      </trkpt>
      <trkpt lat="45.42424" lon="6.20227">
        <ele>1720.6205</ele>
        <time>2021-07-05T14:48:14</time>
      </trkpt>
      <trkpt lat="45.42423" lon="6.20225">
        <ele>1720.6205</ele>
        <time>2021-07-05T14:48:18</time>
      </trkpt>
      <trkpt lat="45.42424" lon="6.20224">
        <ele>1720.6205</ele>
        <time>2021-07-05T14:48:19</time>
      </trkpt>
      <trkpt lat="45.42423" lon="6.20223">
        <ele>1720.6205</ele>
        <time>2021-07-05T14:48:20</time>
      </trkpt>
      <trkpt lat="45.42423" lon="6.2022">
        <ele>1720.6205</ele>
        <time>2021-07-05T14:48:22</time>
      </trkpt>
      <trkpt lat="45.42422" lon="6.2022">
        <ele>1716.7205</ele>
        <time>2021-07-05T14:48:25</time>
      </trkpt>
      <trkpt lat="45.42422" lon="6.20219">
        <ele>1716.7205</ele>
        <time>2021-07-05T14:48:27</time>
      </trkpt>
      <trkpt lat="45.42421" lon="6.20218">
        <ele>1716.7205</ele>
        <time>2021-07-05T14:48:28</time>
      </trkpt>
      <trkpt lat="45.42417" lon="6.20216">
        <ele>1717.8204</ele>
        <time>2021-07-05T14:48:33</time>
      </trkpt>
      <trkpt lat="45.42418" lon="6.20214">
        <ele>1717.8204</ele>
        <time>2021-07-05T14:48:36</time>
      </trkpt>
      <trkpt lat="45.42422" lon="6.20213">
        <ele>1717.8204</ele>
        <time>2021-07-05T14:48:41</time>
      </trkpt>
      <trkpt lat="45.42422" lon="6.20212">
        <ele>1711.7205</ele>
        <time>2021-07-05T14:48:46</time>
      </trkpt>
      <trkpt lat="45.42426" lon="6.20209">
        <ele>1704.7205</ele>
        <time>2021-07-05T14:48:53</time>
      </trkpt>
      <trkpt lat="45.42427" lon="6.20209">
        <ele>1704.7205</ele>
        <time>2021-07-05T14:48:54</time>
      </trkpt>
      <trkpt lat="45.4243" lon="6.20208">
        <ele>1704.7205</ele>
        <time>2021-07-05T14:48:59</time>
      </trkpt>
      <trkpt lat="45.4243" lon="6.20209">
        <ele>1704.7205</ele>
        <time>2021-07-05T14:49:00</time>
      </trkpt>
      <trkpt lat="45.42435" lon="6.20207">
        <ele>1702.8204</ele>
        <time>2021-07-05T14:49:07</time>
      </trkpt>
      <trkpt lat="45.42436" lon="6.20205">
        <ele>1702.8204</ele>
        <time>2021-07-05T14:49:10</time>
      </trkpt>
      <trkpt lat="45.42438" lon="6.20202">
        <ele>1702.1205</ele>
        <time>2021-07-05T14:49:14</time>
      </trkpt>
      <trkpt lat="45.42441" lon="6.20192">
        <ele>1701.8204</ele>
        <time>2021-07-05T14:49:26</time>
      </trkpt>
      <trkpt lat="45.42441" lon="6.20191">
        <ele>1701.8204</ele>
        <time>2021-07-05T14:49:27</time>
      </trkpt>
      <trkpt lat="45.42441" lon="6.20189">
        <ele>1701.8204</ele>
        <time>2021-07-05T14:49:32</time>
      </trkpt>
      <trkpt lat="45.42442" lon="6.20189">
        <ele>1699.3204</ele>
        <time>2021-07-05T14:49:34</time>
      </trkpt>
      <trkpt lat="45.42442" lon="6.20189">
        <ele>1699.3204</ele>
        <time>2021-07-05T14:49:35</time>
      </trkpt>
      <trkpt lat="45.42442" lon="6.20188">
        <ele>1699.3204</ele>
        <time>2021-07-05T14:49:36</time>
      </trkpt>
      <trkpt lat="45.42443" lon="6.20185">
        <ele>1699.3204</ele>
        <time>2021-07-05T14:49:39</time>
      </trkpt>
      <trkpt lat="45.42443" lon="6.20183">
        <ele>1699.3204</ele>
        <time>2021-07-05T14:49:42</time>
      </trkpt>
      <trkpt lat="45.42446" lon="6.20174">
        <ele>1699.2205</ele>
        <time>2021-07-05T14:50:01</time>
      </trkpt>
      <trkpt lat="45.42445" lon="6.20173">
        <ele>1699.2205</ele>
        <time>2021-07-05T14:50:02</time>
      </trkpt>
      <trkpt lat="45.42445" lon="6.20173">
        <ele>1698.2205</ele>
        <time>2021-07-05T14:50:04</time>
      </trkpt>
      <trkpt lat="45.42446" lon="6.20171">
        <ele>1698.2205</ele>
        <time>2021-07-05T14:50:06</time>
      </trkpt>
      <trkpt lat="45.42445" lon="6.2017">
        <ele>1698.2205</ele>
        <time>2021-07-05T14:50:07</time>
      </trkpt>
      <trkpt lat="45.42445" lon="6.20169">
        <ele>1698.2205</ele>
        <time>2021-07-05T14:50:08</time>
      </trkpt>
      <trkpt lat="45.42445" lon="6.20169">
        <ele>1698.2205</ele>
        <time>2021-07-05T14:50:09</time>
      </trkpt>
      <trkpt lat="45.42445" lon="6.20167">
        <ele>1698.2205</ele>
        <time>2021-07-05T14:50:11</time>
      </trkpt>
      <trkpt lat="45.42444" lon="6.20165">
        <ele>1698.2205</ele>
        <time>2021-07-05T14:50:12</time>
      </trkpt>
      <trkpt lat="45.42444" lon="6.20164">
        <ele>1698.1205</ele>
        <time>2021-07-05T14:50:13</time>
      </trkpt>
      <trkpt lat="45.42444" lon="6.20163">
        <ele>1698.1205</ele>
        <time>2021-07-05T14:50:14</time>
      </trkpt>
      <trkpt lat="45.42444" lon="6.20162">
        <ele>1698.1205</ele>
        <time>2021-07-05T14:50:15</time>
      </trkpt>
      <trkpt lat="45.42444" lon="6.20161">
        <ele>1698.1205</ele>
        <time>2021-07-05T14:50:16</time>
      </trkpt>
      <trkpt lat="45.42445" lon="6.20154">
        <ele>1698.1205</ele>
        <time>2021-07-05T14:50:21</time>
      </trkpt>
      <trkpt lat="45.42444" lon="6.20153">
        <ele>1698.1205</ele>
        <time>2021-07-05T14:50:22</time>
      </trkpt>
      <trkpt lat="45.42444" lon="6.20151">
        <ele>1697.1205</ele>
        <time>2021-07-05T14:50:26</time>
      </trkpt>
      <trkpt lat="45.42444" lon="6.20151">
        <ele>1697.1205</ele>
        <time>2021-07-05T14:50:27</time>
      </trkpt>
      <trkpt lat="45.42443" lon="6.2015">
        <ele>1693.8204</ele>
        <time>2021-07-05T14:50:34</time>
      </trkpt>
      <trkpt lat="45.42443" lon="6.20149">
        <ele>1693.8204</ele>
        <time>2021-07-05T14:50:35</time>
      </trkpt>
      <trkpt lat="45.42442" lon="6.20146">
        <ele>1693.8204</ele>
        <time>2021-07-05T14:50:40</time>
      </trkpt>
      <trkpt lat="45.42443" lon="6.20145">
        <ele>1693.8204</ele>
        <time>2021-07-05T14:50:41</time>
      </trkpt>
      <trkpt lat="45.42444" lon="6.20141">
        <ele>1694.4204</ele>
        <time>2021-07-05T14:50:45</time>
      </trkpt>
      <trkpt lat="45.42452" lon="6.2013">
        <ele>1693.0872</ele>
        <time>2021-07-05T14:50:57</time>
      </trkpt>
      <trkpt lat="45.42455" lon="6.20126">
        <ele>1687.2205</ele>
        <time>2021-07-05T14:51:04</time>
      </trkpt>
      <trkpt lat="45.42456" lon="6.20125">
        <ele>1687.2205</ele>
        <time>2021-07-05T14:51:05</time>
      </trkpt>
      <trkpt lat="45.42456" lon="6.20124">
        <ele>1687.2205</ele>
        <time>2021-07-05T14:51:09</time>
      </trkpt>
      <trkpt lat="45.42456" lon="6.20123">
        <ele>1687.2205</ele>
        <time>2021-07-05T14:51:11</time>
      </trkpt>
      <trkpt lat="45.42457" lon="6.2012">
        <ele>1682.0204</ele>
        <time>2021-07-05T14:51:14</time>
      </trkpt>
      <trkpt lat="45.42457" lon="6.2012">
        <ele>1682.0204</ele>
        <time>2021-07-05T14:51:15</time>
      </trkpt>
      <trkpt lat="45.42458" lon="6.20114">
        <ele>1682.0204</ele>
        <time>2021-07-05T14:51:22</time>
      </trkpt>
      <trkpt lat="45.42458" lon="6.20113">
        <ele>1679.7205</ele>
        <time>2021-07-05T14:51:23</time>
      </trkpt>
      <trkpt lat="45.42455" lon="6.20113">
        <ele>1679.7205</ele>
        <time>2021-07-05T14:51:29</time>
      </trkpt>
      <trkpt lat="45.42457" lon="6.2011">
        <ele>1678.6205</ele>
        <time>2021-07-05T14:51:37</time>
      </trkpt>
      <trkpt lat="45.42456" lon="6.20109">
        <ele>1678.6205</ele>
        <time>2021-07-05T14:51:38</time>
      </trkpt>
      <trkpt lat="45.42456" lon="6.20108">
        <ele>1678.6205</ele>
        <time>2021-07-05T14:51:39</time>
      </trkpt>
      <trkpt lat="45.42456" lon="6.20106">
        <ele>1678.6205</ele>
        <time>2021-07-05T14:51:43</time>
      </trkpt>
      <trkpt lat="45.42456" lon="6.20105">
        <ele>1678.6205</ele>
        <time>2021-07-05T14:51:44</time>
      </trkpt>
      <trkpt lat="45.42456" lon="6.20105">
        <ele>1678.6205</ele>
        <time>2021-07-05T14:51:45</time>
      </trkpt>
      <trkpt lat="45.42456" lon="6.20104">
        <ele>1678.6205</ele>
        <time>2021-07-05T14:51:46</time>
      </trkpt>
      <trkpt lat="45.42455" lon="6.20103">
        <ele>1678.6205</ele>
        <time>2021-07-05T14:51:47</time>
      </trkpt>
      <trkpt lat="45.42454" lon="6.20101">
        <ele>1678.6205</ele>
        <time>2021-07-05T14:51:49</time>
      </trkpt>
      <trkpt lat="45.42454" lon="6.201">
        <ele>1678.6205</ele>
        <time>2021-07-05T14:51:50</time>
      </trkpt>
      <trkpt lat="45.42454" lon="6.20099">
        <ele>1678.6205</ele>
        <time>2021-07-05T14:51:51</time>
      </trkpt>
      <trkpt lat="45.42454" lon="6.20097">
        <ele>1678.6205</ele>
        <time>2021-07-05T14:51:52</time>
      </trkpt>
      <trkpt lat="45.42457" lon="6.20084">
        <ele>1679.0204</ele>
        <time>2021-07-05T14:52:02</time>
      </trkpt>
      <trkpt lat="45.42458" lon="6.20082">
        <ele>1676.7205</ele>
        <time>2021-07-05T14:52:03</time>
      </trkpt>
      <trkpt lat="45.42458" lon="6.2008">
        <ele>1676.7205</ele>
        <time>2021-07-05T14:52:05</time>
      </trkpt>
      <trkpt lat="45.42459" lon="6.20078">
        <ele>1676.7205</ele>
        <time>2021-07-05T14:52:07</time>
      </trkpt>
      <trkpt lat="45.4246" lon="6.20074">
        <ele>1676.7205</ele>
        <time>2021-07-05T14:52:11</time>
      </trkpt>
      <trkpt lat="45.42461" lon="6.20071">
        <ele>1677.0204</ele>
        <time>2021-07-05T14:52:15</time>
      </trkpt>
      <trkpt lat="45.42461" lon="6.20069">
        <ele>1677.0204</ele>
        <time>2021-07-05T14:52:18</time>
      </trkpt>
      <trkpt lat="45.42462" lon="6.20065">
        <ele>1675.5204</ele>
        <time>2021-07-05T14:52:23</time>
      </trkpt>
      <trkpt lat="45.42465" lon="6.20049">
        <ele>1674.2205</ele>
        <time>2021-07-05T14:52:40</time>
      </trkpt>
      <trkpt lat="45.42466" lon="6.20046">
        <ele>1674.2205</ele>
        <time>2021-07-05T14:52:42</time>
      </trkpt>
      <trkpt lat="45.42466" lon="6.20042">
        <ele>1671.6205</ele>
        <time>2021-07-05T14:52:46</time>
      </trkpt>
      <trkpt lat="45.42466" lon="6.20041">
        <ele>1671.6205</ele>
        <time>2021-07-05T14:52:47</time>
      </trkpt>
      <trkpt lat="45.42467" lon="6.2004">
        <ele>1671.6205</ele>
        <time>2021-07-05T14:52:48</time>
      </trkpt>
      <trkpt lat="45.42467" lon="6.20039">
        <ele>1671.6205</ele>
        <time>2021-07-05T14:52:49</time>
      </trkpt>
      <trkpt lat="45.42468" lon="6.20038">
        <ele>1671.6205</ele>
        <time>2021-07-05T14:52:50</time>
      </trkpt>
      <trkpt lat="45.42468" lon="6.20038">
        <ele>1671.6205</ele>
        <time>2021-07-05T14:52:51</time>
      </trkpt>
      <trkpt lat="45.42468" lon="6.20036">
        <ele>1668.5204</ele>
        <time>2021-07-05T14:52:53</time>
      </trkpt>
      <trkpt lat="45.42468" lon="6.20035">
        <ele>1668.5204</ele>
        <time>2021-07-05T14:52:55</time>
      </trkpt>
      <trkpt lat="45.42471" lon="6.2003">
        <ele>1665.2205</ele>
        <time>2021-07-05T14:53:04</time>
      </trkpt>
      <trkpt lat="45.42471" lon="6.20028">
        <ele>1665.2205</ele>
        <time>2021-07-05T14:53:09</time>
      </trkpt>
      <trkpt lat="45.42471" lon="6.20027">
        <ele>1665.2205</ele>
        <time>2021-07-05T14:53:10</time>
      </trkpt>
      <trkpt lat="45.42471" lon="6.20026">
        <ele>1665.2205</ele>
        <time>2021-07-05T14:53:12</time>
      </trkpt>
      <trkpt lat="45.4247" lon="6.20026">
        <ele>1659.5204</ele>
        <time>2021-07-05T14:53:13</time>
      </trkpt>
      <trkpt lat="45.42469" lon="6.20025">
        <ele>1659.5204</ele>
        <time>2021-07-05T14:53:15</time>
      </trkpt>
      <trkpt lat="45.42468" lon="6.20025">
        <ele>1659.5204</ele>
        <time>2021-07-05T14:53:16</time>
      </trkpt>
      <trkpt lat="45.42468" lon="6.20025">
        <ele>1659.5204</ele>
        <time>2021-07-05T14:53:17</time>
      </trkpt>
      <trkpt lat="45.42467" lon="6.20024">
        <ele>1659.5204</ele>
        <time>2021-07-05T14:53:18</time>
      </trkpt>
      <trkpt lat="45.42467" lon="6.20024">
        <ele>1659.5204</ele>
        <time>2021-07-05T14:53:19</time>
      </trkpt>
      <trkpt lat="45.42466" lon="6.20024">
        <ele>1659.5204</ele>
        <time>2021-07-05T14:53:20</time>
      </trkpt>
      <trkpt lat="45.42465" lon="6.20023">
        <ele>1659.5204</ele>
        <time>2021-07-05T14:53:22</time>
      </trkpt>
      <trkpt lat="45.42465" lon="6.20022">
        <ele>1660.1205</ele>
        <time>2021-07-05T14:53:23</time>
      </trkpt>
      <trkpt lat="45.42464" lon="6.20021">
        <ele>1660.1205</ele>
        <time>2021-07-05T14:53:26</time>
      </trkpt>
      <trkpt lat="45.42463" lon="6.20022">
        <ele>1660.1205</ele>
        <time>2021-07-05T14:53:29</time>
      </trkpt>
      <trkpt lat="45.42463" lon="6.2002">
        <ele>1660.1205</ele>
        <time>2021-07-05T14:53:33</time>
      </trkpt>
      <trkpt lat="45.42463" lon="6.20019">
        <ele>1660.1205</ele>
        <time>2021-07-05T14:53:34</time>
      </trkpt>
      <trkpt lat="45.42462" lon="6.20011">
        <ele>1659.8204</ele>
        <time>2021-07-05T14:53:44</time>
      </trkpt>
      <trkpt lat="45.42462" lon="6.2001">
        <ele>1659.8204</ele>
        <time>2021-07-05T14:53:46</time>
      </trkpt>
      <trkpt lat="45.42462" lon="6.2001">
        <ele>1659.8204</ele>
        <time>2021-07-05T14:53:47</time>
      </trkpt>
      <trkpt lat="45.42461" lon="6.2001">
        <ele>1659.8204</ele>
        <time>2021-07-05T14:53:50</time>
      </trkpt>
      <trkpt lat="45.42462" lon="6.20008">
        <ele>1659.8204</ele>
        <time>2021-07-05T14:53:52</time>
      </trkpt>
      <trkpt lat="45.42462" lon="6.20007">
        <ele>1654.0204</ele>
        <time>2021-07-05T14:53:58</time>
      </trkpt>
      <trkpt lat="45.42462" lon="6.20006">
        <ele>1654.0204</ele>
        <time>2021-07-05T14:53:59</time>
      </trkpt>
      <trkpt lat="45.42463" lon="6.20005">
        <ele>1654.0204</ele>
        <time>2021-07-05T14:54:02</time>
      </trkpt>
      <trkpt lat="45.42463" lon="6.20003">
        <ele>1653.1205</ele>
        <time>2021-07-05T14:54:03</time>
      </trkpt>
      <trkpt lat="45.42463" lon="6.20003">
        <ele>1653.1205</ele>
        <time>2021-07-05T14:54:04</time>
      </trkpt>
      <trkpt lat="45.42462" lon="6.20002">
        <ele>1653.1205</ele>
        <time>2021-07-05T14:54:05</time>
      </trkpt>
      <trkpt lat="45.42461" lon="6.20002">
        <ele>1653.1205</ele>
        <time>2021-07-05T14:54:07</time>
      </trkpt>
      <trkpt lat="45.42461" lon="6.20002">
        <ele>1653.1205</ele>
        <time>2021-07-05T14:54:08</time>
      </trkpt>
      <trkpt lat="45.42461" lon="6.20001">
        <ele>1653.1205</ele>
        <time>2021-07-05T14:54:09</time>
      </trkpt>
      <trkpt lat="45.42461" lon="6.2">
        <ele>1653.1205</ele>
        <time>2021-07-05T14:54:10</time>
      </trkpt>
      <trkpt lat="45.4246" lon="6.19999">
        <ele>1653.1205</ele>
        <time>2021-07-05T14:54:11</time>
      </trkpt>
      <trkpt lat="45.42459" lon="6.19999">
        <ele>1651.7205</ele>
        <time>2021-07-05T14:54:15</time>
      </trkpt>
      <trkpt lat="45.42459" lon="6.19999">
        <ele>1651.7205</ele>
        <time>2021-07-05T14:54:16</time>
      </trkpt>
      <trkpt lat="45.42459" lon="6.19997">
        <ele>1651.7205</ele>
        <time>2021-07-05T14:54:18</time>
      </trkpt>
      <trkpt lat="45.42459" lon="6.19995">
        <ele>1648.6205</ele>
        <time>2021-07-05T14:54:31</time>
      </trkpt>
      <trkpt lat="45.42459" lon="6.19996">
        <ele>1648.6205</ele>
        <time>2021-07-05T14:54:32</time>
      </trkpt>
      <trkpt lat="45.42458" lon="6.19996">
        <ele>1650.0204</ele>
        <time>2021-07-05T14:54:33</time>
      </trkpt>
      <trkpt lat="45.42459" lon="6.19996">
        <ele>1650.0204</ele>
        <time>2021-07-05T14:54:34</time>
      </trkpt>
      <trkpt lat="45.42459" lon="6.19995">
        <ele>1647.9204</ele>
        <time>2021-07-05T14:54:45</time>
      </trkpt>
      <trkpt lat="45.42458" lon="6.19995">
        <ele>1647.9204</ele>
        <time>2021-07-05T14:54:47</time>
      </trkpt>
      <trkpt lat="45.42456" lon="6.19995">
        <ele>1647.9204</ele>
        <time>2021-07-05T14:54:49</time>
      </trkpt>
      <trkpt lat="45.42456" lon="6.19994">
        <ele>1647.9204</ele>
        <time>2021-07-05T14:54:50</time>
      </trkpt>
      <trkpt lat="45.42455" lon="6.19993">
        <ele>1647.9204</ele>
        <time>2021-07-05T14:54:51</time>
      </trkpt>
      <trkpt lat="45.42453" lon="6.19992">
        <ele>1645.4204</ele>
        <time>2021-07-05T14:54:58</time>
      </trkpt>
      <trkpt lat="45.42451" lon="6.19992">
        <ele>1645.4204</ele>
        <time>2021-07-05T14:55:01</time>
      </trkpt>
      <trkpt lat="45.42449" lon="6.19992">
        <ele>1647.1205</ele>
        <time>2021-07-05T14:55:03</time>
      </trkpt>
      <trkpt lat="45.42448" lon="6.19992">
        <ele>1647.1205</ele>
        <time>2021-07-05T14:55:07</time>
      </trkpt>
      <trkpt lat="45.42448" lon="6.19988">
        <ele>1644.7205</ele>
        <time>2021-07-05T14:55:14</time>
      </trkpt>
      <trkpt lat="45.42447" lon="6.19988">
        <ele>1644.7205</ele>
        <time>2021-07-05T14:55:15</time>
      </trkpt>
      <trkpt lat="45.42448" lon="6.19984">
        <ele>1644.7205</ele>
        <time>2021-07-05T14:55:19</time>
      </trkpt>
      <trkpt lat="45.42448" lon="6.19984">
        <ele>1644.7205</ele>
        <time>2021-07-05T14:55:20</time>
      </trkpt>
      <trkpt lat="45.42446" lon="6.19983">
        <ele>1642.3204</ele>
        <time>2021-07-05T14:55:26</time>
      </trkpt>
      <trkpt lat="45.42446" lon="6.19983">
        <ele>1642.3204</ele>
        <time>2021-07-05T14:55:27</time>
      </trkpt>
      <trkpt lat="45.42445" lon="6.19982">
        <ele>1642.3204</ele>
        <time>2021-07-05T14:55:28</time>
      </trkpt>
      <trkpt lat="45.42444" lon="6.19982">
        <ele>1642.3204</ele>
        <time>2021-07-05T14:55:30</time>
      </trkpt>
      <trkpt lat="45.42444" lon="6.19981">
        <ele>1644.9204</ele>
        <time>2021-07-05T14:55:33</time>
      </trkpt>
      <trkpt lat="45.42443" lon="6.19982">
        <ele>1644.9204</ele>
        <time>2021-07-05T14:55:35</time>
      </trkpt>
      <trkpt lat="45.42442" lon="6.19984">
        <ele>1644.9204</ele>
        <time>2021-07-05T14:55:37</time>
      </trkpt>
      <trkpt lat="45.42441" lon="6.19984">
        <ele>1644.9204</ele>
        <time>2021-07-05T14:55:38</time>
      </trkpt>
      <trkpt lat="45.42441" lon="6.19984">
        <ele>1644.9204</ele>
        <time>2021-07-05T14:55:40</time>
      </trkpt>
      <trkpt lat="45.42441" lon="6.19984">
        <ele>1644.9204</ele>
        <time>2021-07-05T14:55:41</time>
      </trkpt>
      <trkpt lat="45.4244" lon="6.19984">
        <ele>1644.9204</ele>
        <time>2021-07-05T14:55:42</time>
      </trkpt>
      <trkpt lat="45.4244" lon="6.19984">
        <ele>1640.8204</ele>
        <time>2021-07-05T14:55:43</time>
      </trkpt>
      <trkpt lat="45.42439" lon="6.19983">
        <ele>1640.8204</ele>
        <time>2021-07-05T14:55:44</time>
      </trkpt>
      <trkpt lat="45.42438" lon="6.19982">
        <ele>1640.8204</ele>
        <time>2021-07-05T14:55:48</time>
      </trkpt>
      <trkpt lat="45.42437" lon="6.19981">
        <ele>1640.8204</ele>
        <time>2021-07-05T14:55:49</time>
      </trkpt>
      <trkpt lat="45.42435" lon="6.1998">
        <ele>1640.8204</ele>
        <time>2021-07-05T14:55:52</time>
      </trkpt>
      <trkpt lat="45.42435" lon="6.1998">
        <ele>1635.0204</ele>
        <time>2021-07-05T14:55:53</time>
      </trkpt>
      <trkpt lat="45.42434" lon="6.19979">
        <ele>1635.0204</ele>
        <time>2021-07-05T14:55:54</time>
      </trkpt>
      <trkpt lat="45.42433" lon="6.19978">
        <ele>1635.0204</ele>
        <time>2021-07-05T14:55:55</time>
      </trkpt>
      <trkpt lat="45.42432" lon="6.19976">
        <ele>1635.0204</ele>
        <time>2021-07-05T14:55:57</time>
      </trkpt>
      <trkpt lat="45.42431" lon="6.19974">
        <ele>1635.0204</ele>
        <time>2021-07-05T14:55:59</time>
      </trkpt>
      <trkpt lat="45.4243" lon="6.19973">
        <ele>1635.0204</ele>
        <time>2021-07-05T14:56:00</time>
      </trkpt>
      <trkpt lat="45.4243" lon="6.1997">
        <ele>1635.5204</ele>
        <time>2021-07-05T14:56:04</time>
      </trkpt>
      <trkpt lat="45.4243" lon="6.19969">
        <ele>1635.5204</ele>
        <time>2021-07-05T14:56:05</time>
      </trkpt>
      <trkpt lat="45.42431" lon="6.19963">
        <ele>1635.5204</ele>
        <time>2021-07-05T14:56:09</time>
      </trkpt>
      <trkpt lat="45.4243" lon="6.19961">
        <ele>1635.5204</ele>
        <time>2021-07-05T14:56:11</time>
      </trkpt>
      <trkpt lat="45.42429" lon="6.19959">
        <ele>1630.4204</ele>
        <time>2021-07-05T14:56:13</time>
      </trkpt>
      <trkpt lat="45.42429" lon="6.19958">
        <ele>1630.4204</ele>
        <time>2021-07-05T14:56:14</time>
      </trkpt>
      <trkpt lat="45.4243" lon="6.19947">
        <ele>1627.3204</ele>
        <time>2021-07-05T14:56:25</time>
      </trkpt>
      <trkpt lat="45.4243" lon="6.19945">
        <ele>1627.3204</ele>
        <time>2021-07-05T14:56:27</time>
      </trkpt>
      <trkpt lat="45.4243" lon="6.19945">
        <ele>1627.3204</ele>
        <time>2021-07-05T14:56:28</time>
      </trkpt>
      <trkpt lat="45.42437" lon="6.19931">
        <ele>1621.7205</ele>
        <time>2021-07-05T14:56:44</time>
      </trkpt>
      <trkpt lat="45.42437" lon="6.1993">
        <ele>1621.7205</ele>
        <time>2021-07-05T14:56:45</time>
      </trkpt>
      <trkpt lat="45.42437" lon="6.19928">
        <ele>1621.7205</ele>
        <time>2021-07-05T14:56:48</time>
      </trkpt>
      <trkpt lat="45.42437" lon="6.19928">
        <ele>1621.7205</ele>
        <time>2021-07-05T14:56:49</time>
      </trkpt>
      <trkpt lat="45.42437" lon="6.19927">
        <ele>1621.7205</ele>
        <time>2021-07-05T14:56:50</time>
      </trkpt>
      <trkpt lat="45.42442" lon="6.19911">
        <ele>1617.5204</ele>
        <time>2021-07-05T14:57:06</time>
      </trkpt>
      <trkpt lat="45.42443" lon="6.19909">
        <ele>1617.5204</ele>
        <time>2021-07-05T14:57:07</time>
      </trkpt>
      <trkpt lat="45.42444" lon="6.19908">
        <ele>1617.5204</ele>
        <time>2021-07-05T14:57:09</time>
      </trkpt>
      <trkpt lat="45.42444" lon="6.19907">
        <ele>1617.5204</ele>
        <time>2021-07-05T14:57:10</time>
      </trkpt>
      <trkpt lat="45.42444" lon="6.19906">
        <ele>1617.5204</ele>
        <time>2021-07-05T14:57:11</time>
      </trkpt>
      <trkpt lat="45.42446" lon="6.199">
        <ele>1618.2205</ele>
        <time>2021-07-05T14:57:16</time>
      </trkpt>
      <trkpt lat="45.42446" lon="6.19898">
        <ele>1618.2205</ele>
        <time>2021-07-05T14:57:18</time>
      </trkpt>
      <trkpt lat="45.42445" lon="6.19898">
        <ele>1618.2205</ele>
        <time>2021-07-05T14:57:19</time>
      </trkpt>
      <trkpt lat="45.42445" lon="6.19897">
        <ele>1618.2205</ele>
        <time>2021-07-05T14:57:20</time>
      </trkpt>
      <trkpt lat="45.42445" lon="6.19897">
        <ele>1618.2205</ele>
        <time>2021-07-05T14:57:21</time>
      </trkpt>
      <trkpt lat="45.42445" lon="6.19896">
        <ele>1618.2205</ele>
        <time>2021-07-05T14:57:22</time>
      </trkpt>
      <trkpt lat="45.42445" lon="6.19895">
        <ele>1618.2205</ele>
        <time>2021-07-05T14:57:23</time>
      </trkpt>
      <trkpt lat="45.42446" lon="6.19895">
        <ele>1618.2205</ele>
        <time>2021-07-05T14:57:24</time>
      </trkpt>
      <trkpt lat="45.42446" lon="6.19895">
        <ele>1618.2205</ele>
        <time>2021-07-05T14:57:26</time>
      </trkpt>
      <trkpt lat="45.42446" lon="6.19893">
        <ele>1618.2205</ele>
        <time>2021-07-05T14:57:28</time>
      </trkpt>
      <trkpt lat="45.42446" lon="6.19893">
        <ele>1618.2205</ele>
        <time>2021-07-05T14:57:29</time>
      </trkpt>
      <trkpt lat="45.42445" lon="6.19893">
        <ele>1618.2205</ele>
        <time>2021-07-05T14:57:30</time>
      </trkpt>
      <trkpt lat="45.42445" lon="6.19893">
        <ele>1618.2205</ele>
        <time>2021-07-05T14:57:31</time>
      </trkpt>
      <trkpt lat="45.42446" lon="6.19893">
        <ele>1615.7205</ele>
        <time>2021-07-05T14:57:35</time>
      </trkpt>
      <trkpt lat="45.42445" lon="6.19893">
        <ele>1615.7205</ele>
        <time>2021-07-05T14:57:38</time>
      </trkpt>
      <trkpt lat="45.42445" lon="6.19893">
        <ele>1615.7205</ele>
        <time>2021-07-05T14:57:39</time>
      </trkpt>
      <trkpt lat="45.42442" lon="6.19895">
        <ele>1614.1205</ele>
        <time>2021-07-05T14:57:44</time>
      </trkpt>
      <trkpt lat="45.42442" lon="6.19896">
        <ele>1614.1205</ele>
        <time>2021-07-05T14:57:49</time>
      </trkpt>
      <trkpt lat="45.42438" lon="6.19895">
        <ele>1611.3204</ele>
        <time>2021-07-05T14:57:59</time>
      </trkpt>
      <trkpt lat="45.42437" lon="6.19895">
        <ele>1611.3204</ele>
        <time>2021-07-05T14:58:00</time>
      </trkpt>
      <trkpt lat="45.42436" lon="6.19896">
        <ele>1611.3204</ele>
        <time>2021-07-05T14:58:01</time>
      </trkpt>
      <trkpt lat="45.42434" lon="6.19896">
        <ele>1607.9204</ele>
        <time>2021-07-05T14:58:03</time>
      </trkpt>
      <trkpt lat="45.42434" lon="6.19896">
        <ele>1607.9204</ele>
        <time>2021-07-05T14:58:10</time>
      </trkpt>
      <trkpt lat="45.42433" lon="6.19896">
        <ele>1607.9204</ele>
        <time>2021-07-05T14:58:11</time>
      </trkpt>
      <trkpt lat="45.42429" lon="6.199">
        <ele>1605.8204</ele>
        <time>2021-07-05T14:58:15</time>
      </trkpt>
      <trkpt lat="45.42427" lon="6.19901">
        <ele>1605.8204</ele>
        <time>2021-07-05T14:58:18</time>
      </trkpt>
      <trkpt lat="45.42427" lon="6.19901">
        <ele>1605.8204</ele>
        <time>2021-07-05T14:58:19</time>
      </trkpt>
      <trkpt lat="45.42422" lon="6.199">
        <ele>1605.8204</ele>
        <time>2021-07-05T14:58:30</time>
      </trkpt>
      <trkpt lat="45.42422" lon="6.19901">
        <ele>1605.8204</ele>
        <time>2021-07-05T14:58:31</time>
      </trkpt>
      <trkpt lat="45.4242" lon="6.19901">
        <ele>1605.8204</ele>
        <time>2021-07-05T14:58:32</time>
      </trkpt>
      <trkpt lat="45.42418" lon="6.19902">
        <ele>1605.4204</ele>
        <time>2021-07-05T14:58:35</time>
      </trkpt>
      <trkpt lat="45.42418" lon="6.19902">
        <ele>1605.4204</ele>
        <time>2021-07-05T14:58:36</time>
      </trkpt>
      <trkpt lat="45.42416" lon="6.19902">
        <ele>1605.4204</ele>
        <time>2021-07-05T14:58:38</time>
      </trkpt>
      <trkpt lat="45.42415" lon="6.19902">
        <ele>1605.4204</ele>
        <time>2021-07-05T14:58:39</time>
      </trkpt>
      <trkpt lat="45.42415" lon="6.19902">
        <ele>1605.4204</ele>
        <time>2021-07-05T14:58:40</time>
      </trkpt>
      <trkpt lat="45.42413" lon="6.19903">
        <ele>1605.4204</ele>
        <time>2021-07-05T14:58:42</time>
      </trkpt>
      <trkpt lat="45.42412" lon="6.19904">
        <ele>1604.1205</ele>
        <time>2021-07-05T14:58:43</time>
      </trkpt>
      <trkpt lat="45.4241" lon="6.19905">
        <ele>1604.1205</ele>
        <time>2021-07-05T14:58:45</time>
      </trkpt>
      <trkpt lat="45.42409" lon="6.19905">
        <ele>1604.1205</ele>
        <time>2021-07-05T14:58:46</time>
      </trkpt>
      <trkpt lat="45.42408" lon="6.19905">
        <ele>1604.1205</ele>
        <time>2021-07-05T14:58:47</time>
      </trkpt>
      <trkpt lat="45.42407" lon="6.19905">
        <ele>1604.1205</ele>
        <time>2021-07-05T14:58:48</time>
      </trkpt>
      <trkpt lat="45.42406" lon="6.19905">
        <ele>1604.1205</ele>
        <time>2021-07-05T14:58:49</time>
      </trkpt>
      <trkpt lat="45.42405" lon="6.19905">
        <ele>1604.1205</ele>
        <time>2021-07-05T14:58:50</time>
      </trkpt>
      <trkpt lat="45.42405" lon="6.19905">
        <ele>1604.1205</ele>
        <time>2021-07-05T14:58:51</time>
      </trkpt>
      <trkpt lat="45.42401" lon="6.19907">
        <ele>1606.1205</ele>
        <time>2021-07-05T14:58:56</time>
      </trkpt>
      <trkpt lat="45.424" lon="6.19907">
        <ele>1606.1205</ele>
        <time>2021-07-05T14:58:57</time>
      </trkpt>
      <trkpt lat="45.42399" lon="6.19906">
        <ele>1606.1205</ele>
        <time>2021-07-05T14:58:58</time>
      </trkpt>
      <trkpt lat="45.42397" lon="6.19904">
        <ele>1606.1205</ele>
        <time>2021-07-05T14:59:00</time>
      </trkpt>
      <trkpt lat="45.42395" lon="6.19904">
        <ele>1606.1205</ele>
        <time>2021-07-05T14:59:01</time>
      </trkpt>
      <trkpt lat="45.42394" lon="6.19904">
        <ele>1606.1205</ele>
        <time>2021-07-05T14:59:02</time>
      </trkpt>
      <trkpt lat="45.42389" lon="6.19908">
        <ele>1606.1205</ele>
        <time>2021-07-05T14:59:10</time>
      </trkpt>
      <trkpt lat="45.42388" lon="6.19909">
        <ele>1606.1205</ele>
        <time>2021-07-05T14:59:12</time>
      </trkpt>
      <trkpt lat="45.42384" lon="6.19907">
        <ele>1599.3204</ele>
        <time>2021-07-05T14:59:23</time>
      </trkpt>
      <trkpt lat="45.42383" lon="6.19907">
        <ele>1599.3204</ele>
        <time>2021-07-05T14:59:27</time>
      </trkpt>
      <trkpt lat="45.42383" lon="6.19906">
        <ele>1599.3204</ele>
        <time>2021-07-05T14:59:29</time>
      </trkpt>
      <trkpt lat="45.42382" lon="6.19906">
        <ele>1599.3204</ele>
        <time>2021-07-05T14:59:30</time>
      </trkpt>
      <trkpt lat="45.42382" lon="6.19905">
        <ele>1599.3204</ele>
        <time>2021-07-05T14:59:31</time>
      </trkpt>
      <trkpt lat="45.42379" lon="6.19886">
        <ele>1595.6871</ele>
        <time>2021-07-05T14:59:50</time>
      </trkpt>
      <trkpt lat="45.4238" lon="6.19885">
        <ele>1595.6871</ele>
        <time>2021-07-05T14:59:51</time>
      </trkpt>
      <trkpt lat="45.4238" lon="6.19884">
        <ele>1595.6871</ele>
        <time>2021-07-05T14:59:52</time>
      </trkpt>
      <trkpt lat="45.4238" lon="6.19883">
        <ele>1595.2205</ele>
        <time>2021-07-05T14:59:53</time>
      </trkpt>
      <trkpt lat="45.42383" lon="6.19874">
        <ele>1595.2205</ele>
        <time>2021-07-05T14:59:59</time>
      </trkpt>
      <trkpt lat="45.42384" lon="6.1987">
        <ele>1595.2205</ele>
        <time>2021-07-05T15:00:02</time>
      </trkpt>
      <trkpt lat="45.42384" lon="6.19869">
        <ele>1595.2205</ele>
        <time>2021-07-05T15:00:03</time>
      </trkpt>
      <trkpt lat="45.42387" lon="6.19862">
        <ele>1595.2205</ele>
        <time>2021-07-05T15:00:08</time>
      </trkpt>
      <trkpt lat="45.42387" lon="6.19859">
        <ele>1595.2205</ele>
        <time>2021-07-05T15:00:11</time>
      </trkpt>
      <trkpt lat="45.42388" lon="6.19858">
        <ele>1595.2205</ele>
        <time>2021-07-05T15:00:12</time>
      </trkpt>
      <trkpt lat="45.42389" lon="6.19857">
        <ele>1595.2205</ele>
        <time>2021-07-05T15:00:13</time>
      </trkpt>
      <trkpt lat="45.42389" lon="6.19856">
        <ele>1595.2205</ele>
        <time>2021-07-05T15:00:14</time>
      </trkpt>
      <trkpt lat="45.42391" lon="6.19857">
        <ele>1595.2205</ele>
        <time>2021-07-05T15:00:15</time>
      </trkpt>
      <trkpt lat="45.42392" lon="6.19857">
        <ele>1595.2205</ele>
        <time>2021-07-05T15:00:17</time>
      </trkpt>
      <trkpt lat="45.42391" lon="6.19858">
        <ele>1595.2205</ele>
        <time>2021-07-05T15:00:18</time>
      </trkpt>
      <trkpt lat="45.42387" lon="6.19862">
        <ele>1595.2205</ele>
        <time>2021-07-05T15:00:23</time>
      </trkpt>
      <trkpt lat="45.42387" lon="6.19864">
        <ele>1595.2205</ele>
        <time>2021-07-05T15:00:26</time>
      </trkpt>
      <trkpt lat="45.42386" lon="6.19865">
        <ele>1595.2205</ele>
        <time>2021-07-05T15:00:28</time>
      </trkpt>
      <trkpt lat="45.42386" lon="6.19865">
        <ele>1595.2205</ele>
        <time>2021-07-05T15:00:29</time>
      </trkpt>
      <trkpt lat="45.42385" lon="6.19865">
        <ele>1595.2205</ele>
        <time>2021-07-05T15:00:30</time>
      </trkpt>
      <trkpt lat="45.42385" lon="6.19865">
        <ele>1595.2205</ele>
        <time>2021-07-05T15:00:31</time>
      </trkpt>
      <trkpt lat="45.42386" lon="6.19865">
        <ele>1595.2205</ele>
        <time>2021-07-05T15:00:32</time>
      </trkpt>
      <trkpt lat="45.42385" lon="6.19866">
        <ele>1595.2205</ele>
        <time>2021-07-05T15:00:33</time>
      </trkpt>
      <trkpt lat="45.42384" lon="6.19867">
        <ele>1595.2205</ele>
        <time>2021-07-05T15:00:34</time>
      </trkpt>
      <trkpt lat="45.42384" lon="6.19867">
        <ele>1595.2205</ele>
        <time>2021-07-05T15:00:35</time>
      </trkpt>
      <trkpt lat="45.42382" lon="6.1987">
        <ele>1595.2205</ele>
        <time>2021-07-05T15:00:37</time>
      </trkpt>
      <trkpt lat="45.42381" lon="6.19871">
        <ele>1595.2205</ele>
        <time>2021-07-05T15:00:38</time>
      </trkpt>
      <trkpt lat="45.42379" lon="6.19873">
        <ele>1595.2205</ele>
        <time>2021-07-05T15:00:40</time>
      </trkpt>
      <trkpt lat="45.42378" lon="6.19875">
        <ele>1595.2205</ele>
        <time>2021-07-05T15:00:42</time>
      </trkpt>
      <trkpt lat="45.42379" lon="6.19877">
        <ele>1585.0204</ele>
        <time>2021-07-05T15:00:43</time>
      </trkpt>
      <trkpt lat="45.42379" lon="6.19877">
        <ele>1585.0204</ele>
        <time>2021-07-05T15:00:47</time>
      </trkpt>
      <trkpt lat="45.42378" lon="6.19877">
        <ele>1585.0204</ele>
        <time>2021-07-05T15:00:48</time>
      </trkpt>
      <trkpt lat="45.42378" lon="6.19876">
        <ele>1585.0204</ele>
        <time>2021-07-05T15:00:49</time>
      </trkpt>
      <trkpt lat="45.42377" lon="6.19876">
        <ele>1585.0204</ele>
        <time>2021-07-05T15:00:50</time>
      </trkpt>
      <trkpt lat="45.42376" lon="6.19876">
        <ele>1585.0204</ele>
        <time>2021-07-05T15:00:51</time>
      </trkpt>
      <trkpt lat="45.42376" lon="6.19875">
        <ele>1585.0204</ele>
        <time>2021-07-05T15:00:52</time>
      </trkpt>
      <trkpt lat="45.42376" lon="6.19875">
        <ele>1581.8204</ele>
        <time>2021-07-05T15:00:53</time>
      </trkpt>
      <trkpt lat="45.42374" lon="6.19874">
        <ele>1581.8204</ele>
        <time>2021-07-05T15:00:56</time>
      </trkpt>
      <trkpt lat="45.42372" lon="6.19872">
        <ele>1581.8204</ele>
        <time>2021-07-05T15:00:59</time>
      </trkpt>
      <trkpt lat="45.42371" lon="6.19872">
        <ele>1581.8204</ele>
        <time>2021-07-05T15:01:01</time>
      </trkpt>
      <trkpt lat="45.42369" lon="6.1987">
        <ele>1585.2205</ele>
        <time>2021-07-05T15:01:04</time>
      </trkpt>
      <trkpt lat="45.42368" lon="6.19869">
        <ele>1585.2205</ele>
        <time>2021-07-05T15:01:07</time>
      </trkpt>
      <trkpt lat="45.42367" lon="6.19869">
        <ele>1585.2205</ele>
        <time>2021-07-05T15:01:08</time>
      </trkpt>
      <trkpt lat="45.42367" lon="6.19868">
        <ele>1585.2205</ele>
        <time>2021-07-05T15:01:09</time>
      </trkpt>
      <trkpt lat="45.42367" lon="6.19867">
        <ele>1585.2205</ele>
        <time>2021-07-05T15:01:11</time>
      </trkpt>
      <trkpt lat="45.42366" lon="6.19866">
        <ele>1585.2205</ele>
        <time>2021-07-05T15:01:12</time>
      </trkpt>
      <trkpt lat="45.42366" lon="6.19865">
        <ele>1585.1205</ele>
        <time>2021-07-05T15:01:14</time>
      </trkpt>
      <trkpt lat="45.42365" lon="6.19865">
        <ele>1586.0204</ele>
        <time>2021-07-05T15:01:39</time>
      </trkpt>
      <trkpt lat="45.42364" lon="6.19864">
        <ele>1586.0204</ele>
        <time>2021-07-05T15:01:40</time>
      </trkpt>
      <trkpt lat="45.42362" lon="6.19857">
        <ele>1578.0204</ele>
        <time>2021-07-05T15:02:07</time>
      </trkpt>
      <trkpt lat="45.42362" lon="6.19855">
        <ele>1578.0204</ele>
        <time>2021-07-05T15:02:08</time>
      </trkpt>
      <trkpt lat="45.42362" lon="6.19855">
        <ele>1578.0204</ele>
        <time>2021-07-05T15:02:09</time>
      </trkpt>
      <trkpt lat="45.42362" lon="6.19852">
        <ele>1575.4204</ele>
        <time>2021-07-05T15:02:35</time>
      </trkpt>
      <trkpt lat="45.42363" lon="6.19852">
        <ele>1575.4204</ele>
        <time>2021-07-05T15:02:36</time>
      </trkpt>
      <trkpt lat="45.42363" lon="6.19851">
        <ele>1575.4204</ele>
        <time>2021-07-05T15:02:37</time>
      </trkpt>
      <trkpt lat="45.42362" lon="6.19847">
        <ele>1575.6205</ele>
        <time>2021-07-05T15:22:00</time>
      </trkpt>
      <trkpt lat="45.42362" lon="6.19847">
        <ele>1577.7205</ele>
        <time>2021-07-05T15:22:30</time>
      </trkpt>
      <trkpt lat="45.42362" lon="6.19846">
        <ele>1577.7205</ele>
        <time>2021-07-05T15:22:51</time>
      </trkpt>
      <trkpt lat="45.42363" lon="6.19843">
        <ele>1577.7205</ele>
        <time>2021-07-05T15:22:54</time>
      </trkpt>
      <trkpt lat="45.42364" lon="6.19843">
        <ele>1577.7205</ele>
        <time>2021-07-05T15:22:55</time>
      </trkpt>
      <trkpt lat="45.42364" lon="6.19842">
        <ele>1578.8538</ele>
        <time>2021-07-05T15:22:56</time>
      </trkpt>
      <trkpt lat="45.42365" lon="6.19841">
        <ele>1578.8538</ele>
        <time>2021-07-05T15:22:57</time>
      </trkpt>
      <trkpt lat="45.42365" lon="6.19839">
        <ele>1578.8538</ele>
        <time>2021-07-05T15:22:59</time>
      </trkpt>
      <trkpt lat="45.42366" lon="6.19835">
        <ele>1578.8538</ele>
        <time>2021-07-05T15:23:03</time>
      </trkpt>
      <trkpt lat="45.42367" lon="6.19828">
        <ele>1580.0204</ele>
        <time>2021-07-05T15:23:09</time>
      </trkpt>
      <trkpt lat="45.42368" lon="6.19825">
        <ele>1580.0204</ele>
        <time>2021-07-05T15:23:13</time>
      </trkpt>
      <trkpt lat="45.42374" lon="6.19808">
        <ele>1581.5204</ele>
        <time>2021-07-05T15:23:30</time>
      </trkpt>
      <trkpt lat="45.42374" lon="6.19807">
        <ele>1581.5204</ele>
        <time>2021-07-05T15:23:31</time>
      </trkpt>
      <trkpt lat="45.42373" lon="6.19802">
        <ele>1581.5204</ele>
        <time>2021-07-05T15:23:34</time>
      </trkpt>
      <trkpt lat="45.42372" lon="6.19798">
        <ele>1582.0204</ele>
        <time>2021-07-05T15:23:39</time>
      </trkpt>
      <trkpt lat="45.42371" lon="6.19792">
        <ele>1581.6205</ele>
        <time>2021-07-05T15:23:46</time>
      </trkpt>
      <trkpt lat="45.42377" lon="6.19772">
        <ele>1579.2205</ele>
        <time>2021-07-05T15:24:03</time>
      </trkpt>
      <trkpt lat="45.42377" lon="6.19769">
        <ele>1579.2205</ele>
        <time>2021-07-05T15:24:05</time>
      </trkpt>
      <trkpt lat="45.42377" lon="6.19768">
        <ele>1579.2205</ele>
        <time>2021-07-05T15:24:06</time>
      </trkpt>
      <trkpt lat="45.42376" lon="6.19767">
        <ele>1577.4204</ele>
        <time>2021-07-05T15:24:07</time>
      </trkpt>
      <trkpt lat="45.42376" lon="6.19763">
        <ele>1577.4204</ele>
        <time>2021-07-05T15:24:10</time>
      </trkpt>
      <trkpt lat="45.4238" lon="6.1975">
        <ele>1577.0204</ele>
        <time>2021-07-05T15:24:24</time>
      </trkpt>
      <trkpt lat="45.4238" lon="6.19749">
        <ele>1577.0204</ele>
        <time>2021-07-05T15:24:25</time>
      </trkpt>
      <trkpt lat="45.42381" lon="6.19747">
        <ele>1577.0204</ele>
        <time>2021-07-05T15:24:26</time>
      </trkpt>
      <trkpt lat="45.42381" lon="6.19741">
        <ele>1575.7205</ele>
        <time>2021-07-05T15:24:31</time>
      </trkpt>
      <trkpt lat="45.42381" lon="6.1974">
        <ele>1575.7205</ele>
        <time>2021-07-05T15:24:32</time>
      </trkpt>
      <trkpt lat="45.42381" lon="6.1974">
        <ele>1575.7205</ele>
        <time>2021-07-05T15:24:33</time>
      </trkpt>
      <trkpt lat="45.42381" lon="6.19739">
        <ele>1575.7205</ele>
        <time>2021-07-05T15:24:34</time>
      </trkpt>
      <trkpt lat="45.42382" lon="6.19733">
        <ele>1575.7205</ele>
        <time>2021-07-05T15:24:42</time>
      </trkpt>
      <trkpt lat="45.42381" lon="6.19728">
        <ele>1574.8204</ele>
        <time>2021-07-05T15:24:48</time>
      </trkpt>
      <trkpt lat="45.42381" lon="6.19728">
        <ele>1574.8204</ele>
        <time>2021-07-05T15:24:49</time>
      </trkpt>
      <trkpt lat="45.4238" lon="6.19727">
        <ele>1574.8204</ele>
        <time>2021-07-05T15:24:50</time>
      </trkpt>
      <trkpt lat="45.4238" lon="6.19724">
        <ele>1574.8204</ele>
        <time>2021-07-05T15:24:52</time>
      </trkpt>
      <trkpt lat="45.42379" lon="6.19722">
        <ele>1574.8204</ele>
        <time>2021-07-05T15:24:54</time>
      </trkpt>
      <trkpt lat="45.42379" lon="6.19721">
        <ele>1574.8204</ele>
        <time>2021-07-05T15:24:55</time>
      </trkpt>
      <trkpt lat="45.42379" lon="6.19719">
        <ele>1576.7205</ele>
        <time>2021-07-05T15:24:58</time>
      </trkpt>
      <trkpt lat="45.42379" lon="6.19717">
        <ele>1576.7205</ele>
        <time>2021-07-05T15:24:59</time>
      </trkpt>
      <trkpt lat="45.42379" lon="6.19704">
        <ele>1577.6205</ele>
        <time>2021-07-05T15:25:08</time>
      </trkpt>
      <trkpt lat="45.42382" lon="6.19692">
        <ele>1567.2205</ele>
        <time>2021-07-05T15:25:22</time>
      </trkpt>
      <trkpt lat="45.42383" lon="6.19691">
        <ele>1567.2205</ele>
        <time>2021-07-05T15:25:24</time>
      </trkpt>
      <trkpt lat="45.42383" lon="6.1969">
        <ele>1567.2205</ele>
        <time>2021-07-05T15:25:25</time>
      </trkpt>
      <trkpt lat="45.42384" lon="6.19689">
        <ele>1569.6205</ele>
        <time>2021-07-05T15:25:27</time>
      </trkpt>
      <trkpt lat="45.42384" lon="6.19688">
        <ele>1569.6205</ele>
        <time>2021-07-05T15:25:28</time>
      </trkpt>
      <trkpt lat="45.42384" lon="6.19688">
        <ele>1569.6205</ele>
        <time>2021-07-05T15:25:30</time>
      </trkpt>
      <trkpt lat="45.42386" lon="6.1968">
        <ele>1572.7205</ele>
        <time>2021-07-05T15:25:40</time>
      </trkpt>
      <trkpt lat="45.42386" lon="6.1968">
        <ele>1572.7205</ele>
        <time>2021-07-05T15:25:41</time>
      </trkpt>
      <trkpt lat="45.42386" lon="6.1968">
        <ele>1572.7205</ele>
        <time>2021-07-05T15:25:42</time>
      </trkpt>
      <trkpt lat="45.42386" lon="6.19679">
        <ele>1572.7205</ele>
        <time>2021-07-05T15:25:44</time>
      </trkpt>
      <trkpt lat="45.42387" lon="6.19677">
        <ele>1573.3204</ele>
        <time>2021-07-05T15:25:47</time>
      </trkpt>
      <trkpt lat="45.42388" lon="6.19676">
        <ele>1573.3204</ele>
        <time>2021-07-05T15:25:48</time>
      </trkpt>
      <trkpt lat="45.42388" lon="6.19675">
        <ele>1573.3204</ele>
        <time>2021-07-05T15:25:50</time>
      </trkpt>
      <trkpt lat="45.42388" lon="6.19672">
        <ele>1573.3204</ele>
        <time>2021-07-05T15:25:54</time>
      </trkpt>
      <trkpt lat="45.42388" lon="6.1967">
        <ele>1572.1205</ele>
        <time>2021-07-05T15:25:57</time>
      </trkpt>
      <trkpt lat="45.42388" lon="6.19667">
        <ele>1572.1205</ele>
        <time>2021-07-05T15:26:00</time>
      </trkpt>
      <trkpt lat="45.42388" lon="6.19665">
        <ele>1572.1205</ele>
        <time>2021-07-05T15:26:04</time>
      </trkpt>
      <trkpt lat="45.42387" lon="6.19661">
        <ele>1568.0204</ele>
        <time>2021-07-05T15:26:09</time>
      </trkpt>
      <trkpt lat="45.42387" lon="6.19661">
        <ele>1568.0204</ele>
        <time>2021-07-05T15:26:10</time>
      </trkpt>
      <trkpt lat="45.42386" lon="6.19654">
        <ele>1567.4204</ele>
        <time>2021-07-05T15:26:18</time>
      </trkpt>
      <trkpt lat="45.42386" lon="6.19653">
        <ele>1567.4204</ele>
        <time>2021-07-05T15:26:21</time>
      </trkpt>
      <trkpt lat="45.42385" lon="6.19651">
        <ele>1567.4204</ele>
        <time>2021-07-05T15:26:23</time>
      </trkpt>
      <trkpt lat="45.42385" lon="6.1965">
        <ele>1567.4204</ele>
        <time>2021-07-05T15:26:24</time>
      </trkpt>
      <trkpt lat="45.42385" lon="6.19649">
        <ele>1567.4204</ele>
        <time>2021-07-05T15:26:25</time>
      </trkpt>
      <trkpt lat="45.42384" lon="6.19648">
        <ele>1566.9204</ele>
        <time>2021-07-05T15:26:27</time>
      </trkpt>
      <trkpt lat="45.42383" lon="6.19647">
        <ele>1566.9204</ele>
        <time>2021-07-05T15:26:28</time>
      </trkpt>
      <trkpt lat="45.42382" lon="6.19646">
        <ele>1566.9204</ele>
        <time>2021-07-05T15:26:29</time>
      </trkpt>
      <trkpt lat="45.42381" lon="6.19645">
        <ele>1566.9204</ele>
        <time>2021-07-05T15:26:30</time>
      </trkpt>
      <trkpt lat="45.4238" lon="6.19645">
        <ele>1566.9204</ele>
        <time>2021-07-05T15:26:31</time>
      </trkpt>
      <trkpt lat="45.42379" lon="6.19644">
        <ele>1566.9204</ele>
        <time>2021-07-05T15:26:32</time>
      </trkpt>
      <trkpt lat="45.42379" lon="6.19644">
        <ele>1566.9204</ele>
        <time>2021-07-05T15:26:33</time>
      </trkpt>
      <trkpt lat="45.42379" lon="6.19642">
        <ele>1566.9204</ele>
        <time>2021-07-05T15:26:34</time>
      </trkpt>
      <trkpt lat="45.42379" lon="6.1964">
        <ele>1566.9204</ele>
        <time>2021-07-05T15:26:35</time>
      </trkpt>
      <trkpt lat="45.42379" lon="6.19638">
        <ele>1566.9204</ele>
        <time>2021-07-05T15:26:36</time>
      </trkpt>
      <trkpt lat="45.42379" lon="6.19637">
        <ele>1570.5204</ele>
        <time>2021-07-05T15:26:37</time>
      </trkpt>
      <trkpt lat="45.4238" lon="6.19636">
        <ele>1570.5204</ele>
        <time>2021-07-05T15:26:38</time>
      </trkpt>
      <trkpt lat="45.4238" lon="6.19635">
        <ele>1570.5204</ele>
        <time>2021-07-05T15:26:43</time>
      </trkpt>
      <trkpt lat="45.42381" lon="6.19634">
        <ele>1570.5204</ele>
        <time>2021-07-05T15:26:44</time>
      </trkpt>
      <trkpt lat="45.42381" lon="6.1963">
        <ele>1568.0204</ele>
        <time>2021-07-05T15:26:50</time>
      </trkpt>
      <trkpt lat="45.42381" lon="6.1963">
        <ele>1568.0204</ele>
        <time>2021-07-05T15:26:51</time>
      </trkpt>
      <trkpt lat="45.42382" lon="6.19629">
        <ele>1568.0204</ele>
        <time>2021-07-05T15:26:52</time>
      </trkpt>
      <trkpt lat="45.42382" lon="6.19624">
        <ele>1567.1205</ele>
        <time>2021-07-05T15:27:08</time>
      </trkpt>
      <trkpt lat="45.42382" lon="6.19623">
        <ele>1567.1205</ele>
        <time>2021-07-05T15:27:09</time>
      </trkpt>
      <trkpt lat="45.42382" lon="6.19622">
        <ele>1567.1205</ele>
        <time>2021-07-05T15:27:10</time>
      </trkpt>
      <trkpt lat="45.42381" lon="6.19621">
        <ele>1567.1205</ele>
        <time>2021-07-05T15:27:11</time>
      </trkpt>
      <trkpt lat="45.42381" lon="6.19619">
        <ele>1567.1205</ele>
        <time>2021-07-05T15:27:13</time>
      </trkpt>
      <trkpt lat="45.4238" lon="6.19618">
        <ele>1568.1205</ele>
        <time>2021-07-05T15:27:17</time>
      </trkpt>
      <trkpt lat="45.4238" lon="6.19615">
        <ele>1568.1205</ele>
        <time>2021-07-05T15:27:19</time>
      </trkpt>
      <trkpt lat="45.4238" lon="6.19612">
        <ele>1568.1205</ele>
        <time>2021-07-05T15:27:21</time>
      </trkpt>
      <trkpt lat="45.42379" lon="6.1961">
        <ele>1568.1205</ele>
        <time>2021-07-05T15:27:22</time>
      </trkpt>
      <trkpt lat="45.42378" lon="6.19609">
        <ele>1568.1205</ele>
        <time>2021-07-05T15:27:23</time>
      </trkpt>
      <trkpt lat="45.42373" lon="6.19603">
        <ele>1566.5204</ele>
        <time>2021-07-05T15:27:34</time>
      </trkpt>
      <trkpt lat="45.42373" lon="6.19601">
        <ele>1566.5204</ele>
        <time>2021-07-05T15:27:35</time>
      </trkpt>
      <trkpt lat="45.42372" lon="6.196">
        <ele>1559.2205</ele>
        <time>2021-07-05T15:27:37</time>
      </trkpt>
      <trkpt lat="45.42371" lon="6.19597">
        <ele>1559.2205</ele>
        <time>2021-07-05T15:27:39</time>
      </trkpt>
      <trkpt lat="45.4237" lon="6.19596">
        <ele>1559.2205</ele>
        <time>2021-07-05T15:27:40</time>
      </trkpt>
      <trkpt lat="45.42371" lon="6.19595">
        <ele>1559.2205</ele>
        <time>2021-07-05T15:27:44</time>
      </trkpt>
      <trkpt lat="45.42371" lon="6.19593">
        <ele>1559.2205</ele>
        <time>2021-07-05T15:27:45</time>
      </trkpt>
      <trkpt lat="45.42372" lon="6.19592">
        <ele>1559.2205</ele>
        <time>2021-07-05T15:27:46</time>
      </trkpt>
      <trkpt lat="45.42372" lon="6.1959">
        <ele>1551.4204</ele>
        <time>2021-07-05T15:27:48</time>
      </trkpt>
      <trkpt lat="45.42371" lon="6.19589">
        <ele>1551.4204</ele>
        <time>2021-07-05T15:27:49</time>
      </trkpt>
      <trkpt lat="45.4237" lon="6.19586">
        <ele>1551.4204</ele>
        <time>2021-07-05T15:27:51</time>
      </trkpt>
      <trkpt lat="45.4237" lon="6.19585">
        <ele>1551.4204</ele>
        <time>2021-07-05T15:27:52</time>
      </trkpt>
      <trkpt lat="45.42369" lon="6.19582">
        <ele>1551.4204</ele>
        <time>2021-07-05T15:27:54</time>
      </trkpt>
      <trkpt lat="45.42369" lon="6.19579">
        <ele>1548.7205</ele>
        <time>2021-07-05T15:27:57</time>
      </trkpt>
      <trkpt lat="45.42367" lon="6.19577">
        <ele>1548.7205</ele>
        <time>2021-07-05T15:28:00</time>
      </trkpt>
      <trkpt lat="45.42368" lon="6.19576">
        <ele>1548.7205</ele>
        <time>2021-07-05T15:28:01</time>
      </trkpt>
      <trkpt lat="45.42367" lon="6.19574">
        <ele>1548.7205</ele>
        <time>2021-07-05T15:28:05</time>
      </trkpt>
      <trkpt lat="45.42366" lon="6.19574">
        <ele>1548.7205</ele>
        <time>2021-07-05T15:28:06</time>
      </trkpt>
      <trkpt lat="45.42367" lon="6.19568">
        <ele>1549.0204</ele>
        <time>2021-07-05T15:28:10</time>
      </trkpt>
      <trkpt lat="45.42366" lon="6.19566">
        <ele>1549.0204</ele>
        <time>2021-07-05T15:28:11</time>
      </trkpt>
      <trkpt lat="45.42366" lon="6.19565">
        <ele>1549.0204</ele>
        <time>2021-07-05T15:28:12</time>
      </trkpt>
      <trkpt lat="45.42366" lon="6.19564">
        <ele>1549.0204</ele>
        <time>2021-07-05T15:28:13</time>
      </trkpt>
      <trkpt lat="45.42365" lon="6.19564">
        <ele>1549.0204</ele>
        <time>2021-07-05T15:28:14</time>
      </trkpt>
      <trkpt lat="45.42363" lon="6.1956">
        <ele>1549.1205</ele>
        <time>2021-07-05T15:28:19</time>
      </trkpt>
      <trkpt lat="45.42363" lon="6.19559">
        <ele>1549.1205</ele>
        <time>2021-07-05T15:28:20</time>
      </trkpt>
      <trkpt lat="45.42363" lon="6.19558">
        <ele>1549.1205</ele>
        <time>2021-07-05T15:28:21</time>
      </trkpt>
      <trkpt lat="45.42363" lon="6.19557">
        <ele>1549.1205</ele>
        <time>2021-07-05T15:28:22</time>
      </trkpt>
      <trkpt lat="45.42362" lon="6.19557">
        <ele>1549.1205</ele>
        <time>2021-07-05T15:28:23</time>
      </trkpt>
      <trkpt lat="45.42362" lon="6.19557">
        <ele>1549.1205</ele>
        <time>2021-07-05T15:28:24</time>
      </trkpt>
      <trkpt lat="45.42361" lon="6.19557">
        <ele>1549.1205</ele>
        <time>2021-07-05T15:28:25</time>
      </trkpt>
      <trkpt lat="45.42361" lon="6.19558">
        <ele>1549.1205</ele>
        <time>2021-07-05T15:28:26</time>
      </trkpt>
      <trkpt lat="45.42361" lon="6.19558">
        <ele>1546.0204</ele>
        <time>2021-07-05T15:28:27</time>
      </trkpt>
      <trkpt lat="45.42361" lon="6.19557">
        <ele>1546.0204</ele>
        <time>2021-07-05T15:28:28</time>
      </trkpt>
      <trkpt lat="45.42361" lon="6.19556">
        <ele>1546.0204</ele>
        <time>2021-07-05T15:28:29</time>
      </trkpt>
      <trkpt lat="45.4236" lon="6.19555">
        <ele>1546.0204</ele>
        <time>2021-07-05T15:28:30</time>
      </trkpt>
      <trkpt lat="45.42359" lon="6.19553">
        <ele>1546.0204</ele>
        <time>2021-07-05T15:28:31</time>
      </trkpt>
      <trkpt lat="45.42359" lon="6.19551">
        <ele>1546.0204</ele>
        <time>2021-07-05T15:28:33</time>
      </trkpt>
      <trkpt lat="45.4236" lon="6.1955">
        <ele>1546.0204</ele>
        <time>2021-07-05T15:28:34</time>
      </trkpt>
      <trkpt lat="45.4236" lon="6.19549">
        <ele>1546.0204</ele>
        <time>2021-07-05T15:28:35</time>
      </trkpt>
      <trkpt lat="45.42359" lon="6.19549">
        <ele>1546.0204</ele>
        <time>2021-07-05T15:28:36</time>
      </trkpt>
      <trkpt lat="45.42359" lon="6.19548">
        <ele>1548.6205</ele>
        <time>2021-07-05T15:28:37</time>
      </trkpt>
      <trkpt lat="45.42358" lon="6.19548">
        <ele>1548.6205</ele>
        <time>2021-07-05T15:28:40</time>
      </trkpt>
      <trkpt lat="45.42356" lon="6.19548">
        <ele>1548.6205</ele>
        <time>2021-07-05T15:28:42</time>
      </trkpt>
      <trkpt lat="45.42355" lon="6.19548">
        <ele>1548.6205</ele>
        <time>2021-07-05T15:28:43</time>
      </trkpt>
      <trkpt lat="45.42354" lon="6.19546">
        <ele>1545.3204</ele>
        <time>2021-07-05T15:28:52</time>
      </trkpt>
      <trkpt lat="45.42354" lon="6.19544">
        <ele>1545.3204</ele>
        <time>2021-07-05T15:28:53</time>
      </trkpt>
      <trkpt lat="45.42355" lon="6.19543">
        <ele>1545.3204</ele>
        <time>2021-07-05T15:28:54</time>
      </trkpt>
      <trkpt lat="45.42354" lon="6.19542">
        <ele>1545.3204</ele>
        <time>2021-07-05T15:28:55</time>
      </trkpt>
      <trkpt lat="45.42354" lon="6.19542">
        <ele>1545.3204</ele>
        <time>2021-07-05T15:28:56</time>
      </trkpt>
      <trkpt lat="45.42352" lon="6.19541">
        <ele>1547.3204</ele>
        <time>2021-07-05T15:28:57</time>
      </trkpt>
      <trkpt lat="45.42351" lon="6.1954">
        <ele>1547.3204</ele>
        <time>2021-07-05T15:29:02</time>
      </trkpt>
      <trkpt lat="45.42351" lon="6.19539">
        <ele>1547.3204</ele>
        <time>2021-07-05T15:29:03</time>
      </trkpt>
      <trkpt lat="45.42351" lon="6.19538">
        <ele>1547.3204</ele>
        <time>2021-07-05T15:29:04</time>
      </trkpt>
      <trkpt lat="45.42349" lon="6.19536">
        <ele>1547.3204</ele>
        <time>2021-07-05T15:29:06</time>
      </trkpt>
      <trkpt lat="45.42349" lon="6.19535">
        <ele>1544.2205</ele>
        <time>2021-07-05T15:29:07</time>
      </trkpt>
      <trkpt lat="45.42349" lon="6.19534">
        <ele>1544.2205</ele>
        <time>2021-07-05T15:29:08</time>
      </trkpt>
      <trkpt lat="45.42349" lon="6.19532">
        <ele>1544.2205</ele>
        <time>2021-07-05T15:29:09</time>
      </trkpt>
      <trkpt lat="45.42348" lon="6.19531">
        <ele>1544.2205</ele>
        <time>2021-07-05T15:29:10</time>
      </trkpt>
      <trkpt lat="45.42346" lon="6.19527">
        <ele>1544.2205</ele>
        <time>2021-07-05T15:29:13</time>
      </trkpt>
      <trkpt lat="45.42345" lon="6.19523">
        <ele>1544.2205</ele>
        <time>2021-07-05T15:29:16</time>
      </trkpt>
      <trkpt lat="45.42345" lon="6.19521">
        <ele>1537.2205</ele>
        <time>2021-07-05T15:29:18</time>
      </trkpt>
      <trkpt lat="45.42347" lon="6.19518">
        <ele>1537.2205</ele>
        <time>2021-07-05T15:29:20</time>
      </trkpt>
      <trkpt lat="45.42348" lon="6.19516">
        <ele>1537.2205</ele>
        <time>2021-07-05T15:29:22</time>
      </trkpt>
      <trkpt lat="45.42345" lon="6.19505">
        <ele>1536.7205</ele>
        <time>2021-07-05T15:29:31</time>
      </trkpt>
      <trkpt lat="45.42345" lon="6.19503">
        <ele>1536.7205</ele>
        <time>2021-07-05T15:29:35</time>
      </trkpt>
      <trkpt lat="45.42345" lon="6.19498">
        <ele>1535.3204</ele>
        <time>2021-07-05T15:29:40</time>
      </trkpt>
      <trkpt lat="45.42345" lon="6.19497">
        <ele>1535.3204</ele>
        <time>2021-07-05T15:29:41</time>
      </trkpt>
      <trkpt lat="45.42344" lon="6.19495">
        <ele>1535.3204</ele>
        <time>2021-07-05T15:29:43</time>
      </trkpt>
      <trkpt lat="45.42344" lon="6.19494">
        <ele>1535.3204</ele>
        <time>2021-07-05T15:29:44</time>
      </trkpt>
      <trkpt lat="45.42344" lon="6.19493">
        <ele>1535.3204</ele>
        <time>2021-07-05T15:29:45</time>
      </trkpt>
      <trkpt lat="45.42342" lon="6.19489">
        <ele>1536.4204</ele>
        <time>2021-07-05T15:29:58</time>
      </trkpt>
      <trkpt lat="45.42341" lon="6.19488">
        <ele>1536.4204</ele>
        <time>2021-07-05T15:29:59</time>
      </trkpt>
      <trkpt lat="45.42341" lon="6.19487">
        <ele>1536.4204</ele>
        <time>2021-07-05T15:30:00</time>
      </trkpt>
      <trkpt lat="45.4234" lon="6.19486">
        <ele>1536.4204</ele>
        <time>2021-07-05T15:30:01</time>
      </trkpt>
      <trkpt lat="45.42339" lon="6.19485">
        <ele>1536.4204</ele>
        <time>2021-07-05T15:30:03</time>
      </trkpt>
      <trkpt lat="45.42339" lon="6.19484">
        <ele>1536.4204</ele>
        <time>2021-07-05T15:30:04</time>
      </trkpt>
      <trkpt lat="45.42338" lon="6.19484">
        <ele>1536.4204</ele>
        <time>2021-07-05T15:30:05</time>
      </trkpt>
      <trkpt lat="45.42337" lon="6.19482">
        <ele>1534.7538</ele>
        <time>2021-07-05T15:30:07</time>
      </trkpt>
      <trkpt lat="45.42337" lon="6.1948">
        <ele>1534.7538</ele>
        <time>2021-07-05T15:30:08</time>
      </trkpt>
      <trkpt lat="45.42337" lon="6.19479">
        <ele>1534.7538</ele>
        <time>2021-07-05T15:30:09</time>
      </trkpt>
      <trkpt lat="45.42337" lon="6.19478">
        <ele>1534.7538</ele>
        <time>2021-07-05T15:30:10</time>
      </trkpt>
      <trkpt lat="45.42337" lon="6.19478">
        <ele>1534.7538</ele>
        <time>2021-07-05T15:30:11</time>
      </trkpt>
      <trkpt lat="45.42336" lon="6.19477">
        <ele>1534.7538</ele>
        <time>2021-07-05T15:30:13</time>
      </trkpt>
      <trkpt lat="45.42335" lon="6.19476">
        <ele>1533.5204</ele>
        <time>2021-07-05T15:30:17</time>
      </trkpt>
      <trkpt lat="45.42335" lon="6.19475">
        <ele>1533.5204</ele>
        <time>2021-07-05T15:30:18</time>
      </trkpt>
      <trkpt lat="45.42335" lon="6.19474">
        <ele>1533.5204</ele>
        <time>2021-07-05T15:30:21</time>
      </trkpt>
      <trkpt lat="45.42335" lon="6.19473">
        <ele>1533.5204</ele>
        <time>2021-07-05T15:30:22</time>
      </trkpt>
      <trkpt lat="45.42333" lon="6.19472">
        <ele>1532.3204</ele>
        <time>2021-07-05T15:30:27</time>
      </trkpt>
      <trkpt lat="45.42333" lon="6.19472">
        <ele>1532.3204</ele>
        <time>2021-07-05T15:30:28</time>
      </trkpt>
      <trkpt lat="45.42332" lon="6.19471">
        <ele>1532.3204</ele>
        <time>2021-07-05T15:30:29</time>
      </trkpt>
      <trkpt lat="45.42332" lon="6.19469">
        <ele>1532.3204</ele>
        <time>2021-07-05T15:30:32</time>
      </trkpt>
      <trkpt lat="45.4233" lon="6.19467">
        <ele>1532.3204</ele>
        <time>2021-07-05T15:30:35</time>
      </trkpt>
      <trkpt lat="45.4233" lon="6.19465">
        <ele>1531.8204</ele>
        <time>2021-07-05T15:30:40</time>
      </trkpt>
      <trkpt lat="45.4233" lon="6.19464">
        <ele>1531.8204</ele>
        <time>2021-07-05T15:30:41</time>
      </trkpt>
      <trkpt lat="45.4233" lon="6.19464">
        <ele>1531.8204</ele>
        <time>2021-07-05T15:30:42</time>
      </trkpt>
      <trkpt lat="45.4233" lon="6.19462">
        <ele>1531.8204</ele>
        <time>2021-07-05T15:30:44</time>
      </trkpt>
      <trkpt lat="45.4233" lon="6.1946">
        <ele>1532.7205</ele>
        <time>2021-07-05T15:30:49</time>
      </trkpt>
      <trkpt lat="45.42329" lon="6.19459">
        <ele>1532.7205</ele>
        <time>2021-07-05T15:30:50</time>
      </trkpt>
      <trkpt lat="45.42328" lon="6.19458">
        <ele>1532.7205</ele>
        <time>2021-07-05T15:30:53</time>
      </trkpt>
      <trkpt lat="45.42327" lon="6.19455">
        <ele>1530.1205</ele>
        <time>2021-07-05T15:30:58</time>
      </trkpt>
      <trkpt lat="45.42327" lon="6.19454">
        <ele>1530.1205</ele>
        <time>2021-07-05T15:30:59</time>
      </trkpt>
      <trkpt lat="45.42327" lon="6.19454">
        <ele>1530.1205</ele>
        <time>2021-07-05T15:31:01</time>
      </trkpt>
      <trkpt lat="45.42327" lon="6.19451">
        <ele>1527.4537</ele>
        <time>2021-07-05T15:31:12</time>
      </trkpt>
      <trkpt lat="45.42327" lon="6.19449">
        <ele>1527.4537</ele>
        <time>2021-07-05T15:31:13</time>
      </trkpt>
      <trkpt lat="45.42326" lon="6.19449">
        <ele>1527.4537</ele>
        <time>2021-07-05T15:31:14</time>
      </trkpt>
      <trkpt lat="45.42326" lon="6.19448">
        <ele>1527.4537</ele>
        <time>2021-07-05T15:31:15</time>
      </trkpt>
      <trkpt lat="45.42324" lon="6.19446">
        <ele>1528.1205</ele>
        <time>2021-07-05T15:31:22</time>
      </trkpt>
      <trkpt lat="45.42324" lon="6.19444">
        <ele>1528.1205</ele>
        <time>2021-07-05T15:31:23</time>
      </trkpt>
      <trkpt lat="45.42324" lon="6.19443">
        <ele>1528.1205</ele>
        <time>2021-07-05T15:31:24</time>
      </trkpt>
      <trkpt lat="45.42325" lon="6.19441">
        <ele>1528.1205</ele>
        <time>2021-07-05T15:31:25</time>
      </trkpt>
      <trkpt lat="45.42326" lon="6.19439">
        <ele>1522.5204</ele>
        <time>2021-07-05T15:31:28</time>
      </trkpt>
      <trkpt lat="45.42326" lon="6.19436">
        <ele>1522.5204</ele>
        <time>2021-07-05T15:31:30</time>
      </trkpt>
      <trkpt lat="45.42326" lon="6.19435">
        <ele>1522.5204</ele>
        <time>2021-07-05T15:31:33</time>
      </trkpt>
      <trkpt lat="45.42325" lon="6.19432">
        <ele>1522.5204</ele>
        <time>2021-07-05T15:31:38</time>
      </trkpt>
      <trkpt lat="45.42325" lon="6.19431">
        <ele>1522.5204</ele>
        <time>2021-07-05T15:31:39</time>
      </trkpt>
      <trkpt lat="45.42325" lon="6.1943">
        <ele>1522.5204</ele>
        <time>2021-07-05T15:31:40</time>
      </trkpt>
      <trkpt lat="45.42325" lon="6.19429">
        <ele>1522.5204</ele>
        <time>2021-07-05T15:31:41</time>
      </trkpt>
      <trkpt lat="45.42328" lon="6.19426">
        <ele>1522.6205</ele>
        <time>2021-07-05T15:31:48</time>
      </trkpt>
      <trkpt lat="45.42328" lon="6.19424">
        <ele>1522.6205</ele>
        <time>2021-07-05T15:31:53</time>
      </trkpt>
      <trkpt lat="45.42329" lon="6.19423">
        <ele>1522.6205</ele>
        <time>2021-07-05T15:31:54</time>
      </trkpt>
      <trkpt lat="45.4233" lon="6.19422">
        <ele>1522.6205</ele>
        <time>2021-07-05T15:31:55</time>
      </trkpt>
      <trkpt lat="45.4233" lon="6.1942">
        <ele>1517.9204</ele>
        <time>2021-07-05T15:31:57</time>
      </trkpt>
      <trkpt lat="45.42331" lon="6.1942">
        <ele>1517.9204</ele>
        <time>2021-07-05T15:31:58</time>
      </trkpt>
      <trkpt lat="45.4233" lon="6.1942">
        <ele>1517.9204</ele>
        <time>2021-07-05T15:32:04</time>
      </trkpt>
      <trkpt lat="45.4233" lon="6.19419">
        <ele>1517.9204</ele>
        <time>2021-07-05T15:32:05</time>
      </trkpt>
      <trkpt lat="45.42331" lon="6.19419">
        <ele>1517.9204</ele>
        <time>2021-07-05T15:32:06</time>
      </trkpt>
      <trkpt lat="45.42333" lon="6.19418">
        <ele>1520.4204</ele>
        <time>2021-07-05T15:32:09</time>
      </trkpt>
      <trkpt lat="45.42332" lon="6.19418">
        <ele>1520.4204</ele>
        <time>2021-07-05T15:32:11</time>
      </trkpt>
      <trkpt lat="45.42333" lon="6.19418">
        <ele>1520.4204</ele>
        <time>2021-07-05T15:32:12</time>
      </trkpt>
      <trkpt lat="45.42333" lon="6.19419">
        <ele>1520.4204</ele>
        <time>2021-07-05T15:32:13</time>
      </trkpt>
      <trkpt lat="45.42334" lon="6.19419">
        <ele>1520.4204</ele>
        <time>2021-07-05T15:32:15</time>
      </trkpt>
      <trkpt lat="45.42335" lon="6.1942">
        <ele>1520.2205</ele>
        <time>2021-07-05T15:32:17</time>
      </trkpt>
      <trkpt lat="45.42338" lon="6.19421">
        <ele>1520.2205</ele>
        <time>2021-07-05T15:32:24</time>
      </trkpt>
      <trkpt lat="45.42337" lon="6.19421">
        <ele>1520.2205</ele>
        <time>2021-07-05T15:32:25</time>
      </trkpt>
      <trkpt lat="45.42339" lon="6.19419">
        <ele>1511.0204</ele>
        <time>2021-07-05T15:32:29</time>
      </trkpt>
      <trkpt lat="45.42344" lon="6.19416">
        <ele>1507.4204</ele>
        <time>2021-07-05T15:32:38</time>
      </trkpt>
      <trkpt lat="45.42345" lon="6.19416">
        <ele>1507.4204</ele>
        <time>2021-07-05T15:32:39</time>
      </trkpt>
      <trkpt lat="45.42348" lon="6.19417">
        <ele>1507.4204</ele>
        <time>2021-07-05T15:32:41</time>
      </trkpt>
      <trkpt lat="45.4235" lon="6.19417">
        <ele>1507.4204</ele>
        <time>2021-07-05T15:32:44</time>
      </trkpt>
      <trkpt lat="45.42349" lon="6.19416">
        <ele>1507.4204</ele>
        <time>2021-07-05T15:32:45</time>
      </trkpt>
      <trkpt lat="45.4235" lon="6.19416">
        <ele>1507.4204</ele>
        <time>2021-07-05T15:32:46</time>
      </trkpt>
      <trkpt lat="45.42351" lon="6.19412">
        <ele>1506.9204</ele>
        <time>2021-07-05T15:32:51</time>
      </trkpt>
      <trkpt lat="45.42352" lon="6.19414">
        <ele>1504.7538</ele>
        <time>2021-07-05T15:33:00</time>
      </trkpt>
      <trkpt lat="45.42351" lon="6.19411">
        <ele>1504.7538</ele>
        <time>2021-07-05T15:33:05</time>
      </trkpt>
      <trkpt lat="45.42352" lon="6.1941">
        <ele>1504.8204</ele>
        <time>2021-07-05T15:33:07</time>
      </trkpt>
      <trkpt lat="45.42356" lon="6.19409">
        <ele>1504.8204</ele>
        <time>2021-07-05T15:33:12</time>
      </trkpt>
      <trkpt lat="45.42357" lon="6.19409">
        <ele>1504.8204</ele>
        <time>2021-07-05T15:33:13</time>
      </trkpt>
      <trkpt lat="45.42357" lon="6.19409">
        <ele>1504.8204</ele>
        <time>2021-07-05T15:33:14</time>
      </trkpt>
      <trkpt lat="45.42357" lon="6.1941">
        <ele>1504.8204</ele>
        <time>2021-07-05T15:33:15</time>
      </trkpt>
      <trkpt lat="45.42358" lon="6.19409">
        <ele>1501.8204</ele>
        <time>2021-07-05T15:33:24</time>
      </trkpt>
      <trkpt lat="45.4236" lon="6.19408">
        <ele>1501.8204</ele>
        <time>2021-07-05T15:33:26</time>
      </trkpt>
      <trkpt lat="45.42361" lon="6.19408">
        <ele>1498.3204</ele>
        <time>2021-07-05T15:33:28</time>
      </trkpt>
      <trkpt lat="45.42363" lon="6.19409">
        <ele>1498.3204</ele>
        <time>2021-07-05T15:33:29</time>
      </trkpt>
      <trkpt lat="45.42364" lon="6.19409">
        <ele>1498.3204</ele>
        <time>2021-07-05T15:33:30</time>
      </trkpt>
      <trkpt lat="45.42365" lon="6.19408">
        <ele>1498.3204</ele>
        <time>2021-07-05T15:33:31</time>
      </trkpt>
      <trkpt lat="45.42367" lon="6.1941">
        <ele>1493.1205</ele>
        <time>2021-07-05T15:33:39</time>
      </trkpt>
      <trkpt lat="45.42367" lon="6.19409">
        <ele>1493.1205</ele>
        <time>2021-07-05T15:33:40</time>
      </trkpt>
      <trkpt lat="45.42367" lon="6.19409">
        <ele>1493.1205</ele>
        <time>2021-07-05T15:33:41</time>
      </trkpt>
      <trkpt lat="45.42366" lon="6.19407">
        <ele>1493.1205</ele>
        <time>2021-07-05T15:33:44</time>
      </trkpt>
      <trkpt lat="45.42367" lon="6.19407">
        <ele>1493.1205</ele>
        <time>2021-07-05T15:33:45</time>
      </trkpt>
      <trkpt lat="45.42367" lon="6.19406">
        <ele>1493.1205</ele>
        <time>2021-07-05T15:33:46</time>
      </trkpt>
      <trkpt lat="45.42375" lon="6.19401">
        <ele>1489.6205</ele>
        <time>2021-07-05T15:33:57</time>
      </trkpt>
      <trkpt lat="45.42376" lon="6.194">
        <ele>1489.6205</ele>
        <time>2021-07-05T15:33:58</time>
      </trkpt>
      <trkpt lat="45.42379" lon="6.19398">
        <ele>1489.6205</ele>
        <time>2021-07-05T15:34:03</time>
      </trkpt>
      <trkpt lat="45.42379" lon="6.19398">
        <ele>1489.6205</ele>
        <time>2021-07-05T15:34:04</time>
      </trkpt>
      <trkpt lat="45.4238" lon="6.19396">
        <ele>1489.6205</ele>
        <time>2021-07-05T15:34:05</time>
      </trkpt>
      <trkpt lat="45.4238" lon="6.19395">
        <ele>1489.6205</ele>
        <time>2021-07-05T15:34:06</time>
      </trkpt>
      <trkpt lat="45.42379" lon="6.19395">
        <ele>1488.7205</ele>
        <time>2021-07-05T15:34:07</time>
      </trkpt>
      <trkpt lat="45.42379" lon="6.19394">
        <ele>1488.7205</ele>
        <time>2021-07-05T15:34:09</time>
      </trkpt>
      <trkpt lat="45.42379" lon="6.19395">
        <ele>1488.7205</ele>
        <time>2021-07-05T15:34:10</time>
      </trkpt>
      <trkpt lat="45.42378" lon="6.19395">
        <ele>1488.7205</ele>
        <time>2021-07-05T15:34:12</time>
      </trkpt>
      <trkpt lat="45.42378" lon="6.19395">
        <ele>1488.7205</ele>
        <time>2021-07-05T15:34:13</time>
      </trkpt>
      <trkpt lat="45.42379" lon="6.19389">
        <ele>1489.4204</ele>
        <time>2021-07-05T15:34:24</time>
      </trkpt>
      <trkpt lat="45.42377" lon="6.19383">
        <ele>1492.9204</ele>
        <time>2021-07-05T15:34:30</time>
      </trkpt>
      <trkpt lat="45.42377" lon="6.19379">
        <ele>1492.9204</ele>
        <time>2021-07-05T15:34:34</time>
      </trkpt>
      <trkpt lat="45.42376" lon="6.19377">
        <ele>1492.9204</ele>
        <time>2021-07-05T15:34:40</time>
      </trkpt>
      <trkpt lat="45.42375" lon="6.19376">
        <ele>1492.9204</ele>
        <time>2021-07-05T15:34:43</time>
      </trkpt>
      <trkpt lat="45.42376" lon="6.19375">
        <ele>1492.9204</ele>
        <time>2021-07-05T15:34:44</time>
      </trkpt>
      <trkpt lat="45.42376" lon="6.19371">
        <ele>1487.2205</ele>
        <time>2021-07-05T15:34:52</time>
      </trkpt>
      <trkpt lat="45.42373" lon="6.19363">
        <ele>1488.9204</ele>
        <time>2021-07-05T15:35:00</time>
      </trkpt>
      <trkpt lat="45.42371" lon="6.19362">
        <ele>1488.9204</ele>
        <time>2021-07-05T15:35:02</time>
      </trkpt>
      <trkpt lat="45.42371" lon="6.19362">
        <ele>1488.9204</ele>
        <time>2021-07-05T15:35:03</time>
      </trkpt>
      <trkpt lat="45.4237" lon="6.19362">
        <ele>1488.9204</ele>
        <time>2021-07-05T15:35:05</time>
      </trkpt>
      <trkpt lat="45.4237" lon="6.19361">
        <ele>1484.0537</ele>
        <time>2021-07-05T15:35:10</time>
      </trkpt>
      <trkpt lat="45.42373" lon="6.19358">
        <ele>1484.0537</ele>
        <time>2021-07-05T15:35:15</time>
      </trkpt>
      <trkpt lat="45.42373" lon="6.19357">
        <ele>1484.0537</ele>
        <time>2021-07-05T15:35:16</time>
      </trkpt>
      <trkpt lat="45.42373" lon="6.19357">
        <ele>1482.4204</ele>
        <time>2021-07-05T15:35:17</time>
      </trkpt>
      <trkpt lat="45.42373" lon="6.19355">
        <ele>1482.4204</ele>
        <time>2021-07-05T15:35:22</time>
      </trkpt>
      <trkpt lat="45.42373" lon="6.19354">
        <ele>1482.4204</ele>
        <time>2021-07-05T15:35:23</time>
      </trkpt>
      <trkpt lat="45.42373" lon="6.19353">
        <ele>1482.4204</ele>
        <time>2021-07-05T15:35:24</time>
      </trkpt>
      <trkpt lat="45.42373" lon="6.19348">
        <ele>1483.9204</ele>
        <time>2021-07-05T15:35:31</time>
      </trkpt>
      <trkpt lat="45.42373" lon="6.19347">
        <ele>1483.9204</ele>
        <time>2021-07-05T15:35:35</time>
      </trkpt>
      <trkpt lat="45.42373" lon="6.19341">
        <ele>1485.0204</ele>
        <time>2021-07-05T15:35:41</time>
      </trkpt>
      <trkpt lat="45.42373" lon="6.1934">
        <ele>1485.0204</ele>
        <time>2021-07-05T15:35:42</time>
      </trkpt>
      <trkpt lat="45.42372" lon="6.1934">
        <ele>1485.0204</ele>
        <time>2021-07-05T15:35:43</time>
      </trkpt>
      <trkpt lat="45.42371" lon="6.1934">
        <ele>1481.6205</ele>
        <time>2021-07-05T15:35:47</time>
      </trkpt>
      <trkpt lat="45.42372" lon="6.19336">
        <ele>1481.6205</ele>
        <time>2021-07-05T15:35:52</time>
      </trkpt>
      <trkpt lat="45.42372" lon="6.19335">
        <ele>1481.6205</ele>
        <time>2021-07-05T15:35:53</time>
      </trkpt>
      <trkpt lat="45.42373" lon="6.19333">
        <ele>1481.6205</ele>
        <time>2021-07-05T15:35:55</time>
      </trkpt>
      <trkpt lat="45.42373" lon="6.1933">
        <ele>1479.2205</ele>
        <time>2021-07-05T15:35:58</time>
      </trkpt>
      <trkpt lat="45.42373" lon="6.19328">
        <ele>1479.2205</ele>
        <time>2021-07-05T15:36:01</time>
      </trkpt>
      <trkpt lat="45.42377" lon="6.19326">
        <ele>1479.2205</ele>
        <time>2021-07-05T15:36:06</time>
      </trkpt>
      <trkpt lat="45.42378" lon="6.19325">
        <ele>1471.5204</ele>
        <time>2021-07-05T15:36:08</time>
      </trkpt>
      <trkpt lat="45.42377" lon="6.19322">
        <ele>1471.5204</ele>
        <time>2021-07-05T15:36:13</time>
      </trkpt>
      <trkpt lat="45.42379" lon="6.19321">
        <ele>1472.4204</ele>
        <time>2021-07-05T15:36:17</time>
      </trkpt>
      <trkpt lat="45.42379" lon="6.1932">
        <ele>1472.4204</ele>
        <time>2021-07-05T15:36:18</time>
      </trkpt>
      <trkpt lat="45.42379" lon="6.1932">
        <ele>1472.4204</ele>
        <time>2021-07-05T15:36:19</time>
      </trkpt>
      <trkpt lat="45.4238" lon="6.19319">
        <ele>1472.4204</ele>
        <time>2021-07-05T15:36:20</time>
      </trkpt>
      <trkpt lat="45.42381" lon="6.19319">
        <ele>1472.4204</ele>
        <time>2021-07-05T15:36:22</time>
      </trkpt>
      <trkpt lat="45.4238" lon="6.19317">
        <ele>1472.4204</ele>
        <time>2021-07-05T15:36:25</time>
      </trkpt>
      <trkpt lat="45.42381" lon="6.19312">
        <ele>1466.6205</ele>
        <time>2021-07-05T15:36:32</time>
      </trkpt>
      <trkpt lat="45.4238" lon="6.19311">
        <ele>1466.6205</ele>
        <time>2021-07-05T15:36:34</time>
      </trkpt>
      <trkpt lat="45.4238" lon="6.19309">
        <ele>1464.5204</ele>
        <time>2021-07-05T15:36:38</time>
      </trkpt>
      <trkpt lat="45.42381" lon="6.19309">
        <ele>1464.5204</ele>
        <time>2021-07-05T15:36:39</time>
      </trkpt>
      <trkpt lat="45.42382" lon="6.19308">
        <ele>1464.5204</ele>
        <time>2021-07-05T15:36:41</time>
      </trkpt>
      <trkpt lat="45.42385" lon="6.19305">
        <ele>1461.8204</ele>
        <time>2021-07-05T15:37:03</time>
      </trkpt>
      <trkpt lat="45.42385" lon="6.19305">
        <ele>1461.8204</ele>
        <time>2021-07-05T15:37:04</time>
      </trkpt>
      <trkpt lat="45.42385" lon="6.19304">
        <ele>1461.8204</ele>
        <time>2021-07-05T15:37:05</time>
      </trkpt>
      <trkpt lat="45.42384" lon="6.19304">
        <ele>1461.8204</ele>
        <time>2021-07-05T15:37:06</time>
      </trkpt>
      <trkpt lat="45.42384" lon="6.19303">
        <ele>1460.4204</ele>
        <time>2021-07-05T15:37:07</time>
      </trkpt>
      <trkpt lat="45.42386" lon="6.19298">
        <ele>1460.4204</ele>
        <time>2021-07-05T15:37:15</time>
      </trkpt>
      <trkpt lat="45.42388" lon="6.19294">
        <ele>1462.5204</ele>
        <time>2021-07-05T15:37:19</time>
      </trkpt>
      <trkpt lat="45.42387" lon="6.19287">
        <ele>1460.5204</ele>
        <time>2021-07-05T15:37:27</time>
      </trkpt>
      <trkpt lat="45.42386" lon="6.19286">
        <ele>1460.5204</ele>
        <time>2021-07-05T15:37:29</time>
      </trkpt>
      <trkpt lat="45.42386" lon="6.19283">
        <ele>1460.5204</ele>
        <time>2021-07-05T15:37:34</time>
      </trkpt>
      <trkpt lat="45.42387" lon="6.19282">
        <ele>1458.9204</ele>
        <time>2021-07-05T15:37:38</time>
      </trkpt>
      <trkpt lat="45.42387" lon="6.19281">
        <ele>1458.9204</ele>
        <time>2021-07-05T15:37:39</time>
      </trkpt>
      <trkpt lat="45.42387" lon="6.19278">
        <ele>1458.9204</ele>
        <time>2021-07-05T15:37:42</time>
      </trkpt>
      <trkpt lat="45.42388" lon="6.19275">
        <ele>1458.5204</ele>
        <time>2021-07-05T15:37:53</time>
      </trkpt>
      <trkpt lat="45.42389" lon="6.19274">
        <ele>1458.5204</ele>
        <time>2021-07-05T15:37:54</time>
      </trkpt>
      <trkpt lat="45.42392" lon="6.1927">
        <ele>1458.5204</ele>
        <time>2021-07-05T15:38:05</time>
      </trkpt>
      <trkpt lat="45.42396" lon="6.19266">
        <ele>1461.6205</ele>
        <time>2021-07-05T15:38:12</time>
      </trkpt>
      <trkpt lat="45.42398" lon="6.19264">
        <ele>1459.1205</ele>
        <time>2021-07-05T15:38:19</time>
      </trkpt>
      <trkpt lat="45.42397" lon="6.19264">
        <ele>1459.1205</ele>
        <time>2021-07-05T15:38:20</time>
      </trkpt>
      <trkpt lat="45.42397" lon="6.19263">
        <ele>1459.1205</ele>
        <time>2021-07-05T15:38:21</time>
      </trkpt>
      <trkpt lat="45.42397" lon="6.19263">
        <ele>1459.1205</ele>
        <time>2021-07-05T15:38:22</time>
      </trkpt>
      <trkpt lat="45.42397" lon="6.19263">
        <ele>1459.1205</ele>
        <time>2021-07-05T15:38:23</time>
      </trkpt>
      <trkpt lat="45.42397" lon="6.1926">
        <ele>1459.1205</ele>
        <time>2021-07-05T15:38:26</time>
      </trkpt>
      <trkpt lat="45.42398" lon="6.19253">
        <ele>1454.2205</ele>
        <time>2021-07-05T15:38:43</time>
      </trkpt>
      <trkpt lat="45.42398" lon="6.19251">
        <ele>1454.2205</ele>
        <time>2021-07-05T15:38:47</time>
      </trkpt>
      <trkpt lat="45.424" lon="6.19245">
        <ele>1454.2205</ele>
        <time>2021-07-05T15:38:56</time>
      </trkpt>
      <trkpt lat="45.424" lon="6.19245">
        <ele>1452.5204</ele>
        <time>2021-07-05T15:38:57</time>
      </trkpt>
      <trkpt lat="45.42399" lon="6.19244">
        <ele>1452.5204</ele>
        <time>2021-07-05T15:38:58</time>
      </trkpt>
      <trkpt lat="45.42398" lon="6.19242">
        <ele>1452.5204</ele>
        <time>2021-07-05T15:39:00</time>
      </trkpt>
      <trkpt lat="45.42397" lon="6.1924">
        <ele>1452.5204</ele>
        <time>2021-07-05T15:39:01</time>
      </trkpt>
      <trkpt lat="45.42397" lon="6.19238">
        <ele>1452.5204</ele>
        <time>2021-07-05T15:39:02</time>
      </trkpt>
      <trkpt lat="45.42396" lon="6.19232">
        <ele>1452.5204</ele>
        <time>2021-07-05T15:39:06</time>
      </trkpt>
      <trkpt lat="45.42397" lon="6.19226">
        <ele>1441.2205</ele>
        <time>2021-07-05T15:39:11</time>
      </trkpt>
      <trkpt lat="45.42398" lon="6.19223">
        <ele>1436.7205</ele>
        <time>2021-07-05T15:39:22</time>
      </trkpt>
      <trkpt lat="45.42398" lon="6.19217">
        <ele>1436.2205</ele>
        <time>2021-07-05T15:39:27</time>
      </trkpt>
      <trkpt lat="45.42398" lon="6.19214">
        <ele>1436.2205</ele>
        <time>2021-07-05T15:39:35</time>
      </trkpt>
      <trkpt lat="45.42397" lon="6.19213">
        <ele>1436.2205</ele>
        <time>2021-07-05T15:39:36</time>
      </trkpt>
      <trkpt lat="45.42397" lon="6.19211">
        <ele>1437.9204</ele>
        <time>2021-07-05T15:39:37</time>
      </trkpt>
      <trkpt lat="45.42398" lon="6.1921">
        <ele>1437.9204</ele>
        <time>2021-07-05T15:39:38</time>
      </trkpt>
      <trkpt lat="45.42398" lon="6.19209">
        <ele>1437.9204</ele>
        <time>2021-07-05T15:39:41</time>
      </trkpt>
      <trkpt lat="45.42399" lon="6.19209">
        <ele>1437.9204</ele>
        <time>2021-07-05T15:39:42</time>
      </trkpt>
      <trkpt lat="45.42398" lon="6.19206">
        <ele>1435.987</ele>
        <time>2021-07-05T15:39:48</time>
      </trkpt>
      <trkpt lat="45.42398" lon="6.19205">
        <ele>1435.987</ele>
        <time>2021-07-05T15:39:49</time>
      </trkpt>
      <trkpt lat="45.42397" lon="6.19204">
        <ele>1435.987</ele>
        <time>2021-07-05T15:39:51</time>
      </trkpt>
      <trkpt lat="45.42397" lon="6.19203">
        <ele>1435.987</ele>
        <time>2021-07-05T15:39:52</time>
      </trkpt>
      <trkpt lat="45.42396" lon="6.19202">
        <ele>1435.987</ele>
        <time>2021-07-05T15:39:53</time>
      </trkpt>
      <trkpt lat="45.42396" lon="6.19202">
        <ele>1435.987</ele>
        <time>2021-07-05T15:39:54</time>
      </trkpt>
      <trkpt lat="45.42397" lon="6.19202">
        <ele>1435.987</ele>
        <time>2021-07-05T15:39:55</time>
      </trkpt>
      <trkpt lat="45.42397" lon="6.19201">
        <ele>1435.987</ele>
        <time>2021-07-05T15:39:56</time>
      </trkpt>
      <trkpt lat="45.42397" lon="6.19202">
        <ele>1432.2205</ele>
        <time>2021-07-05T15:39:57</time>
      </trkpt>
      <trkpt lat="45.42397" lon="6.19202">
        <ele>1432.2205</ele>
        <time>2021-07-05T15:39:58</time>
      </trkpt>
      <trkpt lat="45.42397" lon="6.19201">
        <ele>1432.2205</ele>
        <time>2021-07-05T15:39:59</time>
      </trkpt>
      <trkpt lat="45.42397" lon="6.19198">
        <ele>1432.2205</ele>
        <time>2021-07-05T15:40:04</time>
      </trkpt>
      <trkpt lat="45.42396" lon="6.19198">
        <ele>1432.2205</ele>
        <time>2021-07-05T15:40:05</time>
      </trkpt>
      <trkpt lat="45.42396" lon="6.19196">
        <ele>1432.2205</ele>
        <time>2021-07-05T15:40:06</time>
      </trkpt>
      <trkpt lat="45.42393" lon="6.1919">
        <ele>1433.7205</ele>
        <time>2021-07-05T15:40:45</time>
      </trkpt>
      <trkpt lat="45.42392" lon="6.19188">
        <ele>1433.7205</ele>
        <time>2021-07-05T15:40:46</time>
      </trkpt>
      <trkpt lat="45.42388" lon="6.19182">
        <ele>1426.8204</ele>
        <time>2021-07-05T15:41:16</time>
      </trkpt>
      <trkpt lat="45.42388" lon="6.19182">
        <ele>1426.8204</ele>
        <time>2021-07-05T15:41:17</time>
      </trkpt>
      <trkpt lat="45.42384" lon="6.1917">
        <ele>1426.8204</ele>
        <time>2021-07-05T15:44:22</time>
      </trkpt>
      <trkpt lat="45.42384" lon="6.1917">
        <ele>1426.8204</ele>
        <time>2021-07-05T15:44:23</time>
      </trkpt>
      <trkpt lat="45.42384" lon="6.1917">
        <ele>1426.8204</ele>
        <time>2021-07-05T15:44:24</time>
      </trkpt>
      <trkpt lat="45.42382" lon="6.19172">
        <ele>1426.8204</ele>
        <time>2021-07-05T15:44:35</time>
      </trkpt>
      <trkpt lat="45.42382" lon="6.19171">
        <ele>1426.8204</ele>
        <time>2021-07-05T15:44:36</time>
      </trkpt>
      <trkpt lat="45.42381" lon="6.19169">
        <ele>1431.8204</ele>
        <time>2021-07-05T15:44:50</time>
      </trkpt>
      <trkpt lat="45.42382" lon="6.19168">
        <ele>1431.8204</ele>
        <time>2021-07-05T15:44:51</time>
      </trkpt>
      <trkpt lat="45.42382" lon="6.19166">
        <ele>1431.8204</ele>
        <time>2021-07-05T15:44:55</time>
      </trkpt>
      <trkpt lat="45.42383" lon="6.19166">
        <ele>1431.8204</ele>
        <time>2021-07-05T15:44:56</time>
      </trkpt>
      <trkpt lat="45.42384" lon="6.19165">
        <ele>1430.6205</ele>
        <time>2021-07-05T15:44:57</time>
      </trkpt>
      <trkpt lat="45.42385" lon="6.19165">
        <ele>1430.6205</ele>
        <time>2021-07-05T15:44:59</time>
      </trkpt>
      <trkpt lat="45.42385" lon="6.19164">
        <ele>1430.6205</ele>
        <time>2021-07-05T15:45:00</time>
      </trkpt>
      <trkpt lat="45.42386" lon="6.19163">
        <ele>1430.6205</ele>
        <time>2021-07-05T15:45:02</time>
      </trkpt>
      <trkpt lat="45.42387" lon="6.19162">
        <ele>1430.6205</ele>
        <time>2021-07-05T15:45:06</time>
      </trkpt>
      <trkpt lat="45.42387" lon="6.19162">
        <ele>1427.9204</ele>
        <time>2021-07-05T15:45:07</time>
      </trkpt>
      <trkpt lat="45.42389" lon="6.19164">
        <ele>1427.9204</ele>
        <time>2021-07-05T15:45:16</time>
      </trkpt>
      <trkpt lat="45.42389" lon="6.19163">
        <ele>1428.3204</ele>
        <time>2021-07-05T15:45:17</time>
      </trkpt>
      <trkpt lat="45.42389" lon="6.19163">
        <ele>1428.3204</ele>
        <time>2021-07-05T15:45:18</time>
      </trkpt>
      <trkpt lat="45.42389" lon="6.19162">
        <ele>1428.3204</ele>
        <time>2021-07-05T15:45:19</time>
      </trkpt>
      <trkpt lat="45.4239" lon="6.19161">
        <ele>1428.3204</ele>
        <time>2021-07-05T15:45:20</time>
      </trkpt>
      <trkpt lat="45.4239" lon="6.19161">
        <ele>1428.3204</ele>
        <time>2021-07-05T15:45:21</time>
      </trkpt>
      <trkpt lat="45.42391" lon="6.19159">
        <ele>1424.4204</ele>
        <time>2021-07-05T15:45:45</time>
      </trkpt>
      <trkpt lat="45.4239" lon="6.19157">
        <ele>1424.4204</ele>
        <time>2021-07-05T15:45:46</time>
      </trkpt>
      <trkpt lat="45.4239" lon="6.19153">
        <ele>1424.9204</ele>
        <time>2021-07-05T15:45:49</time>
      </trkpt>
      <trkpt lat="45.42389" lon="6.19152">
        <ele>1424.9204</ele>
        <time>2021-07-05T15:45:50</time>
      </trkpt>
      <trkpt lat="45.42388" lon="6.19148">
        <ele>1424.9204</ele>
        <time>2021-07-05T15:45:53</time>
      </trkpt>
      <trkpt lat="45.42388" lon="6.19146">
        <ele>1424.9204</ele>
        <time>2021-07-05T15:45:55</time>
      </trkpt>
      <trkpt lat="45.42389" lon="6.19143">
        <ele>1425.7205</ele>
        <time>2021-07-05T15:45:57</time>
      </trkpt>
      <trkpt lat="45.42389" lon="6.1914">
        <ele>1425.7205</ele>
        <time>2021-07-05T15:45:58</time>
      </trkpt>
      <trkpt lat="45.4239" lon="6.19137">
        <ele>1415.5204</ele>
        <time>2021-07-05T15:46:07</time>
      </trkpt>
      <trkpt lat="45.42391" lon="6.19135">
        <ele>1415.5204</ele>
        <time>2021-07-05T15:46:09</time>
      </trkpt>
      <trkpt lat="45.42392" lon="6.19135">
        <ele>1415.5204</ele>
        <time>2021-07-05T15:46:10</time>
      </trkpt>
      <trkpt lat="45.42392" lon="6.19134">
        <ele>1415.5204</ele>
        <time>2021-07-05T15:46:11</time>
      </trkpt>
      <trkpt lat="45.42392" lon="6.19131">
        <ele>1415.5204</ele>
        <time>2021-07-05T15:46:14</time>
      </trkpt>
      <trkpt lat="45.42392" lon="6.1913">
        <ele>1415.5204</ele>
        <time>2021-07-05T15:46:15</time>
      </trkpt>
      <trkpt lat="45.42391" lon="6.1913">
        <ele>1414.4204</ele>
        <time>2021-07-05T15:46:17</time>
      </trkpt>
      <trkpt lat="45.42392" lon="6.1913">
        <ele>1414.4204</ele>
        <time>2021-07-05T15:46:18</time>
      </trkpt>
      <trkpt lat="45.42391" lon="6.19125">
        <ele>1414.2205</ele>
        <time>2021-07-05T15:46:35</time>
      </trkpt>
      <trkpt lat="45.4239" lon="6.19123">
        <ele>1414.2205</ele>
        <time>2021-07-05T15:46:37</time>
      </trkpt>
      <trkpt lat="45.4239" lon="6.19122">
        <ele>1414.2205</ele>
        <time>2021-07-05T15:46:38</time>
      </trkpt>
      <trkpt lat="45.4239" lon="6.1912">
        <ele>1414.2205</ele>
        <time>2021-07-05T15:46:40</time>
      </trkpt>
      <trkpt lat="45.42391" lon="6.19118">
        <ele>1414.2205</ele>
        <time>2021-07-05T15:46:41</time>
      </trkpt>
      <trkpt lat="45.42391" lon="6.19115">
        <ele>1414.2205</ele>
        <time>2021-07-05T15:46:42</time>
      </trkpt>
      <trkpt lat="45.42396" lon="6.19103">
        <ele>1414.2205</ele>
        <time>2021-07-05T15:46:49</time>
      </trkpt>
      <trkpt lat="45.42398" lon="6.19098">
        <ele>1414.2205</ele>
        <time>2021-07-05T15:46:52</time>
      </trkpt>
      <trkpt lat="45.424" lon="6.19096">
        <ele>1414.2205</ele>
        <time>2021-07-05T15:46:55</time>
      </trkpt>
      <trkpt lat="45.424" lon="6.19094">
        <ele>1405.9204</ele>
        <time>2021-07-05T15:46:59</time>
      </trkpt>
      <trkpt lat="45.42403" lon="6.19089">
        <ele>1405.9204</ele>
        <time>2021-07-05T15:47:15</time>
      </trkpt>
      <trkpt lat="45.42405" lon="6.19086">
        <ele>1405.9204</ele>
        <time>2021-07-05T15:47:17</time>
      </trkpt>
      <trkpt lat="45.42405" lon="6.19084">
        <ele>1405.9204</ele>
        <time>2021-07-05T15:47:18</time>
      </trkpt>
      <trkpt lat="45.42406" lon="6.1908">
        <ele>1405.9204</ele>
        <time>2021-07-05T15:47:20</time>
      </trkpt>
      <trkpt lat="45.42407" lon="6.19079">
        <ele>1405.9204</ele>
        <time>2021-07-05T15:47:21</time>
      </trkpt>
      <trkpt lat="45.42408" lon="6.19077">
        <ele>1405.9204</ele>
        <time>2021-07-05T15:47:22</time>
      </trkpt>
      <trkpt lat="45.4241" lon="6.19075">
        <ele>1405.9204</ele>
        <time>2021-07-05T15:47:23</time>
      </trkpt>
      <trkpt lat="45.42411" lon="6.19074">
        <ele>1405.9204</ele>
        <time>2021-07-05T15:47:24</time>
      </trkpt>
      <trkpt lat="45.42412" lon="6.19072">
        <ele>1405.9204</ele>
        <time>2021-07-05T15:47:25</time>
      </trkpt>
      <trkpt lat="45.42412" lon="6.19071">
        <ele>1405.9204</ele>
        <time>2021-07-05T15:47:26</time>
      </trkpt>
      <trkpt lat="45.42414" lon="6.19069">
        <ele>1409.0204</ele>
        <time>2021-07-05T15:47:28</time>
      </trkpt>
      <trkpt lat="45.42415" lon="6.19068">
        <ele>1409.0204</ele>
        <time>2021-07-05T15:47:29</time>
      </trkpt>
      <trkpt lat="45.42416" lon="6.19068">
        <ele>1409.0204</ele>
        <time>2021-07-05T15:47:30</time>
      </trkpt>
      <trkpt lat="45.42418" lon="6.19066">
        <ele>1409.0204</ele>
        <time>2021-07-05T15:47:32</time>
      </trkpt>
      <trkpt lat="45.42419" lon="6.19066">
        <ele>1409.0204</ele>
        <time>2021-07-05T15:47:33</time>
      </trkpt>
      <trkpt lat="45.42421" lon="6.19065">
        <ele>1409.0204</ele>
        <time>2021-07-05T15:47:34</time>
      </trkpt>
      <trkpt lat="45.42421" lon="6.19064">
        <ele>1409.0204</ele>
        <time>2021-07-05T15:47:35</time>
      </trkpt>
      <trkpt lat="45.42422" lon="6.19063">
        <ele>1409.0204</ele>
        <time>2021-07-05T15:47:36</time>
      </trkpt>
      <trkpt lat="45.42423" lon="6.19063">
        <ele>1409.0204</ele>
        <time>2021-07-05T15:47:37</time>
      </trkpt>
      <trkpt lat="45.42423" lon="6.19062">
        <ele>1409.0204</ele>
        <time>2021-07-05T15:47:38</time>
      </trkpt>
      <trkpt lat="45.42423" lon="6.19061">
        <ele>1409.0204</ele>
        <time>2021-07-05T15:47:39</time>
      </trkpt>
      <trkpt lat="45.42423" lon="6.19059">
        <ele>1409.0204</ele>
        <time>2021-07-05T15:47:42</time>
      </trkpt>
      <trkpt lat="45.42423" lon="6.19059">
        <ele>1409.0204</ele>
        <time>2021-07-05T15:47:43</time>
      </trkpt>
      <trkpt lat="45.42424" lon="6.19059">
        <ele>1409.0204</ele>
        <time>2021-07-05T15:47:44</time>
      </trkpt>
      <trkpt lat="45.42424" lon="6.19058">
        <ele>1409.0204</ele>
        <time>2021-07-05T15:47:45</time>
      </trkpt>
      <trkpt lat="45.42425" lon="6.19057">
        <ele>1409.0204</ele>
        <time>2021-07-05T15:47:46</time>
      </trkpt>
      <trkpt lat="45.42426" lon="6.19056">
        <ele>1396.7205</ele>
        <time>2021-07-05T15:47:47</time>
      </trkpt>
      <trkpt lat="45.42427" lon="6.19056">
        <ele>1396.7205</ele>
        <time>2021-07-05T15:47:48</time>
      </trkpt>
      <trkpt lat="45.4243" lon="6.19055">
        <ele>1396.7205</ele>
        <time>2021-07-05T15:47:52</time>
      </trkpt>
      <trkpt lat="45.42432" lon="6.19055">
        <ele>1396.7205</ele>
        <time>2021-07-05T15:47:55</time>
      </trkpt>
      <trkpt lat="45.42432" lon="6.19054">
        <ele>1397.5204</ele>
        <time>2021-07-05T15:47:59</time>
      </trkpt>
      <trkpt lat="45.42434" lon="6.19052">
        <ele>1397.5204</ele>
        <time>2021-07-05T15:48:03</time>
      </trkpt>
      <trkpt lat="45.42436" lon="6.19052">
        <ele>1397.5204</ele>
        <time>2021-07-05T15:48:09</time>
      </trkpt>
      <trkpt lat="45.42436" lon="6.19051">
        <ele>1397.5204</ele>
        <time>2021-07-05T15:48:10</time>
      </trkpt>
      <trkpt lat="45.42438" lon="6.19049">
        <ele>1397.5204</ele>
        <time>2021-07-05T15:48:13</time>
      </trkpt>
      <trkpt lat="45.42439" lon="6.19048">
        <ele>1397.5204</ele>
        <time>2021-07-05T15:48:14</time>
      </trkpt>
      <trkpt lat="45.4244" lon="6.19048">
        <ele>1397.5204</ele>
        <time>2021-07-05T15:48:15</time>
      </trkpt>
      <trkpt lat="45.42441" lon="6.19046">
        <ele>1389.9204</ele>
        <time>2021-07-05T15:48:17</time>
      </trkpt>
      <trkpt lat="45.42442" lon="6.19045">
        <ele>1389.9204</ele>
        <time>2021-07-05T15:48:18</time>
      </trkpt>
      <trkpt lat="45.42442" lon="6.19045">
        <ele>1389.9204</ele>
        <time>2021-07-05T15:48:19</time>
      </trkpt>
      <trkpt lat="45.42443" lon="6.19044">
        <ele>1389.9204</ele>
        <time>2021-07-05T15:48:20</time>
      </trkpt>
      <trkpt lat="45.42443" lon="6.19043">
        <ele>1389.9204</ele>
        <time>2021-07-05T15:48:21</time>
      </trkpt>
      <trkpt lat="45.42444" lon="6.19041">
        <ele>1389.9204</ele>
        <time>2021-07-05T15:48:23</time>
      </trkpt>
      <trkpt lat="45.42444" lon="6.19041">
        <ele>1389.9204</ele>
        <time>2021-07-05T15:48:24</time>
      </trkpt>
      <trkpt lat="45.42444" lon="6.1904">
        <ele>1389.9204</ele>
        <time>2021-07-05T15:48:25</time>
      </trkpt>
      <trkpt lat="45.42444" lon="6.19039">
        <ele>1389.9204</ele>
        <time>2021-07-05T15:48:26</time>
      </trkpt>
      <trkpt lat="45.42445" lon="6.19037">
        <ele>1388.2538</ele>
        <time>2021-07-05T15:48:27</time>
      </trkpt>
      <trkpt lat="45.42446" lon="6.19036">
        <ele>1388.2538</ele>
        <time>2021-07-05T15:48:28</time>
      </trkpt>
      <trkpt lat="45.42449" lon="6.19031">
        <ele>1388.2538</ele>
        <time>2021-07-05T15:48:33</time>
      </trkpt>
      <trkpt lat="45.4245" lon="6.1903">
        <ele>1388.2538</ele>
        <time>2021-07-05T15:48:34</time>
      </trkpt>
      <trkpt lat="45.42451" lon="6.19029">
        <ele>1388.2538</ele>
        <time>2021-07-05T15:48:35</time>
      </trkpt>
      <trkpt lat="45.42455" lon="6.19025">
        <ele>1392.7205</ele>
        <time>2021-07-05T15:48:46</time>
      </trkpt>
      <trkpt lat="45.42456" lon="6.19025">
        <ele>1394.1205</ele>
        <time>2021-07-05T15:48:47</time>
      </trkpt>
      <trkpt lat="45.42458" lon="6.19025">
        <ele>1394.1205</ele>
        <time>2021-07-05T15:48:50</time>
      </trkpt>
      <trkpt lat="45.42458" lon="6.19026">
        <ele>1394.1205</ele>
        <time>2021-07-05T15:48:51</time>
      </trkpt>
      <trkpt lat="45.42459" lon="6.19025">
        <ele>1394.1205</ele>
        <time>2021-07-05T15:48:52</time>
      </trkpt>
      <trkpt lat="45.42459" lon="6.19025">
        <ele>1394.1205</ele>
        <time>2021-07-05T15:48:53</time>
      </trkpt>
      <trkpt lat="45.4246" lon="6.19025">
        <ele>1394.1205</ele>
        <time>2021-07-05T15:48:54</time>
      </trkpt>
      <trkpt lat="45.42467" lon="6.19025">
        <ele>1391.5537</ele>
        <time>2021-07-05T15:49:13</time>
      </trkpt>
      <trkpt lat="45.42471" lon="6.19024">
        <ele>1391.5537</ele>
        <time>2021-07-05T15:49:16</time>
      </trkpt>
      <trkpt lat="45.42473" lon="6.19024">
        <ele>1388.9204</ele>
        <time>2021-07-05T15:49:18</time>
      </trkpt>
      <trkpt lat="45.42474" lon="6.19024">
        <ele>1388.9204</ele>
        <time>2021-07-05T15:49:19</time>
      </trkpt>
      <trkpt lat="45.42476" lon="6.19022">
        <ele>1388.9204</ele>
        <time>2021-07-05T15:49:22</time>
      </trkpt>
      <trkpt lat="45.42478" lon="6.1902">
        <ele>1388.9204</ele>
        <time>2021-07-05T15:49:27</time>
      </trkpt>
      <trkpt lat="45.4248" lon="6.19018">
        <ele>1388.9204</ele>
        <time>2021-07-05T15:49:30</time>
      </trkpt>
      <trkpt lat="45.42481" lon="6.19017">
        <ele>1388.9204</ele>
        <time>2021-07-05T15:49:34</time>
      </trkpt>
      <trkpt lat="45.42482" lon="6.19019">
        <ele>1388.9204</ele>
        <time>2021-07-05T15:49:35</time>
      </trkpt>
      <trkpt lat="45.42482" lon="6.1902">
        <ele>1388.9204</ele>
        <time>2021-07-05T15:49:37</time>
      </trkpt>
      <trkpt lat="45.42484" lon="6.1902">
        <ele>1388.9204</ele>
        <time>2021-07-05T15:49:39</time>
      </trkpt>
      <trkpt lat="45.42484" lon="6.19021">
        <ele>1388.9204</ele>
        <time>2021-07-05T15:49:40</time>
      </trkpt>
      <trkpt lat="45.42485" lon="6.19022">
        <ele>1388.9204</ele>
        <time>2021-07-05T15:49:42</time>
      </trkpt>
      <trkpt lat="45.42486" lon="6.19023">
        <ele>1388.9204</ele>
        <time>2021-07-05T15:49:43</time>
      </trkpt>
      <trkpt lat="45.42486" lon="6.19023">
        <ele>1388.9204</ele>
        <time>2021-07-05T15:49:44</time>
      </trkpt>
      <trkpt lat="45.42486" lon="6.19023">
        <ele>1388.9204</ele>
        <time>2021-07-05T15:49:45</time>
      </trkpt>
      <trkpt lat="45.42486" lon="6.19023">
        <ele>1388.9204</ele>
        <time>2021-07-05T15:49:46</time>
      </trkpt>
      <trkpt lat="45.42487" lon="6.19024">
        <ele>1371.0204</ele>
        <time>2021-07-05T15:49:47</time>
      </trkpt>
      <trkpt lat="45.42488" lon="6.19023">
        <ele>1371.0204</ele>
        <time>2021-07-05T15:49:48</time>
      </trkpt>
      <trkpt lat="45.4249" lon="6.19023">
        <ele>1371.0204</ele>
        <time>2021-07-05T15:49:51</time>
      </trkpt>
      <trkpt lat="45.4249" lon="6.19023">
        <ele>1371.0204</ele>
        <time>2021-07-05T15:49:52</time>
      </trkpt>
      <trkpt lat="45.42493" lon="6.19024">
        <ele>1368.3538</ele>
        <time>2021-07-05T15:50:07</time>
      </trkpt>
      <trkpt lat="45.42493" lon="6.19022">
        <ele>1368.3538</ele>
        <time>2021-07-05T15:50:09</time>
      </trkpt>
      <trkpt lat="45.42494" lon="6.19018">
        <ele>1367.6205</ele>
        <time>2021-07-05T15:50:19</time>
      </trkpt>
      <trkpt lat="45.42501" lon="6.19007">
        <ele>1367.6205</ele>
        <time>2021-07-05T15:50:32</time>
      </trkpt>
      <trkpt lat="45.42502" lon="6.19002">
        <ele>1364.4204</ele>
        <time>2021-07-05T15:50:57</time>
      </trkpt>
      <trkpt lat="45.42504" lon="6.19">
        <ele>1364.4204</ele>
        <time>2021-07-05T15:50:59</time>
      </trkpt>
      <trkpt lat="45.42504" lon="6.18998">
        <ele>1364.4204</ele>
        <time>2021-07-05T15:51:00</time>
      </trkpt>
      <trkpt lat="45.42505" lon="6.18997">
        <ele>1364.4204</ele>
        <time>2021-07-05T15:51:01</time>
      </trkpt>
      <trkpt lat="45.42506" lon="6.18995">
        <ele>1364.4204</ele>
        <time>2021-07-05T15:51:02</time>
      </trkpt>
      <trkpt lat="45.42507" lon="6.18994">
        <ele>1364.4204</ele>
        <time>2021-07-05T15:51:03</time>
      </trkpt>
      <trkpt lat="45.42507" lon="6.18992">
        <ele>1364.4204</ele>
        <time>2021-07-05T15:51:04</time>
      </trkpt>
      <trkpt lat="45.4251" lon="6.18989">
        <ele>1360.1205</ele>
        <time>2021-07-05T15:51:28</time>
      </trkpt>
      <trkpt lat="45.42511" lon="6.18988">
        <ele>1360.1205</ele>
        <time>2021-07-05T15:51:29</time>
      </trkpt>
      <trkpt lat="45.42511" lon="6.18988">
        <ele>1360.1205</ele>
        <time>2021-07-05T15:51:30</time>
      </trkpt>
      <trkpt lat="45.42514" lon="6.18982">
        <ele>1360.1205</ele>
        <time>2021-07-05T15:51:51</time>
      </trkpt>
      <trkpt lat="45.42515" lon="6.18981">
        <ele>1360.1205</ele>
        <time>2021-07-05T15:51:52</time>
      </trkpt>
      <trkpt lat="45.42517" lon="6.18979">
        <ele>1360.1205</ele>
        <time>2021-07-05T15:51:53</time>
      </trkpt>
      <trkpt lat="45.42521" lon="6.18977">
        <ele>1346.5204</ele>
        <time>2021-07-05T15:51:58</time>
      </trkpt>
      <trkpt lat="45.42521" lon="6.18978">
        <ele>1346.5204</ele>
        <time>2021-07-05T15:51:59</time>
      </trkpt>
      <trkpt lat="45.42521" lon="6.18978">
        <ele>1346.5204</ele>
        <time>2021-07-05T15:52:00</time>
      </trkpt>
      <trkpt lat="45.42523" lon="6.18977">
        <ele>1346.5204</ele>
        <time>2021-07-05T15:52:09</time>
      </trkpt>
      <trkpt lat="45.42524" lon="6.18978">
        <ele>1346.5204</ele>
        <time>2021-07-05T15:52:11</time>
      </trkpt>
      <trkpt lat="45.42525" lon="6.1898">
        <ele>1346.5204</ele>
        <time>2021-07-05T15:52:14</time>
      </trkpt>
      <trkpt lat="45.42525" lon="6.18982">
        <ele>1346.5204</ele>
        <time>2021-07-05T15:52:17</time>
      </trkpt>
      <trkpt lat="45.42525" lon="6.18984">
        <ele>1346.5204</ele>
        <time>2021-07-05T15:52:22</time>
      </trkpt>
      <trkpt lat="45.42526" lon="6.18985">
        <ele>1346.5204</ele>
        <time>2021-07-05T15:52:23</time>
      </trkpt>
      <trkpt lat="45.42528" lon="6.18987">
        <ele>1346.5204</ele>
        <time>2021-07-05T15:52:25</time>
      </trkpt>
      <trkpt lat="45.42529" lon="6.18987">
        <ele>1346.5204</ele>
        <time>2021-07-05T15:52:26</time>
      </trkpt>
      <trkpt lat="45.4253" lon="6.18985">
        <ele>1346.5204</ele>
        <time>2021-07-05T15:52:28</time>
      </trkpt>
      <trkpt lat="45.42532" lon="6.18986">
        <ele>1346.5204</ele>
        <time>2021-07-05T15:52:31</time>
      </trkpt>
      <trkpt lat="45.42533" lon="6.18988">
        <ele>1346.5204</ele>
        <time>2021-07-05T15:52:35</time>
      </trkpt>
      <trkpt lat="45.42534" lon="6.18987">
        <ele>1346.5204</ele>
        <time>2021-07-05T15:52:36</time>
      </trkpt>
      <trkpt lat="45.42535" lon="6.18987">
        <ele>1346.5204</ele>
        <time>2021-07-05T15:52:38</time>
      </trkpt>
      <trkpt lat="45.42535" lon="6.18988">
        <ele>1346.5204</ele>
        <time>2021-07-05T15:52:39</time>
      </trkpt>
      <trkpt lat="45.42537" lon="6.18995">
        <ele>1346.5204</ele>
        <time>2021-07-05T15:52:52</time>
      </trkpt>
      <trkpt lat="45.42538" lon="6.18995">
        <ele>1346.5204</ele>
        <time>2021-07-05T15:52:53</time>
      </trkpt>
      <trkpt lat="45.42539" lon="6.18995">
        <ele>1346.5204</ele>
        <time>2021-07-05T15:52:55</time>
      </trkpt>
      <trkpt lat="45.42539" lon="6.18996">
        <ele>1346.5204</ele>
        <time>2021-07-05T15:52:56</time>
      </trkpt>
      <trkpt lat="45.4254" lon="6.18997">
        <ele>1348.3204</ele>
        <time>2021-07-05T15:52:57</time>
      </trkpt>
      <trkpt lat="45.42541" lon="6.18999">
        <ele>1348.3204</ele>
        <time>2021-07-05T15:52:59</time>
      </trkpt>
      <trkpt lat="45.42544" lon="6.19003">
        <ele>1348.3204</ele>
        <time>2021-07-05T15:53:10</time>
      </trkpt>
      <trkpt lat="45.42544" lon="6.19003">
        <ele>1348.3204</ele>
        <time>2021-07-05T15:53:11</time>
      </trkpt>
      <trkpt lat="45.42544" lon="6.19002">
        <ele>1348.3204</ele>
        <time>2021-07-05T15:53:12</time>
      </trkpt>
      <trkpt lat="45.42546" lon="6.19002">
        <ele>1348.3204</ele>
        <time>2021-07-05T15:53:13</time>
      </trkpt>
      <trkpt lat="45.42548" lon="6.19002">
        <ele>1348.3204</ele>
        <time>2021-07-05T15:53:22</time>
      </trkpt>
      <trkpt lat="45.42549" lon="6.19002">
        <ele>1348.3204</ele>
        <time>2021-07-05T15:53:24</time>
      </trkpt>
      <trkpt lat="45.4255" lon="6.19002">
        <ele>1348.3204</ele>
        <time>2021-07-05T15:53:25</time>
      </trkpt>
      <trkpt lat="45.4255" lon="6.19001">
        <ele>1348.3204</ele>
        <time>2021-07-05T15:53:27</time>
      </trkpt>
      <trkpt lat="45.42549" lon="6.19004">
        <ele>1348.3204</ele>
        <time>2021-07-05T15:53:34</time>
      </trkpt>
      <trkpt lat="45.4255" lon="6.19004">
        <ele>1348.3204</ele>
        <time>2021-07-05T15:53:35</time>
      </trkpt>
      <trkpt lat="45.42551" lon="6.19005">
        <ele>1348.3204</ele>
        <time>2021-07-05T15:53:37</time>
      </trkpt>
      <trkpt lat="45.42552" lon="6.19006">
        <ele>1348.3204</ele>
        <time>2021-07-05T15:53:38</time>
      </trkpt>
      <trkpt lat="45.42553" lon="6.19007">
        <ele>1348.3204</ele>
        <time>2021-07-05T15:53:39</time>
      </trkpt>
      <trkpt lat="45.42554" lon="6.19008">
        <ele>1348.3204</ele>
        <time>2021-07-05T15:53:40</time>
      </trkpt>
      <trkpt lat="45.42554" lon="6.19016">
        <ele>1329.8204</ele>
        <time>2021-07-05T15:53:58</time>
      </trkpt>
      <trkpt lat="45.42555" lon="6.19016">
        <ele>1329.8204</ele>
        <time>2021-07-05T15:53:59</time>
      </trkpt>
      <trkpt lat="45.42558" lon="6.19029">
        <ele>1329.8204</ele>
        <time>2021-07-05T15:54:29</time>
      </trkpt>
      <trkpt lat="45.42559" lon="6.19029">
        <ele>1329.8204</ele>
        <time>2021-07-05T15:54:37</time>
      </trkpt>
      <trkpt lat="45.4256" lon="6.19028">
        <ele>1329.8204</ele>
        <time>2021-07-05T15:54:38</time>
      </trkpt>
      <trkpt lat="45.42562" lon="6.19026">
        <ele>1329.8204</ele>
        <time>2021-07-05T15:54:40</time>
      </trkpt>
      <trkpt lat="45.42564" lon="6.19023">
        <ele>1329.8204</ele>
        <time>2021-07-05T15:54:45</time>
      </trkpt>
      <trkpt lat="45.42565" lon="6.19022">
        <ele>1329.8204</ele>
        <time>2021-07-05T15:54:47</time>
      </trkpt>
      <trkpt lat="45.42566" lon="6.19021">
        <ele>1329.8204</ele>
        <time>2021-07-05T15:54:48</time>
      </trkpt>
      <trkpt lat="45.42566" lon="6.1902">
        <ele>1329.8204</ele>
        <time>2021-07-05T15:54:49</time>
      </trkpt>
      <trkpt lat="45.42568" lon="6.19018">
        <ele>1329.8204</ele>
        <time>2021-07-05T15:54:55</time>
      </trkpt>
      <trkpt lat="45.42568" lon="6.19018">
        <ele>1329.8204</ele>
        <time>2021-07-05T15:54:56</time>
      </trkpt>
      <trkpt lat="45.42568" lon="6.19019">
        <ele>1329.8204</ele>
        <time>2021-07-05T15:54:58</time>
      </trkpt>
      <trkpt lat="45.42569" lon="6.19016">
        <ele>1329.8204</ele>
        <time>2021-07-05T15:55:03</time>
      </trkpt>
      <trkpt lat="45.42569" lon="6.19014">
        <ele>1329.8204</ele>
        <time>2021-07-05T15:55:09</time>
      </trkpt>
      <trkpt lat="45.42568" lon="6.19012">
        <ele>1329.8204</ele>
        <time>2021-07-05T15:55:12</time>
      </trkpt>
      <trkpt lat="45.42569" lon="6.19007">
        <ele>1329.8204</ele>
        <time>2021-07-05T15:55:34</time>
      </trkpt>
      <trkpt lat="45.4257" lon="6.19007">
        <ele>1329.8204</ele>
        <time>2021-07-05T15:55:35</time>
      </trkpt>
      <trkpt lat="45.42571" lon="6.19007">
        <ele>1329.8204</ele>
        <time>2021-07-05T15:55:36</time>
      </trkpt>
      <trkpt lat="45.42573" lon="6.19007">
        <ele>1329.8204</ele>
        <time>2021-07-05T15:55:37</time>
      </trkpt>
      <trkpt lat="45.42575" lon="6.19005">
        <ele>1329.8204</ele>
        <time>2021-07-05T15:55:39</time>
      </trkpt>
      <trkpt lat="45.42577" lon="6.19003">
        <ele>1329.8204</ele>
        <time>2021-07-05T15:55:43</time>
      </trkpt>
      <trkpt lat="45.42578" lon="6.19003">
        <ele>1329.8204</ele>
        <time>2021-07-05T15:55:44</time>
      </trkpt>
      <trkpt lat="45.42579" lon="6.19002">
        <ele>1329.8204</ele>
        <time>2021-07-05T15:55:46</time>
      </trkpt>
      <trkpt lat="45.4258" lon="6.19002">
        <ele>1329.8204</ele>
        <time>2021-07-05T15:55:47</time>
      </trkpt>
      <trkpt lat="45.42581" lon="6.19002">
        <ele>1329.8204</ele>
        <time>2021-07-05T15:55:48</time>
      </trkpt>
      <trkpt lat="45.42583" lon="6.19001">
        <ele>1329.8204</ele>
        <time>2021-07-05T15:55:51</time>
      </trkpt>
      <trkpt lat="45.42584" lon="6.19">
        <ele>1329.8204</ele>
        <time>2021-07-05T15:55:52</time>
      </trkpt>
      <trkpt lat="45.42585" lon="6.18999">
        <ele>1329.8204</ele>
        <time>2021-07-05T15:55:53</time>
      </trkpt>
      <trkpt lat="45.42585" lon="6.18998">
        <ele>1329.8204</ele>
        <time>2021-07-05T15:55:54</time>
      </trkpt>
      <trkpt lat="45.42588" lon="6.19">
        <ele>1299.487</ele>
        <time>2021-07-05T15:56:24</time>
      </trkpt>
      <trkpt lat="45.42589" lon="6.19">
        <ele>1299.4204</ele>
        <time>2021-07-05T15:56:46</time>
      </trkpt>
      <trkpt lat="45.42589" lon="6.18999">
        <ele>1299.4204</ele>
        <time>2021-07-05T15:56:47</time>
      </trkpt>
      <trkpt lat="45.42591" lon="6.18998">
        <ele>1299.4204</ele>
        <time>2021-07-05T15:56:48</time>
      </trkpt>
      <trkpt lat="45.42592" lon="6.18998">
        <ele>1299.4204</ele>
        <time>2021-07-05T15:56:49</time>
      </trkpt>
      <trkpt lat="45.42598" lon="6.18995">
        <ele>1299.4204</ele>
        <time>2021-07-05T15:57:02</time>
      </trkpt>
      <trkpt lat="45.42599" lon="6.18995">
        <ele>1299.4204</ele>
        <time>2021-07-05T15:57:03</time>
      </trkpt>
      <trkpt lat="45.426" lon="6.18995">
        <ele>1299.4204</ele>
        <time>2021-07-05T15:57:04</time>
      </trkpt>
      <trkpt lat="45.42601" lon="6.18994">
        <ele>1299.4204</ele>
        <time>2021-07-05T15:57:05</time>
      </trkpt>
      <trkpt lat="45.42602" lon="6.18993">
        <ele>1299.4204</ele>
        <time>2021-07-05T15:57:06</time>
      </trkpt>
      <trkpt lat="45.42602" lon="6.18992">
        <ele>1299.4204</ele>
        <time>2021-07-05T15:57:07</time>
      </trkpt>
      <trkpt lat="45.42603" lon="6.18992">
        <ele>1299.4204</ele>
        <time>2021-07-05T15:57:08</time>
      </trkpt>
      <trkpt lat="45.42605" lon="6.1899">
        <ele>1299.4204</ele>
        <time>2021-07-05T15:57:16</time>
      </trkpt>
      <trkpt lat="45.42606" lon="6.18989">
        <ele>1295.6205</ele>
        <time>2021-07-05T15:57:17</time>
      </trkpt>
      <trkpt lat="45.42606" lon="6.18988">
        <ele>1295.6205</ele>
        <time>2021-07-05T15:57:18</time>
      </trkpt>
      <trkpt lat="45.42608" lon="6.18987">
        <ele>1295.6205</ele>
        <time>2021-07-05T15:57:23</time>
      </trkpt>
      <trkpt lat="45.42608" lon="6.18986">
        <ele>1295.6205</ele>
        <time>2021-07-05T15:57:24</time>
      </trkpt>
      <trkpt lat="45.42609" lon="6.18986">
        <ele>1295.6205</ele>
        <time>2021-07-05T15:57:25</time>
      </trkpt>
      <trkpt lat="45.42612" lon="6.18987">
        <ele>1296.5204</ele>
        <time>2021-07-05T15:57:38</time>
      </trkpt>
      <trkpt lat="45.42613" lon="6.18987">
        <ele>1296.5204</ele>
        <time>2021-07-05T15:57:39</time>
      </trkpt>
      <trkpt lat="45.42614" lon="6.18985">
        <ele>1296.5204</ele>
        <time>2021-07-05T15:57:41</time>
      </trkpt>
      <trkpt lat="45.42614" lon="6.18984">
        <ele>1296.5204</ele>
        <time>2021-07-05T15:57:42</time>
      </trkpt>
      <trkpt lat="45.42614" lon="6.18983">
        <ele>1296.5204</ele>
        <time>2021-07-05T15:57:43</time>
      </trkpt>
      <trkpt lat="45.42614" lon="6.1898">
        <ele>1295.0204</ele>
        <time>2021-07-05T15:57:49</time>
      </trkpt>
      <trkpt lat="45.42614" lon="6.18979">
        <ele>1295.0204</ele>
        <time>2021-07-05T15:57:50</time>
      </trkpt>
      <trkpt lat="45.42614" lon="6.18979">
        <ele>1295.0204</ele>
        <time>2021-07-05T15:57:51</time>
      </trkpt>
      <trkpt lat="45.42614" lon="6.18978">
        <ele>1295.0204</ele>
        <time>2021-07-05T15:57:52</time>
      </trkpt>
      <trkpt lat="45.42613" lon="6.18977">
        <ele>1295.0204</ele>
        <time>2021-07-05T15:57:53</time>
      </trkpt>
      <trkpt lat="45.42614" lon="6.18974">
        <ele>1291.6205</ele>
        <time>2021-07-05T15:58:20</time>
      </trkpt>
      <trkpt lat="45.42611" lon="6.18971">
        <ele>1291.6205</ele>
        <time>2021-07-05T15:58:24</time>
      </trkpt>
      <trkpt lat="45.4261" lon="6.18969">
        <ele>1291.6205</ele>
        <time>2021-07-05T15:58:26</time>
      </trkpt>
      <trkpt lat="45.4261" lon="6.18967">
        <ele>1291.6205</ele>
        <time>2021-07-05T15:58:27</time>
      </trkpt>
      <trkpt lat="45.4261" lon="6.18965">
        <ele>1291.6205</ele>
        <time>2021-07-05T15:58:28</time>
      </trkpt>
      <trkpt lat="45.4261" lon="6.18964">
        <ele>1291.6205</ele>
        <time>2021-07-05T15:58:29</time>
      </trkpt>
      <trkpt lat="45.4261" lon="6.18962">
        <ele>1291.6205</ele>
        <time>2021-07-05T15:58:30</time>
      </trkpt>
      <trkpt lat="45.4261" lon="6.1896">
        <ele>1291.6205</ele>
        <time>2021-07-05T15:58:32</time>
      </trkpt>
      <trkpt lat="45.4261" lon="6.18958">
        <ele>1291.6205</ele>
        <time>2021-07-05T15:58:34</time>
      </trkpt>
      <trkpt lat="45.42611" lon="6.18955">
        <ele>1291.6205</ele>
        <time>2021-07-05T15:58:35</time>
      </trkpt>
      <trkpt lat="45.42613" lon="6.18949">
        <ele>1286.4204</ele>
        <time>2021-07-05T15:58:40</time>
      </trkpt>
      <trkpt lat="45.42614" lon="6.18946">
        <ele>1286.4204</ele>
        <time>2021-07-05T15:58:41</time>
      </trkpt>
      <trkpt lat="45.42614" lon="6.18945">
        <ele>1286.4204</ele>
        <time>2021-07-05T15:58:42</time>
      </trkpt>
      <trkpt lat="45.42615" lon="6.18944">
        <ele>1286.4204</ele>
        <time>2021-07-05T15:58:43</time>
      </trkpt>
      <trkpt lat="45.42615" lon="6.18943">
        <ele>1286.4204</ele>
        <time>2021-07-05T15:58:44</time>
      </trkpt>
      <trkpt lat="45.42616" lon="6.18941">
        <ele>1286.4204</ele>
        <time>2021-07-05T15:58:45</time>
      </trkpt>
      <trkpt lat="45.42617" lon="6.18937">
        <ele>1299.8204</ele>
        <time>2021-07-05T15:58:47</time>
      </trkpt>
      <trkpt lat="45.42619" lon="6.18934">
        <ele>1299.8204</ele>
        <time>2021-07-05T15:58:50</time>
      </trkpt>
      <trkpt lat="45.42619" lon="6.18933">
        <ele>1299.8204</ele>
        <time>2021-07-05T15:58:51</time>
      </trkpt>
      <trkpt lat="45.4262" lon="6.18929">
        <ele>1299.8204</ele>
        <time>2021-07-05T15:58:55</time>
      </trkpt>
      <trkpt lat="45.42621" lon="6.18925">
        <ele>1282.8204</ele>
        <time>2021-07-05T15:59:03</time>
      </trkpt>
      <trkpt lat="45.42622" lon="6.18921">
        <ele>1282.8204</ele>
        <time>2021-07-05T15:59:06</time>
      </trkpt>
      <trkpt lat="45.42622" lon="6.1892">
        <ele>1277.9204</ele>
        <time>2021-07-05T15:59:07</time>
      </trkpt>
      <trkpt lat="45.42619" lon="6.18915">
        <ele>1277.9204</ele>
        <time>2021-07-05T15:59:12</time>
      </trkpt>
      <trkpt lat="45.4262" lon="6.1891">
        <ele>1277.9204</ele>
        <time>2021-07-05T15:59:19</time>
      </trkpt>
      <trkpt lat="45.4262" lon="6.18909">
        <ele>1277.9204</ele>
        <time>2021-07-05T15:59:20</time>
      </trkpt>
      <trkpt lat="45.42619" lon="6.18904">
        <ele>1283.1205</ele>
        <time>2021-07-05T15:59:38</time>
      </trkpt>
      <trkpt lat="45.4262" lon="6.18901">
        <ele>1283.1205</ele>
        <time>2021-07-05T15:59:41</time>
      </trkpt>
      <trkpt lat="45.4262" lon="6.189">
        <ele>1283.1205</ele>
        <time>2021-07-05T15:59:42</time>
      </trkpt>
      <trkpt lat="45.42621" lon="6.18899">
        <ele>1283.1205</ele>
        <time>2021-07-05T15:59:43</time>
      </trkpt>
      <trkpt lat="45.42621" lon="6.18898">
        <ele>1283.1205</ele>
        <time>2021-07-05T15:59:44</time>
      </trkpt>
      <trkpt lat="45.42622" lon="6.18896">
        <ele>1283.1205</ele>
        <time>2021-07-05T15:59:45</time>
      </trkpt>
      <trkpt lat="45.42622" lon="6.18896">
        <ele>1283.1205</ele>
        <time>2021-07-05T15:59:46</time>
      </trkpt>
      <trkpt lat="45.42623" lon="6.18895">
        <ele>1283.1205</ele>
        <time>2021-07-05T15:59:47</time>
      </trkpt>
      <trkpt lat="45.42623" lon="6.18895">
        <ele>1283.1205</ele>
        <time>2021-07-05T15:59:48</time>
      </trkpt>
      <trkpt lat="45.42624" lon="6.18894">
        <ele>1283.1205</ele>
        <time>2021-07-05T15:59:49</time>
      </trkpt>
      <trkpt lat="45.42624" lon="6.18894">
        <ele>1283.1205</ele>
        <time>2021-07-05T15:59:50</time>
      </trkpt>
      <trkpt lat="45.42624" lon="6.18893">
        <ele>1283.1205</ele>
        <time>2021-07-05T15:59:51</time>
      </trkpt>
      <trkpt lat="45.42624" lon="6.18892">
        <ele>1283.1205</ele>
        <time>2021-07-05T15:59:52</time>
      </trkpt>
      <trkpt lat="45.42623" lon="6.18891">
        <ele>1283.1205</ele>
        <time>2021-07-05T15:59:54</time>
      </trkpt>
      <trkpt lat="45.42624" lon="6.18889">
        <ele>1283.1205</ele>
        <time>2021-07-05T15:59:56</time>
      </trkpt>
      <trkpt lat="45.42624" lon="6.18888">
        <ele>1288.4204</ele>
        <time>2021-07-05T15:59:57</time>
      </trkpt>
      <trkpt lat="45.42623" lon="6.18887">
        <ele>1288.4204</ele>
        <time>2021-07-05T15:59:59</time>
      </trkpt>
      <trkpt lat="45.42626" lon="6.18883">
        <ele>1288.4204</ele>
        <time>2021-07-05T16:00:14</time>
      </trkpt>
      <trkpt lat="45.42627" lon="6.18881">
        <ele>1288.4204</ele>
        <time>2021-07-05T16:00:15</time>
      </trkpt>
      <trkpt lat="45.42629" lon="6.18879">
        <ele>1288.4204</ele>
        <time>2021-07-05T16:00:18</time>
      </trkpt>
      <trkpt lat="45.4263" lon="6.18878">
        <ele>1288.4204</ele>
        <time>2021-07-05T16:00:19</time>
      </trkpt>
      <trkpt lat="45.42632" lon="6.18877">
        <ele>1288.4204</ele>
        <time>2021-07-05T16:00:20</time>
      </trkpt>
      <trkpt lat="45.42633" lon="6.18875">
        <ele>1288.4204</ele>
        <time>2021-07-05T16:00:22</time>
      </trkpt>
      <trkpt lat="45.42634" lon="6.18873">
        <ele>1288.4204</ele>
        <time>2021-07-05T16:00:23</time>
      </trkpt>
      <trkpt lat="45.42638" lon="6.18866">
        <ele>1288.4204</ele>
        <time>2021-07-05T16:00:31</time>
      </trkpt>
      <trkpt lat="45.4264" lon="6.18865">
        <ele>1288.4204</ele>
        <time>2021-07-05T16:00:33</time>
      </trkpt>
      <trkpt lat="45.42643" lon="6.18862">
        <ele>1288.4204</ele>
        <time>2021-07-05T16:00:37</time>
      </trkpt>
      <trkpt lat="45.42643" lon="6.18861">
        <ele>1288.4204</ele>
        <time>2021-07-05T16:00:38</time>
      </trkpt>
      <trkpt lat="45.42648" lon="6.18858">
        <ele>1288.4204</ele>
        <time>2021-07-05T16:00:52</time>
      </trkpt>
      <trkpt lat="45.42648" lon="6.18858">
        <ele>1288.4204</ele>
        <time>2021-07-05T16:00:53</time>
      </trkpt>
      <trkpt lat="45.42649" lon="6.18857">
        <ele>1288.4204</ele>
        <time>2021-07-05T16:00:55</time>
      </trkpt>
      <trkpt lat="45.42651" lon="6.18856">
        <ele>1288.4204</ele>
        <time>2021-07-05T16:00:57</time>
      </trkpt>
      <trkpt lat="45.42651" lon="6.18855">
        <ele>1288.4204</ele>
        <time>2021-07-05T16:00:58</time>
      </trkpt>
      <trkpt lat="45.42652" lon="6.18854">
        <ele>1288.4204</ele>
        <time>2021-07-05T16:00:59</time>
      </trkpt>
      <trkpt lat="45.42653" lon="6.18853">
        <ele>1288.4204</ele>
        <time>2021-07-05T16:01:00</time>
      </trkpt>
      <trkpt lat="45.42659" lon="6.18851">
        <ele>1288.4204</ele>
        <time>2021-07-05T16:01:06</time>
      </trkpt>
      <trkpt lat="45.42662" lon="6.18849">
        <ele>1288.4204</ele>
        <time>2021-07-05T16:01:08</time>
      </trkpt>
      <trkpt lat="45.42663" lon="6.18848">
        <ele>1288.4204</ele>
        <time>2021-07-05T16:01:09</time>
      </trkpt>
      <trkpt lat="45.42665" lon="6.18847">
        <ele>1288.4204</ele>
        <time>2021-07-05T16:01:11</time>
      </trkpt>
      <trkpt lat="45.42669" lon="6.18846">
        <ele>1288.4204</ele>
        <time>2021-07-05T16:01:15</time>
      </trkpt>
      <trkpt lat="45.42671" lon="6.18844">
        <ele>1288.4204</ele>
        <time>2021-07-05T16:01:17</time>
      </trkpt>
      <trkpt lat="45.42678" lon="6.18837">
        <ele>1288.4204</ele>
        <time>2021-07-05T16:01:23</time>
      </trkpt>
      <trkpt lat="45.4268" lon="6.18835">
        <ele>1288.4204</ele>
        <time>2021-07-05T16:01:26</time>
      </trkpt>
      <trkpt lat="45.42681" lon="6.18835">
        <ele>1288.4204</ele>
        <time>2021-07-05T16:01:27</time>
      </trkpt>
      <trkpt lat="45.42682" lon="6.18834">
        <ele>1288.4204</ele>
        <time>2021-07-05T16:01:29</time>
      </trkpt>
      <trkpt lat="45.42687" lon="6.18824">
        <ele>1288.4204</ele>
        <time>2021-07-05T16:01:41</time>
      </trkpt>
      <trkpt lat="45.42687" lon="6.18821">
        <ele>1288.4204</ele>
        <time>2021-07-05T16:01:55</time>
      </trkpt>
      <trkpt lat="45.42687" lon="6.18821">
        <ele>1288.4204</ele>
        <time>2021-07-05T16:01:56</time>
      </trkpt>
      <trkpt lat="45.42688" lon="6.18821">
        <ele>1282.1205</ele>
        <time>2021-07-05T16:01:57</time>
      </trkpt>
      <trkpt lat="45.42694" lon="6.18813">
        <ele>1281.8204</ele>
        <time>2021-07-05T16:02:08</time>
      </trkpt>
      <trkpt lat="45.42695" lon="6.18811">
        <ele>1281.8204</ele>
        <time>2021-07-05T16:02:09</time>
      </trkpt>
      <trkpt lat="45.42698" lon="6.18809">
        <ele>1281.8204</ele>
        <time>2021-07-05T16:02:11</time>
      </trkpt>
      <trkpt lat="45.42702" lon="6.18805">
        <ele>1273.5204</ele>
        <time>2021-07-05T16:02:22</time>
      </trkpt>
      <trkpt lat="45.42703" lon="6.18803">
        <ele>1273.5204</ele>
        <time>2021-07-05T16:02:24</time>
      </trkpt>
      <trkpt lat="45.42708" lon="6.18795">
        <ele>1271.7205</ele>
        <time>2021-07-05T16:02:42</time>
      </trkpt>
      <trkpt lat="45.42708" lon="6.18795">
        <ele>1271.7205</ele>
        <time>2021-07-05T16:02:43</time>
      </trkpt>
      <trkpt lat="45.4271" lon="6.18794">
        <ele>1271.7205</ele>
        <time>2021-07-05T16:02:50</time>
      </trkpt>
      <trkpt lat="45.42712" lon="6.18794">
        <ele>1271.7205</ele>
        <time>2021-07-05T16:02:52</time>
      </trkpt>
      <trkpt lat="45.42715" lon="6.18791">
        <ele>1271.7205</ele>
        <time>2021-07-05T16:02:56</time>
      </trkpt>
      <trkpt lat="45.42715" lon="6.18789">
        <ele>1257.7205</ele>
        <time>2021-07-05T16:02:58</time>
      </trkpt>
      <trkpt lat="45.42716" lon="6.18788">
        <ele>1257.7205</ele>
        <time>2021-07-05T16:02:59</time>
      </trkpt>
      <trkpt lat="45.42717" lon="6.18787">
        <ele>1257.7205</ele>
        <time>2021-07-05T16:03:00</time>
      </trkpt>
      <trkpt lat="45.4272" lon="6.18784">
        <ele>1261.8204</ele>
        <time>2021-07-05T16:03:09</time>
      </trkpt>
      <trkpt lat="45.4272" lon="6.18784">
        <ele>1261.8204</ele>
        <time>2021-07-05T16:03:10</time>
      </trkpt>
      <trkpt lat="45.42721" lon="6.18784">
        <ele>1261.8204</ele>
        <time>2021-07-05T16:03:11</time>
      </trkpt>
      <trkpt lat="45.42722" lon="6.18784">
        <ele>1261.8204</ele>
        <time>2021-07-05T16:03:12</time>
      </trkpt>
      <trkpt lat="45.42723" lon="6.18783">
        <ele>1261.8204</ele>
        <time>2021-07-05T16:03:13</time>
      </trkpt>
      <trkpt lat="45.42723" lon="6.18783">
        <ele>1261.8204</ele>
        <time>2021-07-05T16:03:14</time>
      </trkpt>
      <trkpt lat="45.42723" lon="6.18782">
        <ele>1261.8204</ele>
        <time>2021-07-05T16:03:15</time>
      </trkpt>
      <trkpt lat="45.42724" lon="6.1878">
        <ele>1260.9204</ele>
        <time>2021-07-05T16:03:19</time>
      </trkpt>
      <trkpt lat="45.42725" lon="6.18779">
        <ele>1260.9204</ele>
        <time>2021-07-05T16:03:21</time>
      </trkpt>
      <trkpt lat="45.42725" lon="6.18779">
        <ele>1260.9204</ele>
        <time>2021-07-05T16:03:22</time>
      </trkpt>
      <trkpt lat="45.42727" lon="6.18779">
        <ele>1263.3204</ele>
        <time>2021-07-05T16:03:30</time>
      </trkpt>
      <trkpt lat="45.42727" lon="6.18778">
        <ele>1263.3204</ele>
        <time>2021-07-05T16:03:31</time>
      </trkpt>
      <trkpt lat="45.42727" lon="6.18777">
        <ele>1263.3204</ele>
        <time>2021-07-05T16:03:32</time>
      </trkpt>
      <trkpt lat="45.42729" lon="6.18775">
        <ele>1275.8871</ele>
        <time>2021-07-05T16:04:21</time>
      </trkpt>
      <trkpt lat="45.4273" lon="6.18774">
        <ele>1275.7205</ele>
        <time>2021-07-05T16:05:40</time>
      </trkpt>
      <trkpt lat="45.4273" lon="6.18774">
        <ele>1275.7205</ele>
        <time>2021-07-05T16:07:34</time>
      </trkpt>
      <trkpt lat="45.4273" lon="6.18774">
        <ele>1275.7205</ele>
        <time>2021-07-05T16:11:21</time>
      </trkpt>
      <trkpt lat="45.4273" lon="6.18773">
        <ele>1275.7205</ele>
        <time>2021-07-05T16:12:05</time>
      </trkpt>
      <trkpt lat="45.4273" lon="6.18767">
        <ele>1271.1205</ele>
        <time>2021-07-05T16:12:24</time>
      </trkpt>
      <trkpt lat="45.4273" lon="6.18767">
        <ele>1271.1205</ele>
        <time>2021-07-05T16:12:25</time>
      </trkpt>
      <trkpt lat="45.4273" lon="6.18765">
        <ele>1267.1205</ele>
        <time>2021-07-05T16:12:34</time>
      </trkpt>
      <trkpt lat="45.4273" lon="6.18765">
        <ele>1267.1205</ele>
        <time>2021-07-05T16:12:35</time>
      </trkpt>
      <trkpt lat="45.4273" lon="6.18766">
        <ele>1267.1205</ele>
        <time>2021-07-05T16:12:37</time>
      </trkpt>
      <trkpt lat="45.4273" lon="6.18766">
        <ele>1267.1205</ele>
        <time>2021-07-05T16:12:38</time>
      </trkpt>
      <trkpt lat="45.42729" lon="6.18766">
        <ele>1263.5204</ele>
        <time>2021-07-05T16:12:39</time>
      </trkpt>
      <trkpt lat="45.42729" lon="6.18767">
        <ele>1263.5204</ele>
        <time>2021-07-05T16:12:40</time>
      </trkpt>
      <trkpt lat="45.42729" lon="6.18767">
        <ele>1263.5204</ele>
        <time>2021-07-05T16:12:42</time>
      </trkpt>
      <trkpt lat="45.4273" lon="6.18766">
        <ele>1263.5204</ele>
        <time>2021-07-05T16:12:46</time>
      </trkpt>
      <trkpt lat="45.4273" lon="6.18766">
        <ele>1263.5204</ele>
        <time>2021-07-05T16:12:47</time>
      </trkpt>
      <trkpt lat="45.42731" lon="6.18766">
        <ele>1260.7205</ele>
        <time>2021-07-05T16:12:52</time>
      </trkpt>
      <trkpt lat="45.42731" lon="6.18767">
        <ele>1260.7205</ele>
        <time>2021-07-05T16:12:53</time>
      </trkpt>
      <trkpt lat="45.42731" lon="6.18766">
        <ele>1260.7205</ele>
        <time>2021-07-05T16:12:54</time>
      </trkpt>
      <trkpt lat="45.42731" lon="6.18766">
        <ele>1260.7205</ele>
        <time>2021-07-05T16:12:55</time>
      </trkpt>
      <trkpt lat="45.42731" lon="6.18766">
        <ele>1260.7205</ele>
        <time>2021-07-05T16:12:56</time>
      </trkpt>
      <trkpt lat="45.42732" lon="6.18766">
        <ele>1260.7205</ele>
        <time>2021-07-05T16:12:57</time>
      </trkpt>
      <trkpt lat="45.42735" lon="6.18766">
        <ele>1261.2205</ele>
        <time>2021-07-05T16:13:00</time>
      </trkpt>
      <trkpt lat="45.42735" lon="6.18766">
        <ele>1261.2205</ele>
        <time>2021-07-05T16:13:01</time>
      </trkpt>
      <trkpt lat="45.42735" lon="6.18765">
        <ele>1261.2205</ele>
        <time>2021-07-05T16:13:03</time>
      </trkpt>
      <trkpt lat="45.42736" lon="6.18766">
        <ele>1261.2205</ele>
        <time>2021-07-05T16:13:07</time>
      </trkpt>
      <trkpt lat="45.42736" lon="6.18766">
        <ele>1260.0204</ele>
        <time>2021-07-05T16:13:10</time>
      </trkpt>
      <trkpt lat="45.42736" lon="6.18766">
        <ele>1260.0204</ele>
        <time>2021-07-05T16:13:11</time>
      </trkpt>
      <trkpt lat="45.42736" lon="6.18766">
        <ele>1260.0204</ele>
        <time>2021-07-05T16:13:12</time>
      </trkpt>
      <trkpt lat="45.42736" lon="6.18767">
        <ele>1262.3204</ele>
        <time>2021-07-05T16:13:24</time>
      </trkpt>
      <trkpt lat="45.4274" lon="6.18764">
        <ele>1263.9204</ele>
        <time>2021-07-05T16:13:29</time>
      </trkpt>
      <trkpt lat="45.4274" lon="6.18763">
        <ele>1263.9204</ele>
        <time>2021-07-05T16:13:30</time>
      </trkpt>
      <trkpt lat="45.42746" lon="6.18757">
        <ele>1268.3204</ele>
        <time>2021-07-05T16:13:42</time>
      </trkpt>
      <trkpt lat="45.42747" lon="6.18757">
        <ele>1268.3204</ele>
        <time>2021-07-05T16:13:43</time>
      </trkpt>
      <trkpt lat="45.42749" lon="6.18754">
        <ele>1268.3204</ele>
        <time>2021-07-05T16:13:46</time>
      </trkpt>
      <trkpt lat="45.42751" lon="6.18751">
        <ele>1268.3204</ele>
        <time>2021-07-05T16:13:48</time>
      </trkpt>
      <trkpt lat="45.42753" lon="6.18748">
        <ele>1265.0204</ele>
        <time>2021-07-05T16:13:51</time>
      </trkpt>
      <trkpt lat="45.42754" lon="6.18748">
        <ele>1265.0204</ele>
        <time>2021-07-05T16:13:54</time>
      </trkpt>
      <trkpt lat="45.42755" lon="6.18747">
        <ele>1265.0204</ele>
        <time>2021-07-05T16:13:55</time>
      </trkpt>
      <trkpt lat="45.42762" lon="6.18737">
        <ele>1258.9204</ele>
        <time>2021-07-05T16:14:04</time>
      </trkpt>
      <trkpt lat="45.42762" lon="6.18735">
        <ele>1258.9204</ele>
        <time>2021-07-05T16:14:06</time>
      </trkpt>
      <trkpt lat="45.42763" lon="6.18731">
        <ele>1250.8204</ele>
        <time>2021-07-05T16:14:09</time>
      </trkpt>
      <trkpt lat="45.42765" lon="6.18729">
        <ele>1250.8204</ele>
        <time>2021-07-05T16:14:13</time>
      </trkpt>
      <trkpt lat="45.4277" lon="6.18727">
        <ele>1253.8204</ele>
        <time>2021-07-05T16:14:19</time>
      </trkpt>
      <trkpt lat="45.42771" lon="6.18726">
        <ele>1253.8204</ele>
        <time>2021-07-05T16:14:20</time>
      </trkpt>
      <trkpt lat="45.42773" lon="6.18725">
        <ele>1253.8204</ele>
        <time>2021-07-05T16:14:21</time>
      </trkpt>
      <trkpt lat="45.42774" lon="6.18725">
        <ele>1253.8204</ele>
        <time>2021-07-05T16:14:22</time>
      </trkpt>
      <trkpt lat="45.42775" lon="6.18725">
        <ele>1253.8204</ele>
        <time>2021-07-05T16:14:24</time>
      </trkpt>
      <trkpt lat="45.42776" lon="6.18724">
        <ele>1253.8204</ele>
        <time>2021-07-05T16:14:25</time>
      </trkpt>
      <trkpt lat="45.42776" lon="6.18723">
        <ele>1253.8204</ele>
        <time>2021-07-05T16:14:26</time>
      </trkpt>
      <trkpt lat="45.42778" lon="6.18721">
        <ele>1253.8204</ele>
        <time>2021-07-05T16:14:28</time>
      </trkpt>
      <trkpt lat="45.42778" lon="6.1872">
        <ele>1249.4204</ele>
        <time>2021-07-05T16:14:29</time>
      </trkpt>
      <trkpt lat="45.42778" lon="6.18718">
        <ele>1249.4204</ele>
        <time>2021-07-05T16:14:30</time>
      </trkpt>
      <trkpt lat="45.42779" lon="6.18718">
        <ele>1249.4204</ele>
        <time>2021-07-05T16:14:34</time>
      </trkpt>
      <trkpt lat="45.42779" lon="6.18717">
        <ele>1249.4204</ele>
        <time>2021-07-05T16:14:36</time>
      </trkpt>
      <trkpt lat="45.4278" lon="6.18717">
        <ele>1249.4204</ele>
        <time>2021-07-05T16:14:37</time>
      </trkpt>
      <trkpt lat="45.4278" lon="6.18717">
        <ele>1249.4204</ele>
        <time>2021-07-05T16:14:38</time>
      </trkpt>
      <trkpt lat="45.42781" lon="6.18717">
        <ele>1245.8204</ele>
        <time>2021-07-05T16:14:39</time>
      </trkpt>
      <trkpt lat="45.42782" lon="6.18716">
        <ele>1245.8204</ele>
        <time>2021-07-05T16:14:41</time>
      </trkpt>
      <trkpt lat="45.42783" lon="6.18716">
        <ele>1245.8204</ele>
        <time>2021-07-05T16:14:42</time>
      </trkpt>
      <trkpt lat="45.42783" lon="6.18715">
        <ele>1245.8204</ele>
        <time>2021-07-05T16:14:43</time>
      </trkpt>
      <trkpt lat="45.42783" lon="6.18714">
        <ele>1245.8204</ele>
        <time>2021-07-05T16:14:45</time>
      </trkpt>
      <trkpt lat="45.42786" lon="6.18712">
        <ele>1245.8204</ele>
        <time>2021-07-05T16:14:48</time>
      </trkpt>
      <trkpt lat="45.42787" lon="6.18711">
        <ele>1244.7205</ele>
        <time>2021-07-05T16:14:54</time>
      </trkpt>
      <trkpt lat="45.42788" lon="6.18711">
        <ele>1244.7205</ele>
        <time>2021-07-05T16:14:56</time>
      </trkpt>
      <trkpt lat="45.42788" lon="6.1871">
        <ele>1244.7205</ele>
        <time>2021-07-05T16:14:57</time>
      </trkpt>
      <trkpt lat="45.42789" lon="6.1871">
        <ele>1244.7205</ele>
        <time>2021-07-05T16:14:58</time>
      </trkpt>
      <trkpt lat="45.42789" lon="6.1871">
        <ele>1239.2205</ele>
        <time>2021-07-05T16:14:59</time>
      </trkpt>
      <trkpt lat="45.42789" lon="6.1871">
        <ele>1239.2205</ele>
        <time>2021-07-05T16:15:00</time>
      </trkpt>
      <trkpt lat="45.42789" lon="6.18707">
        <ele>1239.2205</ele>
        <time>2021-07-05T16:15:02</time>
      </trkpt>
      <trkpt lat="45.42791" lon="6.18705">
        <ele>1239.2205</ele>
        <time>2021-07-05T16:15:05</time>
      </trkpt>
      <trkpt lat="45.42791" lon="6.18704">
        <ele>1239.2205</ele>
        <time>2021-07-05T16:15:06</time>
      </trkpt>
      <trkpt lat="45.42792" lon="6.18704">
        <ele>1239.2205</ele>
        <time>2021-07-05T16:15:07</time>
      </trkpt>
      <trkpt lat="45.42794" lon="6.18703">
        <ele>1241.3204</ele>
        <time>2021-07-05T16:15:09</time>
      </trkpt>
      <trkpt lat="45.42794" lon="6.18701">
        <ele>1241.3204</ele>
        <time>2021-07-05T16:15:10</time>
      </trkpt>
      <trkpt lat="45.42795" lon="6.187">
        <ele>1241.3204</ele>
        <time>2021-07-05T16:15:11</time>
      </trkpt>
      <trkpt lat="45.42796" lon="6.18698">
        <ele>1241.3204</ele>
        <time>2021-07-05T16:15:14</time>
      </trkpt>
      <trkpt lat="45.42797" lon="6.18698">
        <ele>1241.3204</ele>
        <time>2021-07-05T16:15:15</time>
      </trkpt>
      <trkpt lat="45.42797" lon="6.18697">
        <ele>1241.3204</ele>
        <time>2021-07-05T16:15:16</time>
      </trkpt>
      <trkpt lat="45.42797" lon="6.18696">
        <ele>1241.3204</ele>
        <time>2021-07-05T16:15:17</time>
      </trkpt>
      <trkpt lat="45.42798" lon="6.18695">
        <ele>1241.3204</ele>
        <time>2021-07-05T16:15:18</time>
      </trkpt>
      <trkpt lat="45.42798" lon="6.18695">
        <ele>1240.9204</ele>
        <time>2021-07-05T16:15:19</time>
      </trkpt>
      <trkpt lat="45.42799" lon="6.18694">
        <ele>1240.9204</ele>
        <time>2021-07-05T16:15:20</time>
      </trkpt>
      <trkpt lat="45.42801" lon="6.18693">
        <ele>1240.9204</ele>
        <time>2021-07-05T16:15:22</time>
      </trkpt>
      <trkpt lat="45.42803" lon="6.18689">
        <ele>1240.9204</ele>
        <time>2021-07-05T16:15:26</time>
      </trkpt>
      <trkpt lat="45.42803" lon="6.18684">
        <ele>1235.4204</ele>
        <time>2021-07-05T16:15:37</time>
      </trkpt>
      <trkpt lat="45.42804" lon="6.18682">
        <ele>1232.1205</ele>
        <time>2021-07-05T16:15:39</time>
      </trkpt>
      <trkpt lat="45.42803" lon="6.18678">
        <ele>1232.1205</ele>
        <time>2021-07-05T16:15:41</time>
      </trkpt>
      <trkpt lat="45.42807" lon="6.18671">
        <ele>1232.1205</ele>
        <time>2021-07-05T16:15:47</time>
      </trkpt>
      <trkpt lat="45.42808" lon="6.18669">
        <ele>1232.1205</ele>
        <time>2021-07-05T16:15:48</time>
      </trkpt>
      <trkpt lat="45.42809" lon="6.18668">
        <ele>1227.6205</ele>
        <time>2021-07-05T16:15:49</time>
      </trkpt>
      <trkpt lat="45.42812" lon="6.18666">
        <ele>1227.6205</ele>
        <time>2021-07-05T16:15:51</time>
      </trkpt>
      <trkpt lat="45.42813" lon="6.18663">
        <ele>1227.6205</ele>
        <time>2021-07-05T16:15:54</time>
      </trkpt>
      <trkpt lat="45.42814" lon="6.18662">
        <ele>1227.6205</ele>
        <time>2021-07-05T16:15:55</time>
      </trkpt>
      <trkpt lat="45.42815" lon="6.18662">
        <ele>1227.6205</ele>
        <time>2021-07-05T16:15:57</time>
      </trkpt>
      <trkpt lat="45.42816" lon="6.18661">
        <ele>1227.6205</ele>
        <time>2021-07-05T16:15:59</time>
      </trkpt>
      <trkpt lat="45.4282" lon="6.18654">
        <ele>1227.6205</ele>
        <time>2021-07-05T16:16:06</time>
      </trkpt>
      <trkpt lat="45.4282" lon="6.18653">
        <ele>1227.6205</ele>
        <time>2021-07-05T16:16:08</time>
      </trkpt>
      <trkpt lat="45.42821" lon="6.18653">
        <ele>1224.9204</ele>
        <time>2021-07-05T16:16:09</time>
      </trkpt>
      <trkpt lat="45.42824" lon="6.18651">
        <ele>1224.9204</ele>
        <time>2021-07-05T16:16:12</time>
      </trkpt>
      <trkpt lat="45.42824" lon="6.18649">
        <ele>1224.9204</ele>
        <time>2021-07-05T16:16:14</time>
      </trkpt>
      <trkpt lat="45.42825" lon="6.18646">
        <ele>1224.9204</ele>
        <time>2021-07-05T16:16:17</time>
      </trkpt>
      <trkpt lat="45.42826" lon="6.18645">
        <ele>1224.9204</ele>
        <time>2021-07-05T16:16:18</time>
      </trkpt>
      <trkpt lat="45.42826" lon="6.18642">
        <ele>1221.3204</ele>
        <time>2021-07-05T16:16:25</time>
      </trkpt>
      <trkpt lat="45.42826" lon="6.18642">
        <ele>1221.3204</ele>
        <time>2021-07-05T16:16:26</time>
      </trkpt>
      <trkpt lat="45.42827" lon="6.18642">
        <ele>1221.3204</ele>
        <time>2021-07-05T16:16:27</time>
      </trkpt>
      <trkpt lat="45.42828" lon="6.18642">
        <ele>1221.3204</ele>
        <time>2021-07-05T16:16:28</time>
      </trkpt>
      <trkpt lat="45.42828" lon="6.18642">
        <ele>1217.8204</ele>
        <time>2021-07-05T16:16:29</time>
      </trkpt>
      <trkpt lat="45.42828" lon="6.18641">
        <ele>1217.8204</ele>
        <time>2021-07-05T16:16:30</time>
      </trkpt>
      <trkpt lat="45.42829" lon="6.18638">
        <ele>1217.8204</ele>
        <time>2021-07-05T16:16:32</time>
      </trkpt>
      <trkpt lat="45.42829" lon="6.18636">
        <ele>1217.8204</ele>
        <time>2021-07-05T16:16:34</time>
      </trkpt>
      <trkpt lat="45.4283" lon="6.18634">
        <ele>1217.8204</ele>
        <time>2021-07-05T16:16:36</time>
      </trkpt>
      <trkpt lat="45.42829" lon="6.18633">
        <ele>1217.8204</ele>
        <time>2021-07-05T16:16:37</time>
      </trkpt>
      <trkpt lat="45.42829" lon="6.1863">
        <ele>1217.8204</ele>
        <time>2021-07-05T16:16:40</time>
      </trkpt>
      <trkpt lat="45.42829" lon="6.18622">
        <ele>1217.8204</ele>
        <time>2021-07-05T16:16:44</time>
      </trkpt>
      <trkpt lat="45.4283" lon="6.18621">
        <ele>1217.8204</ele>
        <time>2021-07-05T16:16:45</time>
      </trkpt>
      <trkpt lat="45.4283" lon="6.1862">
        <ele>1217.8204</ele>
        <time>2021-07-05T16:16:46</time>
      </trkpt>
      <trkpt lat="45.42831" lon="6.18619">
        <ele>1217.8204</ele>
        <time>2021-07-05T16:16:47</time>
      </trkpt>
      <trkpt lat="45.4283" lon="6.18618">
        <ele>1217.8204</ele>
        <time>2021-07-05T16:16:48</time>
      </trkpt>
      <trkpt lat="45.4283" lon="6.18617">
        <ele>1217.8204</ele>
        <time>2021-07-05T16:16:49</time>
      </trkpt>
      <trkpt lat="45.42828" lon="6.18615">
        <ele>1217.8204</ele>
        <time>2021-07-05T16:16:51</time>
      </trkpt>
      <trkpt lat="45.42828" lon="6.18614">
        <ele>1217.8204</ele>
        <time>2021-07-05T16:16:52</time>
      </trkpt>
      <trkpt lat="45.42828" lon="6.18614">
        <ele>1217.8204</ele>
        <time>2021-07-05T16:16:53</time>
      </trkpt>
      <trkpt lat="45.4283" lon="6.18614">
        <ele>1217.8204</ele>
        <time>2021-07-05T16:16:54</time>
      </trkpt>
      <trkpt lat="45.42832" lon="6.18614">
        <ele>1217.8204</ele>
        <time>2021-07-05T16:17:02</time>
      </trkpt>
      <trkpt lat="45.42832" lon="6.18613">
        <ele>1217.8204</ele>
        <time>2021-07-05T16:17:03</time>
      </trkpt>
      <trkpt lat="45.42832" lon="6.18612">
        <ele>1217.8204</ele>
        <time>2021-07-05T16:17:04</time>
      </trkpt>
      <trkpt lat="45.42832" lon="6.18612">
        <ele>1217.8204</ele>
        <time>2021-07-05T16:17:05</time>
      </trkpt>
      <trkpt lat="45.42831" lon="6.18611">
        <ele>1217.8204</ele>
        <time>2021-07-05T16:17:06</time>
      </trkpt>
      <trkpt lat="45.42831" lon="6.186">
        <ele>1217.8204</ele>
        <time>2021-07-05T16:17:14</time>
      </trkpt>
      <trkpt lat="45.42831" lon="6.18598">
        <ele>1217.8204</ele>
        <time>2021-07-05T16:17:15</time>
      </trkpt>
      <trkpt lat="45.4283" lon="6.18592">
        <ele>1218.5204</ele>
        <time>2021-07-05T16:17:19</time>
      </trkpt>
      <trkpt lat="45.4283" lon="6.1859">
        <ele>1218.5204</ele>
        <time>2021-07-05T16:17:20</time>
      </trkpt>
      <trkpt lat="45.4283" lon="6.1858">
        <ele>1218.5204</ele>
        <time>2021-07-05T16:17:26</time>
      </trkpt>
      <trkpt lat="45.42831" lon="6.18575">
        <ele>1218.5204</ele>
        <time>2021-07-05T16:17:28</time>
      </trkpt>
      <trkpt lat="45.42833" lon="6.1857">
        <ele>1219.5204</ele>
        <time>2021-07-05T16:17:30</time>
      </trkpt>
      <trkpt lat="45.42834" lon="6.18567">
        <ele>1219.5204</ele>
        <time>2021-07-05T16:17:37</time>
      </trkpt>
      <trkpt lat="45.42835" lon="6.18565">
        <ele>1219.5204</ele>
        <time>2021-07-05T16:17:38</time>
      </trkpt>
      <trkpt lat="45.42835" lon="6.18564">
        <ele>1200.6205</ele>
        <time>2021-07-05T16:17:40</time>
      </trkpt>
      <trkpt lat="45.42836" lon="6.18563">
        <ele>1200.6205</ele>
        <time>2021-07-05T16:17:41</time>
      </trkpt>
      <trkpt lat="45.42836" lon="6.18562">
        <ele>1200.6205</ele>
        <time>2021-07-05T16:17:42</time>
      </trkpt>
      <trkpt lat="45.42836" lon="6.18561">
        <ele>1200.6205</ele>
        <time>2021-07-05T16:17:43</time>
      </trkpt>
      <trkpt lat="45.42835" lon="6.18559">
        <ele>1200.6205</ele>
        <time>2021-07-05T16:17:44</time>
      </trkpt>
      <trkpt lat="45.42836" lon="6.18558">
        <ele>1200.6205</ele>
        <time>2021-07-05T16:17:45</time>
      </trkpt>
      <trkpt lat="45.42837" lon="6.18556">
        <ele>1200.6205</ele>
        <time>2021-07-05T16:17:47</time>
      </trkpt>
      <trkpt lat="45.42839" lon="6.18552">
        <ele>1204.0204</ele>
        <time>2021-07-05T16:17:50</time>
      </trkpt>
      <trkpt lat="45.4284" lon="6.1855">
        <ele>1204.0204</ele>
        <time>2021-07-05T16:17:52</time>
      </trkpt>
      <trkpt lat="45.4284" lon="6.18549">
        <ele>1204.0204</ele>
        <time>2021-07-05T16:17:53</time>
      </trkpt>
      <trkpt lat="45.42842" lon="6.18546">
        <ele>1204.0204</ele>
        <time>2021-07-05T16:17:55</time>
      </trkpt>
      <trkpt lat="45.42844" lon="6.18544">
        <ele>1204.0204</ele>
        <time>2021-07-05T16:17:57</time>
      </trkpt>
      <trkpt lat="45.42847" lon="6.1854">
        <ele>1208.7205</ele>
        <time>2021-07-05T16:18:01</time>
      </trkpt>
      <trkpt lat="45.42847" lon="6.18538">
        <ele>1208.7205</ele>
        <time>2021-07-05T16:18:06</time>
      </trkpt>
      <trkpt lat="45.42847" lon="6.18537">
        <ele>1208.7205</ele>
        <time>2021-07-05T16:18:07</time>
      </trkpt>
      <trkpt lat="45.42847" lon="6.18536">
        <ele>1208.7205</ele>
        <time>2021-07-05T16:18:08</time>
      </trkpt>
      <trkpt lat="45.42847" lon="6.18535">
        <ele>1203.7205</ele>
        <time>2021-07-05T16:18:09</time>
      </trkpt>
      <trkpt lat="45.42848" lon="6.18533">
        <ele>1203.7205</ele>
        <time>2021-07-05T16:18:13</time>
      </trkpt>
      <trkpt lat="45.42848" lon="6.1853">
        <ele>1203.7205</ele>
        <time>2021-07-05T16:18:14</time>
      </trkpt>
      <trkpt lat="45.42849" lon="6.18528">
        <ele>1203.7205</ele>
        <time>2021-07-05T16:18:15</time>
      </trkpt>
      <trkpt lat="45.4285" lon="6.18526">
        <ele>1203.7205</ele>
        <time>2021-07-05T16:18:16</time>
      </trkpt>
      <trkpt lat="45.42852" lon="6.18523">
        <ele>1203.7205</ele>
        <time>2021-07-05T16:18:18</time>
      </trkpt>
      <trkpt lat="45.42857" lon="6.18517">
        <ele>1206.5204</ele>
        <time>2021-07-05T16:18:22</time>
      </trkpt>
      <trkpt lat="45.42858" lon="6.18516">
        <ele>1206.5204</ele>
        <time>2021-07-05T16:18:23</time>
      </trkpt>
      <trkpt lat="45.42858" lon="6.18514">
        <ele>1206.5204</ele>
        <time>2021-07-05T16:18:24</time>
      </trkpt>
      <trkpt lat="45.42859" lon="6.18513">
        <ele>1206.5204</ele>
        <time>2021-07-05T16:18:25</time>
      </trkpt>
      <trkpt lat="45.42859" lon="6.18512">
        <ele>1206.5204</ele>
        <time>2021-07-05T16:18:26</time>
      </trkpt>
      <trkpt lat="45.42862" lon="6.18505">
        <ele>1198.8204</ele>
        <time>2021-07-05T16:18:30</time>
      </trkpt>
      <trkpt lat="45.42863" lon="6.18503">
        <ele>1198.8204</ele>
        <time>2021-07-05T16:18:32</time>
      </trkpt>
      <trkpt lat="45.42862" lon="6.18502">
        <ele>1198.8204</ele>
        <time>2021-07-05T16:18:33</time>
      </trkpt>
      <trkpt lat="45.42861" lon="6.185">
        <ele>1198.8204</ele>
        <time>2021-07-05T16:18:37</time>
      </trkpt>
      <trkpt lat="45.42862" lon="6.185">
        <ele>1198.8204</ele>
        <time>2021-07-05T16:18:38</time>
      </trkpt>
      <trkpt lat="45.42862" lon="6.18499">
        <ele>1193.2205</ele>
        <time>2021-07-05T16:18:40</time>
      </trkpt>
      <trkpt lat="45.42863" lon="6.18497">
        <ele>1193.2205</ele>
        <time>2021-07-05T16:18:41</time>
      </trkpt>
      <trkpt lat="45.42865" lon="6.18496">
        <ele>1193.2205</ele>
        <time>2021-07-05T16:18:42</time>
      </trkpt>
      <trkpt lat="45.42866" lon="6.18496">
        <ele>1193.2205</ele>
        <time>2021-07-05T16:18:43</time>
      </trkpt>
      <trkpt lat="45.42866" lon="6.18493">
        <ele>1193.2205</ele>
        <time>2021-07-05T16:18:50</time>
      </trkpt>
      <trkpt lat="45.42867" lon="6.18494">
        <ele>1193.2205</ele>
        <time>2021-07-05T16:18:51</time>
      </trkpt>
      <trkpt lat="45.42867" lon="6.18495">
        <ele>1193.2205</ele>
        <time>2021-07-05T16:18:52</time>
      </trkpt>
      <trkpt lat="45.42867" lon="6.18496">
        <ele>1193.2205</ele>
        <time>2021-07-05T16:18:57</time>
      </trkpt>
      <trkpt lat="45.42867" lon="6.18495">
        <ele>1193.2205</ele>
        <time>2021-07-05T16:18:58</time>
      </trkpt>
      <trkpt lat="45.42868" lon="6.18495">
        <ele>1193.2205</ele>
        <time>2021-07-05T16:19:01</time>
      </trkpt>
      <trkpt lat="45.42868" lon="6.18497">
        <ele>1193.2205</ele>
        <time>2021-07-05T16:19:04</time>
      </trkpt>
      <trkpt lat="45.42867" lon="6.18498">
        <ele>1193.2205</ele>
        <time>2021-07-05T16:19:06</time>
      </trkpt>
      <trkpt lat="45.42868" lon="6.18499">
        <ele>1193.2205</ele>
        <time>2021-07-05T16:19:07</time>
      </trkpt>
      <trkpt lat="45.42869" lon="6.18503">
        <ele>1193.2205</ele>
        <time>2021-07-05T16:19:10</time>
      </trkpt>
      <trkpt lat="45.4287" lon="6.18504">
        <ele>1193.2205</ele>
        <time>2021-07-05T16:19:11</time>
      </trkpt>
      <trkpt lat="45.42871" lon="6.18509">
        <ele>1193.2205</ele>
        <time>2021-07-05T16:19:14</time>
      </trkpt>
      <trkpt lat="45.42871" lon="6.18512">
        <ele>1193.2205</ele>
        <time>2021-07-05T16:19:16</time>
      </trkpt>
      <trkpt lat="45.42866" lon="6.18524">
        <ele>1193.2205</ele>
        <time>2021-07-05T16:19:25</time>
      </trkpt>
      <trkpt lat="45.42866" lon="6.18537">
        <ele>1193.2205</ele>
        <time>2021-07-05T16:19:33</time>
      </trkpt>
      <trkpt lat="45.42866" lon="6.18538">
        <ele>1193.2205</ele>
        <time>2021-07-05T16:19:34</time>
      </trkpt>
      <trkpt lat="45.42865" lon="6.1854">
        <ele>1193.2205</ele>
        <time>2021-07-05T16:19:36</time>
      </trkpt>
      <trkpt lat="45.42864" lon="6.18542">
        <ele>1193.2205</ele>
        <time>2021-07-05T16:19:37</time>
      </trkpt>
      <trkpt lat="45.42864" lon="6.18544">
        <ele>1193.2205</ele>
        <time>2021-07-05T16:19:38</time>
      </trkpt>
      <trkpt lat="45.42863" lon="6.18546">
        <ele>1193.2205</ele>
        <time>2021-07-05T16:19:40</time>
      </trkpt>
      <trkpt lat="45.42862" lon="6.18547">
        <ele>1193.2205</ele>
        <time>2021-07-05T16:19:42</time>
      </trkpt>
      <trkpt lat="45.42862" lon="6.18548">
        <ele>1193.2205</ele>
        <time>2021-07-05T16:19:43</time>
      </trkpt>
      <trkpt lat="45.42861" lon="6.18553">
        <ele>1193.2205</ele>
        <time>2021-07-05T16:19:46</time>
      </trkpt>
      <trkpt lat="45.42862" lon="6.18568">
        <ele>1193.2205</ele>
        <time>2021-07-05T16:19:56</time>
      </trkpt>
      <trkpt lat="45.42862" lon="6.1857">
        <ele>1193.2205</ele>
        <time>2021-07-05T16:19:57</time>
      </trkpt>
      <trkpt lat="45.42863" lon="6.1857">
        <ele>1193.2205</ele>
        <time>2021-07-05T16:19:58</time>
      </trkpt>
      <trkpt lat="45.42863" lon="6.18572">
        <ele>1193.2205</ele>
        <time>2021-07-05T16:19:59</time>
      </trkpt>
      <trkpt lat="45.42863" lon="6.18577">
        <ele>1193.2205</ele>
        <time>2021-07-05T16:20:02</time>
      </trkpt>
      <trkpt lat="45.42864" lon="6.18579">
        <ele>1193.2205</ele>
        <time>2021-07-05T16:20:04</time>
      </trkpt>
      <trkpt lat="45.42865" lon="6.18581">
        <ele>1193.2205</ele>
        <time>2021-07-05T16:20:05</time>
      </trkpt>
      <trkpt lat="45.42865" lon="6.18583">
        <ele>1193.2205</ele>
        <time>2021-07-05T16:20:07</time>
      </trkpt>
      <trkpt lat="45.42865" lon="6.18584">
        <ele>1193.2205</ele>
        <time>2021-07-05T16:20:08</time>
      </trkpt>
      <trkpt lat="45.42865" lon="6.18585">
        <ele>1193.2205</ele>
        <time>2021-07-05T16:20:09</time>
      </trkpt>
      <trkpt lat="45.42865" lon="6.18586">
        <ele>1193.2205</ele>
        <time>2021-07-05T16:20:11</time>
      </trkpt>
      <trkpt lat="45.42865" lon="6.18585">
        <ele>1193.2205</ele>
        <time>2021-07-05T16:20:12</time>
      </trkpt>
      <trkpt lat="45.42866" lon="6.18586">
        <ele>1193.2205</ele>
        <time>2021-07-05T16:20:14</time>
      </trkpt>
      <trkpt lat="45.42866" lon="6.18586">
        <ele>1193.2205</ele>
        <time>2021-07-05T16:20:15</time>
      </trkpt>
      <trkpt lat="45.42866" lon="6.18588">
        <ele>1193.2205</ele>
        <time>2021-07-05T16:20:18</time>
      </trkpt>
      <trkpt lat="45.42865" lon="6.18589">
        <ele>1193.2205</ele>
        <time>2021-07-05T16:20:19</time>
      </trkpt>
      <trkpt lat="45.42866" lon="6.18591">
        <ele>1193.2205</ele>
        <time>2021-07-05T16:20:21</time>
      </trkpt>
      <trkpt lat="45.42866" lon="6.18591">
        <ele>1193.2205</ele>
        <time>2021-07-05T16:20:22</time>
      </trkpt>
      <trkpt lat="45.42867" lon="6.18591">
        <ele>1193.2205</ele>
        <time>2021-07-05T16:20:23</time>
      </trkpt>
      <trkpt lat="45.42868" lon="6.18592">
        <ele>1193.2205</ele>
        <time>2021-07-05T16:20:24</time>
      </trkpt>
      <trkpt lat="45.42871" lon="6.18596">
        <ele>1193.2205</ele>
        <time>2021-07-05T16:20:27</time>
      </trkpt>
      <trkpt lat="45.42874" lon="6.18611">
        <ele>1185.2205</ele>
        <time>2021-07-05T16:20:39</time>
      </trkpt>
      <trkpt lat="45.42874" lon="6.18612">
        <ele>1185.2205</ele>
        <time>2021-07-05T16:20:41</time>
      </trkpt>
      <trkpt lat="45.42876" lon="6.18614">
        <ele>1185.2205</ele>
        <time>2021-07-05T16:20:44</time>
      </trkpt>
      <trkpt lat="45.42877" lon="6.18614">
        <ele>1185.2205</ele>
        <time>2021-07-05T16:20:45</time>
      </trkpt>
      <trkpt lat="45.42877" lon="6.18615">
        <ele>1185.2205</ele>
        <time>2021-07-05T16:20:46</time>
      </trkpt>
      <trkpt lat="45.42878" lon="6.18614">
        <ele>1185.2205</ele>
        <time>2021-07-05T16:20:48</time>
      </trkpt>
      <trkpt lat="45.42882" lon="6.1861">
        <ele>1186.6205</ele>
        <time>2021-07-05T16:20:55</time>
      </trkpt>
      <trkpt lat="45.42882" lon="6.1861">
        <ele>1186.6205</ele>
        <time>2021-07-05T16:20:58</time>
      </trkpt>
      <trkpt lat="45.42885" lon="6.18608">
        <ele>1190.8204</ele>
        <time>2021-07-05T16:21:02</time>
      </trkpt>
      <trkpt lat="45.42885" lon="6.18607">
        <ele>1190.8204</ele>
        <time>2021-07-05T16:21:03</time>
      </trkpt>
      <trkpt lat="45.42886" lon="6.18606">
        <ele>1190.8204</ele>
        <time>2021-07-05T16:21:04</time>
      </trkpt>
      <trkpt lat="45.42886" lon="6.18605">
        <ele>1190.8204</ele>
        <time>2021-07-05T16:21:05</time>
      </trkpt>
      <trkpt lat="45.42887" lon="6.18605">
        <ele>1190.8204</ele>
        <time>2021-07-05T16:21:06</time>
      </trkpt>
      <trkpt lat="45.42889" lon="6.18604">
        <ele>1190.6205</ele>
        <time>2021-07-05T16:21:09</time>
      </trkpt>
      <trkpt lat="45.42892" lon="6.18602">
        <ele>1190.6205</ele>
        <time>2021-07-05T16:21:12</time>
      </trkpt>
      <trkpt lat="45.42898" lon="6.18599">
        <ele>1190.6205</ele>
        <time>2021-07-05T16:21:17</time>
      </trkpt>
      <trkpt lat="45.42899" lon="6.18599">
        <ele>1190.6205</ele>
        <time>2021-07-05T16:21:18</time>
      </trkpt>
      <trkpt lat="45.42901" lon="6.18597">
        <ele>1187.8204</ele>
        <time>2021-07-05T16:21:26</time>
      </trkpt>
      <trkpt lat="45.42904" lon="6.18593">
        <ele>1178.3204</ele>
        <time>2021-07-05T16:21:34</time>
      </trkpt>
      <trkpt lat="45.42906" lon="6.18589">
        <ele>1178.3204</ele>
        <time>2021-07-05T16:21:38</time>
      </trkpt>
      <trkpt lat="45.42907" lon="6.1859">
        <ele>1176.8204</ele>
        <time>2021-07-05T16:21:39</time>
      </trkpt>
      <trkpt lat="45.42907" lon="6.18588">
        <ele>1176.8204</ele>
        <time>2021-07-05T16:21:43</time>
      </trkpt>
      <trkpt lat="45.42908" lon="6.18586">
        <ele>1176.8204</ele>
        <time>2021-07-05T16:21:46</time>
      </trkpt>
      <trkpt lat="45.4291" lon="6.18587">
        <ele>1178.6205</ele>
        <time>2021-07-05T16:21:57</time>
      </trkpt>
      <trkpt lat="45.42913" lon="6.18584">
        <ele>1182.6205</ele>
        <time>2021-07-05T16:22:02</time>
      </trkpt>
      <trkpt lat="45.42914" lon="6.18582">
        <ele>1182.6205</ele>
        <time>2021-07-05T16:22:03</time>
      </trkpt>
      <trkpt lat="45.42914" lon="6.18581">
        <ele>1182.6205</ele>
        <time>2021-07-05T16:22:04</time>
      </trkpt>
      <trkpt lat="45.42916" lon="6.18578">
        <ele>1182.6205</ele>
        <time>2021-07-05T16:22:07</time>
      </trkpt>
      <trkpt lat="45.42917" lon="6.18578">
        <ele>1182.6205</ele>
        <time>2021-07-05T16:22:08</time>
      </trkpt>
      <trkpt lat="45.42917" lon="6.18577">
        <ele>1186.7205</ele>
        <time>2021-07-05T16:22:09</time>
      </trkpt>
      <trkpt lat="45.42918" lon="6.18577">
        <ele>1186.7205</ele>
        <time>2021-07-05T16:22:10</time>
      </trkpt>
      <trkpt lat="45.42919" lon="6.18577">
        <ele>1186.7205</ele>
        <time>2021-07-05T16:22:11</time>
      </trkpt>
      <trkpt lat="45.42922" lon="6.18576">
        <ele>1186.7205</ele>
        <time>2021-07-05T16:22:14</time>
      </trkpt>
      <trkpt lat="45.42924" lon="6.18574">
        <ele>1186.7205</ele>
        <time>2021-07-05T16:22:21</time>
      </trkpt>
      <trkpt lat="45.42924" lon="6.18574">
        <ele>1186.7205</ele>
        <time>2021-07-05T16:22:22</time>
      </trkpt>
      <trkpt lat="45.42925" lon="6.18572">
        <ele>1186.7205</ele>
        <time>2021-07-05T16:22:24</time>
      </trkpt>
      <trkpt lat="45.42927" lon="6.18568">
        <ele>1186.7205</ele>
        <time>2021-07-05T16:22:27</time>
      </trkpt>
      <trkpt lat="45.42927" lon="6.18567">
        <ele>1186.7205</ele>
        <time>2021-07-05T16:22:28</time>
      </trkpt>
      <trkpt lat="45.42929" lon="6.18566">
        <ele>1185.1205</ele>
        <time>2021-07-05T16:22:30</time>
      </trkpt>
      <trkpt lat="45.42931" lon="6.18561">
        <ele>1185.1205</ele>
        <time>2021-07-05T16:22:33</time>
      </trkpt>
      <trkpt lat="45.42933" lon="6.18559">
        <ele>1185.1205</ele>
        <time>2021-07-05T16:22:35</time>
      </trkpt>
      <trkpt lat="45.42934" lon="6.18558">
        <ele>1185.1205</ele>
        <time>2021-07-05T16:22:36</time>
      </trkpt>
      <trkpt lat="45.42944" lon="6.18547">
        <ele>1189.9204</ele>
        <time>2021-07-05T16:22:46</time>
      </trkpt>
      <trkpt lat="45.42947" lon="6.18542">
        <ele>1194.4204</ele>
        <time>2021-07-05T16:22:56</time>
      </trkpt>
      <trkpt lat="45.42949" lon="6.1854">
        <ele>1194.4204</ele>
        <time>2021-07-05T16:22:58</time>
      </trkpt>
      <trkpt lat="45.4295" lon="6.18534">
        <ele>1190.1205</ele>
        <time>2021-07-05T16:23:03</time>
      </trkpt>
      <trkpt lat="45.42959" lon="6.18526">
        <ele>1196.5204</ele>
        <time>2021-07-05T16:23:15</time>
      </trkpt>
      <trkpt lat="45.4296" lon="6.18525">
        <ele>1196.5204</ele>
        <time>2021-07-05T16:23:18</time>
      </trkpt>
      <trkpt lat="45.42961" lon="6.18524">
        <ele>1192.4204</ele>
        <time>2021-07-05T16:23:19</time>
      </trkpt>
      <trkpt lat="45.42962" lon="6.18522">
        <ele>1192.4204</ele>
        <time>2021-07-05T16:23:20</time>
      </trkpt>
      <trkpt lat="45.42966" lon="6.18521">
        <ele>1192.4204</ele>
        <time>2021-07-05T16:23:24</time>
      </trkpt>
      <trkpt lat="45.42967" lon="6.1852">
        <ele>1192.4204</ele>
        <time>2021-07-05T16:23:25</time>
      </trkpt>
      <trkpt lat="45.42968" lon="6.18519">
        <ele>1192.4204</ele>
        <time>2021-07-05T16:23:27</time>
      </trkpt>
      <trkpt lat="45.42972" lon="6.18519">
        <ele>1190.3204</ele>
        <time>2021-07-05T16:23:38</time>
      </trkpt>
      <trkpt lat="45.42979" lon="6.18511">
        <ele>1187.3204</ele>
        <time>2021-07-05T16:23:45</time>
      </trkpt>
      <trkpt lat="45.42981" lon="6.18507">
        <ele>1187.3204</ele>
        <time>2021-07-05T16:23:48</time>
      </trkpt>
      <trkpt lat="45.42988" lon="6.18506">
        <ele>1186.8204</ele>
        <time>2021-07-05T16:23:55</time>
      </trkpt>
      <trkpt lat="45.42991" lon="6.18505">
        <ele>1183.0204</ele>
        <time>2021-07-05T16:24:00</time>
      </trkpt>
      <trkpt lat="45.42992" lon="6.18506">
        <ele>1183.0204</ele>
        <time>2021-07-05T16:24:03</time>
      </trkpt>
      <trkpt lat="45.42996" lon="6.18504">
        <ele>1183.0204</ele>
        <time>2021-07-05T16:24:07</time>
      </trkpt>
      <trkpt lat="45.42997" lon="6.18503">
        <ele>1183.0204</ele>
        <time>2021-07-05T16:24:08</time>
      </trkpt>
      <trkpt lat="45.42997" lon="6.18502">
        <ele>1186.2205</ele>
        <time>2021-07-05T16:24:09</time>
      </trkpt>
      <trkpt lat="45.42998" lon="6.18501">
        <ele>1186.2205</ele>
        <time>2021-07-05T16:24:10</time>
      </trkpt>
      <trkpt lat="45.43002" lon="6.18498">
        <ele>1186.2205</ele>
        <time>2021-07-05T16:24:13</time>
      </trkpt>
      <trkpt lat="45.43002" lon="6.18497">
        <ele>1186.2205</ele>
        <time>2021-07-05T16:24:14</time>
      </trkpt>
      <trkpt lat="45.43003" lon="6.18497">
        <ele>1186.2205</ele>
        <time>2021-07-05T16:24:15</time>
      </trkpt>
      <trkpt lat="45.43003" lon="6.18496">
        <ele>1186.2205</ele>
        <time>2021-07-05T16:24:16</time>
      </trkpt>
      <trkpt lat="45.43005" lon="6.18494">
        <ele>1186.2205</ele>
        <time>2021-07-05T16:24:26</time>
      </trkpt>
      <trkpt lat="45.43014" lon="6.18492">
        <ele>1186.2205</ele>
        <time>2021-07-05T16:24:36</time>
      </trkpt>
      <trkpt lat="45.43016" lon="6.18492">
        <ele>1186.2205</ele>
        <time>2021-07-05T16:24:37</time>
      </trkpt>
      <trkpt lat="45.43019" lon="6.18491">
        <ele>1185.4204</ele>
        <time>2021-07-05T16:24:41</time>
      </trkpt>
      <trkpt lat="45.43019" lon="6.1849">
        <ele>1185.4204</ele>
        <time>2021-07-05T16:24:42</time>
      </trkpt>
      <trkpt lat="45.4302" lon="6.18489">
        <ele>1185.4204</ele>
        <time>2021-07-05T16:24:43</time>
      </trkpt>
      <trkpt lat="45.43021" lon="6.18489">
        <ele>1185.4204</ele>
        <time>2021-07-05T16:24:44</time>
      </trkpt>
      <trkpt lat="45.43031" lon="6.18487">
        <ele>1188.8204</ele>
        <time>2021-07-05T16:24:52</time>
      </trkpt>
      <trkpt lat="45.43032" lon="6.18487">
        <ele>1188.8204</ele>
        <time>2021-07-05T16:24:53</time>
      </trkpt>
      <trkpt lat="45.43033" lon="6.18484">
        <ele>1188.8204</ele>
        <time>2021-07-05T16:24:55</time>
      </trkpt>
      <trkpt lat="45.43035" lon="6.18482">
        <ele>1188.8204</ele>
        <time>2021-07-05T16:24:57</time>
      </trkpt>
      <trkpt lat="45.43036" lon="6.1848">
        <ele>1175.4204</ele>
        <time>2021-07-05T16:25:00</time>
      </trkpt>
      <trkpt lat="45.43042" lon="6.18475">
        <ele>1180.0204</ele>
        <time>2021-07-05T16:25:09</time>
      </trkpt>
      <trkpt lat="45.43043" lon="6.18475">
        <ele>1180.0204</ele>
        <time>2021-07-05T16:25:10</time>
      </trkpt>
      <trkpt lat="45.43048" lon="6.1847">
        <ele>1180.0204</ele>
        <time>2021-07-05T16:25:16</time>
      </trkpt>
      <trkpt lat="45.43049" lon="6.1847">
        <ele>1180.0204</ele>
        <time>2021-07-05T16:25:17</time>
      </trkpt>
      <trkpt lat="45.4305" lon="6.1847">
        <ele>1180.0204</ele>
        <time>2021-07-05T16:25:18</time>
      </trkpt>
      <trkpt lat="45.43051" lon="6.1847">
        <ele>1184.7205</ele>
        <time>2021-07-05T16:25:19</time>
      </trkpt>
      <trkpt lat="45.43052" lon="6.18469">
        <ele>1184.7205</ele>
        <time>2021-07-05T16:25:20</time>
      </trkpt>
      <trkpt lat="45.43053" lon="6.18469">
        <ele>1184.7205</ele>
        <time>2021-07-05T16:25:21</time>
      </trkpt>
      <trkpt lat="45.43054" lon="6.18467">
        <ele>1184.7205</ele>
        <time>2021-07-05T16:25:22</time>
      </trkpt>
      <trkpt lat="45.43055" lon="6.18465">
        <ele>1184.7205</ele>
        <time>2021-07-05T16:25:23</time>
      </trkpt>
      <trkpt lat="45.43056" lon="6.18464">
        <ele>1184.7205</ele>
        <time>2021-07-05T16:25:24</time>
      </trkpt>
      <trkpt lat="45.43057" lon="6.18463">
        <ele>1184.7205</ele>
        <time>2021-07-05T16:25:25</time>
      </trkpt>
      <trkpt lat="45.43061" lon="6.18459">
        <ele>1184.7205</ele>
        <time>2021-07-05T16:25:30</time>
      </trkpt>
      <trkpt lat="45.43062" lon="6.18459">
        <ele>1184.7205</ele>
        <time>2021-07-05T16:25:32</time>
      </trkpt>
      <trkpt lat="45.43064" lon="6.18458">
        <ele>1184.7205</ele>
        <time>2021-07-05T16:25:34</time>
      </trkpt>
      <trkpt lat="45.43065" lon="6.18457">
        <ele>1184.7205</ele>
        <time>2021-07-05T16:25:35</time>
      </trkpt>
      <trkpt lat="45.43068" lon="6.18454">
        <ele>1172.5204</ele>
        <time>2021-07-05T16:25:39</time>
      </trkpt>
      <trkpt lat="45.43072" lon="6.18451">
        <ele>1172.5204</ele>
        <time>2021-07-05T16:25:42</time>
      </trkpt>
      <trkpt lat="45.43074" lon="6.18449">
        <ele>1172.5204</ele>
        <time>2021-07-05T16:25:44</time>
      </trkpt>
      <trkpt lat="45.4308" lon="6.18446">
        <ele>1172.5204</ele>
        <time>2021-07-05T16:25:48</time>
      </trkpt>
      <trkpt lat="45.43083" lon="6.18443">
        <ele>1166.2205</ele>
        <time>2021-07-05T16:25:51</time>
      </trkpt>
      <trkpt lat="45.43085" lon="6.1844">
        <ele>1166.2205</ele>
        <time>2021-07-05T16:25:54</time>
      </trkpt>
      <trkpt lat="45.43088" lon="6.18438">
        <ele>1166.2205</ele>
        <time>2021-07-05T16:25:57</time>
      </trkpt>
      <trkpt lat="45.4309" lon="6.18435">
        <ele>1155.4204</ele>
        <time>2021-07-05T16:25:59</time>
      </trkpt>
      <trkpt lat="45.43091" lon="6.18434">
        <ele>1155.4204</ele>
        <time>2021-07-05T16:26:00</time>
      </trkpt>
      <trkpt lat="45.43092" lon="6.18434">
        <ele>1155.4204</ele>
        <time>2021-07-05T16:26:01</time>
      </trkpt>
      <trkpt lat="45.43094" lon="6.18434">
        <ele>1155.4204</ele>
        <time>2021-07-05T16:26:03</time>
      </trkpt>
      <trkpt lat="45.43095" lon="6.18433">
        <ele>1155.4204</ele>
        <time>2021-07-05T16:26:04</time>
      </trkpt>
      <trkpt lat="45.43102" lon="6.18426">
        <ele>1160.0204</ele>
        <time>2021-07-05T16:26:14</time>
      </trkpt>
      <trkpt lat="45.43103" lon="6.18425">
        <ele>1160.0204</ele>
        <time>2021-07-05T16:26:15</time>
      </trkpt>
      <trkpt lat="45.43104" lon="6.18424">
        <ele>1160.0204</ele>
        <time>2021-07-05T16:26:16</time>
      </trkpt>
      <trkpt lat="45.43104" lon="6.18423">
        <ele>1160.0204</ele>
        <time>2021-07-05T16:26:17</time>
      </trkpt>
      <trkpt lat="45.43106" lon="6.18423">
        <ele>1160.0204</ele>
        <time>2021-07-05T16:26:18</time>
      </trkpt>
      <trkpt lat="45.43106" lon="6.18422">
        <ele>1160.0204</ele>
        <time>2021-07-05T16:26:19</time>
      </trkpt>
      <trkpt lat="45.43107" lon="6.18421">
        <ele>1160.0204</ele>
        <time>2021-07-05T16:26:20</time>
      </trkpt>
      <trkpt lat="45.43109" lon="6.18418">
        <ele>1160.0204</ele>
        <time>2021-07-05T16:26:23</time>
      </trkpt>
      <trkpt lat="45.4311" lon="6.18417">
        <ele>1160.0204</ele>
        <time>2021-07-05T16:26:25</time>
      </trkpt>
      <trkpt lat="45.43111" lon="6.18417">
        <ele>1160.0204</ele>
        <time>2021-07-05T16:26:26</time>
      </trkpt>
      <trkpt lat="45.43112" lon="6.18417">
        <ele>1160.0204</ele>
        <time>2021-07-05T16:26:27</time>
      </trkpt>
      <trkpt lat="45.43113" lon="6.18416">
        <ele>1158.3204</ele>
        <time>2021-07-05T16:26:41</time>
      </trkpt>
      <trkpt lat="45.43114" lon="6.18415">
        <ele>1158.3204</ele>
        <time>2021-07-05T16:26:42</time>
      </trkpt>
      <trkpt lat="45.43114" lon="6.18412">
        <ele>1155.9204</ele>
        <time>2021-07-05T16:26:54</time>
      </trkpt>
      <trkpt lat="45.43115" lon="6.18412">
        <ele>1155.9204</ele>
        <time>2021-07-05T16:26:55</time>
      </trkpt>
      <trkpt lat="45.43116" lon="6.18411">
        <ele>1155.9204</ele>
        <time>2021-07-05T16:26:56</time>
      </trkpt>
      <trkpt lat="45.43116" lon="6.1841">
        <ele>1155.9204</ele>
        <time>2021-07-05T16:26:57</time>
      </trkpt>
      <trkpt lat="45.43118" lon="6.18409">
        <ele>1155.9204</ele>
        <time>2021-07-05T16:27:00</time>
      </trkpt>
      <trkpt lat="45.43119" lon="6.18407">
        <ele>1155.9204</ele>
        <time>2021-07-05T16:27:04</time>
      </trkpt>
      <trkpt lat="45.43119" lon="6.18406">
        <ele>1155.9204</ele>
        <time>2021-07-05T16:27:07</time>
      </trkpt>
      <trkpt lat="45.43121" lon="6.18404">
        <ele>1155.9204</ele>
        <time>2021-07-05T16:27:12</time>
      </trkpt>
      <trkpt lat="45.4312" lon="6.18404">
        <ele>1155.9204</ele>
        <time>2021-07-05T16:27:13</time>
      </trkpt>
      <trkpt lat="45.43118" lon="6.18404">
        <ele>1155.9204</ele>
        <time>2021-07-05T16:27:15</time>
      </trkpt>
      <trkpt lat="45.43115" lon="6.18402">
        <ele>1155.9204</ele>
        <time>2021-07-05T16:27:24</time>
      </trkpt>
      <trkpt lat="45.43114" lon="6.18403">
        <ele>1155.9204</ele>
        <time>2021-07-05T16:27:25</time>
      </trkpt>
      <trkpt lat="45.43113" lon="6.18404">
        <ele>1155.9204</ele>
        <time>2021-07-05T16:27:26</time>
      </trkpt>
      <trkpt lat="45.4311" lon="6.18403">
        <ele>1155.9204</ele>
        <time>2021-07-05T16:27:29</time>
      </trkpt>
      <trkpt lat="45.43105" lon="6.18402">
        <ele>1155.9204</ele>
        <time>2021-07-05T16:27:32</time>
      </trkpt>
      <trkpt lat="45.43104" lon="6.18402">
        <ele>1155.9204</ele>
        <time>2021-07-05T16:27:33</time>
      </trkpt>
      <trkpt lat="45.431" lon="6.184">
        <ele>1155.9204</ele>
        <time>2021-07-05T16:27:36</time>
      </trkpt>
      <trkpt lat="45.43099" lon="6.18398">
        <ele>1155.9204</ele>
        <time>2021-07-05T16:27:37</time>
      </trkpt>
      <trkpt lat="45.43098" lon="6.18397">
        <ele>1155.9204</ele>
        <time>2021-07-05T16:27:38</time>
      </trkpt>
      <trkpt lat="45.43098" lon="6.18395">
        <ele>1155.9204</ele>
        <time>2021-07-05T16:27:39</time>
      </trkpt>
      <trkpt lat="45.43096" lon="6.18395">
        <ele>1155.9204</ele>
        <time>2021-07-05T16:27:43</time>
      </trkpt>
      <trkpt lat="45.43095" lon="6.18394">
        <ele>1155.9204</ele>
        <time>2021-07-05T16:27:44</time>
      </trkpt>
      <trkpt lat="45.43091" lon="6.18393">
        <ele>1155.9204</ele>
        <time>2021-07-05T16:27:47</time>
      </trkpt>
      <trkpt lat="45.4309" lon="6.18393">
        <ele>1155.9204</ele>
        <time>2021-07-05T16:27:48</time>
      </trkpt>
      <trkpt lat="45.43085" lon="6.18391">
        <ele>1155.9204</ele>
        <time>2021-07-05T16:27:54</time>
      </trkpt>
      <trkpt lat="45.43084" lon="6.18391">
        <ele>1155.9204</ele>
        <time>2021-07-05T16:27:55</time>
      </trkpt>
      <trkpt lat="45.43083" lon="6.18391">
        <ele>1155.9204</ele>
        <time>2021-07-05T16:27:56</time>
      </trkpt>
      <trkpt lat="45.43081" lon="6.18391">
        <ele>1155.9204</ele>
        <time>2021-07-05T16:27:57</time>
      </trkpt>
      <trkpt lat="45.43078" lon="6.18392">
        <ele>1155.9204</ele>
        <time>2021-07-05T16:27:59</time>
      </trkpt>
      <trkpt lat="45.43077" lon="6.18392">
        <ele>1155.9204</ele>
        <time>2021-07-05T16:28:00</time>
      </trkpt>
      <trkpt lat="45.43071" lon="6.18391">
        <ele>1155.9204</ele>
        <time>2021-07-05T16:28:04</time>
      </trkpt>
      <trkpt lat="45.43061" lon="6.18378">
        <ele>1155.9204</ele>
        <time>2021-07-05T16:28:22</time>
      </trkpt>
      <trkpt lat="45.43055" lon="6.18374">
        <ele>1155.9204</ele>
        <time>2021-07-05T16:28:27</time>
      </trkpt>
      <trkpt lat="45.43054" lon="6.18373">
        <ele>1155.9204</ele>
        <time>2021-07-05T16:28:28</time>
      </trkpt>
      <trkpt lat="45.43054" lon="6.18371">
        <ele>1155.9204</ele>
        <time>2021-07-05T16:28:29</time>
      </trkpt>
      <trkpt lat="45.43053" lon="6.18369">
        <ele>1155.9204</ele>
        <time>2021-07-05T16:28:31</time>
      </trkpt>
      <trkpt lat="45.43053" lon="6.18367">
        <ele>1155.9204</ele>
        <time>2021-07-05T16:28:32</time>
      </trkpt>
      <trkpt lat="45.43049" lon="6.18364">
        <ele>1155.9204</ele>
        <time>2021-07-05T16:28:40</time>
      </trkpt>
      <trkpt lat="45.43049" lon="6.18363">
        <ele>1155.9204</ele>
        <time>2021-07-05T16:28:41</time>
      </trkpt>
      <trkpt lat="45.43047" lon="6.18362">
        <ele>1155.9204</ele>
        <time>2021-07-05T16:28:42</time>
      </trkpt>
      <trkpt lat="45.43042" lon="6.18358">
        <ele>1155.9204</ele>
        <time>2021-07-05T16:28:46</time>
      </trkpt>
      <trkpt lat="45.43041" lon="6.18356">
        <ele>1155.9204</ele>
        <time>2021-07-05T16:28:49</time>
      </trkpt>
      <trkpt lat="45.43035" lon="6.18348">
        <ele>1155.9204</ele>
        <time>2021-07-05T16:28:57</time>
      </trkpt>
      <trkpt lat="45.43033" lon="6.18347">
        <ele>1155.9204</ele>
        <time>2021-07-05T16:28:58</time>
      </trkpt>
      <trkpt lat="45.43032" lon="6.18346">
        <ele>1155.9204</ele>
        <time>2021-07-05T16:28:59</time>
      </trkpt>
      <trkpt lat="45.43031" lon="6.18344">
        <ele>1155.9204</ele>
        <time>2021-07-05T16:29:00</time>
      </trkpt>
      <trkpt lat="45.4303" lon="6.18343">
        <ele>1155.9204</ele>
        <time>2021-07-05T16:29:01</time>
      </trkpt>
      <trkpt lat="45.43023" lon="6.18341">
        <ele>1155.9204</ele>
        <time>2021-07-05T16:29:06</time>
      </trkpt>
      <trkpt lat="45.43021" lon="6.1834">
        <ele>1155.9204</ele>
        <time>2021-07-05T16:29:07</time>
      </trkpt>
      <trkpt lat="45.43019" lon="6.18337">
        <ele>1155.9204</ele>
        <time>2021-07-05T16:29:09</time>
      </trkpt>
      <trkpt lat="45.43018" lon="6.18336">
        <ele>1155.9204</ele>
        <time>2021-07-05T16:29:10</time>
      </trkpt>
      <trkpt lat="45.43018" lon="6.18335">
        <ele>1155.9204</ele>
        <time>2021-07-05T16:29:11</time>
      </trkpt>
      <trkpt lat="45.43017" lon="6.18334">
        <ele>1155.9204</ele>
        <time>2021-07-05T16:29:13</time>
      </trkpt>
      <trkpt lat="45.43016" lon="6.18333">
        <ele>1155.9204</ele>
        <time>2021-07-05T16:29:14</time>
      </trkpt>
      <trkpt lat="45.43015" lon="6.18333">
        <ele>1155.9204</ele>
        <time>2021-07-05T16:29:15</time>
      </trkpt>
      <trkpt lat="45.4301" lon="6.18333">
        <ele>1155.9204</ele>
        <time>2021-07-05T16:29:18</time>
      </trkpt>
      <trkpt lat="45.4301" lon="6.18332">
        <ele>1155.9204</ele>
        <time>2021-07-05T16:29:19</time>
      </trkpt>
      <trkpt lat="45.4301" lon="6.18331">
        <ele>1155.9204</ele>
        <time>2021-07-05T16:29:20</time>
      </trkpt>
      <trkpt lat="45.43009" lon="6.18328">
        <ele>1155.9204</ele>
        <time>2021-07-05T16:29:22</time>
      </trkpt>
      <trkpt lat="45.43008" lon="6.18327">
        <ele>1155.9204</ele>
        <time>2021-07-05T16:29:23</time>
      </trkpt>
      <trkpt lat="45.43007" lon="6.18326">
        <ele>1155.9204</ele>
        <time>2021-07-05T16:29:24</time>
      </trkpt>
      <trkpt lat="45.43007" lon="6.18326">
        <ele>1155.9204</ele>
        <time>2021-07-05T16:29:25</time>
      </trkpt>
      <trkpt lat="45.43006" lon="6.18325">
        <ele>1155.9204</ele>
        <time>2021-07-05T16:29:26</time>
      </trkpt>
      <trkpt lat="45.43006" lon="6.18324">
        <ele>1155.9204</ele>
        <time>2021-07-05T16:29:27</time>
      </trkpt>
      <trkpt lat="45.43005" lon="6.18324">
        <ele>1155.9204</ele>
        <time>2021-07-05T16:29:28</time>
      </trkpt>
      <trkpt lat="45.43006" lon="6.18321">
        <ele>1149.8204</ele>
        <time>2021-07-05T16:30:46</time>
      </trkpt>
      <trkpt lat="45.43006" lon="6.18317">
        <ele>1149.8204</ele>
        <time>2021-07-05T16:34:11</time>
      </trkpt>
      <trkpt lat="45.43006" lon="6.18317">
        <ele>1149.8204</ele>
        <time>2021-07-05T16:34:35</time>
      </trkpt>
      <trkpt lat="45.43007" lon="6.18314">
        <ele>1149.8204</ele>
        <time>2021-07-05T16:34:36</time>
      </trkpt>
      <trkpt lat="45.43009" lon="6.18307">
        <ele>1149.8204</ele>
        <time>2021-07-05T16:34:50</time>
      </trkpt>
      <trkpt lat="45.43008" lon="6.18307">
        <ele>1149.8204</ele>
        <time>2021-07-05T16:34:51</time>
      </trkpt>
      <trkpt lat="45.43006" lon="6.18308">
        <ele>1149.8204</ele>
        <time>2021-07-05T16:34:54</time>
      </trkpt>
      <trkpt lat="45.43006" lon="6.18308">
        <ele>1149.8204</ele>
        <time>2021-07-05T16:34:55</time>
      </trkpt>
      <trkpt lat="45.43006" lon="6.183">
        <ele>1149.8204</ele>
        <time>2021-07-05T16:35:05</time>
      </trkpt>
    </trkseg>
  </trk>
</gpx>